
Distance (Route):
Temperature : 0°C
Humidity : 0%
Pressure : 0hPa| Receiver | Frames | First received | Last received |
|---|---|---|---|
| SQ6EMJ | 505 | 2026-09-03 23:28:28 | 2026-09-04 01:35:56 |
| POL1PZ | 370 | 2026-09-03 23:31:49 | 2026-09-04 01:57:39 |
| PETON7-10 | 249 | 2026-09-04 00:00:08 | 2026-09-04 01:37:50 |
| OE5MMP-10 | 93 | 2026-09-04 00:06:14 | 2026-09-04 01:04:59 |
| SP6BVK | 84 | 2026-09-04 01:05:00 | 2026-09-04 01:45:24 |
| OE5DRO-10 | 79 | 2026-09-04 00:12:25 | 2026-09-04 01:19:38 |
| OM5KV | 67 | 2026-09-04 01:17:51 | 2026-09-04 01:31:07 |
| SP3BTT-10 | 55 | 2026-09-03 23:45:47 | 2026-09-04 01:05:32 |
| PG1ADW-2 | 45 | 2026-09-04 00:10:31 | 2026-09-04 01:14:05 |
| OK1ALN | 42 | 2026-09-03 23:48:17 | 2026-09-04 01:32:35 |
| S52SK | 25 | 2026-09-04 00:14:18 | 2026-09-04 01:12:50 |
| KRY50SP | 23 | 2026-09-04 01:19:08 | 2026-09-04 01:23:22 |
| POL2MAQ | 21 | 2026-09-04 01:50:35 | 2026-09-04 01:58:16 |
| SP4MAZ | 10 | 2026-09-04 00:40:54 | 2026-09-04 01:09:36 |
| DB0UT-7 | 8 | 2026-09-04 00:49:57 | 2026-09-04 01:05:23 |
| OE3JTB-15 | 5 | 2026-09-04 01:37:18 | 2026-09-04 01:52:13 |
| OK1SLM-15 | 3 | 2026-09-04 01:12:11 | 2026-09-04 01:12:22 |
| SQ9EZE-14 | 1 | 2026-09-04 00:22:46 | 2026-09-04 00:22:46 |
| Receiver | Date | Latitude | Longitude | Direction | Speed | Altitude | Climb | Temperature | Humidity | Pressure | Voltage | Killtimer | Uptime | BKT | XDATA |
|---|---|---|---|---|---|---|---|---|---|---|---|---|---|---|---|
| POL2MAQ | 2026-09-04 01:58:16 | 50.10658 | 18.43550 | 70° | 29km/h | 449m | -6.8m/s | 0°C | 0% | 0hPa | 0V | 00:00:00 | 00:00:00 | 00:00:00 | |
| POL2MAQ | 2026-09-04 01:57:49 | 50.10643 | 18.43240 | 96° | 31km/h | 652m | -6.2m/s | 0°C | 0% | 0hPa | 0V | 00:00:00 | 00:00:00 | 00:00:00 | |
| POL1PZ | 2026-09-04 01:57:39 | 50.10664 | 18.43119 | 108° | 35km/h | 728m | -6.7m/s | 0°C | 0% | 0hPa | 0V | 00:00:00 | 00:00:00 | 00:00:00 | |
| POL2MAQ | 2026-09-04 01:57:29 | 50.10690 | 18.42985 | 109° | 38km/h | 801m | -7.7m/s | 0°C | 0% | 0hPa | 0V | 00:00:00 | 00:00:00 | 00:00:00 | |
| POL1PZ | 2026-09-04 01:57:12 | 50.10745 | 18.42751 | 116° | 42km/h | 933m | -9.2m/s | 0°C | 0% | 0hPa | 0V | 00:00:00 | 00:00:00 | 00:00:00 | |
| POL2MAQ | 2026-09-04 01:57:09 | 50.10757 | 18.42710 | 115° | 38km/h | 956m | -6.7m/s | 0°C | 0% | 0hPa | 0V | 00:00:00 | 00:00:00 | 00:00:00 | |
| POL1PZ | 2026-09-04 01:56:50 | 50.10829 | 18.42473 | 118° | 31km/h | 1118m | -7.2m/s | 0°C | 0% | 0hPa | 0V | 00:00:00 | 00:00:00 | 00:00:00 | |
| POL2MAQ | 2026-09-04 01:56:48 | 50.10836 | 18.42452 | 119° | 31km/h | 1134m | -7.2m/s | 0°C | 0% | 0hPa | 0V | 00:00:00 | 00:00:00 | 00:00:00 | |
| POL1PZ | 2026-09-04 01:56:28 | 50.10917 | 18.42219 | 120° | 38km/h | 1296m | -8.4m/s | 0°C | 0% | 0hPa | 0V | 00:00:00 | 00:00:00 | 00:00:00 | |
| POL2MAQ | 2026-09-04 01:56:27 | 50.10921 | 18.42206 | 119° | 38km/h | 1304m | -6.6m/s | 0°C | 0% | 0hPa | 0V | 00:00:00 | 00:00:00 | 00:00:00 | |
| POL1PZ | 2026-09-04 01:56:07 | 50.11019 | 18.41935 | 123° | 42km/h | 1455m | -8.1m/s | 0°C | 0% | 0hPa | 0V | 00:00:00 | 00:00:00 | 00:00:00 | |
| POL2MAQ | 2026-09-04 01:56:07 | 50.11019 | 18.41935 | 123° | 42km/h | 1455m | -8.1m/s | 0°C | 0% | 0hPa | 0V | 00:00:00 | 00:00:00 | 00:00:00 | |
| POL2MAQ | 2026-09-04 01:55:47 | 50.11129 | 18.41659 | 124° | 44km/h | 1615m | -8.0m/s | 0°C | 0% | 0hPa | 0V | 00:00:00 | 00:00:00 | 00:00:00 | |
| POL1PZ | 2026-09-04 01:55:46 | 50.11135 | 18.41645 | 122° | 42km/h | 1623m | -7.5m/s | 0°C | 0% | 0hPa | 0V | 00:00:00 | 00:00:00 | 00:00:00 | |
| POL2MAQ | 2026-09-04 01:55:26 | 50.11251 | 18.41370 | 126° | 42km/h | 1784m | -8.8m/s | 0°C | 0% | 0hPa | 0V | 00:00:00 | 00:00:00 | 00:00:00 | |
| POL1PZ | 2026-09-04 01:55:26 | 50.11251 | 18.41370 | 126° | 42km/h | 1784m | -8.8m/s | 0°C | 0% | 0hPa | 0V | 00:00:00 | 00:00:00 | 00:00:00 | |
| POL1PZ | 2026-09-04 01:55:06 | 50.11366 | 18.41098 | 124° | 42km/h | 1946m | -6.6m/s | 0°C | 0% | 0hPa | 0V | 00:00:00 | 00:00:00 | 00:00:00 | |
| POL2MAQ | 2026-09-04 01:55:05 | 50.11371 | 18.41084 | 122° | 44km/h | 1954m | -7.7m/s | 0°C | 0% | 0hPa | 0V | 00:00:00 | 00:00:00 | 00:00:00 | |
| POL1PZ | 2026-09-04 01:54:45 | 50.11467 | 18.40801 | 115° | 40km/h | 2104m | -7.7m/s | 0°C | 0% | 0hPa | 0V | 00:00:00 | 00:00:00 | 00:00:00 | |
| POL2MAQ | 2026-09-04 01:54:44 | 50.11471 | 18.40788 | 119° | 40km/h | 2112m | -8.0m/s | 0°C | 0% | 0hPa | 0V | 00:00:00 | 00:00:00 | 00:00:00 | |
| POL2MAQ | 2026-09-04 01:54:24 | 50.11557 | 18.40496 | 114° | 40km/h | 2279m | -7.1m/s | 0°C | 0% | 0hPa | 0V | 00:00:00 | 00:00:00 | 00:00:00 | |
| POL1PZ | 2026-09-04 01:54:03 | 50.11650 | 18.40186 | 118° | 40km/h | 2444m | -8.8m/s | 0°C | 0% | 0hPa | 0V | 00:00:00 | 00:00:00 | 00:00:00 | |
| POL1PZ | 2026-09-04 01:53:42 | 50.11749 | 18.39855 | 116° | 51km/h | 2608m | -7.9m/s | 0°C | 0% | 0hPa | 0V | 00:00:00 | 00:00:00 | 00:00:00 | |
| POL1PZ | 2026-09-04 01:53:22 | 50.11834 | 18.39463 | 110° | 53km/h | 2763m | -7.2m/s | 0°C | 0% | 0hPa | 0V | 00:00:00 | 00:00:00 | 00:00:00 | |
| POL2MAQ | 2026-09-04 01:53:21 | 50.11838 | 18.39443 | 109° | 53km/h | 2770m | -8.3m/s | 0°C | 0% | 0hPa | 0V | 00:00:00 | 00:00:00 | 00:00:00 | |
| POL1PZ | 2026-09-04 01:53:01 | 50.11927 | 18.39026 | 109° | 62km/h | 2945m | -6.5m/s | 0°C | 0% | 0hPa | 0V | 00:00:00 | 00:00:00 | 00:00:00 | |
| POL2MAQ | 2026-09-04 01:53:00 | 50.11932 | 18.39003 | 109° | 60km/h | 2954m | -9.4m/s | 0°C | 0% | 0hPa | 0V | 00:00:00 | 00:00:00 | 00:00:00 | |
| POL1PZ | 2026-09-04 01:52:41 | 50.12006 | 18.38585 | 104° | 57km/h | 3104m | -8.4m/s | 0°C | 0% | 0hPa | 0V | 00:00:00 | 00:00:00 | 00:00:00 | |
| POL2MAQ | 2026-09-04 01:52:40 | 50.12009 | 18.38563 | 100° | 58km/h | 3113m | -8.8m/s | 0°C | 0% | 0hPa | 0V | 00:00:00 | 00:00:00 | 00:00:00 | |
| POL1PZ | 2026-09-04 01:52:21 | 50.12059 | 18.38141 | 99° | 58km/h | 3265m | -8.5m/s | 0°C | 0% | 0hPa | 0V | 00:00:00 | 00:00:00 | 00:00:00 | |
| POL2MAQ | 2026-09-04 01:52:20 | 50.12061 | 18.38118 | 100° | 60km/h | 3274m | -7.7m/s | 0°C | 0% | 0hPa | 0V | 00:00:00 | 00:00:00 | 00:00:00 | |
| OE3JTB-15 | 2026-09-04 01:52:13 | 50.12076 | 18.37959 | 99° | 77km/h | 3337m | -7.2m/s | 0°C | 0% | 0hPa | 0V | 00:00:00 | 00:00:00 | 00:00:00 | |
| POL1PZ | 2026-09-04 01:52:01 | 50.12091 | 18.37679 | 94° | 58km/h | 3434m | -7.8m/s | 0°C | 0% | 0hPa | 0V | 00:00:00 | 00:00:00 | 00:00:00 | |
| POL2MAQ | 2026-09-04 01:51:59 | 50.12094 | 18.37634 | 97° | 58km/h | 3451m | -9.5m/s | 0°C | 0% | 0hPa | 0V | 00:00:00 | 00:00:00 | 00:00:00 | |
| POL1PZ | 2026-09-04 01:51:41 | 50.12127 | 18.37225 | 101° | 58km/h | 3588m | -8.3m/s | 0°C | 0% | 0hPa | 0V | 00:00:00 | 00:00:00 | 00:00:00 | |
| POL2MAQ | 2026-09-04 01:51:38 | 50.12134 | 18.37158 | 105° | 57km/h | 3613m | -9.1m/s | 0°C | 0% | 0hPa | 0V | 00:00:00 | 00:00:00 | 00:00:00 | |
| POL1PZ | 2026-09-04 01:51:20 | 50.12208 | 18.36771 | 109° | 55km/h | 3759m | -8.3m/s | 0°C | 0% | 0hPa | 0V | 00:00:00 | 00:00:00 | 00:00:00 | |
| POL2MAQ | 2026-09-04 01:51:17 | 50.12221 | 18.36707 | 112° | 57km/h | 3783m | -7.4m/s | 0°C | 0% | 0hPa | 0V | 00:00:00 | 00:00:00 | 00:00:00 | |
| POL1PZ | 2026-09-04 01:50:59 | 50.12305 | 18.36331 | 112° | 57km/h | 3919m | -7.6m/s | 0°C | 0% | 0hPa | 0V | 00:00:00 | 00:00:00 | 00:00:00 | |
| POL2MAQ | 2026-09-04 01:50:56 | 50.12319 | 18.36268 | 112° | 55km/h | 3942m | -8.0m/s | 0°C | 0% | 0hPa | 0V | 00:00:00 | 00:00:00 | 00:00:00 | |
| POL1PZ | 2026-09-04 01:50:38 | 50.12417 | 18.35866 | 109° | 62km/h | 4074m | -7.4m/s | 0°C | 0% | 0hPa | 0V | 00:00:00 | 00:00:00 | 00:00:00 | |
| POL2MAQ | 2026-09-04 01:50:35 | 50.12433 | 18.35795 | 110° | 62km/h | 4098m | -7.5m/s | 0°C | 0% | 0hPa | 0V | 00:00:00 | 00:00:00 | 00:00:00 | |
| POL1PZ | 2026-09-04 01:50:18 | 50.12518 | 18.35404 | 112° | 60km/h | 4226m | -6.6m/s | 0°C | 0% | 0hPa | 0V | 00:00:00 | 00:00:00 | 00:00:00 | |
| POL1PZ | 2026-09-04 01:49:58 | 50.12628 | 18.34964 | 112° | 58km/h | 4386m | -9.0m/s | 0°C | 0% | 0hPa | 0V | 00:00:00 | 00:00:00 | 00:00:00 | |
| POL1PZ | 2026-09-04 01:49:38 | 50.12738 | 18.34516 | 114° | 62km/h | 4537m | -7.2m/s | 0°C | 0% | 0hPa | 0V | 00:00:00 | 00:00:00 | 00:00:00 | |
| POL1PZ | 2026-09-04 01:49:17 | 50.12869 | 18.34043 | 115° | 66km/h | 4686m | -7.1m/s | 0°C | 0% | 0hPa | 0V | 00:00:00 | 00:00:00 | 00:00:00 | |
| POL1PZ | 2026-09-04 01:48:56 | 50.13011 | 18.33567 | 118° | 62km/h | 4830m | -6.6m/s | 0°C | 0% | 0hPa | 0V | 00:00:00 | 00:00:00 | 00:00:00 | |
| POL1PZ | 2026-09-04 01:48:36 | 50.13166 | 18.33138 | 125° | 66km/h | 4971m | -7.1m/s | 0°C | 0% | 0hPa | 0V | 00:00:00 | 00:00:00 | 00:00:00 | |
| POL1PZ | 2026-09-04 01:48:15 | 50.13366 | 18.32682 | 127° | 69km/h | 5121m | -7.2m/s | 0°C | 0% | 0hPa | 0V | 00:00:00 | 00:00:00 | 00:00:00 | |
| POL1PZ | 2026-09-04 01:47:54 | 50.13582 | 18.32193 | 125° | 73km/h | 5287m | -7.3m/s | 0°C | 0% | 0hPa | 0V | 00:00:00 | 00:00:00 | 00:00:00 | |
| POL1PZ | 2026-09-04 01:47:34 | 50.13801 | 18.31728 | 129° | 73km/h | 5398m | -6.5m/s | 0°C | 0% | 0hPa | 0V | 00:00:00 | 00:00:00 | 00:00:00 | |
| POL1PZ | 2026-09-04 01:47:13 | 50.14045 | 18.31241 | 128° | 82km/h | 5539m | -7.4m/s | 0°C | 0% | 0hPa | 0V | 00:00:00 | 00:00:00 | 00:00:00 | |
| POL1PZ | 2026-09-04 01:46:52 | 50.14342 | 18.30717 | 133° | 91km/h | 5699m | -7.7m/s | 0°C | 0% | 0hPa | 0V | 00:00:00 | 00:00:00 | 00:00:00 | |
| POL1PZ | 2026-09-04 01:46:31 | 50.14680 | 18.30155 | 132° | 93km/h | 5872m | -5.6m/s | 0°C | 0% | 0hPa | 0V | 00:00:00 | 00:00:00 | 00:00:00 | |
| POL1PZ | 2026-09-04 01:46:11 | 50.15015 | 18.29597 | 134° | 99km/h | 6001m | -8.0m/s | 0°C | 0% | 0hPa | 0V | 00:00:00 | 00:00:00 | 00:00:00 | |
| POL1PZ | 2026-09-04 01:45:51 | 50.15376 | 18.29039 | 137° | 104km/h | 6134m | -4.7m/s | 0°C | 0% | 0hPa | 0V | 00:00:00 | 00:00:00 | 00:00:00 | |
| POL1PZ | 2026-09-04 01:45:30 | 50.15780 | 18.28419 | 137° | 108km/h | 6281m | -9.9m/s | 0°C | 0% | 0hPa | 0V | 00:00:00 | 00:00:00 | 00:00:00 | |
| SP6BVK | 2026-09-04 01:45:24 | 50.15899 | 18.28240 | 138° | 113km/h | 6332m | -8.4m/s | 0°C | 0% | 0hPa | 0V | 00:00:00 | 00:00:00 | 00:00:00 | |
| POL1PZ | 2026-09-04 01:45:09 | 50.16199 | 18.27782 | 137° | 111km/h | 6444m | -5.8m/s | 0°C | 0% | 0hPa | 0V | 00:00:00 | 00:00:00 | 00:00:00 | |
| POL1PZ | 2026-09-04 01:44:49 | 50.16611 | 18.27184 | 139° | 113km/h | 6570m | -5.7m/s | 0°C | 0% | 0hPa | 0V | 00:00:00 | 00:00:00 | 00:00:00 | |
| POL1PZ | 2026-09-04 01:44:28 | 50.17062 | 18.26561 | 139° | 115km/h | 6717m | -6.1m/s | 0°C | 0% | 0hPa | 0V | 00:00:00 | 00:00:00 | 00:00:00 | |
| OE3JTB-15 | 2026-09-04 01:44:19 | 50.17261 | 18.26290 | 138° | 115km/h | 6784m | -6.5m/s | 0°C | 0% | 0hPa | 0V | 00:00:00 | 00:00:00 | 00:00:00 | |
| POL1PZ | 2026-09-04 01:44:08 | 50.17500 | 18.25947 | 138° | 120km/h | 6861m | -7.2m/s | 0°C | 0% | 0hPa | 0V | 00:00:00 | 00:00:00 | 00:00:00 | |
| POL1PZ | 2026-09-04 01:43:48 | 50.17932 | 18.25319 | 138° | 115km/h | 6983m | -5.7m/s | 0°C | 0% | 0hPa | 0V | 00:00:00 | 00:00:00 | 00:00:00 | |
| POL1PZ | 2026-09-04 01:43:28 | 50.18367 | 18.24719 | 141° | 113km/h | 7102m | -6.5m/s | 0°C | 0% | 0hPa | 0V | 00:00:00 | 00:00:00 | 00:00:00 | |
| POL1PZ | 2026-09-04 01:43:07 | 50.18827 | 18.24139 | 143° | 111km/h | 7241m | -6.8m/s | 0°C | 0% | 0hPa | 0V | 00:00:00 | 00:00:00 | 00:00:00 | |
| OE3JTB-15 | 2026-09-04 01:42:50 | 50.19204 | 18.23672 | 141° | 122km/h | 7355m | -7.0m/s | 0°C | 0% | 0hPa | 0V | 00:00:00 | 00:00:00 | 00:00:00 | |
| POL1PZ | 2026-09-04 01:42:47 | 50.19269 | 18.23585 | 140° | 115km/h | 7376m | -7.1m/s | 0°C | 0% | 0hPa | 0V | 00:00:00 | 00:00:00 | 00:00:00 | |
| POL1PZ | 2026-09-04 01:42:26 | 50.19746 | 18.22988 | 142° | 117km/h | 7520m | -6.4m/s | 0°C | 0% | 0hPa | 0V | 00:00:00 | 00:00:00 | 00:00:00 | |
| POL1PZ | 2026-09-04 01:42:05 | 50.20237 | 18.22400 | 144° | 119km/h | 7663m | -6.8m/s | 0°C | 0% | 0hPa | 0V | 00:00:00 | 00:00:00 | 00:00:00 | |
| POL1PZ | 2026-09-04 01:41:45 | 50.20727 | 18.21822 | 143° | 122km/h | 7800m | -6.9m/s | 0°C | 0% | 0hPa | 0V | 00:00:00 | 00:00:00 | 00:00:00 | |
| SP6BVK | 2026-09-04 01:41:34 | 50.21003 | 18.21500 | 144° | 128km/h | 7875m | -7.1m/s | 0°C | 0% | 0hPa | 0V | 00:00:00 | 00:00:00 | 00:00:00 | |
| POL1PZ | 2026-09-04 01:41:24 | 50.21253 | 18.21202 | 144° | 128km/h | 7946m | -7.4m/s | 0°C | 0% | 0hPa | 0V | 00:00:00 | 00:00:00 | 00:00:00 | |
| SP6BVK | 2026-09-04 01:41:08 | 50.21660 | 18.20717 | 143° | 128km/h | 8056m | -6.7m/s | 0°C | 0% | 0hPa | 0V | 00:00:00 | 00:00:00 | 00:00:00 | |
| POL1PZ | 2026-09-04 01:41:04 | 50.21761 | 18.20594 | 143° | 128km/h | 8082m | -7.1m/s | 0°C | 0% | 0hPa | 0V | 00:00:00 | 00:00:00 | 00:00:00 | |
| SP6BVK | 2026-09-04 01:40:45 | 50.22230 | 18.19991 | 142° | 126km/h | 8214m | -7.3m/s | 0°C | 0% | 0hPa | 0V | 00:00:00 | 00:00:00 | 00:00:00 | |
| POL1PZ | 2026-09-04 01:40:43 | 50.22280 | 18.19928 | 142° | 128km/h | 8228m | -6.3m/s | 0°C | 0% | 0hPa | 0V | 00:00:00 | 00:00:00 | 00:00:00 | |
| SP6BVK | 2026-09-04 01:40:25 | 50.22729 | 18.19349 | 141° | 130km/h | 8353m | -6.9m/s | 0°C | 0% | 0hPa | 0V | 00:00:00 | 00:00:00 | 00:00:00 | |
| POL1PZ | 2026-09-04 01:40:23 | 50.22779 | 18.19284 | 142° | 128km/h | 8366m | -6.4m/s | 0°C | 0% | 0hPa | 0V | 00:00:00 | 00:00:00 | 00:00:00 | |
| SP6BVK | 2026-09-04 01:40:04 | 50.23267 | 18.18674 | 142° | 133km/h | 8497m | -7.5m/s | 0°C | 0% | 0hPa | 0V | 00:00:00 | 00:00:00 | 00:00:00 | |
| POL1PZ | 2026-09-04 01:40:02 | 50.23319 | 18.18607 | 141° | 131km/h | 8512m | -7.0m/s | 0°C | 0% | 0hPa | 0V | 00:00:00 | 00:00:00 | 00:00:00 | |
| SP6BVK | 2026-09-04 01:39:43 | 50.23804 | 18.17995 | 143° | 130km/h | 8641m | -6.7m/s | 0°C | 0% | 0hPa | 0V | 00:00:00 | 00:00:00 | 00:00:00 | |
| POL1PZ | 2026-09-04 01:39:41 | 50.23856 | 18.17931 | 143° | 131km/h | 8655m | -7.4m/s | 0°C | 0% | 0hPa | 0V | 00:00:00 | 00:00:00 | 00:00:00 | |
| POL1PZ | 2026-09-04 01:39:21 | 50.24388 | 18.17297 | 144° | 135km/h | 8791m | -7.1m/s | 0°C | 0% | 0hPa | 0V | 00:00:00 | 00:00:00 | 00:00:00 | |
| SP6BVK | 2026-09-04 01:39:20 | 50.24416 | 18.17264 | 143° | 135km/h | 8798m | -6.8m/s | 0°C | 0% | 0hPa | 0V | 00:00:00 | 00:00:00 | 00:00:00 | |
| POL1PZ | 2026-09-04 01:39:00 | 50.24984 | 18.16617 | 146° | 144km/h | 8936m | -6.5m/s | 0°C | 0% | 0hPa | 0V | 00:00:00 | 00:00:00 | 00:00:00 | |
| SP6BVK | 2026-09-04 01:38:59 | 50.25014 | 18.16584 | 146° | 144km/h | 8943m | -6.6m/s | 0°C | 0% | 0hPa | 0V | 00:00:00 | 00:00:00 | 00:00:00 | |
| POL1PZ | 2026-09-04 01:38:39 | 50.25634 | 18.15924 | 147° | 153km/h | 9082m | -6.7m/s | 0°C | 0% | 0hPa | 0V | 00:00:00 | 00:00:00 | 00:00:00 | |
| POL1PZ | 2026-09-04 01:38:18 | 50.26314 | 18.15217 | 148° | 153km/h | 9228m | -7.1m/s | 0°C | 0% | 0hPa | 0V | 00:00:00 | 00:00:00 | 00:00:00 | |
| OE3JTB-15 | 2026-09-04 01:38:12 | 50.26510 | 18.15015 | 147° | 157km/h | 9270m | -7.4m/s | 0°C | 0% | 0hPa | 0V | 00:00:00 | 00:00:00 | 00:00:00 | |
| SP6BVK | 2026-09-04 01:38:10 | 50.26575 | 18.14948 | 148° | 155km/h | 9285m | -7.0m/s | 0°C | 0% | 0hPa | 0V | 00:00:00 | 00:00:00 | 00:00:00 | |
| POL1PZ | 2026-09-04 01:37:57 | 50.27002 | 18.14510 | 148° | 153km/h | 9378m | -7.1m/s | 0°C | 0% | 0hPa | 0V | 00:00:00 | 00:00:00 | 00:00:00 | |
| PETON7-10 | 2026-09-04 01:37:50 | 50.27235 | 18.14281 | 147° | 157km/h | 9429m | -6.8m/s | 0°C | 0% | 0hPa | 0V | 00:00:00 | 00:00:00 | 00:00:00 | |
| SP6BVK | 2026-09-04 01:37:43 | 50.27467 | 18.14055 | 150° | 155km/h | 9480m | -7.8m/s | 0°C | 0% | 0hPa | 0V | 00:00:00 | 00:00:00 | 00:00:00 | |
| POL1PZ | 2026-09-04 01:37:37 | 50.27669 | 18.13871 | 151° | 157km/h | 9524m | -7.6m/s | 0°C | 0% | 0hPa | 0V | 00:00:00 | 00:00:00 | 00:00:00 | |
| PETON7-10 | 2026-09-04 01:37:28 | 50.27976 | 18.13581 | 149° | 155km/h | 9589m | -7.1m/s | 0°C | 0% | 0hPa | 0V | 00:00:00 | 00:00:00 | 00:00:00 | |
| SP6BVK | 2026-09-04 01:37:22 | 50.28178 | 18.13396 | 151° | 159km/h | 9633m | -7.1m/s | 0°C | 0% | 0hPa | 0V | 00:00:00 | 00:00:00 | 00:00:00 | |
| OE3JTB-15 | 2026-09-04 01:37:18 | 50.28314 | 18.13266 | 148° | 157km/h | 9662m | -7.1m/s | 0°C | 0% | 0hPa | 0V | 00:00:00 | 00:00:00 | 00:00:00 | |
| POL1PZ | 2026-09-04 01:37:16 | 50.28380 | 18.13202 | 150° | 151km/h | 9676m | -7.2m/s | 0°C | 0% | 0hPa | 0V | 00:00:00 | 00:00:00 | 00:00:00 | |
| PETON7-10 | 2026-09-04 01:37:11 | 50.28546 | 18.13052 | 151° | 155km/h | 9712m | -7.2m/s | 0°C | 0% | 0hPa | 0V | 00:00:00 | 00:00:00 | 00:00:00 | |
| SP6BVK | 2026-09-04 01:37:02 | 50.28852 | 18.12770 | 151° | 157km/h | 9776m | -7.3m/s | 0°C | 0% | 0hPa | 0V | 00:00:00 | 00:00:00 | 00:00:00 | |
| POL1PZ | 2026-09-04 01:36:56 | 50.29058 | 18.12590 | 152° | 153km/h | 9820m | -7.2m/s | 0°C | 0% | 0hPa | 0V | 00:00:00 | 00:00:00 | 00:00:00 | |
| PETON7-10 | 2026-09-04 01:36:45 | 50.29428 | 18.12252 | 151° | 153km/h | 9898m | -6.8m/s | 0°C | 0% | 0hPa | 0V | 00:00:00 | 00:00:00 | 00:00:00 | |
| SP6BVK | 2026-09-04 01:36:41 | 50.29562 | 18.12131 | 150° | 151km/h | 9927m | -7.5m/s | 0°C | 0% | 0hPa | 0V | 00:00:00 | 00:00:00 | 00:00:00 | |
| POL1PZ | 2026-09-04 01:36:35 | 50.29763 | 18.11936 | 151° | 159km/h | 9971m | -7.6m/s | 0°C | 0% | 0hPa | 0V | 00:00:00 | 00:00:00 | 00:00:00 | |
| SP6BVK | 2026-09-04 01:36:20 | 50.30266 | 18.11465 | 149° | 153km/h | 10086m | -7.0m/s | 0°C | 0% | 0hPa | 0V | 00:00:00 | 00:00:00 | 00:00:00 | |
| PETON7-10 | 2026-09-04 01:36:17 | 50.30365 | 18.11369 | 149° | 157km/h | 10108m | -6.6m/s | 0°C | 0% | 0hPa | 0V | 00:00:00 | 00:00:00 | 00:00:00 | |
| POL1PZ | 2026-09-04 01:36:14 | 50.30468 | 18.11271 | 150° | 161km/h | 10130m | -7.5m/s | 0°C | 0% | 0hPa | 0V | 00:00:00 | 00:00:00 | 00:00:00 | |
| PETON7-10 | 2026-09-04 01:35:58 | 50.31015 | 18.10764 | 150° | 161km/h | 10248m | -7.2m/s | 0°C | 0% | 0hPa | 0V | 00:00:00 | 00:00:00 | 00:00:00 | |
| SQ6EMJ | 2026-09-04 01:35:56 | 50.31084 | 18.10700 | 150° | 159km/h | 10265m | -8.9m/s | 0°C | 0% | 0hPa | 0V | 00:00:00 | 00:00:00 | 00:00:00 | |
| POL1PZ | 2026-09-04 01:35:54 | 50.31153 | 18.10634 | 149° | 159km/h | 10283m | -8.6m/s | 0°C | 0% | 0hPa | 0V | 00:00:00 | 00:00:00 | 00:00:00 | |
| SQ6EMJ | 2026-09-04 01:35:50 | 50.31291 | 18.10503 | 150° | 161km/h | 10314m | -9.4m/s | 0°C | 0% | 0hPa | 0V | 00:00:00 | 00:00:00 | 00:00:00 | |
| SP6BVK | 2026-09-04 01:35:38 | 50.31712 | 18.10128 | 152° | 159km/h | 10417m | -7.7m/s | 0°C | 0% | 0hPa | 0V | 00:00:00 | 00:00:00 | 00:00:00 | |
| POL1PZ | 2026-09-04 01:35:33 | 50.31886 | 18.09974 | 152° | 157km/h | 10458m | -8.4m/s | 0°C | 0% | 0hPa | 0V | 00:00:00 | 00:00:00 | 00:00:00 | |
| SQ6EMJ | 2026-09-04 01:35:21 | 50.32314 | 18.09612 | 153° | 161km/h | 10554m | -5.2m/s | 0°C | 0% | 0hPa | 0V | 00:00:00 | 00:00:00 | 00:00:00 | |
| SP6BVK | 2026-09-04 01:35:17 | 50.32456 | 18.09493 | 153° | 159km/h | 10575m | -6.0m/s | 0°C | 0% | 0hPa | 0V | 00:00:00 | 00:00:00 | 00:00:00 | |
| SQ6EMJ | 2026-09-04 01:35:16 | 50.32492 | 18.09463 | 153° | 157km/h | 10581m | -5.8m/s | 0°C | 0% | 0hPa | 0V | 00:00:00 | 00:00:00 | 00:00:00 | |
| POL1PZ | 2026-09-04 01:35:12 | 50.32632 | 18.09345 | 152° | 159km/h | 10604m | -5.4m/s | 0°C | 0% | 0hPa | 0V | 00:00:00 | 00:00:00 | 00:00:00 | |
| SQ6EMJ | 2026-09-04 01:35:09 | 50.32738 | 18.09253 | 153° | 161km/h | 10623m | -7.4m/s | 0°C | 0% | 0hPa | 0V | 00:00:00 | 00:00:00 | 00:00:00 | |
| SQ6EMJ | 2026-09-04 01:35:04 | 50.32917 | 18.09108 | 153° | 157km/h | 10659m | -7.6m/s | 0°C | 0% | 0hPa | 0V | 00:00:00 | 00:00:00 | 00:00:00 | |
| SP6BVK | 2026-09-04 01:34:57 | 50.33168 | 18.08906 | 155° | 159km/h | 10714m | -9.0m/s | 0°C | 0% | 0hPa | 0V | 00:00:00 | 00:00:00 | 00:00:00 | |
| POL1PZ | 2026-09-04 01:34:51 | 50.33384 | 18.08737 | 155° | 161km/h | 10765m | -6.5m/s | 0°C | 0% | 0hPa | 0V | 00:00:00 | 00:00:00 | 00:00:00 | |
| SP6BVK | 2026-09-04 01:34:36 | 50.33927 | 18.08319 | 154° | 159km/h | 10860m | -5.5m/s | 0°C | 0% | 0hPa | 0V | 00:00:00 | 00:00:00 | 00:00:00 | |
| POL1PZ | 2026-09-04 01:34:31 | 50.34109 | 18.08179 | 155° | 159km/h | 10887m | -5.2m/s | 0°C | 0% | 0hPa | 0V | 00:00:00 | 00:00:00 | 00:00:00 | |
| SQ6EMJ | 2026-09-04 01:34:29 | 50.34181 | 18.08122 | 154° | 161km/h | 10897m | -5.6m/s | 0°C | 0% | 0hPa | 0V | 00:00:00 | 00:00:00 | 00:00:00 | |
| SQ6EMJ | 2026-09-04 01:34:24 | 50.34363 | 18.07981 | 154° | 161km/h | 10923m | -5.6m/s | 0°C | 0% | 0hPa | 0V | 00:00:00 | 00:00:00 | 00:00:00 | |
| SQ6EMJ | 2026-09-04 01:34:18 | 50.34580 | 18.07812 | 154° | 159km/h | 10959m | -6.7m/s | 0°C | 0% | 0hPa | 0V | 00:00:00 | 00:00:00 | 00:00:00 | |
| SP6BVK | 2026-09-04 01:34:15 | 50.34689 | 18.07726 | 155° | 162km/h | 10980m | -7.3m/s | 0°C | 0% | 0hPa | 0V | 00:00:00 | 00:00:00 | 00:00:00 | |
| SQ6EMJ | 2026-09-04 01:34:12 | 50.34798 | 18.07642 | 154° | 159km/h | 11002m | -7.2m/s | 0°C | 0% | 0hPa | 0V | 00:00:00 | 00:00:00 | 00:00:00 | |
| POL1PZ | 2026-09-04 01:34:10 | 50.34870 | 18.07585 | 154° | 161km/h | 11017m | -7.5m/s | 0°C | 0% | 0hPa | 0V | 00:00:00 | 00:00:00 | 00:00:00 | |
| SQ6EMJ | 2026-09-04 01:34:06 | 50.35018 | 18.07471 | 156° | 162km/h | 11048m | -8.2m/s | 0°C | 0% | 0hPa | 0V | 00:00:00 | 00:00:00 | 00:00:00 | |
| SQ6EMJ | 2026-09-04 01:34:00 | 50.35238 | 18.07302 | 155° | 164km/h | 11098m | -8.6m/s | 0°C | 0% | 0hPa | 0V | 00:00:00 | 00:00:00 | 00:00:00 | |
| SQ6EMJ | 2026-09-04 01:33:55 | 50.35421 | 18.07165 | 154° | 161km/h | 11141m | -8.5m/s | 0°C | 0% | 0hPa | 0V | 00:00:00 | 00:00:00 | 00:00:00 | |
| SP6BVK | 2026-09-04 01:33:54 | 50.35457 | 18.07136 | 154° | 162km/h | 11150m | -8.5m/s | 0°C | 0% | 0hPa | 0V | 00:00:00 | 00:00:00 | 00:00:00 | |
| PETON7-10 | 2026-09-04 01:33:52 | 50.35532 | 18.07079 | 155° | 166km/h | 11167m | -8.3m/s | 0°C | 0% | 0hPa | 0V | 00:00:00 | 00:00:00 | 00:00:00 | |
| POL1PZ | 2026-09-04 01:33:50 | 50.35607 | 18.07024 | 156° | 164km/h | 11183m | -8.2m/s | 0°C | 0% | 0hPa | 0V | 00:00:00 | 00:00:00 | 00:00:00 | |
| SQ6EMJ | 2026-09-04 01:33:49 | 50.35645 | 18.06997 | 157° | 162km/h | 11192m | -8.3m/s | 0°C | 0% | 0hPa | 0V | 00:00:00 | 00:00:00 | 00:00:00 | |
| SQ6EMJ | 2026-09-04 01:33:43 | 50.35867 | 18.06831 | 155° | 166km/h | 11242m | -8.5m/s | 0°C | 0% | 0hPa | 0V | 00:00:00 | 00:00:00 | 00:00:00 | |
| SQ6EMJ | 2026-09-04 01:33:38 | 50.36060 | 18.06693 | 157° | 166km/h | 11286m | -9.2m/s | 0°C | 0% | 0hPa | 0V | 00:00:00 | 00:00:00 | 00:00:00 | |
| SP6BVK | 2026-09-04 01:33:34 | 50.36211 | 18.06588 | 156° | 166km/h | 11321m | -8.4m/s | 0°C | 0% | 0hPa | 0V | 00:00:00 | 00:00:00 | 00:00:00 | |
| SQ6EMJ | 2026-09-04 01:33:32 | 50.36288 | 18.06533 | 157° | 170km/h | 11338m | -8.5m/s | 0°C | 0% | 0hPa | 0V | 00:00:00 | 00:00:00 | 00:00:00 | |
| POL1PZ | 2026-09-04 01:33:29 | 50.36407 | 18.06454 | 159° | 168km/h | 11364m | -8.4m/s | 0°C | 0% | 0hPa | 0V | 00:00:00 | 00:00:00 | 00:00:00 | |
| SQ6EMJ | 2026-09-04 01:33:27 | 50.36485 | 18.06404 | 159° | 166km/h | 11382m | -8.6m/s | 0°C | 0% | 0hPa | 0V | 00:00:00 | 00:00:00 | 00:00:00 | |
| SQ6EMJ | 2026-09-04 01:33:22 | 50.36677 | 18.06281 | 158° | 164km/h | 11426m | -8.9m/s | 0°C | 0% | 0hPa | 0V | 00:00:00 | 00:00:00 | 00:00:00 | |
| SQ6EMJ | 2026-09-04 01:33:16 | 50.36912 | 18.06123 | 159° | 170km/h | 11482m | -9.4m/s | 0°C | 0% | 0hPa | 0V | 00:00:00 | 00:00:00 | 00:00:00 | |
| SP6BVK | 2026-09-04 01:33:13 | 50.37031 | 18.06049 | 159° | 166km/h | 11509m | -9.4m/s | 0°C | 0% | 0hPa | 0V | 00:00:00 | 00:00:00 | 00:00:00 | |
| SQ6EMJ | 2026-09-04 01:33:11 | 50.37108 | 18.05999 | 158° | 164km/h | 11528m | -9.4m/s | 0°C | 0% | 0hPa | 0V | 00:00:00 | 00:00:00 | 00:00:00 | |
| POL1PZ | 2026-09-04 01:33:09 | 50.37185 | 18.05948 | 157° | 166km/h | 11546m | -9.3m/s | 0°C | 0% | 0hPa | 0V | 00:00:00 | 00:00:00 | 00:00:00 | |
| SQ6EMJ | 2026-09-04 01:33:04 | 50.37380 | 18.05812 | 157° | 172km/h | 11594m | -9.2m/s | 0°C | 0% | 0hPa | 0V | 00:00:00 | 00:00:00 | 00:00:00 | |
| PETON7-10 | 2026-09-04 01:33:03 | 50.37420 | 18.05785 | 157° | 168km/h | 11603m | -9.4m/s | 0°C | 0% | 0hPa | 0V | 00:00:00 | 00:00:00 | 00:00:00 | |
| SQ6EMJ | 2026-09-04 01:32:59 | 50.37579 | 18.05682 | 159° | 166km/h | 11641m | -9.3m/s | 0°C | 0% | 0hPa | 0V | 00:00:00 | 00:00:00 | 00:00:00 | |
| SQ6EMJ | 2026-09-04 01:32:54 | 50.37772 | 18.05552 | 157° | 170km/h | 11688m | -9.2m/s | 0°C | 0% | 0hPa | 0V | 00:00:00 | 00:00:00 | 00:00:00 | |
| SP6BVK | 2026-09-04 01:32:53 | 50.37812 | 18.05525 | 157° | 170km/h | 11698m | -9.4m/s | 0°C | 0% | 0hPa | 0V | 00:00:00 | 00:00:00 | 00:00:00 | |
| POL1PZ | 2026-09-04 01:32:48 | 50.38011 | 18.05397 | 160° | 168km/h | 11745m | -9.4m/s | 0°C | 0% | 0hPa | 0V | 00:00:00 | 00:00:00 | 00:00:00 | |
| PETON7-10 | 2026-09-04 01:32:45 | 50.38129 | 18.05326 | 159° | 172km/h | 11774m | -9.4m/s | 0°C | 0% | 0hPa | 0V | 00:00:00 | 00:00:00 | 00:00:00 | |
| SQ6EMJ | 2026-09-04 01:32:37 | 50.38449 | 18.05134 | 162° | 170km/h | 11846m | -8.9m/s | 0°C | 0% | 0hPa | 0V | 00:00:00 | 00:00:00 | 00:00:00 | |
| OK1ALN | 2026-09-04 01:32:35 | 50.38530 | 18.05090 | 162° | 168km/h | 11864m | -9.1m/s | 0°C | 0% | 0hPa | 0V | 00:00:00 | 00:00:00 | 00:00:00 | |
| SP6BVK | 2026-09-04 01:32:32 | 50.38650 | 18.05021 | 160° | 172km/h | 11892m | -9.0m/s | 0°C | 0% | 0hPa | 0V | 00:00:00 | 00:00:00 | 00:00:00 | |
| PETON7-10 | 2026-09-04 01:32:28 | 50.38814 | 18.04925 | 161° | 175km/h | 11928m | -8.8m/s | 0°C | 0% | 0hPa | 0V | 00:00:00 | 00:00:00 | 00:00:00 | |
| SQ6EMJ | 2026-09-04 01:32:27 | 50.38857 | 18.04903 | 162° | 177km/h | 11937m | -9.1m/s | 0°C | 0% | 0hPa | 0V | 00:00:00 | 00:00:00 | 00:00:00 | |
| SQ6EMJ | 2026-09-04 01:32:21 | 50.39107 | 18.04775 | 162° | 173km/h | 11992m | -9.1m/s | 0°C | 0% | 0hPa | 0V | 00:00:00 | 00:00:00 | 00:00:00 | |
| SQ6EMJ | 2026-09-04 01:32:16 | 50.39318 | 18.04665 | 163° | 177km/h | 12037m | -9.0m/s | 0°C | 0% | 0hPa | 0V | 00:00:00 | 00:00:00 | 00:00:00 | |
| PETON7-10 | 2026-09-04 01:32:13 | 50.39445 | 18.04603 | 163° | 173km/h | 12065m | -9.2m/s | 0°C | 0% | 0hPa | 0V | 00:00:00 | 00:00:00 | 00:00:00 | |
| SP6BVK | 2026-09-04 01:32:11 | 50.39528 | 18.04562 | 163° | 173km/h | 12083m | -9.1m/s | 0°C | 0% | 0hPa | 0V | 00:00:00 | 00:00:00 | 00:00:00 | |
| SQ6EMJ | 2026-09-04 01:32:10 | 50.39570 | 18.04541 | 163° | 173km/h | 12092m | -9.0m/s | 0°C | 0% | 0hPa | 0V | 00:00:00 | 00:00:00 | 00:00:00 | |
| POL1PZ | 2026-09-04 01:32:07 | 50.39697 | 18.04476 | 163° | 177km/h | 12119m | -8.7m/s | 0°C | 0% | 0hPa | 0V | 00:00:00 | 00:00:00 | 00:00:00 | |
| OK1ALN | 2026-09-04 01:32:06 | 50.39740 | 18.04455 | 164° | 177km/h | 12128m | -9.1m/s | 0°C | 0% | 0hPa | 0V | 00:00:00 | 00:00:00 | 00:00:00 | |
| SQ6EMJ | 2026-09-04 01:32:05 | 50.39783 | 18.04435 | 164° | 177km/h | 12137m | -9.1m/s | 0°C | 0% | 0hPa | 0V | 00:00:00 | 00:00:00 | 00:00:00 | |
| SQ6EMJ | 2026-09-04 01:32:00 | 50.40034 | 18.04314 | 163° | 173km/h | 12191m | -9.0m/s | 0°C | 0% | 0hPa | 0V | 00:00:00 | 00:00:00 | 00:00:00 | |
| PETON7-10 | 2026-09-04 01:31:54 | 50.40242 | 18.04212 | 164° | 159km/h | 12237m | -9.0m/s | 0°C | 0% | 0hPa | 0V | 00:00:00 | 00:00:00 | 00:00:00 | |
| SP6BVK | 2026-09-04 01:31:51 | 50.40362 | 18.04157 | 164° | 164km/h | 12264m | -8.9m/s | 0°C | 0% | 0hPa | 0V | 00:00:00 | 00:00:00 | 00:00:00 | |
| OK1ALN | 2026-09-04 01:31:46 | 50.40559 | 18.04060 | 163° | 164km/h | 12309m | -8.8m/s | 0°C | 0% | 0hPa | 0V | 00:00:00 | 00:00:00 | 00:00:00 | |
| SQ6EMJ | 2026-09-04 01:31:33 | 50.41050 | 18.03811 | 162° | 153km/h | 12426m | -8.9m/s | 0°C | 0% | 0hPa | 0V | 00:00:00 | 00:00:00 | 00:00:00 | |
| SP6BVK | 2026-09-04 01:31:31 | 50.41123 | 18.03773 | 162° | 150km/h | 12444m | -8.6m/s | 0°C | 0% | 0hPa | 0V | 00:00:00 | 00:00:00 | 00:00:00 | |
| POL1PZ | 2026-09-04 01:31:25 | 50.41332 | 18.03653 | 159° | 144km/h | 12496m | -8.6m/s | 0°C | 0% | 0hPa | 0V | 00:00:00 | 00:00:00 | 00:00:00 | |
| SQ6EMJ | 2026-09-04 01:31:20 | 50.41501 | 18.03541 | 158° | 146km/h | 12541m | -9.2m/s | 0°C | 0% | 0hPa | 0V | 00:00:00 | 00:00:00 | 00:00:00 | |
| SP6BVK | 2026-09-04 01:31:10 | 50.41825 | 18.03310 | 154° | 137km/h | 12629m | -8.9m/s | 0°C | 0% | 0hPa | 0V | 00:00:00 | 00:00:00 | 00:00:00 | |
| OM5KV | 2026-09-04 01:31:07 | 50.41917 | 18.03233 | 152° | 137km/h | 12656m | -9.2m/s | 0°C | 0% | 0hPa | 0V | 00:00:00 | 00:00:00 | 00:00:00 | |
| POL1PZ | 2026-09-04 01:31:05 | 50.41977 | 18.03180 | 151° | 137km/h | 12674m | -9.1m/s | 0°C | 0% | 0hPa | 0V | 00:00:00 | 00:00:00 | 00:00:00 | |
| SP6BVK | 2026-09-04 01:30:50 | 50.42412 | 18.02708 | 143° | 146km/h | 12814m | -10.1m/s | 0°C | 0% | 0hPa | 0V | 00:00:00 | 00:00:00 | 00:00:00 | |
| OM5KV | 2026-09-04 01:30:45 | 50.42562 | 18.02532 | 145° | 150km/h | 12864m | -9.6m/s | 0°C | 0% | 0hPa | 0V | 00:00:00 | 00:00:00 | 00:00:00 | |
| POL1PZ | 2026-09-04 01:30:44 | 50.42592 | 18.02497 | 145° | 150km/h | 12874m | -9.8m/s | 0°C | 0% | 0hPa | 0V | 00:00:00 | 00:00:00 | 00:00:00 | |
| SP6BVK | 2026-09-04 01:30:30 | 50.42995 | 18.02077 | 146° | 126km/h | 13025m | -10.7m/s | 0°C | 0% | 0hPa | 0V | 00:00:00 | 00:00:00 | 00:00:00 | |
| OK1ALN | 2026-09-04 01:30:28 | 50.43047 | 18.02019 | 146° | 124km/h | 13046m | -11.0m/s | 0°C | 0% | 0hPa | 0V | 00:00:00 | 00:00:00 | 00:00:00 | |
| OM5KV | 2026-09-04 01:30:26 | 50.43098 | 18.01962 | 145° | 124km/h | 13069m | -11.4m/s | 0°C | 0% | 0hPa | 0V | 00:00:00 | 00:00:00 | 00:00:00 | |
| POL1PZ | 2026-09-04 01:30:24 | 50.43148 | 18.01905 | 144° | 124km/h | 13091m | -10.7m/s | 0°C | 0% | 0hPa | 0V | 00:00:00 | 00:00:00 | 00:00:00 | |
| OM5KV | 2026-09-04 01:30:18 | 50.43299 | 18.01724 | 144° | 126km/h | 13153m | -9.9m/s | 0°C | 0% | 0hPa | 0V | 00:00:00 | 00:00:00 | 00:00:00 | |
| SP6BVK | 2026-09-04 01:30:09 | 50.43538 | 18.01444 | 145° | 135km/h | 13250m | -11.1m/s | 0°C | 0% | 0hPa | 0V | 00:00:00 | 00:00:00 | 00:00:00 | |
| OK1ALN | 2026-09-04 01:30:08 | 50.43566 | 18.01413 | 146° | 135km/h | 13261m | -11.5m/s | 0°C | 0% | 0hPa | 0V | 00:00:00 | 00:00:00 | 00:00:00 | |
| POL1PZ | 2026-09-04 01:30:04 | 50.43677 | 18.01296 | 148° | 130km/h | 13307m | -11.1m/s | 0°C | 0% | 0hPa | 0V | 00:00:00 | 00:00:00 | 00:00:00 | |
| OM5KV | 2026-09-04 01:30:03 | 50.43705 | 18.01268 | 148° | 130km/h | 13319m | -11.5m/s | 0°C | 0% | 0hPa | 0V | 00:00:00 | 00:00:00 | 00:00:00 | |
| SP6BVK | 2026-09-04 01:29:48 | 50.44089 | 18.00866 | 145° | 111km/h | 13473m | -8.9m/s | 0°C | 0% | 0hPa | 0V | 00:00:00 | 00:00:00 | 00:00:00 | |
| OK1ALN | 2026-09-04 01:29:47 | 50.44112 | 18.00840 | 145° | 111km/h | 13482m | -7.9m/s | 0°C | 0% | 0hPa | 0V | 00:00:00 | 00:00:00 | 00:00:00 | |
| OM5KV | 2026-09-04 01:29:41 | 50.44245 | 18.00686 | 144° | 110km/h | 13530m | -8.6m/s | 0°C | 0% | 0hPa | 0V | 00:00:00 | 00:00:00 | 00:00:00 | |
| SQ6EMJ | 2026-09-04 01:29:39 | 50.44289 | 18.00634 | 144° | 108km/h | 13548m | -9.0m/s | 0°C | 0% | 0hPa | 0V | 00:00:00 | 00:00:00 | 00:00:00 | |
| OM5KV | 2026-09-04 01:29:38 | 50.44311 | 18.00608 | 145° | 108km/h | 13557m | -8.3m/s | 0°C | 0% | 0hPa | 0V | 00:00:00 | 00:00:00 | 00:00:00 | |
| OM5KV | 2026-09-04 01:29:29 | 50.44501 | 18.00391 | 145° | 100km/h | 13636m | -8.3m/s | 0°C | 0% | 0hPa | 0V | 00:00:00 | 00:00:00 | 00:00:00 | |
| SP6BVK | 2026-09-04 01:29:27 | 50.44543 | 18.00344 | 145° | 100km/h | 13652m | -7.5m/s | 0°C | 0% | 0hPa | 0V | 00:00:00 | 00:00:00 | 00:00:00 | |
| POL1PZ | 2026-09-04 01:29:24 | 50.44625 | 18.00253 | 146° | 99km/h | 13682m | -7.1m/s | 0°C | 0% | 0hPa | 0V | 00:00:00 | 00:00:00 | 00:00:00 | |
| OM5KV | 2026-09-04 01:29:17 | 50.44744 | 18.00120 | 145° | 93km/h | 13724m | -6.3m/s | 0°C | 0% | 0hPa | 0V | 00:00:00 | 00:00:00 | 00:00:00 | |
| OM5KV | 2026-09-04 01:29:16 | 50.44764 | 18.00098 | 145° | 93km/h | 13731m | -6.7m/s | 0°C | 0% | 0hPa | 0V | 00:00:00 | 00:00:00 | 00:00:00 | |
| SQ6EMJ | 2026-09-04 01:29:12 | 50.44838 | 18.00011 | 144° | 91km/h | 13758m | -6.6m/s | 0°C | 0% | 0hPa | 0V | 00:00:00 | 00:00:00 | 00:00:00 | |
| OM5KV | 2026-09-04 01:29:10 | 50.44874 | 17.99968 | 144° | 89km/h | 13771m | -6.2m/s | 0°C | 0% | 0hPa | 0V | 00:00:00 | 00:00:00 | 00:00:00 | |
| SP6BVK | 2026-09-04 01:29:06 | 50.44944 | 17.99880 | 142° | 89km/h | 13795m | -6.2m/s | 0°C | 0% | 0hPa | 0V | 00:00:00 | 00:00:00 | 00:00:00 | |
| POL1PZ | 2026-09-04 01:29:03 | 50.44996 | 17.99813 | 140° | 88km/h | 13815m | -7.3m/s | 0°C | 0% | 0hPa | 0V | 00:00:00 | 00:00:00 | 00:00:00 | |
| SQ6EMJ | 2026-09-04 01:28:58 | 50.45079 | 17.99698 | 139° | 88km/h | 13860m | -8.9m/s | 0°C | 0% | 0hPa | 0V | 00:00:00 | 00:00:00 | 00:00:00 | |
| OM5KV | 2026-09-04 01:28:57 | 50.45095 | 17.99674 | 138° | 89km/h | 13869m | -9.3m/s | 0°C | 0% | 0hPa | 0V | 00:00:00 | 00:00:00 | 00:00:00 | |
| SQ6EMJ | 2026-09-04 01:28:52 | 50.45193 | 17.99525 | 136° | 91km/h | 13923m | -8.8m/s | 0°C | 0% | 0hPa | 0V | 00:00:00 | 00:00:00 | 00:00:00 | |
| PETON7-10 | 2026-09-04 01:28:51 | 50.45193 | 17.99525 | 135° | 91km/h | 13923m | -8.7m/s | 0°C | 0% | 0hPa | 0V | 00:00:00 | 00:00:00 | 00:00:00 | |
| SP6BVK | 2026-09-04 01:28:46 | 50.45273 | 17.99399 | 135° | 89km/h | 13966m | -8.2m/s | 0°C | 0% | 0hPa | 0V | 00:00:00 | 00:00:00 | 00:00:00 | |
| SQ6EMJ | 2026-09-04 01:28:44 | 50.45304 | 17.99347 | 134° | 91km/h | 13982m | -7.8m/s | 0°C | 0% | 0hPa | 0V | 00:00:00 | 00:00:00 | 00:00:00 | |
| POL1PZ | 2026-09-04 01:28:42 | 50.45336 | 17.99295 | 135° | 91km/h | 14001m | -9.4m/s | 0°C | 0% | 0hPa | 0V | 00:00:00 | 00:00:00 | 00:00:00 | |
| OM5KV | 2026-09-04 01:28:38 | 50.45400 | 17.99190 | 135° | 93km/h | 14037m | -7.6m/s | 0°C | 0% | 0hPa | 0V | 00:00:00 | 00:00:00 | 00:00:00 | |
| SQ6EMJ | 2026-09-04 01:28:32 | 50.45496 | 17.99034 | 135° | 91km/h | 14076m | -6.9m/s | 0°C | 0% | 0hPa | 0V | 00:00:00 | 00:00:00 | 00:00:00 | |
| PETON7-10 | 2026-09-04 01:28:27 | 50.45577 | 17.98903 | 134° | 89km/h | 14117m | -7.4m/s | 0°C | 0% | 0hPa | 0V | 00:00:00 | 00:00:00 | 00:00:00 | |
| SP6BVK | 2026-09-04 01:28:26 | 50.45594 | 17.98876 | 136° | 95km/h | 14126m | -11.3m/s | 0°C | 0% | 0hPa | 0V | 00:00:00 | 00:00:00 | 00:00:00 | |
| POL1PZ | 2026-09-04 01:28:21 | 50.45678 | 17.98748 | 137° | 93km/h | 14172m | -8.2m/s | 0°C | 0% | 0hPa | 0V | 00:00:00 | 00:00:00 | 00:00:00 | |
| OM5KV | 2026-09-04 01:28:19 | 50.45712 | 17.98698 | 138° | 91km/h | 14187m | -8.3m/s | 0°C | 0% | 0hPa | 0V | 00:00:00 | 00:00:00 | 00:00:00 | |
| OK1ALN | 2026-09-04 01:28:14 | 50.45793 | 17.98574 | 137° | 89km/h | 14233m | -9.3m/s | 0°C | 0% | 0hPa | 0V | 00:00:00 | 00:00:00 | 00:00:00 | |
| SP6BVK | 2026-09-04 01:28:05 | 50.45935 | 17.98356 | 134° | 86km/h | 14320m | -10.3m/s | 0°C | 0% | 0hPa | 0V | 00:00:00 | 00:00:00 | 00:00:00 | |
| POL1PZ | 2026-09-04 01:28:00 | 50.46010 | 17.98232 | 134° | 84km/h | 14362m | -8.3m/s | 0°C | 0% | 0hPa | 0V | 00:00:00 | 00:00:00 | 00:00:00 | |
| SQ6EMJ | 2026-09-04 01:27:54 | 50.46096 | 17.98088 | 133° | 80km/h | 14417m | -9.1m/s | 0°C | 0% | 0hPa | 0V | 00:00:00 | 00:00:00 | 00:00:00 | |
| OK1ALN | 2026-09-04 01:27:52 | 50.46123 | 17.98043 | 135° | 78km/h | 14435m | -9.9m/s | 0°C | 0% | 0hPa | 0V | 00:00:00 | 00:00:00 | 00:00:00 | |
| OM5KV | 2026-09-04 01:27:49 | 50.46164 | 17.97975 | 133° | 77km/h | 14468m | -11.1m/s | 0°C | 0% | 0hPa | 0V | 00:00:00 | 00:00:00 | 00:00:00 | |
| SQ6EMJ | 2026-09-04 01:27:48 | 50.46176 | 17.97952 | 132° | 77km/h | 14479m | -10.6m/s | 0°C | 0% | 0hPa | 0V | 00:00:00 | 00:00:00 | 00:00:00 | |
| SP6BVK | 2026-09-04 01:27:45 | 50.46215 | 17.97882 | 131° | 78km/h | 14513m | -10.3m/s | 0°C | 0% | 0hPa | 0V | 00:00:00 | 00:00:00 | 00:00:00 | |
| POL1PZ | 2026-09-04 01:27:39 | 50.46295 | 17.97736 | 132° | 82km/h | 14573m | -7.7m/s | 0°C | 0% | 0hPa | 0V | 00:00:00 | 00:00:00 | 00:00:00 | |
| OM5KV | 2026-09-04 01:27:35 | 50.46351 | 17.97635 | 133° | 84km/h | 14610m | -9.5m/s | 0°C | 0% | 0hPa | 0V | 00:00:00 | 00:00:00 | 00:00:00 | |
| OK1ALN | 2026-09-04 01:27:32 | 50.46392 | 17.97562 | 131° | 80km/h | 14638m | -8.1m/s | 0°C | 0% | 0hPa | 0V | 00:00:00 | 00:00:00 | 00:00:00 | |
| OM5KV | 2026-09-04 01:27:29 | 50.46430 | 17.97491 | 130° | 78km/h | 14664m | -8.0m/s | 0°C | 0% | 0hPa | 0V | 00:00:00 | 00:00:00 | 00:00:00 | |
| SP6BVK | 2026-09-04 01:27:24 | 50.46489 | 17.97373 | 128° | 75km/h | 14712m | -10.9m/s | 0°C | 0% | 0hPa | 0V | 00:00:00 | 00:00:00 | 00:00:00 | |
| OM5KV | 2026-09-04 01:27:22 | 50.46511 | 17.97327 | 128° | 71km/h | 14731m | -8.9m/s | 0°C | 0% | 0hPa | 0V | 00:00:00 | 00:00:00 | 00:00:00 | |
| SQ6EMJ | 2026-09-04 01:27:21 | 50.46522 | 17.97305 | 128° | 69km/h | 14739m | -8.1m/s | 0°C | 0% | 0hPa | 0V | 00:00:00 | 00:00:00 | 00:00:00 | |
| OM5KV | 2026-09-04 01:27:20 | 50.46533 | 17.97283 | 128° | 69km/h | 14748m | -8.8m/s | 0°C | 0% | 0hPa | 0V | 00:00:00 | 00:00:00 | 00:00:00 | |
| POL1PZ | 2026-09-04 01:27:19 | 50.46543 | 17.97260 | 127° | 71km/h | 14757m | -10.6m/s | 0°C | 0% | 0hPa | 0V | 00:00:00 | 00:00:00 | 00:00:00 | |
| OM5KV | 2026-09-04 01:27:16 | 50.46576 | 17.97190 | 129° | 75km/h | 14792m | -12.4m/s | 0°C | 0% | 0hPa | 0V | 00:00:00 | 00:00:00 | 00:00:00 | |
| OM5KV | 2026-09-04 01:27:14 | 50.46599 | 17.97144 | 130° | 75km/h | 14815m | -11.3m/s | 0°C | 0% | 0hPa | 0V | 00:00:00 | 00:00:00 | 00:00:00 | |
| OK1ALN | 2026-09-04 01:27:12 | 50.46623 | 17.97097 | 129° | 75km/h | 14837m | -11.1m/s | 0°C | 0% | 0hPa | 0V | 00:00:00 | 00:00:00 | 00:00:00 | |
| OM5KV | 2026-09-04 01:27:09 | 50.46659 | 17.97026 | 130° | 77km/h | 14868m | -11.1m/s | 0°C | 0% | 0hPa | 0V | 00:00:00 | 00:00:00 | 00:00:00 | |
| SP6BVK | 2026-09-04 01:27:04 | 50.46723 | 17.96909 | 133° | 78km/h | 14918m | -8.5m/s | 0°C | 0% | 0hPa | 0V | 00:00:00 | 00:00:00 | 00:00:00 | |
| SQ6EMJ | 2026-09-04 01:27:03 | 50.46736 | 17.96887 | 134° | 77km/h | 14927m | -8.9m/s | 0°C | 0% | 0hPa | 0V | 00:00:00 | 00:00:00 | 00:00:00 | |
| OM5KV | 2026-09-04 01:27:01 | 50.46764 | 17.96843 | 137° | 77km/h | 14946m | -11.2m/s | 0°C | 0% | 0hPa | 0V | 00:00:00 | 00:00:00 | 00:00:00 | |
| PETON7-10 | 2026-09-04 01:27:00 | 50.46778 | 17.96822 | 136° | 66km/h | 14957m | -10.5m/s | 0°C | 0% | 0hPa | 0V | 00:00:00 | 00:00:00 | 00:00:00 | |
| POL1PZ | 2026-09-04 01:26:59 | 50.46791 | 17.96801 | 137° | 73km/h | 14967m | -9.0m/s | 0°C | 0% | 0hPa | 0V | 00:00:00 | 00:00:00 | 00:00:00 | |
| SQ6EMJ | 2026-09-04 01:26:57 | 50.46818 | 17.96762 | 136° | 71km/h | 14989m | -10.5m/s | 0°C | 0% | 0hPa | 0V | 00:00:00 | 00:00:00 | 00:00:00 | |
| OM5KV | 2026-09-04 01:26:55 | 50.46843 | 17.96723 | 136° | 69km/h | 15011m | -11.2m/s | 0°C | 0% | 0hPa | 0V | 00:00:00 | 00:00:00 | 00:00:00 | |
| SQ6EMJ | 2026-09-04 01:26:52 | 50.46878 | 17.96667 | 136° | 66km/h | 15042m | -10.1m/s | 0°C | 0% | 0hPa | 0V | 00:00:00 | 00:00:00 | 00:00:00 | |
| OK1ALN | 2026-09-04 01:26:51 | 50.46890 | 17.96647 | 133° | 66km/h | 15052m | -9.1m/s | 0°C | 0% | 0hPa | 0V | 00:00:00 | 00:00:00 | 00:00:00 | |
| SQ6EMJ | 2026-09-04 01:26:47 | 50.46932 | 17.96574 | 131° | 62km/h | 15099m | -11.0m/s | 0°C | 0% | 0hPa | 0V | 00:00:00 | 00:00:00 | 00:00:00 | |
| SP6BVK | 2026-09-04 01:26:43 | 50.46971 | 17.96499 | 129° | 60km/h | 15143m | -11.2m/s | 0°C | 0% | 0hPa | 0V | 00:00:00 | 00:00:00 | 00:00:00 | |
| OM5KV | 2026-09-04 01:26:42 | 50.46981 | 17.96480 | 128° | 60km/h | 15154m | -10.6m/s | 0°C | 0% | 0hPa | 0V | 00:00:00 | 00:00:00 | 00:00:00 | |
| SQ6EMJ | 2026-09-04 01:26:41 | 50.46990 | 17.96461 | 127° | 60km/h | 15165m | -10.3m/s | 0°C | 0% | 0hPa | 0V | 00:00:00 | 00:00:00 | 00:00:00 | |
| POL1PZ | 2026-09-04 01:26:39 | 50.47008 | 17.96423 | 127° | 60km/h | 15185m | -10.7m/s | 0°C | 0% | 0hPa | 0V | 00:00:00 | 00:00:00 | 00:00:00 | |
| SQ6EMJ | 2026-09-04 01:26:36 | 50.47036 | 17.96365 | 130° | 62km/h | 15214m | -9.3m/s | 0°C | 0% | 0hPa | 0V | 00:00:00 | 00:00:00 | 00:00:00 | |
| OM5KV | 2026-09-04 01:26:34 | 50.47056 | 17.96327 | 131° | 62km/h | 15230m | -7.1m/s | 0°C | 0% | 0hPa | 0V | 00:00:00 | 00:00:00 | 00:00:00 | |
| OK1ALN | 2026-09-04 01:26:31 | 50.47086 | 17.96270 | 131° | 62km/h | 15254m | -8.1m/s | 0°C | 0% | 0hPa | 0V | 00:00:00 | 00:00:00 | 00:00:00 | |
| OM5KV | 2026-09-04 01:26:28 | 50.47116 | 17.96215 | 133° | 60km/h | 15280m | -8.5m/s | 0°C | 0% | 0hPa | 0V | 00:00:00 | 00:00:00 | 00:00:00 | |
| SP6BVK | 2026-09-04 01:26:23 | 50.47166 | 17.96125 | 130° | 60km/h | 15323m | -8.5m/s | 0°C | 0% | 0hPa | 0V | 00:00:00 | 00:00:00 | 00:00:00 | |
| POL1PZ | 2026-09-04 01:26:18 | 50.47212 | 17.96033 | 128° | 58km/h | 15366m | -9.2m/s | 0°C | 0% | 0hPa | 0V | 00:00:00 | 00:00:00 | 00:00:00 | |
| OM5KV | 2026-09-04 01:26:16 | 50.47230 | 17.95995 | 126° | 58km/h | 15384m | -8.2m/s | 0°C | 0% | 0hPa | 0V | 00:00:00 | 00:00:00 | 00:00:00 | |
| SQ6EMJ | 2026-09-04 01:26:13 | 50.47256 | 17.95937 | 124° | 60km/h | 15413m | -10.2m/s | 0°C | 0% | 0hPa | 0V | 00:00:00 | 00:00:00 | 00:00:00 | |
| OM5KV | 2026-09-04 01:26:10 | 50.47279 | 17.95879 | 123° | 57km/h | 15452m | -14.1m/s | 0°C | 0% | 0hPa | 0V | 00:00:00 | 00:00:00 | 00:00:00 | |
| PETON7-10 | 2026-09-04 01:26:06 | 50.47311 | 17.95802 | 123° | 55km/h | 15501m | -12.6m/s | 0°C | 0% | 0hPa | 0V | 00:00:00 | 00:00:00 | 00:00:00 | |
| OM5KV | 2026-09-04 01:26:05 | 50.47319 | 17.95782 | 123° | 60km/h | 15514m | -12.8m/s | 0°C | 0% | 0hPa | 0V | 00:00:00 | 00:00:00 | 00:00:00 | |
| SP6BVK | 2026-09-04 01:26:03 | 50.47335 | 17.95741 | 122° | 60km/h | 15541m | -11.6m/s | 0°C | 0% | 0hPa | 0V | 00:00:00 | 00:00:00 | 00:00:00 | |
| POL1PZ | 2026-09-04 01:25:58 | 50.47379 | 17.95642 | 129° | 60km/h | 15590m | -10.9m/s | 0°C | 0% | 0hPa | 0V | 00:00:00 | 00:00:00 | 00:00:00 | |
| SQ6EMJ | 2026-09-04 01:25:56 | 50.47397 | 17.95604 | 130° | 60km/h | 15611m | -9.6m/s | 0°C | 0% | 0hPa | 0V | 00:00:00 | 00:00:00 | 00:00:00 | |
| OM5KV | 2026-09-04 01:25:53 | 50.47425 | 17.95552 | 132° | 57km/h | 15638m | -8.8m/s | 0°C | 0% | 0hPa | 0V | 00:00:00 | 00:00:00 | 00:00:00 | |
| OK1ALN | 2026-09-04 01:25:48 | 50.47471 | 17.95464 | 128° | 58km/h | 15688m | -12.3m/s | 0°C | 0% | 0hPa | 0V | 00:00:00 | 00:00:00 | 00:00:00 | |
| OM5KV | 2026-09-04 01:25:46 | 50.47490 | 17.95427 | 128° | 62km/h | 15708m | -9.0m/s | 0°C | 0% | 0hPa | 0V | 00:00:00 | 00:00:00 | 00:00:00 | |
| SQ6EMJ | 2026-09-04 01:25:45 | 50.47500 | 17.95407 | 131° | 64km/h | 15718m | -10.6m/s | 0°C | 0% | 0hPa | 0V | 00:00:00 | 00:00:00 | 00:00:00 | |
| SP6BVK | 2026-09-04 01:25:42 | 50.47532 | 17.95348 | 128° | 64km/h | 15756m | -12.9m/s | 0°C | 0% | 0hPa | 0V | 00:00:00 | 00:00:00 | 00:00:00 | |
| SQ6EMJ | 2026-09-04 01:25:40 | 50.47548 | 17.95309 | 122° | 55km/h | 15782m | -12.4m/s | 0°C | 0% | 0hPa | 0V | 00:00:00 | 00:00:00 | 00:00:00 | |
| POL1PZ | 2026-09-04 01:25:38 | 50.47562 | 17.95273 | 123° | 51km/h | 15806m | -11.7m/s | 0°C | 0% | 0hPa | 0V | 00:00:00 | 00:00:00 | 00:00:00 | |
| OM5KV | 2026-09-04 01:25:34 | 50.47590 | 17.95200 | 122° | 57km/h | 15848m | -10.4m/s | 0°C | 0% | 0hPa | 0V | 00:00:00 | 00:00:00 | 00:00:00 | |
| OM5KV | 2026-09-04 01:25:33 | 50.47597 | 17.95180 | 123° | 60km/h | 15858m | -10.4m/s | 0°C | 0% | 0hPa | 0V | 00:00:00 | 00:00:00 | 00:00:00 | |
| SQ6EMJ | 2026-09-04 01:25:23 | 50.47690 | 17.94982 | 130° | 62km/h | 15943m | -6.3m/s | 0°C | 0% | 0hPa | 0V | 00:00:00 | 00:00:00 | 00:00:00 | |
| SP6BVK | 2026-09-04 01:25:22 | 50.47700 | 17.94963 | 131° | 62km/h | 15949m | -7.8m/s | 0°C | 0% | 0hPa | 0V | 00:00:00 | 00:00:00 | 00:00:00 | |
| OM5KV | 2026-09-04 01:25:15 | 50.47770 | 17.94836 | 131° | 60km/h | 16015m | -11.4m/s | 0°C | 0% | 0hPa | 0V | 00:00:00 | 00:00:00 | 00:00:00 | |
| SQ6EMJ | 2026-09-04 01:25:11 | 50.47810 | 17.94765 | 132° | 58km/h | 16062m | -12.2m/s | 0°C | 0% | 0hPa | 0V | 00:00:00 | 00:00:00 | 00:00:00 | |
| OM5KV | 2026-09-04 01:25:03 | 50.47886 | 17.94632 | 135° | 51km/h | 16156m | -12.4m/s | 0°C | 0% | 0hPa | 0V | 00:00:00 | 00:00:00 | 00:00:00 | |
| SP6BVK | 2026-09-04 01:25:01 | 50.47905 | 17.94603 | 138° | 53km/h | 16181m | -12.9m/s | 0°C | 0% | 0hPa | 0V | 00:00:00 | 00:00:00 | 00:00:00 | |
| POL1PZ | 2026-09-04 01:24:57 | 50.47944 | 17.94542 | 135° | 57km/h | 16221m | -8.3m/s | 0°C | 0% | 0hPa | 0V | 00:00:00 | 00:00:00 | 00:00:00 | |
| OM5KV | 2026-09-04 01:24:53 | 50.47984 | 17.94473 | 131° | 60km/h | 16256m | -9.0m/s | 0°C | 0% | 0hPa | 0V | 00:00:00 | 00:00:00 | 00:00:00 | |
| OM5KV | 2026-09-04 01:24:46 | 50.48056 | 17.94340 | 131° | 66km/h | 16312m | -7.8m/s | 0°C | 0% | 0hPa | 0V | 00:00:00 | 00:00:00 | 00:00:00 | |
| SP6BVK | 2026-09-04 01:24:40 | 50.48122 | 17.94218 | 132° | 68km/h | 16357m | -7.8m/s | 0°C | 0% | 0hPa | 0V | 00:00:00 | 00:00:00 | 00:00:00 | |
| SQ6EMJ | 2026-09-04 01:24:37 | 50.48156 | 17.94158 | 132° | 68km/h | 16380m | -7.4m/s | 0°C | 0% | 0hPa | 0V | 00:00:00 | 00:00:00 | 00:00:00 | |
| POL1PZ | 2026-09-04 01:24:34 | 50.48190 | 17.94098 | 132° | 66km/h | 16403m | -7.4m/s | 0°C | 0% | 0hPa | 0V | 00:00:00 | 00:00:00 | 00:00:00 | |
| SQ6EMJ | 2026-09-04 01:24:30 | 50.48234 | 17.94018 | 132° | 66km/h | 16432m | -7.4m/s | 0°C | 0% | 0hPa | 0V | 00:00:00 | 00:00:00 | 00:00:00 | |
| SQ6EMJ | 2026-09-04 01:24:25 | 50.48290 | 17.93928 | 137° | 62km/h | 16470m | -7.7m/s | 0°C | 0% | 0hPa | 0V | 00:00:00 | 00:00:00 | 00:00:00 | |
| SP6BVK | 2026-09-04 01:24:20 | 50.48343 | 17.93847 | 137° | 55km/h | 16510m | -7.9m/s | 0°C | 0% | 0hPa | 0V | 00:00:00 | 00:00:00 | 00:00:00 | |
| POL1PZ | 2026-09-04 01:24:14 | 50.48399 | 17.93768 | 136° | 47km/h | 16557m | -7.9m/s | 0°C | 0% | 0hPa | 0V | 00:00:00 | 00:00:00 | 00:00:00 | |
| SQ6EMJ | 2026-09-04 01:24:13 | 50.48407 | 17.93754 | 132° | 49km/h | 16566m | -7.6m/s | 0°C | 0% | 0hPa | 0V | 00:00:00 | 00:00:00 | 00:00:00 | |
| SQ6EMJ | 2026-09-04 01:24:05 | 50.48480 | 17.93657 | 139° | 40km/h | 16626m | -7.7m/s | 0°C | 0% | 0hPa | 0V | 00:00:00 | 00:00:00 | 00:00:00 | |
| OM5KV | 2026-09-04 01:24:03 | 50.48495 | 17.93633 | 134° | 46km/h | 16641m | -7.6m/s | 0°C | 0% | 0hPa | 0V | 00:00:00 | 00:00:00 | 00:00:00 | |
| SP6BVK | 2026-09-04 01:23:59 | 50.48527 | 17.93581 | 133° | 46km/h | 16672m | -7.8m/s | 0°C | 0% | 0hPa | 0V | 00:00:00 | 00:00:00 | 00:00:00 | |
| POL1PZ | 2026-09-04 01:23:53 | 50.48568 | 17.93506 | 130° | 38km/h | 16719m | -7.9m/s | 0°C | 0% | 0hPa | 0V | 00:00:00 | 00:00:00 | 00:00:00 | |
| SP6BVK | 2026-09-04 01:23:39 | 50.48639 | 17.93334 | 115° | 38km/h | 16832m | -8.2m/s | 0°C | 0% | 0hPa | 0V | 00:00:00 | 00:00:00 | 00:00:00 | |
| POL1PZ | 2026-09-04 01:23:33 | 50.48664 | 17.93255 | 119° | 35km/h | 16881m | -9.3m/s | 0°C | 0% | 0hPa | 0V | 00:00:00 | 00:00:00 | 00:00:00 | |
| SQ6EMJ | 2026-09-04 01:23:31 | 50.48671 | 17.93230 | 118° | 33km/h | 16899m | -9.1m/s | 0°C | 0% | 0hPa | 0V | 00:00:00 | 00:00:00 | 00:00:00 | |
| KRY50SP | 2026-09-04 01:23:22 | 50.48695 | 17.93117 | 108° | 33km/h | 16982m | -8.8m/s | 0°C | 0% | 0hPa | 0V | 00:00:00 | 00:00:00 | 00:00:00 | |
| SP6BVK | 2026-09-04 01:23:19 | 50.48700 | 17.93078 | 99° | 37km/h | 17009m | -8.7m/s | 0°C | 0% | 0hPa | 0V | 00:00:00 | 00:00:00 | 00:00:00 | |
| SQ6EMJ | 2026-09-04 01:23:17 | 50.48704 | 17.93050 | 102° | 37km/h | 17029m | -9.1m/s | 0°C | 0% | 0hPa | 0V | 00:00:00 | 00:00:00 | 00:00:00 | |
| OM5KV | 2026-09-04 01:23:13 | 50.48709 | 17.92994 | 97° | 37km/h | 17065m | -8.7m/s | 0°C | 0% | 0hPa | 0V | 00:00:00 | 00:00:00 | 00:00:00 | |
| POL1PZ | 2026-09-04 01:23:12 | 50.48710 | 17.92979 | 97° | 38km/h | 17074m | -9.1m/s | 0°C | 0% | 0hPa | 0V | 00:00:00 | 00:00:00 | 00:00:00 | |
| SQ6EMJ | 2026-09-04 01:23:11 | 50.48712 | 17.92964 | 98° | 38km/h | 17082m | -8.9m/s | 0°C | 0% | 0hPa | 0V | 00:00:00 | 00:00:00 | 00:00:00 | |
| KRY50SP | 2026-09-04 01:23:09 | 50.48714 | 17.92934 | 98° | 38km/h | 17098m | -8.8m/s | 0°C | 0% | 0hPa | 0V | 00:00:00 | 00:00:00 | 00:00:00 | |
| SQ6EMJ | 2026-09-04 01:23:06 | 50.48718 | 17.92888 | 105° | 40km/h | 17129m | -9.2m/s | 0°C | 0% | 0hPa | 0V | 00:00:00 | 00:00:00 | 00:00:00 | |
| SQ6EMJ | 2026-09-04 01:23:00 | 50.48738 | 17.92799 | 117° | 40km/h | 17188m | -9.1m/s | 0°C | 0% | 0hPa | 0V | 00:00:00 | 00:00:00 | 00:00:00 | |
| SP6BVK | 2026-09-04 01:22:58 | 50.48747 | 17.92770 | 118° | 42km/h | 17207m | -9.8m/s | 0°C | 0% | 0hPa | 0V | 00:00:00 | 00:00:00 | 00:00:00 | |
| KRY50SP | 2026-09-04 01:22:55 | 50.48764 | 17.92727 | 121° | 42km/h | 17233m | -9.6m/s | 0°C | 0% | 0hPa | 0V | 00:00:00 | 00:00:00 | 00:00:00 | |
| POL1PZ | 2026-09-04 01:22:52 | 50.48780 | 17.92685 | 123° | 40km/h | 17262m | -9.1m/s | 0°C | 0% | 0hPa | 0V | 00:00:00 | 00:00:00 | 00:00:00 | |
| KRY50SP | 2026-09-04 01:22:48 | 50.48801 | 17.92634 | 122° | 38km/h | 17303m | -10.9m/s | 0°C | 0% | 0hPa | 0V | 00:00:00 | 00:00:00 | 00:00:00 | |
| KRY50SP | 2026-09-04 01:22:42 | 50.48829 | 17.92551 | 116° | 40km/h | 17370m | -12.0m/s | 0°C | 0% | 0hPa | 0V | 00:00:00 | 00:00:00 | 00:00:00 | |
| SP6BVK | 2026-09-04 01:22:37 | 50.48851 | 17.92475 | 114° | 46km/h | 17436m | -12.6m/s | 0°C | 0% | 0hPa | 0V | 00:00:00 | 00:00:00 | 00:00:00 | |
| SQ6EMJ | 2026-09-04 01:22:32 | 50.48875 | 17.92390 | 113° | 51km/h | 17500m | -11.4m/s | 0°C | 0% | 0hPa | 0V | 00:00:00 | 00:00:00 | 00:00:00 | |
| POL1PZ | 2026-09-04 01:22:31 | 50.48880 | 17.92371 | 114° | 51km/h | 17511m | -8.4m/s | 0°C | 0% | 0hPa | 0V | 00:00:00 | 00:00:00 | 00:00:00 | |
| OM5KV | 2026-09-04 01:22:28 | 50.48894 | 17.92316 | 115° | 53km/h | 17544m | -11.1m/s | 0°C | 0% | 0hPa | 0V | 00:00:00 | 00:00:00 | 00:00:00 | |
| SQ6EMJ | 2026-09-04 01:22:26 | 50.48905 | 17.92278 | 116° | 53km/h | 17568m | -10.1m/s | 0°C | 0% | 0hPa | 0V | 00:00:00 | 00:00:00 | 00:00:00 | |
| SQ6EMJ | 2026-09-04 01:22:20 | 50.48945 | 17.92169 | 128° | 47km/h | 17638m | -13.5m/s | 0°C | 0% | 0hPa | 0V | 00:00:00 | 00:00:00 | 00:00:00 | |
| SP6BVK | 2026-09-04 01:22:16 | 50.48972 | 17.92107 | 127° | 47km/h | 17691m | -12.7m/s | 0°C | 0% | 0hPa | 0V | 00:00:00 | 00:00:00 | 00:00:00 | |
| POL1PZ | 2026-09-04 01:22:10 | 50.49014 | 17.92018 | 136° | 42km/h | 17770m | -11.0m/s | 0°C | 0% | 0hPa | 0V | 00:00:00 | 00:00:00 | 00:00:00 | |
| OM5KV | 2026-09-04 01:22:08 | 50.49027 | 17.91993 | 128° | 40km/h | 17793m | -11.7m/s | 0°C | 0% | 0hPa | 0V | 00:00:00 | 00:00:00 | 00:00:00 | |
| OM5KV | 2026-09-04 01:22:07 | 50.49034 | 17.91980 | 129° | 42km/h | 17804m | -11.1m/s | 0°C | 0% | 0hPa | 0V | 00:00:00 | 00:00:00 | 00:00:00 | |
| OM5KV | 2026-09-04 01:21:57 | 50.49084 | 17.91860 | 114° | 37km/h | 17929m | -13.6m/s | 0°C | 0% | 0hPa | 0V | 00:00:00 | 00:00:00 | 00:00:00 | |
| SP6BVK | 2026-09-04 01:21:55 | 50.49091 | 17.91832 | 111° | 40km/h | 17955m | -12.1m/s | 0°C | 0% | 0hPa | 0V | 00:00:00 | 00:00:00 | 00:00:00 | |
| SQ6EMJ | 2026-09-04 01:21:52 | 50.49101 | 17.91788 | 111° | 38km/h | 17987m | -9.8m/s | 0°C | 0% | 0hPa | 0V | 00:00:00 | 00:00:00 | 00:00:00 | |
| OK1ALN | 2026-09-04 01:21:51 | 50.49104 | 17.91773 | 110° | 38km/h | 17997m | -10.6m/s | 0°C | 0% | 0hPa | 0V | 00:00:00 | 00:00:00 | 00:00:00 | |
| POL1PZ | 2026-09-04 01:21:49 | 50.49110 | 17.91743 | 111° | 40km/h | 18019m | -11.0m/s | 0°C | 0% | 0hPa | 0V | 00:00:00 | 00:00:00 | 00:00:00 | |
| OM5KV | 2026-09-04 01:21:42 | 50.49140 | 17.91624 | 113° | 46km/h | 18105m | -9.9m/s | 0°C | 0% | 0hPa | 0V | 00:00:00 | 00:00:00 | 00:00:00 | |
| KRY50SP | 2026-09-04 01:21:36 | 50.49166 | 17.91523 | 119° | 44km/h | 18182m | -17.2m/s | 0°C | 0% | 0hPa | 0V | 00:00:00 | 00:00:00 | 00:00:00 | |
| SQ6EMJ | 2026-09-04 01:21:35 | 50.49177 | 17.91492 | 122° | 46km/h | 18216m | -16.4m/s | 0°C | 0% | 0hPa | 0V | 00:00:00 | 00:00:00 | 00:00:00 | |
| SP6BVK | 2026-09-04 01:21:34 | 50.49177 | 17.91492 | 122° | 46km/h | 18216m | -16.4m/s | 0°C | 0% | 0hPa | 0V | 00:00:00 | 00:00:00 | 00:00:00 | |
| OM5KV | 2026-09-04 01:21:33 | 50.49184 | 17.91477 | 123° | 46km/h | 18233m | -16.3m/s | 0°C | 0% | 0hPa | 0V | 00:00:00 | 00:00:00 | 00:00:00 | |
| POL1PZ | 2026-09-04 01:21:29 | 50.49212 | 17.91415 | 130° | 49km/h | 18297m | -14.4m/s | 0°C | 0% | 0hPa | 0V | 00:00:00 | 00:00:00 | 00:00:00 | |
| SQ6EMJ | 2026-09-04 01:21:27 | 50.49229 | 17.91386 | 133° | 51km/h | 18322m | -11.2m/s | 0°C | 0% | 0hPa | 0V | 00:00:00 | 00:00:00 | 00:00:00 | |
| KRY50SP | 2026-09-04 01:21:26 | 50.49238 | 17.91371 | 135° | 49km/h | 18333m | -10.5m/s | 0°C | 0% | 0hPa | 0V | 00:00:00 | 00:00:00 | 00:00:00 | |
| SQ6EMJ | 2026-09-04 01:21:18 | 50.49308 | 17.91265 | 141° | 47km/h | 18417m | -12.5m/s | 0°C | 0% | 0hPa | 0V | 00:00:00 | 00:00:00 | 00:00:00 | |
| SP6BVK | 2026-09-04 01:21:13 | 50.49351 | 17.91203 | 139° | 44km/h | 18476m | -12.7m/s | 0°C | 0% | 0hPa | 0V | 00:00:00 | 00:00:00 | 00:00:00 | |
| PETON7-10 | 2026-09-04 01:21:12 | 50.49360 | 17.91192 | 138° | 40km/h | 18490m | -14.3m/s | 0°C | 0% | 0hPa | 0V | 00:00:00 | 00:00:00 | 00:00:00 | |
| KRY50SP | 2026-09-04 01:21:11 | 50.49368 | 17.91179 | 141° | 44km/h | 18504m | -14.4m/s | 0°C | 0% | 0hPa | 0V | 00:00:00 | 00:00:00 | 00:00:00 | |
| POL1PZ | 2026-09-04 01:21:08 | 50.49394 | 17.91144 | 140° | 46km/h | 18541m | -11.6m/s | 0°C | 0% | 0hPa | 0V | 00:00:00 | 00:00:00 | 00:00:00 | |
| OM5KV | 2026-09-04 01:21:07 | 50.49403 | 17.91133 | 140° | 44km/h | 18553m | -12.6m/s | 0°C | 0% | 0hPa | 0V | 00:00:00 | 00:00:00 | 00:00:00 | |
| SQ6EMJ | 2026-09-04 01:21:02 | 50.49447 | 17.91080 | 143° | 44km/h | 18607m | -11.8m/s | 0°C | 0% | 0hPa | 0V | 00:00:00 | 00:00:00 | 00:00:00 | |
| KRY50SP | 2026-09-04 01:20:59 | 50.49473 | 17.91051 | 143° | 40km/h | 18646m | -14.9m/s | 0°C | 0% | 0hPa | 0V | 00:00:00 | 00:00:00 | 00:00:00 | |
| SQ6EMJ | 2026-09-04 01:20:56 | 50.49496 | 17.91024 | 147° | 37km/h | 18686m | -15.8m/s | 0°C | 0% | 0hPa | 0V | 00:00:00 | 00:00:00 | 00:00:00 | |
| KRY50SP | 2026-09-04 01:20:54 | 50.49509 | 17.91006 | 140° | 38km/h | 18716m | -13.1m/s | 0°C | 0% | 0hPa | 0V | 00:00:00 | 00:00:00 | 00:00:00 | |
| SP6BVK | 2026-09-04 01:20:53 | 50.49517 | 17.90996 | 137° | 37km/h | 18728m | -12.5m/s | 0°C | 0% | 0hPa | 0V | 00:00:00 | 00:00:00 | 00:00:00 | |
| KRY50SP | 2026-09-04 01:20:48 | 50.49547 | 17.90942 | 133° | 33km/h | 18774m | -8.3m/s | 0°C | 0% | 0hPa | 0V | 00:00:00 | 00:00:00 | 00:00:00 | |
| POL1PZ | 2026-09-04 01:20:47 | 50.49553 | 17.90932 | 133° | 35km/h | 18782m | -8.1m/s | 0°C | 0% | 0hPa | 0V | 00:00:00 | 00:00:00 | 00:00:00 | |
| KRY50SP | 2026-09-04 01:20:43 | 50.49578 | 17.90892 | 136° | 37km/h | 18811m | -7.9m/s | 0°C | 0% | 0hPa | 0V | 00:00:00 | 00:00:00 | 00:00:00 | |
| SQ6EMJ | 2026-09-04 01:20:37 | 50.49613 | 17.90839 | 143° | 29km/h | 18855m | -8.1m/s | 0°C | 0% | 0hPa | 0V | 00:00:00 | 00:00:00 | 00:00:00 | |
| KRY50SP | 2026-09-04 01:20:34 | 50.49631 | 17.90819 | 147° | 27km/h | 18879m | -8.0m/s | 0°C | 0% | 0hPa | 0V | 00:00:00 | 00:00:00 | 00:00:00 | |
| SP6BVK | 2026-09-04 01:20:32 | 50.49642 | 17.90807 | 149° | 27km/h | 18895m | -8.2m/s | 0°C | 0% | 0hPa | 0V | 00:00:00 | 00:00:00 | 00:00:00 | |
| KRY50SP | 2026-09-04 01:20:29 | 50.49658 | 17.90791 | 152° | 24km/h | 18917m | -7.8m/s | 0°C | 0% | 0hPa | 0V | 00:00:00 | 00:00:00 | 00:00:00 | |
| OM5KV | 2026-09-04 01:20:28 | 50.49664 | 17.90786 | 153° | 24km/h | 18924m | -7.7m/s | 0°C | 0% | 0hPa | 0V | 00:00:00 | 00:00:00 | 00:00:00 | |
| POL1PZ | 2026-09-04 01:20:26 | 50.49673 | 17.90779 | 153° | 20km/h | 18940m | -7.3m/s | 0°C | 0% | 0hPa | 0V | 00:00:00 | 00:00:00 | 00:00:00 | |
| PETON7-10 | 2026-09-04 01:20:24 | 50.49682 | 17.90772 | 154° | 22km/h | 18955m | -8.5m/s | 0°C | 0% | 0hPa | 0V | 00:00:00 | 00:00:00 | 00:00:00 | |
| KRY50SP | 2026-09-04 01:20:23 | 50.49687 | 17.90769 | 154° | 20km/h | 18963m | -7.4m/s | 0°C | 0% | 0hPa | 0V | 00:00:00 | 00:00:00 | 00:00:00 | |
| KRY50SP | 2026-09-04 01:20:17 | 50.49713 | 17.90743 | 145° | 20km/h | 19009m | -7.3m/s | 0°C | 0% | 0hPa | 0V | 00:00:00 | 00:00:00 | 00:00:00 | |
| SP6BVK | 2026-09-04 01:20:12 | 50.49736 | 17.90718 | 141° | 22km/h | 19044m | -7.8m/s | 0°C | 0% | 0hPa | 0V | 00:00:00 | 00:00:00 | 00:00:00 | |
| OM5KV | 2026-09-04 01:20:09 | 50.49747 | 17.90698 | 130° | 22km/h | 19068m | -7.8m/s | 0°C | 0% | 0hPa | 0V | 00:00:00 | 00:00:00 | 00:00:00 | |
| OM5KV | 2026-09-04 01:20:08 | 50.49751 | 17.90691 | 131° | 24km/h | 19075m | -7.4m/s | 0°C | 0% | 0hPa | 0V | 00:00:00 | 00:00:00 | 00:00:00 | |
| POL1PZ | 2026-09-04 01:20:05 | 50.49761 | 17.90671 | 135° | 20km/h | 19097m | -7.9m/s | 0°C | 0% | 0hPa | 0V | 00:00:00 | 00:00:00 | 00:00:00 | |
| PETON7-10 | 2026-09-04 01:20:04 | 50.49765 | 17.90665 | 135° | 18km/h | 19105m | -8.3m/s | 0°C | 0% | 0hPa | 0V | 00:00:00 | 00:00:00 | 00:00:00 | |
| OM5KV | 2026-09-04 01:20:01 | 50.49774 | 17.90649 | 128° | 18km/h | 19130m | -7.8m/s | 0°C | 0% | 0hPa | 0V | 00:00:00 | 00:00:00 | 00:00:00 | |
| OM5KV | 2026-09-04 01:20:00 | 50.49776 | 17.90643 | 122° | 18km/h | 19138m | -8.1m/s | 0°C | 0% | 0hPa | 0V | 00:00:00 | 00:00:00 | 00:00:00 | |
| KRY50SP | 2026-09-04 01:19:56 | 50.49787 | 17.90619 | 126° | 18km/h | 19170m | -8.2m/s | 0°C | 0% | 0hPa | 0V | 00:00:00 | 00:00:00 | 00:00:00 | |
| SP6BVK | 2026-09-04 01:19:52 | 50.49796 | 17.90598 | 124° | 16km/h | 19204m | -7.5m/s | 0°C | 0% | 0hPa | 0V | 00:00:00 | 00:00:00 | 00:00:00 | |
| KRY50SP | 2026-09-04 01:19:50 | 50.49800 | 17.90585 | 120° | 20km/h | 19216m | -7.9m/s | 0°C | 0% | 0hPa | 0V | 00:00:00 | 00:00:00 | 00:00:00 | |
| PETON7-10 | 2026-09-04 01:19:49 | 50.49803 | 17.90578 | 123° | 27km/h | 19224m | -7.6m/s | 0°C | 0% | 0hPa | 0V | 00:00:00 | 00:00:00 | 00:00:00 | |
| POL1PZ | 2026-09-04 01:19:45 | 50.49816 | 17.90547 | 124° | 27km/h | 19256m | -8.4m/s | 0°C | 0% | 0hPa | 0V | 00:00:00 | 00:00:00 | 00:00:00 | |
| OE5DRO-10 | 2026-09-04 01:19:38 | 50.49842 | 17.90477 | 120° | 24km/h | 19310m | -8.1m/s | 0°C | 0% | 0hPa | 0V | 00:00:00 | 00:00:00 | 00:00:00 | |
| OM5KV | 2026-09-04 01:19:36 | 50.49850 | 17.90458 | 122° | 29km/h | 19327m | -8.7m/s | 0°C | 0% | 0hPa | 0V | 00:00:00 | 00:00:00 | 00:00:00 | |
| PETON7-10 | 2026-09-04 01:19:34 | 50.49858 | 17.90438 | 122° | 27km/h | 19343m | -8.1m/s | 0°C | 0% | 0hPa | 0V | 00:00:00 | 00:00:00 | 00:00:00 | |
| KRY50SP | 2026-09-04 01:19:32 | 50.49865 | 17.90418 | 126° | 27km/h | 19358m | -8.9m/s | 0°C | 0% | 0hPa | 0V | 00:00:00 | 00:00:00 | 00:00:00 | |
| SP6BVK | 2026-09-04 01:19:31 | 50.49869 | 17.90409 | 128° | 26km/h | 19366m | -10.1m/s | 0°C | 0% | 0hPa | 0V | 00:00:00 | 00:00:00 | 00:00:00 | |
| KRY50SP | 2026-09-04 01:19:27 | 50.49886 | 17.90380 | 131° | 26km/h | 19403m | -8.5m/s | 0°C | 0% | 0hPa | 0V | 00:00:00 | 00:00:00 | 00:00:00 | |
| POL1PZ | 2026-09-04 01:19:24 | 50.49897 | 17.90358 | 131° | 22km/h | 19428m | -7.7m/s | 0°C | 0% | 0hPa | 0V | 00:00:00 | 00:00:00 | 00:00:00 | |
| KRY50SP | 2026-09-04 01:19:22 | 50.49904 | 17.90345 | 131° | 22km/h | 19444m | -8.5m/s | 0°C | 0% | 0hPa | 0V | 00:00:00 | 00:00:00 | 00:00:00 | |
| OM5KV | 2026-09-04 01:19:21 | 50.49911 | 17.90332 | 133° | 20km/h | 19462m | -8.5m/s | 0°C | 0% | 0hPa | 0V | 00:00:00 | 00:00:00 | 00:00:00 | |
| OM5KV | 2026-09-04 01:19:18 | 50.49922 | 17.90310 | 133° | 24km/h | 19483m | -7.8m/s | 0°C | 0% | 0hPa | 0V | 00:00:00 | 00:00:00 | 00:00:00 | |
| KRY50SP | 2026-09-04 01:19:14 | 50.49935 | 17.90289 | 130° | 26km/h | 19507m | -8.7m/s | 0°C | 0% | 0hPa | 0V | 00:00:00 | 00:00:00 | 00:00:00 | |
| OM5KV | 2026-09-04 01:19:12 | 50.49944 | 17.90273 | 131° | 26km/h | 19523m | -7.8m/s | 0°C | 0% | 0hPa | 0V | 00:00:00 | 00:00:00 | 00:00:00 | |
| OM5KV | 2026-09-04 01:19:11 | 50.49949 | 17.90265 | 131° | 27km/h | 19530m | -7.5m/s | 0°C | 0% | 0hPa | 0V | 00:00:00 | 00:00:00 | 00:00:00 | |
| SP6BVK | 2026-09-04 01:19:10 | 50.49953 | 17.90257 | 132° | 27km/h | 19537m | -7.7m/s | 0°C | 0% | 0hPa | 0V | 00:00:00 | 00:00:00 | 00:00:00 | |
| KRY50SP | 2026-09-04 01:19:08 | 50.49962 | 17.90239 | 134° | 29km/h | 19550m | -8.6m/s | 0°C | 0% | 0hPa | 0V | 00:00:00 | 00:00:00 | 00:00:00 | |
| PETON7-10 | 2026-09-04 01:19:04 | 50.49983 | 17.90204 | 137° | 29km/h | 19582m | -7.4m/s | 0°C | 0% | 0hPa | 0V | 00:00:00 | 00:00:00 | 00:00:00 | |
| OM5KV | 2026-09-04 01:19:02 | 50.49996 | 17.90188 | 140° | 33km/h | 19598m | -7.4m/s | 0°C | 0% | 0hPa | 0V | 00:00:00 | 00:00:00 | 00:00:00 | |
| SQ6EMJ | 2026-09-04 01:19:01 | 50.50009 | 17.90173 | 142° | 31km/h | 19614m | -7.4m/s | 0°C | 0% | 0hPa | 0V | 00:00:00 | 00:00:00 | 00:00:00 | |
| OM5KV | 2026-09-04 01:18:56 | 50.50034 | 17.90146 | 144° | 31km/h | 19648m | -7.3m/s | 0°C | 0% | 0hPa | 0V | 00:00:00 | 00:00:00 | 00:00:00 | |
| OK1ALN | 2026-09-04 01:18:55 | 50.50041 | 17.90141 | 147° | 31km/h | 19658m | -7.5m/s | 0°C | 0% | 0hPa | 0V | 00:00:00 | 00:00:00 | 00:00:00 | |
| OM5KV | 2026-09-04 01:18:50 | 50.50071 | 17.90110 | 138° | 27km/h | 19694m | -5.7m/s | 0°C | 0% | 0hPa | 0V | 00:00:00 | 00:00:00 | 00:00:00 | |
| PETON7-10 | 2026-09-04 01:18:46 | 50.50090 | 17.90082 | 134° | 26km/h | 19716m | -7.1m/s | 0°C | 0% | 0hPa | 0V | 00:00:00 | 00:00:00 | 00:00:00 | |
| OM5KV | 2026-09-04 01:18:45 | 50.50095 | 17.90077 | 143° | 22km/h | 19724m | -7.2m/s | 0°C | 0% | 0hPa | 0V | 00:00:00 | 00:00:00 | 00:00:00 | |
| POL1PZ | 2026-09-04 01:18:44 | 50.50099 | 17.90072 | 142° | 22km/h | 19732m | -7.5m/s | 0°C | 0% | 0hPa | 0V | 00:00:00 | 00:00:00 | 00:00:00 | |
| OM5KV | 2026-09-04 01:18:43 | 50.50104 | 17.90067 | 133° | 22km/h | 19739m | -6.4m/s | 0°C | 0% | 0hPa | 0V | 00:00:00 | 00:00:00 | 00:00:00 | |
| OK1ALN | 2026-09-04 01:18:33 | 50.50150 | 17.90003 | 142° | 26km/h | 19811m | -7.3m/s | 0°C | 0% | 0hPa | 0V | 00:00:00 | 00:00:00 | 00:00:00 | |
| OM5KV | 2026-09-04 01:18:32 | 50.50155 | 17.89997 | 140° | 26km/h | 19818m | -7.2m/s | 0°C | 0% | 0hPa | 0V | 00:00:00 | 00:00:00 | 00:00:00 | |
| PETON7-10 | 2026-09-04 01:18:31 | 50.50159 | 17.89990 | 141° | 22km/h | 19824m | -8.1m/s | 0°C | 0% | 0hPa | 0V | 00:00:00 | 00:00:00 | 00:00:00 | |
| OM5KV | 2026-09-04 01:18:26 | 50.50182 | 17.89957 | 138° | 22km/h | 19864m | -7.9m/s | 0°C | 0% | 0hPa | 0V | 00:00:00 | 00:00:00 | 00:00:00 | |
| SP6BVK | 2026-09-04 01:18:25 | 50.50186 | 17.89951 | 137° | 22km/h | 19872m | -7.8m/s | 0°C | 0% | 0hPa | 0V | 00:00:00 | 00:00:00 | 00:00:00 | |
| POL1PZ | 2026-09-04 01:18:23 | 50.50195 | 17.89938 | 140° | 20km/h | 19887m | -8.8m/s | 0°C | 0% | 0hPa | 0V | 00:00:00 | 00:00:00 | 00:00:00 | |
| PETON7-10 | 2026-09-04 01:18:16 | 50.50218 | 17.89892 | 123° | 20km/h | 19940m | -7.6m/s | 0°C | 0% | 0hPa | 0V | 00:00:00 | 00:00:00 | 00:00:00 | |
| OM5KV | 2026-09-04 01:18:15 | 50.50221 | 17.89885 | 123° | 24km/h | 19947m | -7.5m/s | 0°C | 0% | 0hPa | 0V | 00:00:00 | 00:00:00 | 00:00:00 | |
| SQ6EMJ | 2026-09-04 01:18:08 | 50.50239 | 17.89837 | 117° | 20km/h | 20000m | -8.2m/s | 0°C | 0% | 0hPa | 0V | 00:00:00 | 00:00:00 | 00:00:00 | |
| POL1PZ | 2026-09-04 01:18:03 | 50.50250 | 17.89803 | 119° | 22km/h | 20042m | -7.7m/s | 0°C | 0% | 0hPa | 0V | 00:00:00 | 00:00:00 | 00:00:00 | |
| OM5KV | 2026-09-04 01:18:02 | 50.50253 | 17.89796 | 119° | 20km/h | 20048m | -7.8m/s | 0°C | 0% | 0hPa | 0V | 00:00:00 | 00:00:00 | 00:00:00 | |
| PETON7-10 | 2026-09-04 01:18:00 | 50.50257 | 17.89782 | 108° | 24km/h | 20064m | -7.8m/s | 0°C | 0% | 0hPa | 0V | 00:00:00 | 00:00:00 | 00:00:00 | |
| OM5KV | 2026-09-04 01:17:51 | 50.50284 | 17.89714 | 121° | 24km/h | 20145m | -8.4m/s | 0°C | 0% | 0hPa | 0V | 00:00:00 | 00:00:00 | 00:00:00 | |
| PETON7-10 | 2026-09-04 01:17:45 | 50.50305 | 17.89661 | 129° | 22km/h | 20188m | -7.6m/s | 0°C | 0% | 0hPa | 0V | 00:00:00 | 00:00:00 | 00:00:00 | |
| POL1PZ | 2026-09-04 01:17:42 | 50.50315 | 17.89640 | 131° | 22km/h | 20211m | -7.5m/s | 0°C | 0% | 0hPa | 0V | 00:00:00 | 00:00:00 | 00:00:00 | |
| PETON7-10 | 2026-09-04 01:17:30 | 50.50363 | 17.89566 | 141° | 20km/h | 20304m | -6.5m/s | 0°C | 0% | 0hPa | 0V | 00:00:00 | 00:00:00 | 00:00:00 | |
| POL1PZ | 2026-09-04 01:17:21 | 50.50402 | 17.89523 | 149° | 20km/h | 20374m | -8.2m/s | 0°C | 0% | 0hPa | 0V | 00:00:00 | 00:00:00 | 00:00:00 | |
| PETON7-10 | 2026-09-04 01:17:15 | 50.50428 | 17.89507 | 169° | 16km/h | 20423m | -8.0m/s | 0°C | 0% | 0hPa | 0V | 00:00:00 | 00:00:00 | 00:00:00 | |
| OE5DRO-10 | 2026-09-04 01:17:11 | 50.50445 | 17.89503 | 171° | 15km/h | 20455m | -8.0m/s | 0°C | 0% | 0hPa | 0V | 00:00:00 | 00:00:00 | 00:00:00 | |
| SQ6EMJ | 2026-09-04 01:17:05 | 50.50469 | 17.89492 | 156° | 15km/h | 20501m | -7.8m/s | 0°C | 0% | 0hPa | 0V | 00:00:00 | 00:00:00 | 00:00:00 | |
| POL1PZ | 2026-09-04 01:17:01 | 50.50481 | 17.89478 | 142° | 15km/h | 20531m | -7.7m/s | 0°C | 0% | 0hPa | 0V | 00:00:00 | 00:00:00 | 00:00:00 | |
| SQ6EMJ | 2026-09-04 01:17:00 | 50.50484 | 17.89475 | 145° | 13km/h | 20539m | -7.2m/s | 0°C | 0% | 0hPa | 0V | 00:00:00 | 00:00:00 | 00:00:00 | |
| PETON7-10 | 2026-09-04 01:16:57 | 50.50492 | 17.89462 | 135° | 16km/h | 20563m | -7.6m/s | 0°C | 0% | 0hPa | 0V | 00:00:00 | 00:00:00 | 00:00:00 | |
| OE5DRO-10 | 2026-09-04 01:16:52 | 50.50504 | 17.89443 | 129° | 18km/h | 20601m | -8.1m/s | 0°C | 0% | 0hPa | 0V | 00:00:00 | 00:00:00 | 00:00:00 | |
| SQ6EMJ | 2026-09-04 01:16:51 | 50.50507 | 17.89438 | 135° | 18km/h | 20610m | -8.0m/s | 0°C | 0% | 0hPa | 0V | 00:00:00 | 00:00:00 | 00:00:00 | |
| SQ6EMJ | 2026-09-04 01:16:46 | 50.50523 | 17.89413 | 141° | 18km/h | 20655m | -8.6m/s | 0°C | 0% | 0hPa | 0V | 00:00:00 | 00:00:00 | 00:00:00 | |
| PETON7-10 | 2026-09-04 01:16:42 | 50.50535 | 17.89394 | 130° | 20km/h | 20688m | -8.1m/s | 0°C | 0% | 0hPa | 0V | 00:00:00 | 00:00:00 | 00:00:00 | |
| POL1PZ | 2026-09-04 01:16:40 | 50.50542 | 17.89383 | 131° | 24km/h | 20704m | -7.7m/s | 0°C | 0% | 0hPa | 0V | 00:00:00 | 00:00:00 | 00:00:00 | |
| SQ6EMJ | 2026-09-04 01:16:36 | 50.50558 | 17.89357 | 132° | 20km/h | 20732m | -7.2m/s | 0°C | 0% | 0hPa | 0V | 00:00:00 | 00:00:00 | 00:00:00 | |
| OE5DRO-10 | 2026-09-04 01:16:33 | 50.50566 | 17.89340 | 121° | 20km/h | 20753m | -7.9m/s | 0°C | 0% | 0hPa | 0V | 00:00:00 | 00:00:00 | 00:00:00 | |
| PETON7-10 | 2026-09-04 01:16:27 | 50.50574 | 17.89292 | 109° | 20km/h | 20794m | -7.7m/s | 0°C | 0% | 0hPa | 0V | 00:00:00 | 00:00:00 | 00:00:00 | |
| SQ6EMJ | 2026-09-04 01:16:22 | 50.50583 | 17.89247 | 96° | 29km/h | 20829m | -8.1m/s | 0°C | 0% | 0hPa | 0V | 00:00:00 | 00:00:00 | 00:00:00 | |
| SP6BVK | 2026-09-04 01:16:20 | 50.50588 | 17.89230 | 115° | 18km/h | 20848m | -12.5m/s | 0°C | 0% | 0hPa | 0V | 00:00:00 | 00:00:00 | 00:00:00 | |
| POL1PZ | 2026-09-04 01:16:19 | 50.50590 | 17.89223 | 108° | 20km/h | 20861m | -10.2m/s | 0°C | 0% | 0hPa | 0V | 00:00:00 | 00:00:00 | 00:00:00 | |
| SQ6EMJ | 2026-09-04 01:16:16 | 50.50599 | 17.89193 | 121° | 15km/h | 20893m | -8.6m/s | 0°C | 0% | 0hPa | 0V | 00:00:00 | 00:00:00 | 00:00:00 | |
| OE5DRO-10 | 2026-09-04 01:16:13 | 50.50606 | 17.89173 | 125° | 15km/h | 20917m | -7.7m/s | 0°C | 0% | 0hPa | 0V | 00:00:00 | 00:00:00 | 00:00:00 | |
| PETON7-10 | 2026-09-04 01:16:12 | 50.50606 | 17.89173 | 125° | 11km/h | 20917m | -7.7m/s | 0°C | 0% | 0hPa | 0V | 00:00:00 | 00:00:00 | 00:00:00 | |
| SQ6EMJ | 2026-09-04 01:16:11 | 50.50611 | 17.89160 | 130° | 18km/h | 20932m | -8.6m/s | 0°C | 0% | 0hPa | 0V | 00:00:00 | 00:00:00 | 00:00:00 | |
| SQ6EMJ | 2026-09-04 01:16:04 | 50.50626 | 17.89128 | 135° | 13km/h | 20985m | -9.8m/s | 0°C | 0% | 0hPa | 0V | 00:00:00 | 00:00:00 | 00:00:00 | |
| SP6BVK | 2026-09-04 01:16:00 | 50.50636 | 17.89113 | 126° | 13km/h | 21019m | -6.9m/s | 0°C | 0% | 0hPa | 0V | 00:00:00 | 00:00:00 | 00:00:00 | |
| POL1PZ | 2026-09-04 01:15:59 | 50.50637 | 17.89110 | 125° | 9km/h | 21026m | -7.0m/s | 0°C | 0% | 0hPa | 0V | 00:00:00 | 00:00:00 | 00:00:00 | |
| SQ6EMJ | 2026-09-04 01:15:57 | 50.50638 | 17.89103 | 132° | 9km/h | 21039m | -8.4m/s | 0°C | 0% | 0hPa | 0V | 00:00:00 | 00:00:00 | 00:00:00 | |
| OE5DRO-10 | 2026-09-04 01:15:53 | 50.50644 | 17.89094 | 116° | 7km/h | 21072m | -8.5m/s | 0°C | 0% | 0hPa | 0V | 00:00:00 | 00:00:00 | 00:00:00 | |
| SQ6EMJ | 2026-09-04 01:15:52 | 50.50645 | 17.89091 | 124° | 9km/h | 21079m | -7.5m/s | 0°C | 0% | 0hPa | 0V | 00:00:00 | 00:00:00 | 00:00:00 | |
| SQ6EMJ | 2026-09-04 01:15:47 | 50.50647 | 17.89080 | 173° | 4km/h | 21116m | -11.2m/s | 0°C | 0% | 0hPa | 0V | 00:00:00 | 00:00:00 | 00:00:00 | |
| SQ6EMJ | 2026-09-04 01:15:41 | 50.50647 | 17.89071 | 45° | 4km/h | 21170m | -9.9m/s | 0°C | 0% | 0hPa | 0V | 00:00:00 | 00:00:00 | 00:00:00 | |
| SP6BVK | 2026-09-04 01:15:39 | 50.50646 | 17.89068 | 306° | 2km/h | 21188m | -8.4m/s | 0°C | 0% | 0hPa | 0V | 00:00:00 | 00:00:00 | 00:00:00 | |
| POL1PZ | 2026-09-04 01:15:38 | 50.50645 | 17.89069 | 359° | 9km/h | 21196m | -7.8m/s | 0°C | 0% | 0hPa | 0V | 00:00:00 | 00:00:00 | 00:00:00 | |
| PETON7-10 | 2026-09-04 01:15:30 | 50.50633 | 17.89057 | 30° | 9km/h | 21268m | -10.9m/s | 0°C | 0% | 0hPa | 0V | 00:00:00 | 00:00:00 | 00:00:00 | |
| OE5DRO-10 | 2026-09-04 01:15:26 | 50.50625 | 17.89051 | 10° | 13km/h | 21311m | -12.3m/s | 0°C | 0% | 0hPa | 0V | 00:00:00 | 00:00:00 | 00:00:00 | |
| SP6BVK | 2026-09-04 01:15:19 | 50.50610 | 17.89039 | 59° | 9km/h | 21401m | -15.1m/s | 0°C | 0% | 0hPa | 0V | 00:00:00 | 00:00:00 | 00:00:00 | |
| POL1PZ | 2026-09-04 01:15:18 | 50.50608 | 17.89038 | 76° | 7km/h | 21418m | -14.5m/s | 0°C | 0% | 0hPa | 0V | 00:00:00 | 00:00:00 | 00:00:00 | |
| PETON7-10 | 2026-09-04 01:15:15 | 50.50606 | 17.89031 | 70° | 15km/h | 21463m | -13.3m/s | 0°C | 0% | 0hPa | 0V | 00:00:00 | 00:00:00 | 00:00:00 | |
| OE5DRO-10 | 2026-09-04 01:15:03 | 50.50595 | 17.88972 | 73° | 29km/h | 21608m | -11.9m/s | 0°C | 0% | 0hPa | 0V | 00:00:00 | 00:00:00 | 00:00:00 | |
| POL1PZ | 2026-09-04 01:14:58 | 50.50590 | 17.88934 | 73° | 26km/h | 21670m | -11.1m/s | 0°C | 0% | 0hPa | 0V | 00:00:00 | 00:00:00 | 00:00:00 | |
| PETON7-10 | 2026-09-04 01:14:57 | 50.50588 | 17.88924 | 75° | 27km/h | 21680m | -11.8m/s | 0°C | 0% | 0hPa | 0V | 00:00:00 | 00:00:00 | 00:00:00 | |
| PETON7-10 | 2026-09-04 01:14:42 | 50.50569 | 17.88769 | 82° | 31km/h | 21886m | -14.1m/s | 0°C | 0% | 0hPa | 0V | 00:00:00 | 00:00:00 | 00:00:00 | |
| SP6BVK | 2026-09-04 01:14:37 | 50.50562 | 17.88693 | 87° | 33km/h | 21945m | -17.5m/s | 0°C | 0% | 0hPa | 0V | 00:00:00 | 00:00:00 | 00:00:00 | |
| PETON7-10 | 2026-09-04 01:14:27 | 50.50581 | 17.88588 | 119° | 22km/h | 22112m | -14.9m/s | 0°C | 0% | 0hPa | 0V | 00:00:00 | 00:00:00 | 00:00:00 | |
| OE5DRO-10 | 2026-09-04 01:14:17 | 50.50608 | 17.88525 | 176° | 13km/h | 22256m | -23.2m/s | 0°C | 0% | 0hPa | 0V | 00:00:00 | 00:00:00 | 00:00:00 | |
| POL1PZ | 2026-09-04 01:14:16 | 50.50614 | 17.88527 | 218° | 47km/h | 22277m | -32.1m/s | 0°C | 0% | 0hPa | 0V | 00:00:00 | 00:00:00 | 00:00:00 | |
| PETON7-10 | 2026-09-04 01:14:10 | 50.50642 | 17.88545 | 212° | 9km/h | 22400m | -18.4m/s | 0°C | 0% | 0hPa | 0V | 00:00:00 | 00:00:00 | 00:00:00 | |
| PG1ADW-2 | 2026-09-04 01:14:05 | 50.50652 | 17.88558 | 218° | 11km/h | 22485m | -17.4m/s | 0°C | 0% | 0hPa | 0V | 00:00:00 | 00:00:00 | 00:00:00 | |
| OE5DRO-10 | 2026-09-04 01:13:58 | 50.50656 | 17.88562 | 168° | 15km/h | 22600m | -17.6m/s | 0°C | 0% | 0hPa | 0V | 00:00:00 | 00:00:00 | 00:00:00 | |
| PETON7-10 | 2026-09-04 01:13:55 | 50.50658 | 17.88554 | 93° | 16km/h | 22651m | -16.4m/s | 0°C | 0% | 0hPa | 0V | 00:00:00 | 00:00:00 | 00:00:00 | |
| PG1ADW-2 | 2026-09-04 01:13:45 | 50.50676 | 17.88506 | 117° | 15km/h | 22790m | -12.1m/s | 0°C | 0% | 0hPa | 0V | 00:00:00 | 00:00:00 | 00:00:00 | |
| PETON7-10 | 2026-09-04 01:13:39 | 50.50690 | 17.88471 | 133° | 13km/h | 22879m | -15.2m/s | 0°C | 0% | 0hPa | 0V | 00:00:00 | 00:00:00 | 00:00:00 | |
| OE5DRO-10 | 2026-09-04 01:13:38 | 50.50693 | 17.88466 | 145° | 9km/h | 22894m | -16.7m/s | 0°C | 0% | 0hPa | 0V | 00:00:00 | 00:00:00 | 00:00:00 | |
| POL1PZ | 2026-09-04 01:13:34 | 50.50703 | 17.88450 | 134° | 11km/h | 22954m | -14.4m/s | 0°C | 0% | 0hPa | 0V | 00:00:00 | 00:00:00 | 00:00:00 | |
| PG1ADW-2 | 2026-09-04 01:13:25 | 50.50719 | 17.88421 | 120° | 18km/h | 23099m | -18.1m/s | 0°C | 0% | 0hPa | 0V | 00:00:00 | 00:00:00 | 00:00:00 | |
| PETON7-10 | 2026-09-04 01:13:24 | 50.50720 | 17.88419 | 114° | 5km/h | 23118m | -18.3m/s | 0°C | 0% | 0hPa | 0V | 00:00:00 | 00:00:00 | 00:00:00 | |
| SP6BVK | 2026-09-04 01:13:14 | 50.50750 | 17.88353 | 131° | 26km/h | 23282m | -15.9m/s | 0°C | 0% | 0hPa | 0V | 00:00:00 | 00:00:00 | 00:00:00 | |
| POL1PZ | 2026-09-04 01:13:13 | 50.50754 | 17.88347 | 142° | 22km/h | 23298m | -13.5m/s | 0°C | 0% | 0hPa | 0V | 00:00:00 | 00:00:00 | 00:00:00 | |
| PG1ADW-2 | 2026-09-04 01:13:04 | 50.50787 | 17.88314 | 161° | 20km/h | 23428m | -16.8m/s | 0°C | 0% | 0hPa | 0V | 00:00:00 | 00:00:00 | 00:00:00 | |
| SP6BVK | 2026-09-04 01:12:53 | 50.50807 | 17.88281 | 219° | 75km/h | 23568m | -47.6m/s | 0°C | 0% | 0hPa | 0V | 00:00:00 | 00:00:00 | 00:00:00 | |
| POL1PZ | 2026-09-04 01:12:52 | 50.50821 | 17.88298 | 194° | 22km/h | 23622m | -20.9m/s | 0°C | 0% | 0hPa | 0V | 00:00:00 | 00:00:00 | 00:00:00 | |
| S52SK | 2026-09-04 01:12:50 | 50.50829 | 17.88295 | 132° | 18km/h | 23659m | -15.0m/s | 0°C | 0% | 0hPa | 0V | 00:00:00 | 00:00:00 | 00:00:00 | |
| PG1ADW-2 | 2026-09-04 01:12:44 | 50.50851 | 17.88269 | 176° | 26km/h | 23736m | -17.1m/s | 0°C | 0% | 0hPa | 0V | 00:00:00 | 00:00:00 | 00:00:00 | |
| S52SK | 2026-09-04 01:12:39 | 50.50880 | 17.88271 | 180° | 24km/h | 23831m | -17.0m/s | 0°C | 0% | 0hPa | 0V | 00:00:00 | 00:00:00 | 00:00:00 | |
| S52SK | 2026-09-04 01:12:33 | 50.50919 | 17.88260 | 170° | 27km/h | 23940m | -22.9m/s | 0°C | 0% | 0hPa | 0V | 00:00:00 | 00:00:00 | 00:00:00 | |
| POL1PZ | 2026-09-04 01:12:31 | 50.50933 | 17.88258 | 192° | 16km/h | 23982m | -17.9m/s | 0°C | 0% | 0hPa | 0V | 00:00:00 | 00:00:00 | 00:00:00 | |
| S52SK | 2026-09-04 01:12:24 | 50.50973 | 17.88248 | 174° | 26km/h | 24110m | -19.7m/s | 0°C | 0% | 0hPa | 0V | 00:00:00 | 00:00:00 | 00:00:00 | |
| OK1SLM-15 | 2026-09-04 01:12:22 | 50.50986 | 17.88245 | 177° | 26km/h | 24150m | -19.4m/s | 0°C | 0% | 0hPa | 0V | 00:00:00 | 00:00:00 | 00:00:00 | |
| OK1SLM-15 | 2026-09-04 01:12:17 | 50.51014 | 17.88250 | 197° | 18km/h | 24246m | -19.5m/s | 0°C | 0% | 0hPa | 0V | 00:00:00 | 00:00:00 | 00:00:00 | |
| S52SK | 2026-09-04 01:12:15 | 50.51024 | 17.88253 | 185° | 24km/h | 24286m | -21.3m/s | 0°C | 0% | 0hPa | 0V | 00:00:00 | 00:00:00 | 00:00:00 | |
| PG1ADW-2 | 2026-09-04 01:12:14 | 50.51029 | 17.88255 | 202° | 11km/h | 24307m | -17.8m/s | 0°C | 0% | 0hPa | 0V | 00:00:00 | 00:00:00 | 00:00:00 | |
| SP6BVK | 2026-09-04 01:12:12 | 50.51038 | 17.88262 | 213° | 15km/h | 24341m | -17.1m/s | 0°C | 0% | 0hPa | 0V | 00:00:00 | 00:00:00 | 00:00:00 | |
| OK1SLM-15 | 2026-09-04 01:12:11 | 50.51042 | 17.88268 | 218° | 22km/h | 24360m | -19.3m/s | 0°C | 0% | 0hPa | 0V | 00:00:00 | 00:00:00 | 00:00:00 | |
| POL1PZ | 2026-09-04 01:12:09 | 50.51048 | 17.88278 | 226° | 15km/h | 24396m | -15.4m/s | 0°C | 0% | 0hPa | 0V | 00:00:00 | 00:00:00 | 00:00:00 | |
| PG1ADW-2 | 2026-09-04 01:11:54 | 50.51048 | 17.88338 | 332° | 13km/h | 24665m | -17.8m/s | 0°C | 0% | 0hPa | 0V | 00:00:00 | 00:00:00 | 00:00:00 | |
| SP6BVK | 2026-09-04 01:11:52 | 50.51045 | 17.88337 | 30° | 5km/h | 24703m | -19.0m/s | 0°C | 0% | 0hPa | 0V | 00:00:00 | 00:00:00 | 00:00:00 | |
| POL1PZ | 2026-09-04 01:11:49 | 50.51042 | 17.88334 | 72° | 7km/h | 24759m | -18.3m/s | 0°C | 0% | 0hPa | 0V | 00:00:00 | 00:00:00 | 00:00:00 | |
| SP6BVK | 2026-09-04 01:11:31 | 50.51083 | 17.88315 | 213° | 13km/h | 25101m | -18.5m/s | 0°C | 0% | 0hPa | 0V | 00:00:00 | 00:00:00 | 00:00:00 | |
| POL1PZ | 2026-09-04 01:11:28 | 50.51090 | 17.88321 | 258° | 4km/h | 25160m | -18.8m/s | 0°C | 0% | 0hPa | 0V | 00:00:00 | 00:00:00 | 00:00:00 | |
| SP6BVK | 2026-09-04 01:11:10 | 50.51047 | 17.88345 | 18° | 15km/h | 25497m | -18.0m/s | 0°C | 0% | 0hPa | 0V | 00:00:00 | 00:00:00 | 00:00:00 | |
| POL1PZ | 2026-09-04 01:11:07 | 50.51040 | 17.88340 | 67° | 9km/h | 25554m | -19.1m/s | 0°C | 0% | 0hPa | 0V | 00:00:00 | 00:00:00 | 00:00:00 | |
| SP6BVK | 2026-09-04 01:10:50 | 50.51048 | 17.88250 | 141° | 4km/h | 25853m | -20.7m/s | 0°C | 0% | 0hPa | 0V | 00:00:00 | 00:00:00 | 00:00:00 | |
| SQ6EMJ | 2026-09-04 01:10:47 | 50.51049 | 17.88249 | 327° | 2km/h | 25913m | -18.2m/s | 0°C | 0% | 0hPa | 0V | 00:00:00 | 00:00:00 | 00:00:00 | |
| POL1PZ | 2026-09-04 01:10:45 | 50.51048 | 17.88249 | 13° | 5km/h | 25949m | -16.9m/s | 0°C | 0% | 0hPa | 0V | 00:00:00 | 00:00:00 | 00:00:00 | |
| SQ6EMJ | 2026-09-04 01:10:42 | 50.51046 | 17.88246 | 66° | 7km/h | 26006m | -19.1m/s | 0°C | 0% | 0hPa | 0V | 00:00:00 | 00:00:00 | 00:00:00 | |
| SQ6EMJ | 2026-09-04 01:10:36 | 50.51033 | 17.88239 | 33° | 9km/h | 26128m | -24.9m/s | 0°C | 0% | 0hPa | 0V | 00:00:00 | 00:00:00 | 00:00:00 | |
| S52SK | 2026-09-04 01:10:33 | 50.51030 | 17.88230 | 76° | 7km/h | 26198m | -20.0m/s | 0°C | 0% | 0hPa | 0V | 00:00:00 | 00:00:00 | 00:00:00 | |
| SP6BVK | 2026-09-04 01:10:30 | 50.51032 | 17.88223 | 110° | 9km/h | 26254m | -17.8m/s | 0°C | 0% | 0hPa | 0V | 00:00:00 | 00:00:00 | 00:00:00 | |
| S52SK | 2026-09-04 01:10:27 | 50.51032 | 17.88212 | 89° | 15km/h | 26312m | -18.5m/s | 0°C | 0% | 0hPa | 0V | 00:00:00 | 00:00:00 | 00:00:00 | |
| POL1PZ | 2026-09-04 01:10:24 | 50.51034 | 17.88196 | 103° | 13km/h | 26367m | -15.9m/s | 0°C | 0% | 0hPa | 0V | 00:00:00 | 00:00:00 | 00:00:00 | |
| SP6BVK | 2026-09-04 01:10:10 | 50.51069 | 17.88147 | 183° | 13km/h | 26591m | -18.1m/s | 0°C | 0% | 0hPa | 0V | 00:00:00 | 00:00:00 | 00:00:00 | |
| POL1PZ | 2026-09-04 01:09:57 | 50.51115 | 17.88131 | 173° | 9km/h | 26851m | -20.5m/s | 0°C | 0% | 0hPa | 0V | 00:00:00 | 00:00:00 | 00:00:00 | |
| SQ6EMJ | 2026-09-04 01:09:55 | 50.51119 | 17.88131 | 150° | 13km/h | 26900m | -20.3m/s | 0°C | 0% | 0hPa | 0V | 00:00:00 | 00:00:00 | 00:00:00 | |
| SP6BVK | 2026-09-04 01:09:49 | 50.51132 | 17.88111 | 134° | 13km/h | 27017m | -20.4m/s | 0°C | 0% | 0hPa | 0V | 00:00:00 | 00:00:00 | 00:00:00 | |
| SP4MAZ | 2026-09-04 01:09:36 | 50.51157 | 17.88079 | 136° | 16km/h | 27274m | -18.9m/s | 0°C | 0% | 0hPa | 0V | 00:00:00 | 00:00:00 | 00:00:00 | |
| POL1PZ | 2026-09-04 01:09:28 | 50.51192 | 17.88048 | 156° | 13km/h | 27450m | -18.9m/s | 0°C | 0% | 0hPa | 0V | 00:00:00 | 00:00:00 | 00:00:00 | |
| SQ6EMJ | 2026-09-04 01:09:27 | 50.51194 | 17.88047 | 180° | 5km/h | 27469m | -18.9m/s | 0°C | 0% | 0hPa | 0V | 00:00:00 | 00:00:00 | 00:00:00 | |
| POL1PZ | 2026-09-04 01:09:08 | 50.51186 | 17.88039 | 52° | 15km/h | 27865m | -21.5m/s | 0°C | 0% | 0hPa | 0V | 00:00:00 | 00:00:00 | 00:00:00 | |
| SP6BVK | 2026-09-04 01:09:07 | 50.51184 | 17.88035 | 43° | 11km/h | 27887m | -21.1m/s | 0°C | 0% | 0hPa | 0V | 00:00:00 | 00:00:00 | 00:00:00 | |
| POL1PZ | 2026-09-04 01:05:55 | 50.51188 | 17.86959 | 83° | 27km/h | 33244m | -30.7m/s | 0°C | 0% | 0hPa | 0V | 00:00:00 | 00:00:00 | 00:00:00 | |
| PETON7-10 | 2026-09-04 01:05:52 | 50.51187 | 17.86924 | 95° | 22km/h | 33344m | -32.5m/s | 0°C | 0% | 0hPa | 0V | 00:00:00 | 00:00:00 | 00:00:00 | |
| SP6BVK | 2026-09-04 01:05:41 | 50.51179 | 17.86836 | 67° | 24km/h | 33738m | -35.3m/s | 0°C | 0% | 0hPa | 0V | 00:00:00 | 00:00:00 | 00:00:00 | |
| PETON7-10 | 2026-09-04 01:05:35 | 50.51170 | 17.86777 | 77° | 22km/h | 33961m | -33.9m/s | 0°C | 0% | 0hPa | 0V | 00:00:00 | 00:00:00 | 00:00:00 | |
| SP3BTT-10 | 2026-09-04 01:05:32 | 50.51170 | 17.86756 | 120° | 26km/h | 34064m | -34.2m/s | 0°C | 0% | 0hPa | 0V | 00:00:00 | 00:00:00 | 00:00:00 | |
| PG1ADW-2 | 2026-09-04 01:05:27 | 50.51182 | 17.86711 | 110° | 20km/h | 34230m | -36.0m/s | 0°C | 0% | 0hPa | 0V | 00:00:00 | 00:00:00 | 00:00:00 | |
| S52SK | 2026-09-04 01:05:25 | 50.51186 | 17.86701 | 127° | 18km/h | 34302m | -35.0m/s | 0°C | 0% | 0hPa | 0V | 00:00:00 | 00:00:00 | 00:00:00 | |
| DB0UT-7 | 2026-09-04 01:05:23 | 50.51194 | 17.86689 | 142° | 44km/h | 34376m | -34.6m/s | 0°C | 0% | 0hPa | 0V | 00:00:00 | 00:00:00 | 00:00:00 | |
| SP6BVK | 2026-09-04 01:05:21 | 50.51205 | 17.86677 | 124° | 24km/h | 34446m | -27.8m/s | 0°C | 0% | 0hPa | 0V | 00:00:00 | 00:00:00 | 00:00:00 | |
| PETON7-10 | 2026-09-04 01:05:18 | 50.51215 | 17.86663 | 143° | 15km/h | 34534m | -31.1m/s | 0°C | 0% | 0hPa | 0V | 00:00:00 | 00:00:00 | 00:00:00 | |
| S52SK | 2026-09-04 01:05:17 | 50.51219 | 17.86660 | 154° | 22km/h | 34565m | -33.6m/s | 0°C | 0% | 0hPa | 0V | 00:00:00 | 00:00:00 | 00:00:00 | |
| POL1PZ | 2026-09-04 01:05:11 | 50.51250 | 17.86633 | 130° | 24km/h | 34752m | -29.8m/s | 0°C | 0% | 0hPa | 0V | 00:00:00 | 00:00:00 | 00:00:00 | |
| SP3BTT-10 | 2026-09-04 01:05:02 | 50.51287 | 17.86567 | 140° | 38km/h | 35060m | -38.9m/s | 0°C | 0% | 0hPa | 0V | 00:00:00 | 00:00:00 | 00:00:00 | |
| SP6BVK | 2026-09-04 01:05:00 | 50.51296 | 17.86562 | 168° | 5km/h | 35136m | -37.2m/s | 0°C | 0% | 0hPa | 0V | 00:00:00 | 00:00:00 | 00:00:00 | |
| OE5MMP-10 | 2026-09-04 01:04:59 | 50.51295 | 17.86561 | 32° | 22km/h | 35175m | -36.6m/s | 0°C | 0% | 0hPa | 0V | 00:00:00 | 00:00:00 | 00:00:00 | |
| PETON7-10 | 2026-09-04 01:04:56 | 50.51287 | 17.86554 | 28° | 15km/h | 35285m | -37.2m/s | 0°C | 0% | 0hPa | 0V | 00:00:00 | 00:00:00 | 00:00:00 | |
| POL1PZ | 2026-09-04 01:04:50 | 50.51293 | 17.86539 | 283° | 5km/h | 35502m | -35.6m/s | 0°C | 0% | 0hPa | 0V | 00:00:00 | 00:00:00 | 00:00:00 | |
| PETON7-10 | 2026-09-04 01:04:41 | 50.51294 | 17.86479 | 114° | 29km/h | 35816m | -16.4m/s | 0°C | 0% | 0hPa | 0V | 00:00:00 | 00:00:00 | 00:00:00 | |
| OE5MMP-10 | 2026-09-04 01:04:39 | 50.51281 | 17.86467 | 26° | 44km/h | 35854m | -33.4m/s | 0°C | 0% | 0hPa | 0V | 00:00:00 | 00:00:00 | 00:00:00 | |
| POL1PZ | 2026-09-04 01:04:29 | 50.51295 | 17.86392 | 245° | 5km/h | 36112m | -23.5m/s | 0°C | 0% | 0hPa | 0V | 00:00:00 | 00:00:00 | 00:00:00 | |
| PETON7-10 | 2026-09-04 01:04:25 | 50.51256 | 17.86347 | 34° | 58km/h | 36192m | 8.7m/s | 0°C | 0% | 0hPa | 0V | 00:00:00 | 00:00:00 | 00:00:00 | |
| OE5MMP-10 | 2026-09-04 01:04:24 | 50.51241 | 17.86323 | 80° | 53km/h | 36183m | 13.9m/s | 0°C | 0% | 0hPa | 0V | 00:00:00 | 00:00:00 | 00:00:00 | |
| POL1PZ | 2026-09-04 01:04:08 | 50.51294 | 17.86264 | 351° | 46km/h | 36034m | -0.7m/s | 0°C | 0% | 0hPa | 0V | 00:00:00 | 00:00:00 | 00:00:00 | |
| SP3BTT-10 | 2026-09-04 01:04:05 | 50.51261 | 17.86222 | 66° | 49km/h | 36023m | 5.9m/s | 0°C | 0% | 0hPa | 0V | 00:00:00 | 00:00:00 | 00:00:00 | |
| OE5MMP-10 | 2026-09-04 01:04:01 | 50.51294 | 17.86149 | 193° | 42km/h | 35993m | 6.2m/s | 0°C | 0% | 0hPa | 0V | 00:00:00 | 00:00:00 | 00:00:00 | |
| PETON7-10 | 2026-09-04 01:03:57 | 50.51266 | 17.86193 | 6° | 57km/h | 35980m | 4.5m/s | 0°C | 0% | 0hPa | 0V | 00:00:00 | 00:00:00 | 00:00:00 | |
| OE5MMP-10 | 2026-09-04 01:03:47 | 50.51242 | 17.86098 | 40° | 51km/h | 35910m | 3.6m/s | 0°C | 0% | 0hPa | 0V | 00:00:00 | 00:00:00 | 00:00:00 | |
| POL1PZ | 2026-09-04 01:03:43 | 50.51236 | 17.86012 | 144° | 73km/h | 35856m | 6.2m/s | 0°C | 0% | 0hPa | 0V | 00:00:00 | 00:00:00 | 00:00:00 | |
| PETON7-10 | 2026-09-04 01:03:38 | 50.51242 | 17.85993 | 20° | 40km/h | 35833m | -6.0m/s | 0°C | 0% | 0hPa | 0V | 00:00:00 | 00:00:00 | 00:00:00 | |
| OE5MMP-10 | 2026-09-04 01:03:37 | 50.51228 | 17.85983 | 29° | 53km/h | 35841m | -2.0m/s | 0°C | 0% | 0hPa | 0V | 00:00:00 | 00:00:00 | 00:00:00 | |
| POL1PZ | 2026-09-04 01:03:23 | 50.51267 | 17.85738 | 150° | 57km/h | 35970m | 0.1m/s | 0°C | 0% | 0hPa | 0V | 00:00:00 | 00:00:00 | 00:00:00 | |
| PETON7-10 | 2026-09-04 01:03:11 | 50.51243 | 17.85838 | 314° | 46km/h | 35721m | 12.3m/s | 0°C | 0% | 0hPa | 0V | 00:00:00 | 00:00:00 | 00:00:00 | |
| POL1PZ | 2026-09-04 01:03:02 | 50.51238 | 17.85790 | 254° | 35km/h | 35677m | 8.7m/s | 0°C | 0% | 0hPa | 0V | 00:00:00 | 00:00:00 | 00:00:00 | |
| OE5MMP-10 | 2026-09-04 01:02:52 | 50.51226 | 17.85771 | 242° | 42km/h | 35716m | 22.9m/s | 0°C | 0% | 0hPa | 0V | 00:00:00 | 00:00:00 | 00:00:00 | |
| S52SK | 2026-09-04 01:02:49 | 50.51219 | 17.85741 | 119° | 38km/h | 35636m | 25.0m/s | 0°C | 0% | 0hPa | 0V | 00:00:00 | 00:00:00 | 00:00:00 | |
| SP3BTT-10 | 2026-09-04 01:02:46 | 50.51251 | 17.85705 | 176° | 55km/h | 35575m | 11.9m/s | 0°C | 0% | 0hPa | 0V | 00:00:00 | 00:00:00 | 00:00:00 | |
| PETON7-10 | 2026-09-04 01:02:42 | 50.51277 | 17.85760 | 312° | 55km/h | 35530m | 8.6m/s | 0°C | 0% | 0hPa | 0V | 00:00:00 | 00:00:00 | 00:00:00 | |
| POL1PZ | 2026-09-04 01:02:41 | 50.51265 | 17.85773 | 353° | 62km/h | 35521m | 5.1m/s | 0°C | 0% | 0hPa | 0V | 00:00:00 | 00:00:00 | 00:00:00 | |
| OE5MMP-10 | 2026-09-04 01:02:40 | 50.51250 | 17.85768 | 50° | 60km/h | 35515m | 1.8m/s | 0°C | 0% | 0hPa | 0V | 00:00:00 | 00:00:00 | 00:00:00 | |
| OE5MMP-10 | 2026-09-04 01:02:21 | 50.51217 | 17.85729 | 74° | 47km/h | 35398m | 16.2m/s | 0°C | 0% | 0hPa | 0V | 00:00:00 | 00:00:00 | 00:00:00 | |
| POL1PZ | 2026-09-04 01:02:19 | 50.51220 | 17.85693 | 132° | 47km/h | 35371m | 7.4m/s | 0°C | 0% | 0hPa | 0V | 00:00:00 | 00:00:00 | 00:00:00 | |
| OE5MMP-10 | 2026-09-04 01:02:03 | 50.51232 | 17.85678 | 34° | 53km/h | 35345m | 0.8m/s | 0°C | 0% | 0hPa | 0V | 00:00:00 | 00:00:00 | 00:00:00 | |
| PETON7-10 | 2026-09-04 01:02:02 | 50.51224 | 17.85660 | 60° | 58km/h | 35347m | 3.7m/s | 0°C | 0% | 0hPa | 0V | 00:00:00 | 00:00:00 | 00:00:00 | |
| POL1PZ | 2026-09-04 01:01:59 | 50.51245 | 17.85607 | 173° | 64km/h | 35344m | 4.1m/s | 0°C | 0% | 0hPa | 0V | 00:00:00 | 00:00:00 | 00:00:00 | |
| PETON7-10 | 2026-09-04 01:01:46 | 50.51327 | 17.85652 | 321° | 31km/h | 35195m | 10.1m/s | 0°C | 0% | 0hPa | 0V | 00:00:00 | 00:00:00 | 00:00:00 | |
| OE5MMP-10 | 2026-09-04 01:01:45 | 50.51318 | 17.85654 | 10° | 53km/h | 35186m | 4.6m/s | 0°C | 0% | 0hPa | 0V | 00:00:00 | 00:00:00 | 00:00:00 | |
| POL1PZ | 2026-09-04 01:01:39 | 50.51365 | 17.85583 | 206° | 69km/h | 35148m | 5.1m/s | 0°C | 0% | 0hPa | 0V | 00:00:00 | 00:00:00 | 00:00:00 | |
| OE5MMP-10 | 2026-09-04 01:01:32 | 50.51386 | 17.85544 | 130° | 71km/h | 35107m | 4.9m/s | 0°C | 0% | 0hPa | 0V | 00:00:00 | 00:00:00 | 00:00:00 | |
| PETON7-10 | 2026-09-04 01:01:31 | 50.51403 | 17.85522 | 152° | 71km/h | 35104m | 4.1m/s | 0°C | 0% | 0hPa | 0V | 00:00:00 | 00:00:00 | 00:00:00 | |
| POL1PZ | 2026-09-04 01:01:18 | 50.51512 | 17.85467 | 249° | 40km/h | 35011m | 8.0m/s | 0°C | 0% | 0hPa | 0V | 00:00:00 | 00:00:00 | 00:00:00 | |
| OE5MMP-10 | 2026-09-04 01:01:06 | 50.51551 | 17.85379 | 35° | 66km/h | 34949m | 7.9m/s | 0°C | 0% | 0hPa | 0V | 00:00:00 | 00:00:00 | 00:00:00 | |
| POL1PZ | 2026-09-04 01:00:58 | 50.51591 | 17.85311 | 322° | 40km/h | 34894m | 5.3m/s | 0°C | 0% | 0hPa | 0V | 00:00:00 | 00:00:00 | 00:00:00 | |
| OE5MMP-10 | 2026-09-04 01:00:56 | 50.51570 | 17.85306 | 44° | 64km/h | 34888m | 6.3m/s | 0°C | 0% | 0hPa | 0V | 00:00:00 | 00:00:00 | 00:00:00 | |
| PETON7-10 | 2026-09-04 01:00:55 | 50.51562 | 17.85283 | 74° | 57km/h | 34883m | 7.4m/s | 0°C | 0% | 0hPa | 0V | 00:00:00 | 00:00:00 | 00:00:00 | |
| POL1PZ | 2026-09-04 01:00:33 | 50.51664 | 17.85148 | 170° | 78km/h | 34735m | 7.5m/s | 0°C | 0% | 0hPa | 0V | 00:00:00 | 00:00:00 | 00:00:00 | |
| SP4MAZ | 2026-09-04 01:00:18 | 50.51742 | 17.85173 | 39° | 42km/h | 34638m | 9.7m/s | 0°C | 0% | 0hPa | 0V | 00:00:00 | 00:00:00 | 00:00:00 | |
| PETON7-10 | 2026-09-04 01:00:12 | 50.51803 | 17.85116 | 230° | 57km/h | 34592m | 6.6m/s | 0°C | 0% | 0hPa | 0V | 00:00:00 | 00:00:00 | 00:00:00 | |
| SP3BTT-10 | 2026-09-04 01:00:06 | 50.51803 | 17.85097 | 132° | 64km/h | 34553m | 4.1m/s | 0°C | 0% | 0hPa | 0V | 00:00:00 | 00:00:00 | 00:00:00 | |
| POL1PZ | 2026-09-04 00:59:52 | 50.51927 | 17.85028 | 228° | 57km/h | 34481m | 3.1m/s | 0°C | 0% | 0hPa | 0V | 00:00:00 | 00:00:00 | 00:00:00 | |
| OE5MMP-10 | 2026-09-04 00:59:51 | 50.51932 | 17.85042 | 262° | 44km/h | 34478m | 2.0m/s | 0°C | 0% | 0hPa | 0V | 00:00:00 | 00:00:00 | 00:00:00 | |
| PETON7-10 | 2026-09-04 00:59:43 | 50.51969 | 17.84945 | 200° | 58km/h | 34442m | 4.8m/s | 0°C | 0% | 0hPa | 0V | 00:00:00 | 00:00:00 | 00:00:00 | |
| POL1PZ | 2026-09-04 00:59:25 | 50.52008 | 17.84797 | 156° | 80km/h | 34398m | 8.5m/s | 0°C | 0% | 0hPa | 0V | 00:00:00 | 00:00:00 | 00:00:00 | |
| POL1PZ | 2026-09-04 00:59:05 | 50.52084 | 17.84673 | 205° | 51km/h | 34207m | 3.2m/s | 0°C | 0% | 0hPa | 0V | 00:00:00 | 00:00:00 | 00:00:00 | |
| PETON7-10 | 2026-09-04 00:59:02 | 50.52088 | 17.84723 | 325° | 40km/h | 34197m | 9.5m/s | 0°C | 0% | 0hPa | 0V | 00:00:00 | 00:00:00 | 00:00:00 | |
| SP3BTT-10 | 2026-09-04 00:59:00 | 50.52071 | 17.84712 | 70° | 57km/h | 34179m | 17.5m/s | 0°C | 0% | 0hPa | 0V | 00:00:00 | 00:00:00 | 00:00:00 | |
| POL1PZ | 2026-09-04 00:58:42 | 50.52132 | 17.84579 | 10° | 26km/h | 34094m | 9.4m/s | 0°C | 0% | 0hPa | 0V | 00:00:00 | 00:00:00 | 00:00:00 | |
| OE5MMP-10 | 2026-09-04 00:58:21 | 50.52106 | 17.84377 | 62° | 58km/h | 34026m | 21.9m/s | 0°C | 0% | 0hPa | 0V | 00:00:00 | 00:00:00 | 00:00:00 | |
| POL1PZ | 2026-09-04 00:58:18 | 50.52120 | 17.84313 | 142° | 69km/h | 33992m | 9.1m/s | 0°C | 0% | 0hPa | 0V | 00:00:00 | 00:00:00 | 00:00:00 | |
| OE5MMP-10 | 2026-09-04 00:58:10 | 50.52097 | 17.84262 | 98° | 78km/h | 33869m | 13.7m/s | 0°C | 0% | 0hPa | 0V | 00:00:00 | 00:00:00 | 00:00:00 | |
| PETON7-10 | 2026-09-04 00:58:05 | 50.52147 | 17.84240 | 295° | 64km/h | 33830m | 5.8m/s | 0°C | 0% | 0hPa | 0V | 00:00:00 | 00:00:00 | 00:00:00 | |
| SP3BTT-10 | 2026-09-04 00:58:02 | 50.52110 | 17.84227 | 53° | 68km/h | 33817m | 5.6m/s | 0°C | 0% | 0hPa | 0V | 00:00:00 | 00:00:00 | 00:00:00 | |
| POL1PZ | 2026-09-04 00:57:58 | 50.52132 | 17.84137 | 174° | 64km/h | 33795m | 8.0m/s | 0°C | 0% | 0hPa | 0V | 00:00:00 | 00:00:00 | 00:00:00 | |
| OE5MMP-10 | 2026-09-04 00:57:53 | 50.52121 | 17.84173 | 50° | 66km/h | 33776m | 4.8m/s | 0°C | 0% | 0hPa | 0V | 00:00:00 | 00:00:00 | 00:00:00 | |
| POL1PZ | 2026-09-04 00:57:38 | 50.52190 | 17.84028 | 269° | 40km/h | 33699m | 11.7m/s | 0°C | 0% | 0hPa | 0V | 00:00:00 | 00:00:00 | 00:00:00 | |
| POL1PZ | 2026-09-04 00:57:13 | 50.52198 | 17.83739 | 159° | 69km/h | 33498m | 7.3m/s | 0°C | 0% | 0hPa | 0V | 00:00:00 | 00:00:00 | 00:00:00 | |
| SP4MAZ | 2026-09-04 00:57:05 | 50.52190 | 17.83697 | 121° | 84km/h | 33446m | 3.9m/s | 0°C | 0% | 0hPa | 0V | 00:00:00 | 00:00:00 | 00:00:00 | |
| PETON7-10 | 2026-09-04 00:57:03 | 50.52219 | 17.83665 | 175° | 35km/h | 33436m | 4.7m/s | 0°C | 0% | 0hPa | 0V | 00:00:00 | 00:00:00 | 00:00:00 | |
| SP3BTT-10 | 2026-09-04 00:57:00 | 50.52226 | 17.83687 | 337° | 46km/h | 33413m | 7.3m/s | 0°C | 0% | 0hPa | 0V | 00:00:00 | 00:00:00 | 00:00:00 | |
| POL1PZ | 2026-09-04 00:56:52 | 50.52216 | 17.83599 | 263° | 18km/h | 33365m | 3.7m/s | 0°C | 0% | 0hPa | 0V | 00:00:00 | 00:00:00 | 00:00:00 | |
| DB0UT-7 | 2026-09-04 00:56:49 | 50.52194 | 17.83601 | 44° | 29km/h | 33348m | 2.1m/s | 0°C | 0% | 0hPa | 0V | 00:00:00 | 00:00:00 | 00:00:00 | |
| PETON7-10 | 2026-09-04 00:56:48 | 50.52186 | 17.83586 | 57° | 27km/h | 33347m | 2.2m/s | 0°C | 0% | 0hPa | 0V | 00:00:00 | 00:00:00 | 00:00:00 | |
| S52SK | 2026-09-04 00:56:40 | 50.52175 | 17.83523 | 53° | 37km/h | 33292m | 4.9m/s | 0°C | 0% | 0hPa | 0V | 00:00:00 | 00:00:00 | 00:00:00 | |
| OE5MMP-10 | 2026-09-04 00:56:34 | 50.52150 | 17.83456 | 24° | 31km/h | 33255m | 7.4m/s | 0°C | 0% | 0hPa | 0V | 00:00:00 | 00:00:00 | 00:00:00 | |
| S52SK | 2026-09-04 00:56:33 | 50.52146 | 17.83455 | 2° | 16km/h | 33249m | 4.7m/s | 0°C | 0% | 0hPa | 0V | 00:00:00 | 00:00:00 | 00:00:00 | |
| PETON7-10 | 2026-09-04 00:56:32 | 50.52139 | 17.83450 | 53° | 35km/h | 33242m | 5.0m/s | 0°C | 0% | 0hPa | 0V | 00:00:00 | 00:00:00 | 00:00:00 | |
| OE5MMP-10 | 2026-09-04 00:56:21 | 50.52114 | 17.83366 | 113° | 20km/h | 33174m | 3.9m/s | 0°C | 0% | 0hPa | 0V | 00:00:00 | 00:00:00 | 00:00:00 | |
| DB0UT-7 | 2026-09-04 00:56:19 | 50.52113 | 17.83344 | 77° | 26km/h | 33163m | 2.9m/s | 0°C | 0% | 0hPa | 0V | 00:00:00 | 00:00:00 | 00:00:00 | |
| PETON7-10 | 2026-09-04 00:56:15 | 50.52098 | 17.83284 | 79° | 33km/h | 33146m | 6.3m/s | 0°C | 0% | 0hPa | 0V | 00:00:00 | 00:00:00 | 00:00:00 | |
| POL1PZ | 2026-09-04 00:56:08 | 50.52099 | 17.83249 | 24° | 31km/h | 33100m | 6.1m/s | 0°C | 0% | 0hPa | 0V | 00:00:00 | 00:00:00 | 00:00:00 | |
| OE5MMP-10 | 2026-09-04 00:56:07 | 50.52092 | 17.83242 | 43° | 38km/h | 33094m | 4.0m/s | 0°C | 0% | 0hPa | 0V | 00:00:00 | 00:00:00 | 00:00:00 | |
| SP3BTT-10 | 2026-09-04 00:56:02 | 50.52101 | 17.83179 | 143° | 24km/h | 33068m | 5.9m/s | 0°C | 0% | 0hPa | 0V | 00:00:00 | 00:00:00 | 00:00:00 | |
| OE5MMP-10 | 2026-09-04 00:55:54 | 50.52079 | 17.83106 | 124° | 26km/h | 33008m | 7.0m/s | 0°C | 0% | 0hPa | 0V | 00:00:00 | 00:00:00 | 00:00:00 | |
| PETON7-10 | 2026-09-04 00:55:53 | 50.52084 | 17.83094 | 128° | 22km/h | 33001m | 6.0m/s | 0°C | 0% | 0hPa | 0V | 00:00:00 | 00:00:00 | 00:00:00 | |
| POL1PZ | 2026-09-04 00:55:46 | 50.52078 | 17.83060 | 103° | 29km/h | 32951m | 7.0m/s | 0°C | 0% | 0hPa | 0V | 00:00:00 | 00:00:00 | 00:00:00 | |
| OE5MMP-10 | 2026-09-04 00:55:41 | 50.52084 | 17.83006 | 107° | 26km/h | 32917m | 6.2m/s | 0°C | 0% | 0hPa | 0V | 00:00:00 | 00:00:00 | 00:00:00 | |
| PETON7-10 | 2026-09-04 00:55:38 | 50.52087 | 17.83008 | 168° | 22km/h | 32893m | 7.6m/s | 0°C | 0% | 0hPa | 0V | 00:00:00 | 00:00:00 | 00:00:00 | |
| POL1PZ | 2026-09-04 00:55:26 | 50.52101 | 17.82952 | 38° | 22km/h | 32813m | 4.2m/s | 0°C | 0% | 0hPa | 0V | 00:00:00 | 00:00:00 | 00:00:00 | |
| PETON7-10 | 2026-09-04 00:55:23 | 50.52087 | 17.82916 | 85° | 27km/h | 32800m | 5.8m/s | 0°C | 0% | 0hPa | 0V | 00:00:00 | 00:00:00 | 00:00:00 | |
| OE5MMP-10 | 2026-09-04 00:55:14 | 50.52114 | 17.82873 | 81° | 22km/h | 32745m | 4.5m/s | 0°C | 0% | 0hPa | 0V | 00:00:00 | 00:00:00 | 00:00:00 | |
| POL1PZ | 2026-09-04 00:55:04 | 50.52140 | 17.82828 | 119° | 27km/h | 32680m | 7.4m/s | 0°C | 0% | 0hPa | 0V | 00:00:00 | 00:00:00 | 00:00:00 | |
| PETON7-10 | 2026-09-04 00:55:01 | 50.52153 | 17.82791 | 105° | 26km/h | 32661m | 6.2m/s | 0°C | 0% | 0hPa | 0V | 00:00:00 | 00:00:00 | 00:00:00 | |
| SP3BTT-10 | 2026-09-04 00:54:58 | 50.52153 | 17.82764 | 80° | 26km/h | 32642m | 5.8m/s | 0°C | 0% | 0hPa | 0V | 00:00:00 | 00:00:00 | 00:00:00 | |
| SP4MAZ | 2026-09-04 00:54:54 | 50.52164 | 17.82744 | 115° | 26km/h | 32612m | 6.6m/s | 0°C | 0% | 0hPa | 0V | 00:00:00 | 00:00:00 | 00:00:00 | |
| PETON7-10 | 2026-09-04 00:54:45 | 50.52175 | 17.82660 | 104° | 15km/h | 32551m | 7.7m/s | 0°C | 0% | 0hPa | 0V | 00:00:00 | 00:00:00 | 00:00:00 | |
| POL1PZ | 2026-09-04 00:54:42 | 50.52170 | 17.82648 | 89° | 18km/h | 32533m | 5.7m/s | 0°C | 0% | 0hPa | 0V | 00:00:00 | 00:00:00 | 00:00:00 | |
| OE5MMP-10 | 2026-09-04 00:54:35 | 50.52185 | 17.82584 | 122° | 18km/h | 32487m | 6.7m/s | 0°C | 0% | 0hPa | 0V | 00:00:00 | 00:00:00 | 00:00:00 | |
| PETON7-10 | 2026-09-04 00:54:29 | 50.52197 | 17.82559 | 73° | 22km/h | 32447m | 6.6m/s | 0°C | 0% | 0hPa | 0V | 00:00:00 | 00:00:00 | 00:00:00 | |
| OE5MMP-10 | 2026-09-04 00:54:23 | 50.52209 | 17.82515 | 159° | 20km/h | 32408m | 5.7m/s | 0°C | 0% | 0hPa | 0V | 00:00:00 | 00:00:00 | 00:00:00 | |
| POL1PZ | 2026-09-04 00:54:20 | 50.52209 | 17.82501 | 59° | 22km/h | 32386m | 3.8m/s | 0°C | 0% | 0hPa | 0V | 00:00:00 | 00:00:00 | 00:00:00 | |
| PETON7-10 | 2026-09-04 00:54:13 | 50.52220 | 17.82452 | 144° | 24km/h | 32338m | 5.2m/s | 0°C | 0% | 0hPa | 0V | 00:00:00 | 00:00:00 | 00:00:00 | |
| OE5MMP-10 | 2026-09-04 00:54:06 | 50.52229 | 17.82409 | 80° | 33km/h | 32286m | 3.6m/s | 0°C | 0% | 0hPa | 0V | 00:00:00 | 00:00:00 | 00:00:00 | |
| OE5MMP-10 | 2026-09-04 00:53:53 | 50.52266 | 17.82317 | 153° | 26km/h | 32206m | 6.0m/s | 0°C | 0% | 0hPa | 0V | 00:00:00 | 00:00:00 | 00:00:00 | |
| PETON7-10 | 2026-09-04 00:53:42 | 50.52294 | 17.82228 | 104° | 26km/h | 32143m | 8.3m/s | 0°C | 0% | 0hPa | 0V | 00:00:00 | 00:00:00 | 00:00:00 | |
| POL1PZ | 2026-09-04 00:53:36 | 50.52292 | 17.82190 | 121° | 29km/h | 32106m | 8.6m/s | 0°C | 0% | 0hPa | 0V | 00:00:00 | 00:00:00 | 00:00:00 | |
| PETON7-10 | 2026-09-04 00:53:27 | 50.52310 | 17.82109 | 65° | 24km/h | 32056m | 5.5m/s | 0°C | 0% | 0hPa | 0V | 00:00:00 | 00:00:00 | 00:00:00 | |
| DB0UT-7 | 2026-09-04 00:53:23 | 50.52314 | 17.82081 | 119° | 24km/h | 32034m | 6.5m/s | 0°C | 0% | 0hPa | 0V | 00:00:00 | 00:00:00 | 00:00:00 | |
| POL1PZ | 2026-09-04 00:53:15 | 50.52317 | 17.82012 | 89° | 13km/h | 31992m | 7.8m/s | 0°C | 0% | 0hPa | 0V | 00:00:00 | 00:00:00 | 00:00:00 | |
| PETON7-10 | 2026-09-04 00:53:12 | 50.52325 | 17.81988 | 108° | 29km/h | 31961m | 9.0m/s | 0°C | 0% | 0hPa | 0V | 00:00:00 | 00:00:00 | 00:00:00 | |
| OE5MMP-10 | 2026-09-04 00:53:03 | 50.52321 | 17.81914 | 96° | 31km/h | 31898m | 6.5m/s | 0°C | 0% | 0hPa | 0V | 00:00:00 | 00:00:00 | 00:00:00 | |
| PETON7-10 | 2026-09-04 00:52:57 | 50.52329 | 17.81859 | 137° | 26km/h | 31862m | 9.0m/s | 0°C | 0% | 0hPa | 0V | 00:00:00 | 00:00:00 | 00:00:00 | |
| POL1PZ | 2026-09-04 00:52:54 | 50.52337 | 17.81837 | 102° | 24km/h | 31840m | 6.6m/s | 0°C | 0% | 0hPa | 0V | 00:00:00 | 00:00:00 | 00:00:00 | |
| DB0UT-7 | 2026-09-04 00:52:53 | 50.52338 | 17.81829 | 103° | 31km/h | 31834m | 6.3m/s | 0°C | 0% | 0hPa | 0V | 00:00:00 | 00:00:00 | 00:00:00 | |
| PETON7-10 | 2026-09-04 00:52:42 | 50.52369 | 17.81736 | 151° | 29km/h | 31785m | 2.6m/s | 0°C | 0% | 0hPa | 0V | 00:00:00 | 00:00:00 | 00:00:00 | |
| POL1PZ | 2026-09-04 00:52:34 | 50.52375 | 17.81647 | 112° | 20km/h | 31726m | 6.5m/s | 0°C | 0% | 0hPa | 0V | 00:00:00 | 00:00:00 | 00:00:00 | |
| PETON7-10 | 2026-09-04 00:52:27 | 50.52389 | 17.81578 | 113° | 31km/h | 31676m | 4.6m/s | 0°C | 0% | 0hPa | 0V | 00:00:00 | 00:00:00 | 00:00:00 | |
| PETON7-10 | 2026-09-04 00:52:13 | 50.52383 | 17.81405 | 113° | 31km/h | 31590m | 4.6m/s | 0°C | 0% | 0hPa | 0V | 00:00:00 | 00:00:00 | 00:00:00 | |
| SP3BTT-10 | 2026-09-04 00:52:05 | 50.52388 | 17.81339 | 92° | 27km/h | 31542m | 6.6m/s | 0°C | 0% | 0hPa | 0V | 00:00:00 | 00:00:00 | 00:00:00 | |
| SP4MAZ | 2026-09-04 00:52:04 | 50.52389 | 17.81332 | 108° | 20km/h | 31534m | 5.5m/s | 0°C | 0% | 0hPa | 0V | 00:00:00 | 00:00:00 | 00:00:00 | |
| OE5MMP-10 | 2026-09-04 00:51:58 | 50.52384 | 17.81249 | 60° | 37km/h | 31500m | 3.4m/s | 0°C | 0% | 0hPa | 0V | 00:00:00 | 00:00:00 | 00:00:00 | |
| PETON7-10 | 2026-09-04 00:51:57 | 50.52380 | 17.81239 | 53° | 37km/h | 31495m | 4.3m/s | 0°C | 0% | 0hPa | 0V | 00:00:00 | 00:00:00 | 00:00:00 | |
| POL1PZ | 2026-09-04 00:51:52 | 50.52391 | 17.81193 | 89° | 40km/h | 31468m | 8.7m/s | 0°C | 0% | 0hPa | 0V | 00:00:00 | 00:00:00 | 00:00:00 | |
| DB0UT-7 | 2026-09-04 00:51:42 | 50.52365 | 17.81073 | 67° | 29km/h | 31407m | 7.2m/s | 0°C | 0% | 0hPa | 0V | 00:00:00 | 00:00:00 | 00:00:00 | |
| PETON7-10 | 2026-09-04 00:51:41 | 50.52362 | 17.81060 | 64° | 31km/h | 31399m | 6.5m/s | 0°C | 0% | 0hPa | 0V | 00:00:00 | 00:00:00 | 00:00:00 | |
| PETON7-10 | 2026-09-04 00:51:25 | 50.52300 | 17.80896 | 83° | 27km/h | 31293m | 6.6m/s | 0°C | 0% | 0hPa | 0V | 00:00:00 | 00:00:00 | 00:00:00 | |
| SP4MAZ | 2026-09-04 00:51:23 | 50.52303 | 17.80874 | 110° | 20km/h | 31275m | 4.6m/s | 0°C | 0% | 0hPa | 0V | 00:00:00 | 00:00:00 | 00:00:00 | |
| DB0UT-7 | 2026-09-04 00:51:12 | 50.52266 | 17.80798 | 106° | 24km/h | 31210m | 5.4m/s | 0°C | 0% | 0hPa | 0V | 00:00:00 | 00:00:00 | 00:00:00 | |
| PETON7-10 | 2026-09-04 00:51:08 | 50.52256 | 17.80774 | 344° | 18km/h | 31181m | 5.3m/s | 0°C | 0% | 0hPa | 0V | 00:00:00 | 00:00:00 | 00:00:00 | |
| SP3BTT-10 | 2026-09-04 00:51:00 | 50.52249 | 17.80725 | 184° | 22km/h | 31137m | 8.4m/s | 0°C | 0% | 0hPa | 0V | 00:00:00 | 00:00:00 | 00:00:00 | |
| PETON7-10 | 2026-09-04 00:50:53 | 50.52235 | 17.80706 | 115° | 24km/h | 31093m | 6.0m/s | 0°C | 0% | 0hPa | 0V | 00:00:00 | 00:00:00 | 00:00:00 | |
| POL1PZ | 2026-09-04 00:50:48 | 50.52255 | 17.80698 | 353° | 13km/h | 31061m | 5.9m/s | 0°C | 0% | 0hPa | 0V | 00:00:00 | 00:00:00 | 00:00:00 | |
| OE5MMP-10 | 2026-09-04 00:50:43 | 50.52237 | 17.80679 | 135° | 27km/h | 31031m | 6.4m/s | 0°C | 0% | 0hPa | 0V | 00:00:00 | 00:00:00 | 00:00:00 | |
| PETON7-10 | 2026-09-04 00:50:37 | 50.52269 | 17.80652 | 186° | 26km/h | 30983m | 5.1m/s | 0°C | 0% | 0hPa | 0V | 00:00:00 | 00:00:00 | 00:00:00 | |
| OE5MMP-10 | 2026-09-04 00:50:33 | 50.52252 | 17.80632 | 74° | 27km/h | 30947m | 6.4m/s | 0°C | 0% | 0hPa | 0V | 00:00:00 | 00:00:00 | 00:00:00 | |
| POL1PZ | 2026-09-04 00:50:27 | 50.52275 | 17.80594 | 282° | 9km/h | 30890m | 4.5m/s | 0°C | 0% | 0hPa | 0V | 00:00:00 | 00:00:00 | 00:00:00 | |
| OE5MMP-10 | 2026-09-04 00:50:23 | 50.52260 | 17.80558 | 76° | 27km/h | 30871m | 4.1m/s | 0°C | 0% | 0hPa | 0V | 00:00:00 | 00:00:00 | 00:00:00 | |
| PETON7-10 | 2026-09-04 00:50:22 | 50.52260 | 17.80544 | 91° | 24km/h | 30870m | 4.4m/s | 0°C | 0% | 0hPa | 0V | 00:00:00 | 00:00:00 | 00:00:00 | |
| OE5MMP-10 | 2026-09-04 00:50:13 | 50.52264 | 17.80499 | 74° | 22km/h | 30828m | 4.1m/s | 0°C | 0% | 0hPa | 0V | 00:00:00 | 00:00:00 | 00:00:00 | |
| POL1PZ | 2026-09-04 00:50:06 | 50.52266 | 17.80472 | 62° | 31km/h | 30799m | 6.7m/s | 0°C | 0% | 0hPa | 0V | 00:00:00 | 00:00:00 | 00:00:00 | |
| PETON7-10 | 2026-09-04 00:50:05 | 50.52261 | 17.80460 | 55° | 22km/h | 30792m | 5.1m/s | 0°C | 0% | 0hPa | 0V | 00:00:00 | 00:00:00 | 00:00:00 | |
| OE5MMP-10 | 2026-09-04 00:50:01 | 50.52243 | 17.80441 | 34° | 13km/h | 30766m | 4.8m/s | 0°C | 0% | 0hPa | 0V | 00:00:00 | 00:00:00 | 00:00:00 | |
| SP3BTT-10 | 2026-09-04 00:49:58 | 50.52237 | 17.80419 | 68° | 26km/h | 30747m | 5.5m/s | 0°C | 0% | 0hPa | 0V | 00:00:00 | 00:00:00 | 00:00:00 | |
| DB0UT-7 | 2026-09-04 00:49:57 | 50.52234 | 17.80411 | 50° | 24km/h | 30740m | 5.5m/s | 0°C | 0% | 0hPa | 0V | 00:00:00 | 00:00:00 | 00:00:00 | |
| PETON7-10 | 2026-09-04 00:49:50 | 50.52205 | 17.80381 | 54° | 18km/h | 30692m | 4.7m/s | 0°C | 0% | 0hPa | 0V | 00:00:00 | 00:00:00 | 00:00:00 | |
| SP4MAZ | 2026-09-04 00:49:46 | 50.52199 | 17.80353 | 266° | 4km/h | 30674m | 6.2m/s | 0°C | 0% | 0hPa | 0V | 00:00:00 | 00:00:00 | 00:00:00 | |
| POL1PZ | 2026-09-04 00:49:45 | 50.52199 | 17.80356 | 241° | 5km/h | 30669m | 5.2m/s | 0°C | 0% | 0hPa | 0V | 00:00:00 | 00:00:00 | 00:00:00 | |
| PETON7-10 | 2026-09-04 00:49:31 | 50.52180 | 17.80307 | 67° | 22km/h | 30574m | 5.1m/s | 0°C | 0% | 0hPa | 0V | 00:00:00 | 00:00:00 | 00:00:00 | |
| POL1PZ | 2026-09-04 00:49:24 | 50.52162 | 17.80256 | 117° | 11km/h | 30524m | 3.5m/s | 0°C | 0% | 0hPa | 0V | 00:00:00 | 00:00:00 | 00:00:00 | |
| PETON7-10 | 2026-09-04 00:49:16 | 50.52154 | 17.80198 | 65° | 29km/h | 30489m | 4.4m/s | 0°C | 0% | 0hPa | 0V | 00:00:00 | 00:00:00 | 00:00:00 | |
| POL1PZ | 2026-09-04 00:49:04 | 50.52123 | 17.80107 | 32° | 18km/h | 30408m | 5.5m/s | 0°C | 0% | 0hPa | 0V | 00:00:00 | 00:00:00 | 00:00:00 | |
| PETON7-10 | 2026-09-04 00:49:01 | 50.52117 | 17.80084 | 91° | 24km/h | 30387m | 5.1m/s | 0°C | 0% | 0hPa | 0V | 00:00:00 | 00:00:00 | 00:00:00 | |
| SP3BTT-10 | 2026-09-04 00:48:58 | 50.52115 | 17.80036 | 75° | 16km/h | 30373m | 3.4m/s | 0°C | 0% | 0hPa | 0V | 00:00:00 | 00:00:00 | 00:00:00 | |
| PETON7-10 | 2026-09-04 00:48:46 | 50.52094 | 17.79968 | 83° | 24km/h | 30295m | 4.6m/s | 0°C | 0% | 0hPa | 0V | 00:00:00 | 00:00:00 | 00:00:00 | |
| POL1PZ | 2026-09-04 00:48:43 | 50.52087 | 17.79938 | 51° | 24km/h | 30282m | 6.0m/s | 0°C | 0% | 0hPa | 0V | 00:00:00 | 00:00:00 | 00:00:00 | |
| PETON7-10 | 2026-09-04 00:48:31 | 50.52068 | 17.79870 | 331° | 27km/h | 30214m | 3.7m/s | 0°C | 0% | 0hPa | 0V | 00:00:00 | 00:00:00 | 00:00:00 | |
| POL1PZ | 2026-09-04 00:48:23 | 50.52079 | 17.79803 | 360° | 13km/h | 30166m | 7.6m/s | 0°C | 0% | 0hPa | 0V | 00:00:00 | 00:00:00 | 00:00:00 | |
| PETON7-10 | 2026-09-04 00:48:16 | 50.52072 | 17.79772 | 142° | 18km/h | 30122m | 5.6m/s | 0°C | 0% | 0hPa | 0V | 00:00:00 | 00:00:00 | 00:00:00 | |
| POL1PZ | 2026-09-04 00:48:02 | 50.52073 | 17.79693 | 89° | 11km/h | 30027m | 9.4m/s | 0°C | 0% | 0hPa | 0V | 00:00:00 | 00:00:00 | 00:00:00 | |
| PETON7-10 | 2026-09-04 00:48:00 | 50.52076 | 17.79684 | 95° | 13km/h | 30011m | 6.0m/s | 0°C | 0% | 0hPa | 0V | 00:00:00 | 00:00:00 | 00:00:00 | |
| SP3BTT-10 | 2026-09-04 00:47:56 | 50.52074 | 17.79666 | 97° | 20km/h | 29994m | 5.6m/s | 0°C | 0% | 0hPa | 0V | 00:00:00 | 00:00:00 | 00:00:00 | |
| OE5MMP-10 | 2026-09-04 00:47:49 | 50.52072 | 17.79643 | 52° | 22km/h | 29947m | 3.0m/s | 0°C | 0% | 0hPa | 0V | 00:00:00 | 00:00:00 | 00:00:00 | |
| PETON7-10 | 2026-09-04 00:47:44 | 50.52080 | 17.79627 | 183° | 13km/h | 29914m | 6.1m/s | 0°C | 0% | 0hPa | 0V | 00:00:00 | 00:00:00 | 00:00:00 | |
| POL1PZ | 2026-09-04 00:47:41 | 50.52089 | 17.79623 | 103° | 7km/h | 29893m | 7.5m/s | 0°C | 0% | 0hPa | 0V | 00:00:00 | 00:00:00 | 00:00:00 | |
| OE5MMP-10 | 2026-09-04 00:47:32 | 50.52092 | 17.79602 | 193° | 22km/h | 29837m | 3.5m/s | 0°C | 0% | 0hPa | 0V | 00:00:00 | 00:00:00 | 00:00:00 | |
| PETON7-10 | 2026-09-04 00:47:29 | 50.52094 | 17.79595 | 58° | 24km/h | 29820m | 5.6m/s | 0°C | 0% | 0hPa | 0V | 00:00:00 | 00:00:00 | 00:00:00 | |
| POL1PZ | 2026-09-04 00:47:21 | 50.52096 | 17.79581 | 275° | 7km/h | 29786m | 7.8m/s | 0°C | 0% | 0hPa | 0V | 00:00:00 | 00:00:00 | 00:00:00 | |
| PETON7-10 | 2026-09-04 00:47:14 | 50.52096 | 17.79535 | 119° | 15km/h | 29738m | 5.3m/s | 0°C | 0% | 0hPa | 0V | 00:00:00 | 00:00:00 | 00:00:00 | |
| POL1PZ | 2026-09-04 00:46:59 | 50.52103 | 17.79509 | 311° | 13km/h | 29645m | 6.9m/s | 0°C | 0% | 0hPa | 0V | 00:00:00 | 00:00:00 | 00:00:00 | |
| PETON7-10 | 2026-09-04 00:46:58 | 50.52101 | 17.79510 | 27° | 18km/h | 29638m | 6.3m/s | 0°C | 0% | 0hPa | 0V | 00:00:00 | 00:00:00 | 00:00:00 | |
| SP3BTT-10 | 2026-09-04 00:46:55 | 50.52097 | 17.79482 | 111° | 27km/h | 29616m | 6.1m/s | 0°C | 0% | 0hPa | 0V | 00:00:00 | 00:00:00 | 00:00:00 | |
| PETON7-10 | 2026-09-04 00:46:43 | 50.52107 | 17.79415 | 97° | 24km/h | 29543m | 7.5m/s | 0°C | 0% | 0hPa | 0V | 00:00:00 | 00:00:00 | 00:00:00 | |
| SP4MAZ | 2026-09-04 00:46:40 | 50.52125 | 17.79410 | 207° | 22km/h | 29520m | 5.2m/s | 0°C | 0% | 0hPa | 0V | 00:00:00 | 00:00:00 | 00:00:00 | |
| POL1PZ | 2026-09-04 00:46:37 | 50.52127 | 17.79418 | 20° | 26km/h | 29502m | 5.3m/s | 0°C | 0% | 0hPa | 0V | 00:00:00 | 00:00:00 | 00:00:00 | |
| OE5MMP-10 | 2026-09-04 00:46:33 | 50.52120 | 17.79379 | 142° | 31km/h | 29485m | 3.1m/s | 0°C | 0% | 0hPa | 0V | 00:00:00 | 00:00:00 | 00:00:00 | |
| PETON7-10 | 2026-09-04 00:46:27 | 50.52130 | 17.79397 | 82° | 15km/h | 29456m | 5.9m/s | 0°C | 0% | 0hPa | 0V | 00:00:00 | 00:00:00 | 00:00:00 | |
| OE5MMP-10 | 2026-09-04 00:46:19 | 50.52138 | 17.79348 | 250° | 20km/h | 29403m | 7.6m/s | 0°C | 0% | 0hPa | 0V | 00:00:00 | 00:00:00 | 00:00:00 | |
| POL1PZ | 2026-09-04 00:46:15 | 50.52145 | 17.79335 | 82° | 22km/h | 29373m | 8.7m/s | 0°C | 0% | 0hPa | 0V | 00:00:00 | 00:00:00 | 00:00:00 | |
| PETON7-10 | 2026-09-04 00:46:08 | 50.52156 | 17.79297 | 256° | 16km/h | 29329m | 6.7m/s | 0°C | 0% | 0hPa | 0V | 00:00:00 | 00:00:00 | 00:00:00 | |
| SP3BTT-10 | 2026-09-04 00:45:59 | 50.52170 | 17.79248 | 159° | 16km/h | 29282m | 5.7m/s | 0°C | 0% | 0hPa | 0V | 00:00:00 | 00:00:00 | 00:00:00 | |
| OE5MMP-10 | 2026-09-04 00:45:58 | 50.52173 | 17.79246 | 171° | 20km/h | 29278m | 7.4m/s | 0°C | 0% | 0hPa | 0V | 00:00:00 | 00:00:00 | 00:00:00 | |
| OE5DRO-10 | 2026-09-04 00:45:56 | 50.52177 | 17.79239 | 75° | 16km/h | 29244m | 4.6m/s | 0°C | 0% | 0hPa | 0V | 00:00:00 | 00:00:00 | 00:00:00 | |
| POL1PZ | 2026-09-04 00:45:53 | 50.52177 | 17.79239 | 75° | 20km/h | 29244m | 4.6m/s | 0°C | 0% | 0hPa | 0V | 00:00:00 | 00:00:00 | 00:00:00 | |
| OE5MMP-10 | 2026-09-04 00:45:47 | 50.52204 | 17.79197 | 168° | 18km/h | 29208m | 5.8m/s | 0°C | 0% | 0hPa | 0V | 00:00:00 | 00:00:00 | 00:00:00 | |
| PETON7-10 | 2026-09-04 00:45:38 | 50.52223 | 17.79146 | 153° | 27km/h | 29155m | 3.3m/s | 0°C | 0% | 0hPa | 0V | 00:00:00 | 00:00:00 | 00:00:00 | |
| OE5MMP-10 | 2026-09-04 00:45:36 | 50.52236 | 17.79139 | 158° | 26km/h | 29146m | 5.9m/s | 0°C | 0% | 0hPa | 0V | 00:00:00 | 00:00:00 | 00:00:00 | |
| OE5DRO-10 | 2026-09-04 00:45:35 | 50.52250 | 17.79131 | 340° | 18km/h | 29125m | 6.8m/s | 0°C | 0% | 0hPa | 0V | 00:00:00 | 00:00:00 | 00:00:00 | |
| POL1PZ | 2026-09-04 00:45:32 | 50.52251 | 17.79132 | 340° | 5km/h | 29125m | 6.8m/s | 0°C | 0% | 0hPa | 0V | 00:00:00 | 00:00:00 | 00:00:00 | |
| OE5MMP-10 | 2026-09-04 00:45:25 | 50.52299 | 17.79096 | 174° | 20km/h | 29088m | 5.3m/s | 0°C | 0% | 0hPa | 0V | 00:00:00 | 00:00:00 | 00:00:00 | |
| PETON7-10 | 2026-09-04 00:45:23 | 50.52302 | 17.79099 | 26° | 18km/h | 29076m | 6.2m/s | 0°C | 0% | 0hPa | 0V | 00:00:00 | 00:00:00 | 00:00:00 | |
| OE5MMP-10 | 2026-09-04 00:45:13 | 50.52320 | 17.79048 | 94° | 22km/h | 29013m | 6.1m/s | 0°C | 0% | 0hPa | 0V | 00:00:00 | 00:00:00 | 00:00:00 | |
| POL1PZ | 2026-09-04 00:45:11 | 50.52320 | 17.79029 | 91° | 24km/h | 29004m | 5.1m/s | 0°C | 0% | 0hPa | 0V | 00:00:00 | 00:00:00 | 00:00:00 | |
| PETON7-10 | 2026-09-04 00:45:08 | 50.52320 | 17.79004 | 120° | 16km/h | 28989m | 5.2m/s | 0°C | 0% | 0hPa | 0V | 00:00:00 | 00:00:00 | 00:00:00 | |
| OE5DRO-10 | 2026-09-04 00:44:59 | 50.52320 | 17.78941 | 87° | 16km/h | 28933m | 5.1m/s | 0°C | 0% | 0hPa | 0V | 00:00:00 | 00:00:00 | 00:00:00 | |
| SP3BTT-10 | 2026-09-04 00:44:57 | 50.52320 | 17.78931 | 91° | 15km/h | 28928m | 3.0m/s | 0°C | 0% | 0hPa | 0V | 00:00:00 | 00:00:00 | 00:00:00 | |
| PETON7-10 | 2026-09-04 00:44:53 | 50.52324 | 17.78919 | 154° | 15km/h | 28903m | 6.2m/s | 0°C | 0% | 0hPa | 0V | 00:00:00 | 00:00:00 | 00:00:00 | |
| S52SK | 2026-09-04 00:44:52 | 50.52324 | 17.78916 | 62° | 9km/h | 28896m | 7.0m/s | 0°C | 0% | 0hPa | 0V | 00:00:00 | 00:00:00 | 00:00:00 | |
| OE5MMP-10 | 2026-09-04 00:44:51 | 50.52322 | 17.78910 | 60° | 20km/h | 28888m | 7.3m/s | 0°C | 0% | 0hPa | 0V | 00:00:00 | 00:00:00 | 00:00:00 | |
| POL1PZ | 2026-09-04 00:44:50 | 50.52319 | 17.78901 | 65° | 22km/h | 28883m | 7.2m/s | 0°C | 0% | 0hPa | 0V | 00:00:00 | 00:00:00 | 00:00:00 | |
| S52SK | 2026-09-04 00:44:45 | 50.52316 | 17.78869 | 52° | 15km/h | 28845m | 6.3m/s | 0°C | 0% | 0hPa | 0V | 00:00:00 | 00:00:00 | 00:00:00 | |
| OE5DRO-10 | 2026-09-04 00:44:40 | 50.52298 | 17.78856 | 340° | 24km/h | 28808m | 3.6m/s | 0°C | 0% | 0hPa | 0V | 00:00:00 | 00:00:00 | 00:00:00 | |
| PETON7-10 | 2026-09-04 00:44:39 | 50.52295 | 17.78855 | 34° | 18km/h | 28803m | 5.5m/s | 0°C | 0% | 0hPa | 0V | 00:00:00 | 00:00:00 | 00:00:00 | |
| POL1PZ | 2026-09-04 00:44:30 | 50.52275 | 17.78826 | 318° | 13km/h | 28762m | 6.4m/s | 0°C | 0% | 0hPa | 0V | 00:00:00 | 00:00:00 | 00:00:00 | |
| OE5MMP-10 | 2026-09-04 00:44:28 | 50.52269 | 17.78821 | 58° | 18km/h | 28749m | 6.2m/s | 0°C | 0% | 0hPa | 0V | 00:00:00 | 00:00:00 | 00:00:00 | |
| PETON7-10 | 2026-09-04 00:44:22 | 50.52251 | 17.78810 | 2° | 13km/h | 28708m | 6.5m/s | 0°C | 0% | 0hPa | 0V | 00:00:00 | 00:00:00 | 00:00:00 | |
| OE5DRO-10 | 2026-09-04 00:44:21 | 50.52248 | 17.78810 | 17° | 11km/h | 28702m | 5.8m/s | 0°C | 0% | 0hPa | 0V | 00:00:00 | 00:00:00 | 00:00:00 | |
| OE5MMP-10 | 2026-09-04 00:44:16 | 50.52234 | 17.78809 | 34° | 16km/h | 28672m | 4.9m/s | 0°C | 0% | 0hPa | 0V | 00:00:00 | 00:00:00 | 00:00:00 | |
| PETON7-10 | 2026-09-04 00:44:07 | 50.52200 | 17.78818 | 16° | 16km/h | 28616m | 4.9m/s | 0°C | 0% | 0hPa | 0V | 00:00:00 | 00:00:00 | 00:00:00 | |
| OE5MMP-10 | 2026-09-04 00:44:05 | 50.52194 | 17.78818 | 351° | 16km/h | 28605m | 6.4m/s | 0°C | 0% | 0hPa | 0V | 00:00:00 | 00:00:00 | 00:00:00 | |
| SP3BTT-10 | 2026-09-04 00:43:55 | 50.52166 | 17.78841 | 23° | 22km/h | 28543m | 7.1m/s | 0°C | 0% | 0hPa | 0V | 00:00:00 | 00:00:00 | 00:00:00 | |
| PETON7-10 | 2026-09-04 00:43:51 | 50.52142 | 17.78842 | 333° | 9km/h | 28518m | 5.7m/s | 0°C | 0% | 0hPa | 0V | 00:00:00 | 00:00:00 | 00:00:00 | |
| POL1PZ | 2026-09-04 00:43:46 | 50.52140 | 17.78850 | 27° | 11km/h | 28491m | 6.5m/s | 0°C | 0% | 0hPa | 0V | 00:00:00 | 00:00:00 | 00:00:00 | |
| PETON7-10 | 2026-09-04 00:43:33 | 50.52137 | 17.78856 | 149° | 11km/h | 28414m | 6.0m/s | 0°C | 0% | 0hPa | 0V | 00:00:00 | 00:00:00 | 00:00:00 | |
| OE5MMP-10 | 2026-09-04 00:43:32 | 50.52136 | 17.78853 | 68° | 9km/h | 28409m | 6.3m/s | 0°C | 0% | 0hPa | 0V | 00:00:00 | 00:00:00 | 00:00:00 | |
| POL1PZ | 2026-09-04 00:43:26 | 50.52135 | 17.78865 | 238° | 7km/h | 28371m | 6.3m/s | 0°C | 0% | 0hPa | 0V | 00:00:00 | 00:00:00 | 00:00:00 | |
| PETON7-10 | 2026-09-04 00:43:18 | 50.52153 | 17.78872 | 142° | 18km/h | 28320m | 4.9m/s | 0°C | 0% | 0hPa | 0V | 00:00:00 | 00:00:00 | 00:00:00 | |
| SP4MAZ | 2026-09-04 00:43:10 | 50.52174 | 17.78874 | 132° | 26km/h | 28280m | 4.9m/s | 0°C | 0% | 0hPa | 0V | 00:00:00 | 00:00:00 | 00:00:00 | |
| OE5MMP-10 | 2026-09-04 00:43:08 | 50.52185 | 17.78862 | 155° | 24km/h | 28268m | 7.7m/s | 0°C | 0% | 0hPa | 0V | 00:00:00 | 00:00:00 | 00:00:00 | |
| POL1PZ | 2026-09-04 00:43:05 | 50.52209 | 17.78859 | 177° | 26km/h | 28252m | 5.9m/s | 0°C | 0% | 0hPa | 0V | 00:00:00 | 00:00:00 | 00:00:00 | |
| PETON7-10 | 2026-09-04 00:43:02 | 50.52223 | 17.78847 | 150° | 22km/h | 28237m | 6.3m/s | 0°C | 0% | 0hPa | 0V | 00:00:00 | 00:00:00 | 00:00:00 | |
| OE5MMP-10 | 2026-09-04 00:42:58 | 50.52245 | 17.78832 | 146° | 26km/h | 28215m | 6.4m/s | 0°C | 0% | 0hPa | 0V | 00:00:00 | 00:00:00 | 00:00:00 | |
| SP3BTT-10 | 2026-09-04 00:42:54 | 50.52268 | 17.78804 | 170° | 15km/h | 28192m | 7.8m/s | 0°C | 0% | 0hPa | 0V | 00:00:00 | 00:00:00 | 00:00:00 | |
| S52SK | 2026-09-04 00:42:52 | 50.52280 | 17.78805 | 214° | 11km/h | 28175m | 4.9m/s | 0°C | 0% | 0hPa | 0V | 00:00:00 | 00:00:00 | 00:00:00 | |
| OE5DRO-10 | 2026-09-04 00:42:47 | 50.52308 | 17.78763 | 140° | 33km/h | 28133m | 7.5m/s | 0°C | 0% | 0hPa | 0V | 00:00:00 | 00:00:00 | 00:00:00 | |
| POL1PZ | 2026-09-04 00:42:45 | 50.52308 | 17.78764 | 141° | 24km/h | 28133m | 7.5m/s | 0°C | 0% | 0hPa | 0V | 00:00:00 | 00:00:00 | 00:00:00 | |
| OE5MMP-10 | 2026-09-04 00:42:39 | 50.52324 | 17.78741 | 109° | 26km/h | 28097m | 3.8m/s | 0°C | 0% | 0hPa | 0V | 00:00:00 | 00:00:00 | 00:00:00 | |
| S52SK | 2026-09-04 00:42:38 | 50.52327 | 17.78729 | 112° | 38km/h | 28093m | 6.3m/s | 0°C | 0% | 0hPa | 0V | 00:00:00 | 00:00:00 | 00:00:00 | |
| PETON7-10 | 2026-09-04 00:42:32 | 50.52362 | 17.78675 | 290° | 26km/h | 28064m | 5.4m/s | 0°C | 0% | 0hPa | 0V | 00:00:00 | 00:00:00 | 00:00:00 | |
| OE5DRO-10 | 2026-09-04 00:42:29 | 50.52361 | 17.78637 | 145° | 26km/h | 28040m | 10.1m/s | 0°C | 0% | 0hPa | 0V | 00:00:00 | 00:00:00 | 00:00:00 | |
| POL1PZ | 2026-09-04 00:42:24 | 50.52378 | 17.78623 | 169° | 31km/h | 28014m | 8.0m/s | 0°C | 0% | 0hPa | 0V | 00:00:00 | 00:00:00 | 00:00:00 | |
| PETON7-10 | 2026-09-04 00:42:17 | 50.52373 | 17.78573 | 72° | 16km/h | 27962m | 4.5m/s | 0°C | 0% | 0hPa | 0V | 00:00:00 | 00:00:00 | 00:00:00 | |
| OE5DRO-10 | 2026-09-04 00:42:09 | 50.52387 | 17.78525 | 332° | 11km/h | 27900m | 8.3m/s | 0°C | 0% | 0hPa | 0V | 00:00:00 | 00:00:00 | 00:00:00 | |
| POL1PZ | 2026-09-04 00:42:03 | 50.52385 | 17.78523 | 150° | 11km/h | 27871m | 5.1m/s | 0°C | 0% | 0hPa | 0V | 00:00:00 | 00:00:00 | 00:00:00 | |
| OE5MMP-10 | 2026-09-04 00:42:02 | 50.52389 | 17.78521 | 156° | 13km/h | 27864m | 7.2m/s | 0°C | 0% | 0hPa | 0V | 00:00:00 | 00:00:00 | 00:00:00 | |
| SP3BTT-10 | 2026-09-04 00:41:55 | 50.52385 | 17.78507 | 314° | 16km/h | 27829m | 6.0m/s | 0°C | 0% | 0hPa | 0V | 00:00:00 | 00:00:00 | 00:00:00 | |
| OE5MMP-10 | 2026-09-04 00:41:52 | 50.52389 | 17.78509 | 137° | 15km/h | 27813m | 7.4m/s | 0°C | 0% | 0hPa | 0V | 00:00:00 | 00:00:00 | 00:00:00 | |
| PETON7-10 | 2026-09-04 00:41:47 | 50.52395 | 17.78502 | 338° | 13km/h | 27784m | 6.6m/s | 0°C | 0% | 0hPa | 0V | 00:00:00 | 00:00:00 | 00:00:00 | |
| POL1PZ | 2026-09-04 00:41:41 | 50.52379 | 17.78511 | 204° | 7km/h | 27746m | 5.0m/s | 0°C | 0% | 0hPa | 0V | 00:00:00 | 00:00:00 | 00:00:00 | |
| OE5MMP-10 | 2026-09-04 00:41:40 | 50.52381 | 17.78512 | 207° | 7km/h | 27740m | 5.3m/s | 0°C | 0% | 0hPa | 0V | 00:00:00 | 00:00:00 | 00:00:00 | |
| PETON7-10 | 2026-09-04 00:41:32 | 50.52373 | 17.78526 | 116° | 13km/h | 27687m | 6.6m/s | 0°C | 0% | 0hPa | 0V | 00:00:00 | 00:00:00 | 00:00:00 | |
| OE5DRO-10 | 2026-09-04 00:41:30 | 50.52382 | 17.78525 | 253° | 18km/h | 27660m | 4.2m/s | 0°C | 0% | 0hPa | 0V | 00:00:00 | 00:00:00 | 00:00:00 | |
| OE5MMP-10 | 2026-09-04 00:41:20 | 50.52380 | 17.78550 | 176° | 15km/h | 27632m | 4.8m/s | 0°C | 0% | 0hPa | 0V | 00:00:00 | 00:00:00 | 00:00:00 | |
| PETON7-10 | 2026-09-04 00:41:17 | 50.52393 | 17.78539 | 140° | 13km/h | 27620m | 6.1m/s | 0°C | 0% | 0hPa | 0V | 00:00:00 | 00:00:00 | 00:00:00 | |
| OE5MMP-10 | 2026-09-04 00:41:10 | 50.52418 | 17.78522 | 135° | 15km/h | 27583m | 5.1m/s | 0°C | 0% | 0hPa | 0V | 00:00:00 | 00:00:00 | 00:00:00 | |
| PETON7-10 | 2026-09-04 00:41:02 | 50.52439 | 17.78500 | 160° | 16km/h | 27530m | 7.4m/s | 0°C | 0% | 0hPa | 0V | 00:00:00 | 00:00:00 | 00:00:00 | |
| POL1PZ | 2026-09-04 00:41:00 | 50.52448 | 17.78499 | 173° | 20km/h | 27516m | 7.5m/s | 0°C | 0% | 0hPa | 0V | 00:00:00 | 00:00:00 | 00:00:00 | |
| OE5MMP-10 | 2026-09-04 00:40:57 | 50.52466 | 17.78485 | 140° | 22km/h | 27497m | 5.5m/s | 0°C | 0% | 0hPa | 0V | 00:00:00 | 00:00:00 | 00:00:00 | |
| SP4MAZ | 2026-09-04 00:40:54 | 50.52480 | 17.78473 | 146° | 15km/h | 27480m | 5.8m/s | 0°C | 0% | 0hPa | 0V | 00:00:00 | 00:00:00 | 00:00:00 | |
| OE5DRO-10 | 2026-09-04 00:40:50 | 50.52516 | 17.78448 | 167° | 29km/h | 27438m | 4.5m/s | 0°C | 0% | 0hPa | 0V | 00:00:00 | 00:00:00 | 00:00:00 | |
| PETON7-10 | 2026-09-04 00:40:47 | 50.52516 | 17.78448 | 167° | 31km/h | 27438m | 4.5m/s | 0°C | 0% | 0hPa | 0V | 00:00:00 | 00:00:00 | 00:00:00 | |
| OE5MMP-10 | 2026-09-04 00:40:45 | 50.52537 | 17.78436 | 148° | 31km/h | 27428m | 7.5m/s | 0°C | 0% | 0hPa | 0V | 00:00:00 | 00:00:00 | 00:00:00 | |
| OE5MMP-10 | 2026-09-04 00:40:35 | 50.52595 | 17.78374 | 138° | 26km/h | 27364m | 4.5m/s | 0°C | 0% | 0hPa | 0V | 00:00:00 | 00:00:00 | 00:00:00 | |
| PETON7-10 | 2026-09-04 00:40:32 | 50.52612 | 17.78364 | 182° | 20km/h | 27348m | 4.9m/s | 0°C | 0% | 0hPa | 0V | 00:00:00 | 00:00:00 | 00:00:00 | |
| OE5DRO-10 | 2026-09-04 00:40:31 | 50.52624 | 17.78347 | 126° | 18km/h | 27336m | 6.3m/s | 0°C | 0% | 0hPa | 0V | 00:00:00 | 00:00:00 | 00:00:00 | |
| OE5MMP-10 | 2026-09-04 00:40:24 | 50.52657 | 17.78312 | 163° | 15km/h | 27308m | 6.0m/s | 0°C | 0% | 0hPa | 0V | 00:00:00 | 00:00:00 | 00:00:00 | |
| POL1PZ | 2026-09-04 00:40:19 | 50.52669 | 17.78292 | 271° | 2km/h | 27281m | 11.6m/s | 0°C | 0% | 0hPa | 0V | 00:00:00 | 00:00:00 | 00:00:00 | |
| PETON7-10 | 2026-09-04 00:40:17 | 50.52673 | 17.78282 | 112° | 24km/h | 27257m | 11.3m/s | 0°C | 0% | 0hPa | 0V | 00:00:00 | 00:00:00 | 00:00:00 | |
| OE5MMP-10 | 2026-09-04 00:40:13 | 50.52691 | 17.78243 | 161° | 16km/h | 27224m | 6.0m/s | 0°C | 0% | 0hPa | 0V | 00:00:00 | 00:00:00 | 00:00:00 | |
| OE5DRO-10 | 2026-09-04 00:40:10 | 50.52695 | 17.78234 | 81° | 20km/h | 27194m | 4.2m/s | 0°C | 0% | 0hPa | 0V | 00:00:00 | 00:00:00 | 00:00:00 | |
| OE5MMP-10 | 2026-09-04 00:40:03 | 50.52719 | 17.78198 | 138° | 27km/h | 27170m | 5.9m/s | 0°C | 0% | 0hPa | 0V | 00:00:00 | 00:00:00 | 00:00:00 | |
| PETON7-10 | 2026-09-04 00:40:02 | 50.52723 | 17.78192 | 157° | 16km/h | 27167m | 7.3m/s | 0°C | 0% | 0hPa | 0V | 00:00:00 | 00:00:00 | 00:00:00 | |
| POL1PZ | 2026-09-04 00:39:57 | 50.52727 | 17.78186 | 90° | 9km/h | 27139m | 4.6m/s | 0°C | 0% | 0hPa | 0V | 00:00:00 | 00:00:00 | 00:00:00 | |
| OE5MMP-10 | 2026-09-04 00:39:53 | 50.52741 | 17.78142 | 146° | 18km/h | 27120m | 4.7m/s | 0°C | 0% | 0hPa | 0V | 00:00:00 | 00:00:00 | 00:00:00 | |
| OE5DRO-10 | 2026-09-04 00:39:50 | 50.52759 | 17.78138 | 82° | 15km/h | 27089m | 5.7m/s | 0°C | 0% | 0hPa | 0V | 00:00:00 | 00:00:00 | 00:00:00 | |
| PETON7-10 | 2026-09-04 00:39:47 | 50.52759 | 17.78138 | 82° | 16km/h | 27089m | 5.7m/s | 0°C | 0% | 0hPa | 0V | 00:00:00 | 00:00:00 | 00:00:00 | |
| OE5MMP-10 | 2026-09-04 00:39:43 | 50.52769 | 17.78110 | 149° | 15km/h | 27064m | 5.1m/s | 0°C | 0% | 0hPa | 0V | 00:00:00 | 00:00:00 | 00:00:00 | |
| POL1PZ | 2026-09-04 00:39:37 | 50.52789 | 17.78091 | 151° | 15km/h | 27033m | 5.1m/s | 0°C | 0% | 0hPa | 0V | 00:00:00 | 00:00:00 | 00:00:00 | |
| PETON7-10 | 2026-09-04 00:39:32 | 50.52795 | 17.78068 | 138° | 20km/h | 27008m | 5.5m/s | 0°C | 0% | 0hPa | 0V | 00:00:00 | 00:00:00 | 00:00:00 | |
| OE5DRO-10 | 2026-09-04 00:39:29 | 50.52812 | 17.78045 | 132° | 16km/h | 26980m | 6.1m/s | 0°C | 0% | 0hPa | 0V | 00:00:00 | 00:00:00 | 00:00:00 | |
| OE5MMP-10 | 2026-09-04 00:39:20 | 50.52824 | 17.78010 | 139° | 27km/h | 26941m | 7.4m/s | 0°C | 0% | 0hPa | 0V | 00:00:00 | 00:00:00 | 00:00:00 | |
| PETON7-10 | 2026-09-04 00:39:17 | 50.52840 | 17.77993 | 143° | 18km/h | 26922m | 7.6m/s | 0°C | 0% | 0hPa | 0V | 00:00:00 | 00:00:00 | 00:00:00 | |
| OE5DRO-10 | 2026-09-04 00:39:10 | 50.52868 | 17.77932 | 113° | 13km/h | 26863m | 2.5m/s | 0°C | 0% | 0hPa | 0V | 00:00:00 | 00:00:00 | 00:00:00 | |
| PETON7-10 | 2026-09-04 00:39:02 | 50.52880 | 17.77929 | 262° | 16km/h | 26837m | 4.9m/s | 0°C | 0% | 0hPa | 0V | 00:00:00 | 00:00:00 | 00:00:00 | |
| OE5MMP-10 | 2026-09-04 00:38:59 | 50.52884 | 17.77928 | 132° | 13km/h | 26822m | 5.5m/s | 0°C | 0% | 0hPa | 0V | 00:00:00 | 00:00:00 | 00:00:00 | |
| POL1PZ | 2026-09-04 00:38:56 | 50.52899 | 17.77918 | 144° | 20km/h | 26803m | 4.2m/s | 0°C | 0% | 0hPa | 0V | 00:00:00 | 00:00:00 | 00:00:00 | |
| SP3BTT-10 | 2026-09-04 00:38:51 | 50.52908 | 17.77906 | 205° | 15km/h | 26781m | 6.2m/s | 0°C | 0% | 0hPa | 0V | 00:00:00 | 00:00:00 | 00:00:00 | |
| OE5DRO-10 | 2026-09-04 00:38:50 | 50.52928 | 17.77909 | 147° | 22km/h | 26757m | 6.3m/s | 0°C | 0% | 0hPa | 0V | 00:00:00 | 00:00:00 | 00:00:00 | |
| OE5MMP-10 | 2026-09-04 00:38:47 | 50.52928 | 17.77909 | 147° | 22km/h | 26757m | 6.3m/s | 0°C | 0% | 0hPa | 0V | 00:00:00 | 00:00:00 | 00:00:00 | |
| PETON7-10 | 2026-09-04 00:38:46 | 50.52932 | 17.77906 | 125° | 16km/h | 26750m | 5.8m/s | 0°C | 0% | 0hPa | 0V | 00:00:00 | 00:00:00 | 00:00:00 | |
| POL1PZ | 2026-09-04 00:38:35 | 50.52968 | 17.77892 | 152° | 24km/h | 26690m | 3.6m/s | 0°C | 0% | 0hPa | 0V | 00:00:00 | 00:00:00 | 00:00:00 | |
| OE5DRO-10 | 2026-09-04 00:38:31 | 50.52998 | 17.77853 | 164° | 15km/h | 26661m | 5.4m/s | 0°C | 0% | 0hPa | 0V | 00:00:00 | 00:00:00 | 00:00:00 | |
| PETON7-10 | 2026-09-04 00:38:16 | 50.53034 | 17.77808 | 154° | 16km/h | 26593m | 5.0m/s | 0°C | 0% | 0hPa | 0V | 00:00:00 | 00:00:00 | 00:00:00 | |
| POL1PZ | 2026-09-04 00:38:14 | 50.53038 | 17.77801 | 142° | 9km/h | 26583m | 5.7m/s | 0°C | 0% | 0hPa | 0V | 00:00:00 | 00:00:00 | 00:00:00 | |
| OE5DRO-10 | 2026-09-04 00:38:12 | 50.53046 | 17.77783 | 143° | 16km/h | 26559m | 6.5m/s | 0°C | 0% | 0hPa | 0V | 00:00:00 | 00:00:00 | 00:00:00 | |
| PETON7-10 | 2026-09-04 00:38:01 | 50.53065 | 17.77737 | 136° | 13km/h | 26514m | 5.3m/s | 0°C | 0% | 0hPa | 0V | 00:00:00 | 00:00:00 | 00:00:00 | |
| OE5DRO-10 | 2026-09-04 00:37:54 | 50.53076 | 17.77694 | 90° | 18km/h | 26461m | 6.7m/s | 0°C | 0% | 0hPa | 0V | 00:00:00 | 00:00:00 | 00:00:00 | |
| PETON7-10 | 2026-09-04 00:37:43 | 50.53075 | 17.77676 | 121° | 24km/h | 26402m | 4.7m/s | 0°C | 0% | 0hPa | 0V | 00:00:00 | 00:00:00 | 00:00:00 | |
| OE5DRO-10 | 2026-09-04 00:37:34 | 50.53069 | 17.77642 | 81° | 16km/h | 26342m | 4.7m/s | 0°C | 0% | 0hPa | 0V | 00:00:00 | 00:00:00 | 00:00:00 | |
| POL1PZ | 2026-09-04 00:37:33 | 50.53069 | 17.77642 | 82° | 26km/h | 26342m | 4.7m/s | 0°C | 0% | 0hPa | 0V | 00:00:00 | 00:00:00 | 00:00:00 | |
| OE5MMP-10 | 2026-09-04 00:37:30 | 50.53077 | 17.77610 | 149° | 16km/h | 26328m | 3.9m/s | 0°C | 0% | 0hPa | 0V | 00:00:00 | 00:00:00 | 00:00:00 | |
| PETON7-10 | 2026-09-04 00:37:28 | 50.53086 | 17.77607 | 225° | 16km/h | 26321m | 4.2m/s | 0°C | 0% | 0hPa | 0V | 00:00:00 | 00:00:00 | 00:00:00 | |
| OE5MMP-10 | 2026-09-04 00:37:16 | 50.53073 | 17.77584 | 360° | 20km/h | 26254m | 5.5m/s | 0°C | 0% | 0hPa | 0V | 00:00:00 | 00:00:00 | 00:00:00 | |
| OE5DRO-10 | 2026-09-04 00:37:14 | 50.53057 | 17.77590 | 11° | 16km/h | 26234m | 5.6m/s | 0°C | 0% | 0hPa | 0V | 00:00:00 | 00:00:00 | 00:00:00 | |
| PETON7-10 | 2026-09-04 00:37:13 | 50.53057 | 17.77590 | 11° | 15km/h | 26234m | 5.6m/s | 0°C | 0% | 0hPa | 0V | 00:00:00 | 00:00:00 | 00:00:00 | |
| PETON7-10 | 2026-09-04 00:36:58 | 50.53027 | 17.77589 | 58° | 9km/h | 26141m | 4.4m/s | 0°C | 0% | 0hPa | 0V | 00:00:00 | 00:00:00 | 00:00:00 | |
| OE5MMP-10 | 2026-09-04 00:36:57 | 50.53026 | 17.77588 | 36° | 4km/h | 26132m | 4.5m/s | 0°C | 0% | 0hPa | 0V | 00:00:00 | 00:00:00 | 00:00:00 | |
| POL1PZ | 2026-09-04 00:36:53 | 50.53017 | 17.77592 | 18° | 11km/h | 26109m | 4.0m/s | 0°C | 0% | 0hPa | 0V | 00:00:00 | 00:00:00 | 00:00:00 | |
| PETON7-10 | 2026-09-04 00:36:43 | 50.53008 | 17.77584 | 3° | 13km/h | 26059m | 4.2m/s | 0°C | 0% | 0hPa | 0V | 00:00:00 | 00:00:00 | 00:00:00 | |
| OE5MMP-10 | 2026-09-04 00:36:40 | 50.52998 | 17.77585 | 314° | 7km/h | 26043m | 6.1m/s | 0°C | 0% | 0hPa | 0V | 00:00:00 | 00:00:00 | 00:00:00 | |
| S52SK | 2026-09-04 00:36:38 | 50.52997 | 17.77588 | 247° | 7km/h | 26029m | 4.5m/s | 0°C | 0% | 0hPa | 0V | 00:00:00 | 00:00:00 | 00:00:00 | |
| POL1PZ | 2026-09-04 00:36:32 | 50.52990 | 17.77602 | 89° | 20km/h | 25989m | 4.9m/s | 0°C | 0% | 0hPa | 0V | 00:00:00 | 00:00:00 | 00:00:00 | |
| OE5DRO-10 | 2026-09-04 00:36:31 | 50.52988 | 17.77595 | 73° | 11km/h | 25983m | 3.3m/s | 0°C | 0% | 0hPa | 0V | 00:00:00 | 00:00:00 | 00:00:00 | |
| PETON7-10 | 2026-09-04 00:36:28 | 50.52978 | 17.77593 | 304° | 11km/h | 25971m | 2.7m/s | 0°C | 0% | 0hPa | 0V | 00:00:00 | 00:00:00 | 00:00:00 | |
| OE5MMP-10 | 2026-09-04 00:36:15 | 50.52967 | 17.77606 | 243° | 9km/h | 25905m | 7.3m/s | 0°C | 0% | 0hPa | 0V | 00:00:00 | 00:00:00 | 00:00:00 | |
| PETON7-10 | 2026-09-04 00:36:13 | 50.52969 | 17.77616 | 247° | 9km/h | 25892m | 4.1m/s | 0°C | 0% | 0hPa | 0V | 00:00:00 | 00:00:00 | 00:00:00 | |
| OE5DRO-10 | 2026-09-04 00:36:11 | 50.52973 | 17.77616 | 83° | 11km/h | 25878m | 6.5m/s | 0°C | 0% | 0hPa | 0V | 00:00:00 | 00:00:00 | 00:00:00 | |
| POL1PZ | 2026-09-04 00:36:10 | 50.52973 | 17.77612 | 71° | 13km/h | 25871m | 5.5m/s | 0°C | 0% | 0hPa | 0V | 00:00:00 | 00:00:00 | 00:00:00 | |
| PG1ADW-2 | 2026-09-04 00:36:05 | 50.52969 | 17.77602 | 151° | 15km/h | 25842m | 7.9m/s | 0°C | 0% | 0hPa | 0V | 00:00:00 | 00:00:00 | 00:00:00 | |
| OE5MMP-10 | 2026-09-04 00:35:58 | 50.52971 | 17.77589 | 61° | 16km/h | 25797m | 3.7m/s | 0°C | 0% | 0hPa | 0V | 00:00:00 | 00:00:00 | 00:00:00 | |
| OE5DRO-10 | 2026-09-04 00:35:52 | 50.52976 | 17.77573 | 128° | 15km/h | 25769m | 7.1m/s | 0°C | 0% | 0hPa | 0V | 00:00:00 | 00:00:00 | 00:00:00 | |
| SP3BTT-10 | 2026-09-04 00:35:50 | 50.52979 | 17.77559 | 93° | 18km/h | 25757m | 4.1m/s | 0°C | 0% | 0hPa | 0V | 00:00:00 | 00:00:00 | 00:00:00 | |
| POL1PZ | 2026-09-04 00:35:49 | 50.52979 | 17.77551 | 80° | 15km/h | 25753m | 6.2m/s | 0°C | 0% | 0hPa | 0V | 00:00:00 | 00:00:00 | 00:00:00 | |
| PETON7-10 | 2026-09-04 00:35:43 | 50.52976 | 17.77523 | 84° | 20km/h | 25717m | 5.0m/s | 0°C | 0% | 0hPa | 0V | 00:00:00 | 00:00:00 | 00:00:00 | |
| OE5DRO-10 | 2026-09-04 00:35:34 | 50.52957 | 17.77452 | 97° | 16km/h | 25664m | 7.2m/s | 0°C | 0% | 0hPa | 0V | 00:00:00 | 00:00:00 | 00:00:00 | |
| POL1PZ | 2026-09-04 00:35:29 | 50.52959 | 17.77436 | 39° | 11km/h | 25634m | 5.3m/s | 0°C | 0% | 0hPa | 0V | 00:00:00 | 00:00:00 | 00:00:00 | |
| PETON7-10 | 2026-09-04 00:35:27 | 50.52948 | 17.77433 | 38° | 18km/h | 25619m | 5.9m/s | 0°C | 0% | 0hPa | 0V | 00:00:00 | 00:00:00 | 00:00:00 | |
| OE5DRO-10 | 2026-09-04 00:35:14 | 50.52909 | 17.77392 | 14° | 20km/h | 25552m | 8.0m/s | 0°C | 0% | 0hPa | 0V | 00:00:00 | 00:00:00 | 00:00:00 | |
| PETON7-10 | 2026-09-04 00:35:12 | 50.52901 | 17.77385 | 25° | 18km/h | 25535m | 5.6m/s | 0°C | 0% | 0hPa | 0V | 00:00:00 | 00:00:00 | 00:00:00 | |
| POL1PZ | 2026-09-04 00:35:08 | 50.52883 | 17.77386 | 345° | 22km/h | 25509m | 6.0m/s | 0°C | 0% | 0hPa | 0V | 00:00:00 | 00:00:00 | 00:00:00 | |
| PETON7-10 | 2026-09-04 00:34:56 | 50.52826 | 17.77416 | 334° | 20km/h | 25431m | 4.8m/s | 0°C | 0% | 0hPa | 0V | 00:00:00 | 00:00:00 | 00:00:00 | |
| OE5DRO-10 | 2026-09-04 00:34:54 | 50.52810 | 17.77432 | 322° | 16km/h | 25416m | 4.9m/s | 0°C | 0% | 0hPa | 0V | 00:00:00 | 00:00:00 | 00:00:00 | |
| SP3BTT-10 | 2026-09-04 00:34:49 | 50.52797 | 17.77459 | 278° | 15km/h | 25394m | 7.8m/s | 0°C | 0% | 0hPa | 0V | 00:00:00 | 00:00:00 | 00:00:00 | |
| POL1PZ | 2026-09-04 00:34:46 | 50.52797 | 17.77473 | 304° | 15km/h | 25378m | 6.8m/s | 0°C | 0% | 0hPa | 0V | 00:00:00 | 00:00:00 | 00:00:00 | |
| PETON7-10 | 2026-09-04 00:34:41 | 50.52772 | 17.77504 | 319° | 18km/h | 25347m | 5.9m/s | 0°C | 0% | 0hPa | 0V | 00:00:00 | 00:00:00 | 00:00:00 | |
| OE5DRO-10 | 2026-09-04 00:34:34 | 50.52740 | 17.77543 | 311° | 20km/h | 25295m | 4.7m/s | 0°C | 0% | 0hPa | 0V | 00:00:00 | 00:00:00 | 00:00:00 | |
| PETON7-10 | 2026-09-04 00:34:26 | 50.52741 | 17.77573 | 44° | 18km/h | 25264m | 6.7m/s | 0°C | 0% | 0hPa | 0V | 00:00:00 | 00:00:00 | 00:00:00 | |
| S52SK | 2026-09-04 00:34:23 | 50.52726 | 17.77571 | 346° | 26km/h | 25241m | 7.4m/s | 0°C | 0% | 0hPa | 0V | 00:00:00 | 00:00:00 | 00:00:00 | |
| S52SK | 2026-09-04 00:34:15 | 50.52716 | 17.77608 | 156° | 11km/h | 25177m | 4.4m/s | 0°C | 0% | 0hPa | 0V | 00:00:00 | 00:00:00 | 00:00:00 | |
| OE5DRO-10 | 2026-09-04 00:34:14 | 50.52710 | 17.77602 | 321° | 20km/h | 25169m | -3.2m/s | 0°C | 0% | 0hPa | 0V | 00:00:00 | 00:00:00 | 00:00:00 | |
| PETON7-10 | 2026-09-04 00:34:11 | 50.52705 | 17.77610 | 314° | 20km/h | 25173m | 0.1m/s | 0°C | 0% | 0hPa | 0V | 00:00:00 | 00:00:00 | 00:00:00 | |
| S52SK | 2026-09-04 00:34:08 | 50.52706 | 17.77639 | 215° | 38km/h | 25160m | 5.1m/s | 0°C | 0% | 0hPa | 0V | 00:00:00 | 00:00:00 | 00:00:00 | |
| POL1PZ | 2026-09-04 00:34:05 | 50.52724 | 17.77642 | 156° | 9km/h | 25142m | 4.7m/s | 0°C | 0% | 0hPa | 0V | 00:00:00 | 00:00:00 | 00:00:00 | |
| PETON7-10 | 2026-09-04 00:33:55 | 50.52727 | 17.77675 | 187° | 13km/h | 25084m | 5.7m/s | 0°C | 0% | 0hPa | 0V | 00:00:00 | 00:00:00 | 00:00:00 | |
| PG1ADW-2 | 2026-09-04 00:33:53 | 50.52735 | 17.77679 | 187° | 11km/h | 25074m | 5.8m/s | 0°C | 0% | 0hPa | 0V | 00:00:00 | 00:00:00 | 00:00:00 | |
| SP3BTT-10 | 2026-09-04 00:33:49 | 50.52731 | 17.77675 | 343° | 11km/h | 25050m | 5.6m/s | 0°C | 0% | 0hPa | 0V | 00:00:00 | 00:00:00 | 00:00:00 | |
| POL1PZ | 2026-09-04 00:33:44 | 50.52748 | 17.77674 | 193° | 7km/h | 25021m | 6.3m/s | 0°C | 0% | 0hPa | 0V | 00:00:00 | 00:00:00 | 00:00:00 | |
| PETON7-10 | 2026-09-04 00:33:40 | 50.52757 | 17.77668 | 119° | 9km/h | 24996m | 7.0m/s | 0°C | 0% | 0hPa | 0V | 00:00:00 | 00:00:00 | 00:00:00 | |
| OE5DRO-10 | 2026-09-04 00:33:34 | 50.52774 | 17.77644 | 108° | 9km/h | 24936m | 4.6m/s | 0°C | 0% | 0hPa | 0V | 00:00:00 | 00:00:00 | 00:00:00 | |
| PG1ADW-2 | 2026-09-04 00:33:29 | 50.52778 | 17.77637 | 143° | 11km/h | 24927m | 5.8m/s | 0°C | 0% | 0hPa | 0V | 00:00:00 | 00:00:00 | 00:00:00 | |
| OE5MMP-10 | 2026-09-04 00:33:28 | 50.52780 | 17.77632 | 136° | 15km/h | 24921m | 7.2m/s | 0°C | 0% | 0hPa | 0V | 00:00:00 | 00:00:00 | 00:00:00 | |
| POL1PZ | 2026-09-04 00:33:24 | 50.52784 | 17.77617 | 233° | 5km/h | 24896m | 3.9m/s | 0°C | 0% | 0hPa | 0V | 00:00:00 | 00:00:00 | 00:00:00 | |
| PETON7-10 | 2026-09-04 00:33:22 | 50.52784 | 17.77619 | 272° | 11km/h | 24888m | 3.0m/s | 0°C | 0% | 0hPa | 0V | 00:00:00 | 00:00:00 | 00:00:00 | |
| OE5DRO-10 | 2026-09-04 00:33:12 | 50.52768 | 17.77606 | 319° | 11km/h | 24827m | 4.5m/s | 0°C | 0% | 0hPa | 0V | 00:00:00 | 00:00:00 | 00:00:00 | |
| PG1ADW-2 | 2026-09-04 00:33:09 | 50.52761 | 17.77610 | 354° | 13km/h | 24817m | 5.6m/s | 0°C | 0% | 0hPa | 0V | 00:00:00 | 00:00:00 | 00:00:00 | |
| PETON7-10 | 2026-09-04 00:33:07 | 50.52754 | 17.77611 | 346° | 11km/h | 24808m | 4.5m/s | 0°C | 0% | 0hPa | 0V | 00:00:00 | 00:00:00 | 00:00:00 | |
| POL1PZ | 2026-09-04 00:33:03 | 50.52750 | 17.77618 | 360° | 7km/h | 24783m | 7.0m/s | 0°C | 0% | 0hPa | 0V | 00:00:00 | 00:00:00 | 00:00:00 | |
| PETON7-10 | 2026-09-04 00:32:52 | 50.52735 | 17.77646 | 282° | 15km/h | 24722m | 7.1m/s | 0°C | 0% | 0hPa | 0V | 00:00:00 | 00:00:00 | 00:00:00 | |
| OE5DRO-10 | 2026-09-04 00:32:51 | 50.52734 | 17.77648 | 320° | 15km/h | 24715m | 6.9m/s | 0°C | 0% | 0hPa | 0V | 00:00:00 | 00:00:00 | 00:00:00 | |
| SP3BTT-10 | 2026-09-04 00:32:49 | 50.52728 | 17.77649 | 339° | 15km/h | 24704m | 3.5m/s | 0°C | 0% | 0hPa | 0V | 00:00:00 | 00:00:00 | 00:00:00 | |
| PG1ADW-2 | 2026-09-04 00:32:47 | 50.52723 | 17.77658 | 286° | 18km/h | 24695m | 5.4m/s | 0°C | 0% | 0hPa | 0V | 00:00:00 | 00:00:00 | 00:00:00 | |
| POL1PZ | 2026-09-04 00:32:43 | 50.52722 | 17.77680 | 308° | 9km/h | 24673m | 6.7m/s | 0°C | 0% | 0hPa | 0V | 00:00:00 | 00:00:00 | 00:00:00 | |
| PETON7-10 | 2026-09-04 00:32:37 | 50.52714 | 17.77708 | 313° | 18km/h | 24634m | 6.3m/s | 0°C | 0% | 0hPa | 0V | 00:00:00 | 00:00:00 | 00:00:00 | |
| OE5DRO-10 | 2026-09-04 00:32:32 | 50.52714 | 17.77742 | 233° | 18km/h | 24606m | 4.6m/s | 0°C | 0% | 0hPa | 0V | 00:00:00 | 00:00:00 | 00:00:00 | |
| PG1ADW-2 | 2026-09-04 00:32:27 | 50.52716 | 17.77779 | 292° | 18km/h | 24577m | 6.9m/s | 0°C | 0% | 0hPa | 0V | 00:00:00 | 00:00:00 | 00:00:00 | |
| PETON7-10 | 2026-09-04 00:32:22 | 50.52712 | 17.77808 | 238° | 22km/h | 24548m | 6.1m/s | 0°C | 0% | 0hPa | 0V | 00:00:00 | 00:00:00 | 00:00:00 | |
| OE5DRO-10 | 2026-09-04 00:32:13 | 50.52728 | 17.77859 | 205° | 16km/h | 24501m | 4.8m/s | 0°C | 0% | 0hPa | 0V | 00:00:00 | 00:00:00 | 00:00:00 | |
| PETON7-10 | 2026-09-04 00:32:07 | 50.52758 | 17.77894 | 221° | 15km/h | 24469m | 5.4m/s | 0°C | 0% | 0hPa | 0V | 00:00:00 | 00:00:00 | 00:00:00 | |
| POL1PZ | 2026-09-04 00:32:02 | 50.52760 | 17.77913 | 212° | 18km/h | 24441m | 5.6m/s | 0°C | 0% | 0hPa | 0V | 00:00:00 | 00:00:00 | 00:00:00 | |
| PG1ADW-2 | 2026-09-04 00:32:00 | 50.52790 | 17.77935 | 270° | 24km/h | 24396m | 7.1m/s | 0°C | 0% | 0hPa | 0V | 00:00:00 | 00:00:00 | 00:00:00 | |
| OE5DRO-10 | 2026-09-04 00:31:54 | 50.52792 | 17.77933 | 165° | 24km/h | 24381m | 5.5m/s | 0°C | 0% | 0hPa | 0V | 00:00:00 | 00:00:00 | 00:00:00 | |
| PETON7-10 | 2026-09-04 00:31:52 | 50.52795 | 17.77932 | 187° | 26km/h | 24374m | 5.8m/s | 0°C | 0% | 0hPa | 0V | 00:00:00 | 00:00:00 | 00:00:00 | |
| SP3BTT-10 | 2026-09-04 00:31:50 | 50.52807 | 17.77933 | 185° | 24km/h | 24365m | 3.6m/s | 0°C | 0% | 0hPa | 0V | 00:00:00 | 00:00:00 | 00:00:00 | |
| OE5MMP-10 | 2026-09-04 00:31:41 | 50.52848 | 17.77940 | 160° | 26km/h | 24340m | 5.4m/s | 0°C | 0% | 0hPa | 0V | 00:00:00 | 00:00:00 | 00:00:00 | |
| POL1PZ | 2026-09-04 00:31:40 | 50.52856 | 17.77936 | 170° | 33km/h | 24335m | 7.3m/s | 0°C | 0% | 0hPa | 0V | 00:00:00 | 00:00:00 | 00:00:00 | |
| PETON7-10 | 2026-09-04 00:31:37 | 50.52876 | 17.77939 | 184° | 20km/h | 24312m | 7.3m/s | 0°C | 0% | 0hPa | 0V | 00:00:00 | 00:00:00 | 00:00:00 | |
| OE5DRO-10 | 2026-09-04 00:31:34 | 50.52889 | 17.77947 | 201° | 22km/h | 24287m | 5.7m/s | 0°C | 0% | 0hPa | 0V | 00:00:00 | 00:00:00 | 00:00:00 | |
| OE5MMP-10 | 2026-09-04 00:31:31 | 50.52900 | 17.77949 | 164° | 22km/h | 24272m | 5.4m/s | 0°C | 0% | 0hPa | 0V | 00:00:00 | 00:00:00 | 00:00:00 | |
| PETON7-10 | 2026-09-04 00:31:22 | 50.52944 | 17.77949 | 169° | 24km/h | 24224m | 3.6m/s | 0°C | 0% | 0hPa | 0V | 00:00:00 | 00:00:00 | 00:00:00 | |
| OE5MMP-10 | 2026-09-04 00:31:21 | 50.52949 | 17.77947 | 160° | 26km/h | 24220m | 3.7m/s | 0°C | 0% | 0hPa | 0V | 00:00:00 | 00:00:00 | 00:00:00 | |
| POL1PZ | 2026-09-04 00:31:19 | 50.52963 | 17.77942 | 182° | 29km/h | 24212m | 5.2m/s | 0°C | 0% | 0hPa | 0V | 00:00:00 | 00:00:00 | 00:00:00 | |
| OE5DRO-10 | 2026-09-04 00:31:15 | 50.52989 | 17.77940 | 158° | 22km/h | 24192m | 4.5m/s | 0°C | 0% | 0hPa | 0V | 00:00:00 | 00:00:00 | 00:00:00 | |
| PETON7-10 | 2026-09-04 00:31:07 | 50.53036 | 17.77928 | 165° | 26km/h | 24153m | 5.4m/s | 0°C | 0% | 0hPa | 0V | 00:00:00 | 00:00:00 | 00:00:00 | |
| OE5MMP-10 | 2026-09-04 00:31:06 | 50.53043 | 17.77924 | 155° | 22km/h | 24148m | 5.1m/s | 0°C | 0% | 0hPa | 0V | 00:00:00 | 00:00:00 | 00:00:00 | |
| POL1PZ | 2026-09-04 00:30:59 | 50.53087 | 17.77893 | 158° | 15km/h | 24108m | 5.1m/s | 0°C | 0% | 0hPa | 0V | 00:00:00 | 00:00:00 | 00:00:00 | |
| OE5DRO-10 | 2026-09-04 00:30:54 | 50.53108 | 17.77875 | 163° | 20km/h | 24085m | 6.1m/s | 0°C | 0% | 0hPa | 0V | 00:00:00 | 00:00:00 | 00:00:00 | |
| PETON7-10 | 2026-09-04 00:30:52 | 50.53124 | 17.77864 | 156° | 20km/h | 24074m | 5.5m/s | 0°C | 0% | 0hPa | 0V | 00:00:00 | 00:00:00 | 00:00:00 | |
| SP3BTT-10 | 2026-09-04 00:30:48 | 50.53139 | 17.77860 | 198° | 13km/h | 24052m | 4.3m/s | 0°C | 0% | 0hPa | 0V | 00:00:00 | 00:00:00 | 00:00:00 | |
| POL1PZ | 2026-09-04 00:30:39 | 50.53178 | 17.77837 | 164° | 15km/h | 24005m | 4.8m/s | 0°C | 0% | 0hPa | 0V | 00:00:00 | 00:00:00 | 00:00:00 | |
| PETON7-10 | 2026-09-04 00:30:37 | 50.53185 | 17.77835 | 169° | 24km/h | 23995m | 5.3m/s | 0°C | 0% | 0hPa | 0V | 00:00:00 | 00:00:00 | 00:00:00 | |
| PG1ADW-2 | 2026-09-04 00:30:35 | 50.53236 | 17.77839 | 200° | 18km/h | 23953m | 5.3m/s | 0°C | 0% | 0hPa | 0V | 00:00:00 | 00:00:00 | 00:00:00 | |
| PETON7-10 | 2026-09-04 00:30:20 | 50.53281 | 17.77833 | 181° | 18km/h | 23912m | 4.9m/s | 0°C | 0% | 0hPa | 0V | 00:00:00 | 00:00:00 | 00:00:00 | |
| POL1PZ | 2026-09-04 00:30:18 | 50.53288 | 17.77834 | 196° | 16km/h | 23904m | 5.4m/s | 0°C | 0% | 0hPa | 0V | 00:00:00 | 00:00:00 | 00:00:00 | |
| OE5DRO-10 | 2026-09-04 00:30:17 | 50.53303 | 17.77828 | 125° | 16km/h | 23881m | 5.5m/s | 0°C | 0% | 0hPa | 0V | 00:00:00 | 00:00:00 | 00:00:00 | |
| PG1ADW-2 | 2026-09-04 00:30:12 | 50.53308 | 17.77822 | 159° | 18km/h | 23867m | 7.4m/s | 0°C | 0% | 0hPa | 0V | 00:00:00 | 00:00:00 | 00:00:00 | |
| PETON7-10 | 2026-09-04 00:30:06 | 50.53336 | 17.77801 | 153° | 15km/h | 23827m | 5.3m/s | 0°C | 0% | 0hPa | 0V | 00:00:00 | 00:00:00 | 00:00:00 | |
| POL1PZ | 2026-09-04 00:29:57 | 50.53365 | 17.77769 | 120° | 11km/h | 23783m | 4.5m/s | 0°C | 0% | 0hPa | 0V | 00:00:00 | 00:00:00 | 00:00:00 | |
| PETON7-10 | 2026-09-04 00:29:50 | 50.53384 | 17.77756 | 143° | 11km/h | 23748m | 4.9m/s | 0°C | 0% | 0hPa | 0V | 00:00:00 | 00:00:00 | 00:00:00 | |
| SP3BTT-10 | 2026-09-04 00:29:49 | 50.53387 | 17.77754 | 164° | 16km/h | 23742m | 6.6m/s | 0°C | 0% | 0hPa | 0V | 00:00:00 | 00:00:00 | 00:00:00 | |
| POL1PZ | 2026-09-04 00:29:37 | 50.53416 | 17.77745 | 178° | 13km/h | 23677m | 7.5m/s | 0°C | 0% | 0hPa | 0V | 00:00:00 | 00:00:00 | 00:00:00 | |
| PETON7-10 | 2026-09-04 00:29:35 | 50.53423 | 17.77747 | 206° | 13km/h | 23666m | 4.5m/s | 0°C | 0% | 0hPa | 0V | 00:00:00 | 00:00:00 | 00:00:00 | |
| PETON7-10 | 2026-09-04 00:29:20 | 50.53464 | 17.77726 | 200° | 20km/h | 23586m | 7.3m/s | 0°C | 0% | 0hPa | 0V | 00:00:00 | 00:00:00 | 00:00:00 | |
| PG1ADW-2 | 2026-09-04 00:29:18 | 50.53476 | 17.77723 | 153° | 15km/h | 23567m | 7.1m/s | 0°C | 0% | 0hPa | 0V | 00:00:00 | 00:00:00 | 00:00:00 | |
| PETON7-10 | 2026-09-04 00:29:02 | 50.53549 | 17.77690 | 182° | 20km/h | 23483m | 6.0m/s | 0°C | 0% | 0hPa | 0V | 00:00:00 | 00:00:00 | 00:00:00 | |
| OE5DRO-10 | 2026-09-04 00:28:59 | 50.53572 | 17.77688 | 136° | 18km/h | 23457m | 5.8m/s | 0°C | 0% | 0hPa | 0V | 00:00:00 | 00:00:00 | 00:00:00 | |
| POL1PZ | 2026-09-04 00:28:56 | 50.53576 | 17.77681 | 127° | 29km/h | 23451m | 6.5m/s | 0°C | 0% | 0hPa | 0V | 00:00:00 | 00:00:00 | 00:00:00 | |
| SP3BTT-10 | 2026-09-04 00:28:47 | 50.53609 | 17.77642 | 118° | 16km/h | 23404m | 5.5m/s | 0°C | 0% | 0hPa | 0V | 00:00:00 | 00:00:00 | 00:00:00 | |
| PETON7-10 | 2026-09-04 00:28:46 | 50.53611 | 17.77636 | 113° | 26km/h | 23398m | 5.7m/s | 0°C | 0% | 0hPa | 0V | 00:00:00 | 00:00:00 | 00:00:00 | |
| POL1PZ | 2026-09-04 00:28:36 | 50.53635 | 17.77563 | 120° | 9km/h | 23346m | 7.0m/s | 0°C | 0% | 0hPa | 0V | 00:00:00 | 00:00:00 | 00:00:00 | |
| OE5MMP-10 | 2026-09-04 00:28:35 | 50.53637 | 17.77556 | 100° | 11km/h | 23339m | 6.8m/s | 0°C | 0% | 0hPa | 0V | 00:00:00 | 00:00:00 | 00:00:00 | |
| PETON7-10 | 2026-09-04 00:28:31 | 50.53647 | 17.77512 | 105° | 13km/h | 23315m | 5.5m/s | 0°C | 0% | 0hPa | 0V | 00:00:00 | 00:00:00 | 00:00:00 | |
| OE5MMP-10 | 2026-09-04 00:28:23 | 50.53645 | 17.77497 | 93° | 11km/h | 23269m | 5.2m/s | 0°C | 0% | 0hPa | 0V | 00:00:00 | 00:00:00 | 00:00:00 | |
| PETON7-10 | 2026-09-04 00:28:17 | 50.53655 | 17.77460 | 40° | 11km/h | 23232m | 4.6m/s | 0°C | 0% | 0hPa | 0V | 00:00:00 | 00:00:00 | 00:00:00 | |
| POL1PZ | 2026-09-04 00:28:13 | 50.53651 | 17.77451 | 106° | 11km/h | 23215m | 5.2m/s | 0°C | 0% | 0hPa | 0V | 00:00:00 | 00:00:00 | 00:00:00 | |
| OE5MMP-10 | 2026-09-04 00:28:08 | 50.53656 | 17.77429 | 171° | 15km/h | 23189m | 5.0m/s | 0°C | 0% | 0hPa | 0V | 00:00:00 | 00:00:00 | 00:00:00 | |
| PETON7-10 | 2026-09-04 00:28:01 | 50.53656 | 17.77416 | 122° | 15km/h | 23158m | 5.4m/s | 0°C | 0% | 0hPa | 0V | 00:00:00 | 00:00:00 | 00:00:00 | |
| OE5MMP-10 | 2026-09-04 00:27:58 | 50.53663 | 17.77402 | 124° | 18km/h | 23141m | 5.1m/s | 0°C | 0% | 0hPa | 0V | 00:00:00 | 00:00:00 | 00:00:00 | |
| OE5DRO-10 | 2026-09-04 00:27:55 | 50.53665 | 17.77396 | 108° | 16km/h | 23122m | 5.2m/s | 0°C | 0% | 0hPa | 0V | 00:00:00 | 00:00:00 | 00:00:00 | |
| POL1PZ | 2026-09-04 00:27:52 | 50.53664 | 17.77380 | 75° | 15km/h | 23105m | 5.3m/s | 0°C | 0% | 0hPa | 0V | 00:00:00 | 00:00:00 | 00:00:00 | |
| SP3BTT-10 | 2026-09-04 00:27:49 | 50.53672 | 17.77359 | 148° | 16km/h | 23085m | 6.4m/s | 0°C | 0% | 0hPa | 0V | 00:00:00 | 00:00:00 | 00:00:00 | |
| PETON7-10 | 2026-09-04 00:27:45 | 50.53690 | 17.77352 | 303° | 16km/h | 23064m | 4.5m/s | 0°C | 0% | 0hPa | 0V | 00:00:00 | 00:00:00 | 00:00:00 | |
| PG1ADW-2 | 2026-09-04 00:27:44 | 50.53688 | 17.77352 | 42° | 15km/h | 23059m | 5.1m/s | 0°C | 0% | 0hPa | 0V | 00:00:00 | 00:00:00 | 00:00:00 | |
| OE5MMP-10 | 2026-09-04 00:27:43 | 50.53689 | 17.77345 | 107° | 20km/h | 23046m | 5.4m/s | 0°C | 0% | 0hPa | 0V | 00:00:00 | 00:00:00 | 00:00:00 | |
| OE5MMP-10 | 2026-09-04 00:27:32 | 50.53716 | 17.77292 | 141° | 18km/h | 23001m | 6.0m/s | 0°C | 0% | 0hPa | 0V | 00:00:00 | 00:00:00 | 00:00:00 | |
| PETON7-10 | 2026-09-04 00:27:28 | 50.53724 | 17.77272 | 120° | 18km/h | 22979m | 4.6m/s | 0°C | 0% | 0hPa | 0V | 00:00:00 | 00:00:00 | 00:00:00 | |
| PG1ADW-2 | 2026-09-04 00:27:20 | 50.53745 | 17.77234 | 145° | 16km/h | 22934m | 4.9m/s | 0°C | 0% | 0hPa | 0V | 00:00:00 | 00:00:00 | 00:00:00 | |
| S52SK | 2026-09-04 00:27:18 | 50.53753 | 17.77227 | 136° | 18km/h | 22924m | 5.5m/s | 0°C | 0% | 0hPa | 0V | 00:00:00 | 00:00:00 | 00:00:00 | |
| OE5DRO-10 | 2026-09-04 00:27:14 | 50.53765 | 17.77193 | 127° | 15km/h | 22895m | 4.4m/s | 0°C | 0% | 0hPa | 0V | 00:00:00 | 00:00:00 | 00:00:00 | |
| POL1PZ | 2026-09-04 00:27:12 | 50.53767 | 17.77188 | 110° | 18km/h | 22890m | 6.8m/s | 0°C | 0% | 0hPa | 0V | 00:00:00 | 00:00:00 | 00:00:00 | |
| PETON7-10 | 2026-09-04 00:27:10 | 50.53768 | 17.77177 | 85° | 15km/h | 22880m | 6.3m/s | 0°C | 0% | 0hPa | 0V | 00:00:00 | 00:00:00 | 00:00:00 | |
| OE5MMP-10 | 2026-09-04 00:27:04 | 50.53773 | 17.77148 | 124° | 18km/h | 22842m | 6.3m/s | 0°C | 0% | 0hPa | 0V | 00:00:00 | 00:00:00 | 00:00:00 | |
| PG1ADW-2 | 2026-09-04 00:27:00 | 50.53784 | 17.77110 | 89° | 15km/h | 22819m | 4.5m/s | 0°C | 0% | 0hPa | 0V | 00:00:00 | 00:00:00 | 00:00:00 | |
| PETON7-10 | 2026-09-04 00:26:55 | 50.53785 | 17.77088 | 87° | 18km/h | 22795m | 5.6m/s | 0°C | 0% | 0hPa | 0V | 00:00:00 | 00:00:00 | 00:00:00 | |
| OE5MMP-10 | 2026-09-04 00:26:53 | 50.53782 | 17.77079 | 77° | 20km/h | 22786m | 4.0m/s | 0°C | 0% | 0hPa | 0V | 00:00:00 | 00:00:00 | 00:00:00 | |
| POL1PZ | 2026-09-04 00:26:51 | 50.53782 | 17.77064 | 111° | 18km/h | 22776m | 6.2m/s | 0°C | 0% | 0hPa | 0V | 00:00:00 | 00:00:00 | 00:00:00 | |
| SP3BTT-10 | 2026-09-04 00:26:46 | 50.53786 | 17.77018 | 87° | 20km/h | 22752m | 4.5m/s | 0°C | 0% | 0hPa | 0V | 00:00:00 | 00:00:00 | 00:00:00 | |
| OE5MMP-10 | 2026-09-04 00:26:42 | 50.53789 | 17.76986 | 78° | 11km/h | 22733m | 6.3m/s | 0°C | 0% | 0hPa | 0V | 00:00:00 | 00:00:00 | 00:00:00 | |
| PETON7-10 | 2026-09-04 00:26:40 | 50.53787 | 17.76971 | 58° | 11km/h | 22723m | 6.1m/s | 0°C | 0% | 0hPa | 0V | 00:00:00 | 00:00:00 | 00:00:00 | |
| OE5DRO-10 | 2026-09-04 00:26:37 | 50.53790 | 17.76952 | 115° | 11km/h | 22700m | 5.8m/s | 0°C | 0% | 0hPa | 0V | 00:00:00 | 00:00:00 | 00:00:00 | |
| POL1PZ | 2026-09-04 00:26:31 | 50.53793 | 17.76943 | 116° | 5km/h | 22673m | 4.6m/s | 0°C | 0% | 0hPa | 0V | 00:00:00 | 00:00:00 | 00:00:00 | |
| OE5MMP-10 | 2026-09-04 00:26:28 | 50.53792 | 17.76929 | 101° | 13km/h | 22657m | 3.9m/s | 0°C | 0% | 0hPa | 0V | 00:00:00 | 00:00:00 | 00:00:00 | |
| PETON7-10 | 2026-09-04 00:26:25 | 50.53801 | 17.76910 | 151° | 9km/h | 22641m | 6.3m/s | 0°C | 0% | 0hPa | 0V | 00:00:00 | 00:00:00 | 00:00:00 | |
| OE5DRO-10 | 2026-09-04 00:26:15 | 50.53816 | 17.76913 | 175° | 15km/h | 22581m | 6.0m/s | 0°C | 0% | 0hPa | 0V | 00:00:00 | 00:00:00 | 00:00:00 | |
| OE5MMP-10 | 2026-09-04 00:26:14 | 50.53821 | 17.76912 | 167° | 16km/h | 22576m | 3.7m/s | 0°C | 0% | 0hPa | 0V | 00:00:00 | 00:00:00 | 00:00:00 | |
| PETON7-10 | 2026-09-04 00:26:10 | 50.53825 | 17.76917 | 222° | 16km/h | 22556m | 6.3m/s | 0°C | 0% | 0hPa | 0V | 00:00:00 | 00:00:00 | 00:00:00 | |
| OE5MMP-10 | 2026-09-04 00:25:59 | 50.53854 | 17.76948 | 247° | 22km/h | 22495m | 3.9m/s | 0°C | 0% | 0hPa | 0V | 00:00:00 | 00:00:00 | 00:00:00 | |
| OE5DRO-10 | 2026-09-04 00:25:56 | 50.53867 | 17.76961 | 197° | 20km/h | 22480m | 4.4m/s | 0°C | 0% | 0hPa | 0V | 00:00:00 | 00:00:00 | 00:00:00 | |
| PETON7-10 | 2026-09-04 00:25:55 | 50.53873 | 17.76963 | 184° | 22km/h | 22475m | 6.1m/s | 0°C | 0% | 0hPa | 0V | 00:00:00 | 00:00:00 | 00:00:00 | |
| POL1PZ | 2026-09-04 00:25:47 | 50.53910 | 17.76987 | 214° | 16km/h | 22432m | 6.1m/s | 0°C | 0% | 0hPa | 0V | 00:00:00 | 00:00:00 | 00:00:00 | |
| SP3BTT-10 | 2026-09-04 00:25:46 | 50.53915 | 17.76990 | 203° | 22km/h | 22426m | 7.3m/s | 0°C | 0% | 0hPa | 0V | 00:00:00 | 00:00:00 | 00:00:00 | |
| PETON7-10 | 2026-09-04 00:25:39 | 50.53959 | 17.76989 | 184° | 22km/h | 22382m | 4.9m/s | 0°C | 0% | 0hPa | 0V | 00:00:00 | 00:00:00 | 00:00:00 | |
| OE5DRO-10 | 2026-09-04 00:25:37 | 50.53967 | 17.76991 | 191° | 22km/h | 22373m | 3.6m/s | 0°C | 0% | 0hPa | 0V | 00:00:00 | 00:00:00 | 00:00:00 | |
| OE5MMP-10 | 2026-09-04 00:25:34 | 50.53986 | 17.76991 | 172° | 33km/h | 22359m | 5.1m/s | 0°C | 0% | 0hPa | 0V | 00:00:00 | 00:00:00 | 00:00:00 | |
| PG1ADW-2 | 2026-09-04 00:25:28 | 50.54021 | 17.76963 | 144° | 18km/h | 22328m | 4.0m/s | 0°C | 0% | 0hPa | 0V | 00:00:00 | 00:00:00 | 00:00:00 | |
| POL1PZ | 2026-09-04 00:25:26 | 50.54030 | 17.76958 | 183° | 15km/h | 22319m | 7.0m/s | 0°C | 0% | 0hPa | 0V | 00:00:00 | 00:00:00 | 00:00:00 | |
| PETON7-10 | 2026-09-04 00:25:24 | 50.54038 | 17.76961 | 188° | 22km/h | 22307m | 6.4m/s | 0°C | 0% | 0hPa | 0V | 00:00:00 | 00:00:00 | 00:00:00 | |
| OE5DRO-10 | 2026-09-04 00:25:14 | 50.54088 | 17.76913 | 157° | 20km/h | 22241m | 6.1m/s | 0°C | 0% | 0hPa | 0V | 00:00:00 | 00:00:00 | 00:00:00 | |
| PETON7-10 | 2026-09-04 00:25:08 | 50.54108 | 17.76887 | 107° | 20km/h | 22215m | 5.3m/s | 0°C | 0% | 0hPa | 0V | 00:00:00 | 00:00:00 | 00:00:00 | |
| POL1PZ | 2026-09-04 00:25:04 | 50.54119 | 17.76856 | 123° | 18km/h | 22190m | 4.5m/s | 0°C | 0% | 0hPa | 0V | 00:00:00 | 00:00:00 | 00:00:00 | |
| OE5DRO-10 | 2026-09-04 00:24:54 | 50.54154 | 17.76781 | 104° | 26km/h | 22128m | 5.5m/s | 0°C | 0% | 0hPa | 0V | 00:00:00 | 00:00:00 | 00:00:00 | |
| PETON7-10 | 2026-09-04 00:24:52 | 50.54155 | 17.76774 | 116° | 26km/h | 22123m | 6.3m/s | 0°C | 0% | 0hPa | 0V | 00:00:00 | 00:00:00 | 00:00:00 | |
| PG1ADW-2 | 2026-09-04 00:24:48 | 50.54163 | 17.76746 | 107° | 27km/h | 22108m | 6.7m/s | 0°C | 0% | 0hPa | 0V | 00:00:00 | 00:00:00 | 00:00:00 | |
| SP3BTT-10 | 2026-09-04 00:24:47 | 50.54164 | 17.76736 | 111° | 20km/h | 22101m | 6.2m/s | 0°C | 0% | 0hPa | 0V | 00:00:00 | 00:00:00 | 00:00:00 | |
| POL1PZ | 2026-09-04 00:24:41 | 50.54169 | 17.76687 | 77° | 24km/h | 22068m | 5.6m/s | 0°C | 0% | 0hPa | 0V | 00:00:00 | 00:00:00 | 00:00:00 | |
| PETON7-10 | 2026-09-04 00:24:36 | 50.54178 | 17.76630 | 107° | 35km/h | 22041m | 5.3m/s | 0°C | 0% | 0hPa | 0V | 00:00:00 | 00:00:00 | 00:00:00 | |
| OE5DRO-10 | 2026-09-04 00:24:35 | 50.54184 | 17.76599 | 100° | 37km/h | 22024m | 7.3m/s | 0°C | 0% | 0hPa | 0V | 00:00:00 | 00:00:00 | 00:00:00 | |
| PG1ADW-2 | 2026-09-04 00:24:26 | 50.54179 | 17.76498 | 96° | 38km/h | 21987m | 4.3m/s | 0°C | 0% | 0hPa | 0V | 00:00:00 | 00:00:00 | 00:00:00 | |
| POL1PZ | 2026-09-04 00:24:21 | 50.54166 | 17.76415 | 68° | 42km/h | 21956m | 4.2m/s | 0°C | 0% | 0hPa | 0V | 00:00:00 | 00:00:00 | 00:00:00 | |
| OE5DRO-10 | 2026-09-04 00:24:16 | 50.54146 | 17.76326 | 85° | 26km/h | 21922m | 7.1m/s | 0°C | 0% | 0hPa | 0V | 00:00:00 | 00:00:00 | 00:00:00 | |
| PETON7-10 | 2026-09-04 00:24:06 | 50.54128 | 17.76254 | 63° | 24km/h | 21875m | 3.9m/s | 0°C | 0% | 0hPa | 0V | 00:00:00 | 00:00:00 | 00:00:00 | |
| POL1PZ | 2026-09-04 00:23:57 | 50.54110 | 17.76183 | 69° | 31km/h | 21824m | 4.3m/s | 0°C | 0% | 0hPa | 0V | 00:00:00 | 00:00:00 | 00:00:00 | |
| PETON7-10 | 2026-09-04 00:23:51 | 50.54104 | 17.76128 | 107° | 16km/h | 21794m | 3.9m/s | 0°C | 0% | 0hPa | 0V | 00:00:00 | 00:00:00 | 00:00:00 | |
| PG1ADW-2 | 2026-09-04 00:23:45 | 50.54085 | 17.76094 | 60° | 20km/h | 21762m | 4.6m/s | 0°C | 0% | 0hPa | 0V | 00:00:00 | 00:00:00 | 00:00:00 | |
| SP3BTT-10 | 2026-09-04 00:23:44 | 50.54083 | 17.76087 | 88° | 11km/h | 21759m | 1.7m/s | 0°C | 0% | 0hPa | 0V | 00:00:00 | 00:00:00 | 00:00:00 | |
| POL1PZ | 2026-09-04 00:23:37 | 50.54077 | 17.76060 | 38° | 18km/h | 21723m | 5.5m/s | 0°C | 0% | 0hPa | 0V | 00:00:00 | 00:00:00 | 00:00:00 | |
| PETON7-10 | 2026-09-04 00:23:36 | 50.54072 | 17.76057 | 17° | 18km/h | 21717m | 6.2m/s | 0°C | 0% | 0hPa | 0V | 00:00:00 | 00:00:00 | 00:00:00 | |
| PG1ADW-2 | 2026-09-04 00:23:25 | 50.54031 | 17.76020 | 30° | 15km/h | 21662m | 3.6m/s | 0°C | 0% | 0hPa | 0V | 00:00:00 | 00:00:00 | 00:00:00 | |
| PETON7-10 | 2026-09-04 00:23:20 | 50.54014 | 17.76002 | 61° | 13km/h | 21638m | 5.9m/s | 0°C | 0% | 0hPa | 0V | 00:00:00 | 00:00:00 | 00:00:00 | |
| POL1PZ | 2026-09-04 00:23:16 | 50.54010 | 17.76000 | 337° | 7km/h | 21616m | 3.7m/s | 0°C | 0% | 0hPa | 0V | 00:00:00 | 00:00:00 | 00:00:00 | |
| S52SK | 2026-09-04 00:23:12 | 50.53997 | 17.75980 | 39° | 26km/h | 21595m | 5.7m/s | 0°C | 0% | 0hPa | 0V | 00:00:00 | 00:00:00 | 00:00:00 | |
| PETON7-10 | 2026-09-04 00:23:05 | 50.53992 | 17.75981 | 319° | 9km/h | 21558m | 5.7m/s | 0°C | 0% | 0hPa | 0V | 00:00:00 | 00:00:00 | 00:00:00 | |
| OE5DRO-10 | 2026-09-04 00:22:59 | 50.53980 | 17.75972 | 238° | 7km/h | 21505m | 4.4m/s | 0°C | 0% | 0hPa | 0V | 00:00:00 | 00:00:00 | 00:00:00 | |
| POL1PZ | 2026-09-04 00:22:56 | 50.53980 | 17.75972 | 239° | 4km/h | 21505m | 4.5m/s | 0°C | 0% | 0hPa | 0V | 00:00:00 | 00:00:00 | 00:00:00 | |
| PETON7-10 | 2026-09-04 00:22:50 | 50.53968 | 17.75973 | 61° | 7km/h | 21474m | 4.8m/s | 0°C | 0% | 0hPa | 0V | 00:00:00 | 00:00:00 | 00:00:00 | |
| SP3BTT-10 | 2026-09-04 00:22:48 | 50.53966 | 17.75969 | 2° | 9km/h | 21464m | 5.5m/s | 0°C | 0% | 0hPa | 0V | 00:00:00 | 00:00:00 | 00:00:00 | |
| SQ9EZE-14 | 2026-09-04 00:22:46 | 50.53966 | 17.75972 | 232° | 7km/h | 21453m | 6.4m/s | 0°C | 0% | 0hPa | 0V | 00:00:00 | 00:00:00 | 00:00:00 | |
| PG1ADW-2 | 2026-09-04 00:22:45 | 50.53967 | 17.75975 | 221° | 7km/h | 21447m | 5.6m/s | 0°C | 0% | 0hPa | 0V | 00:00:00 | 00:00:00 | 00:00:00 | |
| OE5DRO-10 | 2026-09-04 00:22:40 | 50.53968 | 17.75982 | 139° | 7km/h | 21410m | 4.3m/s | 0°C | 0% | 0hPa | 0V | 00:00:00 | 00:00:00 | 00:00:00 | |
| PETON7-10 | 2026-09-04 00:22:35 | 50.53971 | 17.75980 | 201° | 9km/h | 21394m | 5.0m/s | 0°C | 0% | 0hPa | 0V | 00:00:00 | 00:00:00 | 00:00:00 | |
| PG1ADW-2 | 2026-09-04 00:22:22 | 50.53990 | 17.76004 | 216° | 7km/h | 21321m | 4.7m/s | 0°C | 0% | 0hPa | 0V | 00:00:00 | 00:00:00 | 00:00:00 | |
| PETON7-10 | 2026-09-04 00:22:20 | 50.53990 | 17.76003 | 117° | 11km/h | 21313m | 5.3m/s | 0°C | 0% | 0hPa | 0V | 00:00:00 | 00:00:00 | 00:00:00 | |
| POL1PZ | 2026-09-04 00:22:14 | 50.54005 | 17.76018 | 262° | 18km/h | 21284m | 5.8m/s | 0°C | 0% | 0hPa | 0V | 00:00:00 | 00:00:00 | 00:00:00 | |
| PETON7-10 | 2026-09-04 00:22:05 | 50.54014 | 17.76037 | 192° | 13km/h | 21231m | 3.3m/s | 0°C | 0% | 0hPa | 0V | 00:00:00 | 00:00:00 | 00:00:00 | |
| PG1ADW-2 | 2026-09-04 00:22:02 | 50.54019 | 17.76053 | 271° | 11km/h | 21215m | 4.5m/s | 0°C | 0% | 0hPa | 0V | 00:00:00 | 00:00:00 | 00:00:00 | |
| OE5DRO-10 | 2026-09-04 00:21:59 | 50.54026 | 17.76055 | 187° | 11km/h | 21185m | 4.5m/s | 0°C | 0% | 0hPa | 0V | 00:00:00 | 00:00:00 | 00:00:00 | |
| POL1PZ | 2026-09-04 00:21:53 | 50.54036 | 17.76060 | 194° | 7km/h | 21172m | 5.7m/s | 0°C | 0% | 0hPa | 0V | 00:00:00 | 00:00:00 | 00:00:00 | |
| PETON7-10 | 2026-09-04 00:21:50 | 50.54038 | 17.76068 | 275° | 9km/h | 21154m | 4.0m/s | 0°C | 0% | 0hPa | 0V | 00:00:00 | 00:00:00 | 00:00:00 | |
| SP3BTT-10 | 2026-09-04 00:21:44 | 50.54050 | 17.76058 | 204° | 11km/h | 21124m | 5.5m/s | 0°C | 0% | 0hPa | 0V | 00:00:00 | 00:00:00 | 00:00:00 | |
| PG1ADW-2 | 2026-09-04 00:21:42 | 50.54053 | 17.76064 | 236° | 11km/h | 21113m | 7.0m/s | 0°C | 0% | 0hPa | 0V | 00:00:00 | 00:00:00 | 00:00:00 | |
| OE5DRO-10 | 2026-09-04 00:21:40 | 50.54063 | 17.76069 | 145° | 11km/h | 21085m | 6.8m/s | 0°C | 0% | 0hPa | 0V | 00:00:00 | 00:00:00 | 00:00:00 | |
| PETON7-10 | 2026-09-04 00:21:35 | 50.54069 | 17.76058 | 135° | 13km/h | 21073m | 3.5m/s | 0°C | 0% | 0hPa | 0V | 00:00:00 | 00:00:00 | 00:00:00 | |
| POL1PZ | 2026-09-04 00:21:32 | 50.54075 | 17.76060 | 248° | 11km/h | 21061m | 4.2m/s | 0°C | 0% | 0hPa | 0V | 00:00:00 | 00:00:00 | 00:00:00 | |
| SQ6EMJ | 2026-09-04 00:21:29 | 50.54076 | 17.76062 | 91° | 7km/h | 21049m | 4.6m/s | 0°C | 0% | 0hPa | 0V | 00:00:00 | 00:00:00 | 00:00:00 | |
| OE5DRO-10 | 2026-09-04 00:21:21 | 50.54101 | 17.76036 | 105° | 11km/h | 20992m | 7.5m/s | 0°C | 0% | 0hPa | 0V | 00:00:00 | 00:00:00 | 00:00:00 | |
| POL1PZ | 2026-09-04 00:21:13 | 50.54112 | 17.76007 | 119° | 15km/h | 20960m | 5.6m/s | 0°C | 0% | 0hPa | 0V | 00:00:00 | 00:00:00 | 00:00:00 | |
| PG1ADW-2 | 2026-09-04 00:21:08 | 50.54121 | 17.75994 | 122° | 11km/h | 20937m | 6.9m/s | 0°C | 0% | 0hPa | 0V | 00:00:00 | 00:00:00 | 00:00:00 | |
| PETON7-10 | 2026-09-04 00:21:05 | 50.54121 | 17.75983 | 113° | 9km/h | 20921m | 6.7m/s | 0°C | 0% | 0hPa | 0V | 00:00:00 | 00:00:00 | 00:00:00 | |
| SQ6EMJ | 2026-09-04 00:20:56 | 50.54127 | 17.75953 | 87° | 13km/h | 20872m | 4.5m/s | 0°C | 0% | 0hPa | 0V | 00:00:00 | 00:00:00 | 00:00:00 | |
| SQ6EMJ | 2026-09-04 00:20:51 | 50.54131 | 17.75927 | 109° | 16km/h | 20840m | 5.2m/s | 0°C | 0% | 0hPa | 0V | 00:00:00 | 00:00:00 | 00:00:00 | |
| PETON7-10 | 2026-09-04 00:20:50 | 50.54131 | 17.75926 | 109° | 11km/h | 20840m | 5.2m/s | 0°C | 0% | 0hPa | 0V | 00:00:00 | 00:00:00 | 00:00:00 | |
| SQ6EMJ | 2026-09-04 00:20:45 | 50.54131 | 17.75908 | 88° | 13km/h | 20820m | 6.9m/s | 0°C | 0% | 0hPa | 0V | 00:00:00 | 00:00:00 | 00:00:00 | |
| PG1ADW-2 | 2026-09-04 00:20:44 | 50.54131 | 17.75903 | 90° | 11km/h | 20814m | 5.5m/s | 0°C | 0% | 0hPa | 0V | 00:00:00 | 00:00:00 | 00:00:00 | |
| SP3BTT-10 | 2026-09-04 00:20:43 | 50.54131 | 17.75897 | 85° | 16km/h | 20808m | 5.3m/s | 0°C | 0% | 0hPa | 0V | 00:00:00 | 00:00:00 | 00:00:00 | |
| SQ6EMJ | 2026-09-04 00:20:39 | 50.54132 | 17.75879 | 90° | 18km/h | 20786m | 6.9m/s | 0°C | 0% | 0hPa | 0V | 00:00:00 | 00:00:00 | 00:00:00 | |
| PETON7-10 | 2026-09-04 00:20:35 | 50.54135 | 17.75869 | 205° | 9km/h | 20761m | 4.2m/s | 0°C | 0% | 0hPa | 0V | 00:00:00 | 00:00:00 | 00:00:00 | |
| SQ6EMJ | 2026-09-04 00:20:31 | 50.54134 | 17.75862 | 106° | 7km/h | 20736m | 5.6m/s | 0°C | 0% | 0hPa | 0V | 00:00:00 | 00:00:00 | 00:00:00 | |
| POL1PZ | 2026-09-04 00:20:30 | 50.54134 | 17.75859 | 105° | 4km/h | 20732m | 4.2m/s | 0°C | 0% | 0hPa | 0V | 00:00:00 | 00:00:00 | 00:00:00 | |
| SQ6EMJ | 2026-09-04 00:20:22 | 50.54148 | 17.75840 | 120° | 9km/h | 20692m | 5.3m/s | 0°C | 0% | 0hPa | 0V | 00:00:00 | 00:00:00 | 00:00:00 | |
| PETON7-10 | 2026-09-04 00:20:20 | 50.54152 | 17.75833 | 158° | 11km/h | 20679m | 5.3m/s | 0°C | 0% | 0hPa | 0V | 00:00:00 | 00:00:00 | 00:00:00 | |
| OE5DRO-10 | 2026-09-04 00:20:19 | 50.54160 | 17.75821 | 143° | 13km/h | 20660m | 5.0m/s | 0°C | 0% | 0hPa | 0V | 00:00:00 | 00:00:00 | 00:00:00 | |
| POL1PZ | 2026-09-04 00:20:10 | 50.54176 | 17.75817 | 138° | 7km/h | 20630m | 5.7m/s | 0°C | 0% | 0hPa | 0V | 00:00:00 | 00:00:00 | 00:00:00 | |
| PETON7-10 | 2026-09-04 00:20:05 | 50.54182 | 17.75797 | 138° | 16km/h | 20607m | 4.6m/s | 0°C | 0% | 0hPa | 0V | 00:00:00 | 00:00:00 | 00:00:00 | |
| SQ6EMJ | 2026-09-04 00:20:04 | 50.54185 | 17.75794 | 159° | 20km/h | 20604m | 6.1m/s | 0°C | 0% | 0hPa | 0V | 00:00:00 | 00:00:00 | 00:00:00 | |
| OE5DRO-10 | 2026-09-04 00:20:01 | 50.54199 | 17.75782 | 80° | 18km/h | 20580m | 6.4m/s | 0°C | 0% | 0hPa | 0V | 00:00:00 | 00:00:00 | 00:00:00 | |
| SQ6EMJ | 2026-09-04 00:19:58 | 50.54201 | 17.75775 | 119° | 7km/h | 20569m | 5.4m/s | 0°C | 0% | 0hPa | 0V | 00:00:00 | 00:00:00 | 00:00:00 | |
| PG1ADW-2 | 2026-09-04 00:19:57 | 50.54202 | 17.75771 | 133° | 16km/h | 20564m | 6.5m/s | 0°C | 0% | 0hPa | 0V | 00:00:00 | 00:00:00 | 00:00:00 | |
| PETON7-10 | 2026-09-04 00:19:49 | 50.54232 | 17.75742 | 106° | 15km/h | 20523m | 4.3m/s | 0°C | 0% | 0hPa | 0V | 00:00:00 | 00:00:00 | 00:00:00 | |
| SP3BTT-10 | 2026-09-04 00:19:43 | 50.54244 | 17.75720 | 170° | 27km/h | 20498m | 6.2m/s | 0°C | 0% | 0hPa | 0V | 00:00:00 | 00:00:00 | 00:00:00 | |
| OE5DRO-10 | 2026-09-04 00:19:41 | 50.54261 | 17.75719 | 181° | 15km/h | 20483m | 4.9m/s | 0°C | 0% | 0hPa | 0V | 00:00:00 | 00:00:00 | 00:00:00 | |
| PETON7-10 | 2026-09-04 00:19:34 | 50.54265 | 17.75707 | 121° | 15km/h | 20454m | 6.2m/s | 0°C | 0% | 0hPa | 0V | 00:00:00 | 00:00:00 | 00:00:00 | |
| POL1PZ | 2026-09-04 00:19:28 | 50.54296 | 17.75698 | 208° | 13km/h | 20423m | 5.5m/s | 0°C | 0% | 0hPa | 0V | 00:00:00 | 00:00:00 | 00:00:00 | |
| SQ6EMJ | 2026-09-04 00:19:27 | 50.54298 | 17.75697 | 155° | 7km/h | 20417m | 5.5m/s | 0°C | 0% | 0hPa | 0V | 00:00:00 | 00:00:00 | 00:00:00 | |
| OE5DRO-10 | 2026-09-04 00:19:22 | 50.54310 | 17.75681 | 195° | 22km/h | 20390m | 4.0m/s | 0°C | 0% | 0hPa | 0V | 00:00:00 | 00:00:00 | 00:00:00 | |
| PETON7-10 | 2026-09-04 00:19:19 | 50.54327 | 17.75684 | 187° | 24km/h | 20373m | 4.4m/s | 0°C | 0% | 0hPa | 0V | 00:00:00 | 00:00:00 | 00:00:00 | |
| SQ6EMJ | 2026-09-04 00:19:18 | 50.54339 | 17.75687 | 193° | 20km/h | 20363m | 3.7m/s | 0°C | 0% | 0hPa | 0V | 00:00:00 | 00:00:00 | 00:00:00 | |
| POL1PZ | 2026-09-04 00:19:07 | 50.54396 | 17.75669 | 186° | 27km/h | 20312m | 6.1m/s | 0°C | 0% | 0hPa | 0V | 00:00:00 | 00:00:00 | 00:00:00 | |
| PETON7-10 | 2026-09-04 00:19:04 | 50.54410 | 17.75668 | 145° | 24km/h | 20300m | 4.7m/s | 0°C | 0% | 0hPa | 0V | 00:00:00 | 00:00:00 | 00:00:00 | |
| OE5DRO-10 | 2026-09-04 00:19:02 | 50.54415 | 17.75654 | 125° | 26km/h | 20292m | 3.2m/s | 0°C | 0% | 0hPa | 0V | 00:00:00 | 00:00:00 | 00:00:00 | |
| SQ6EMJ | 2026-09-04 00:19:00 | 50.54425 | 17.75641 | 154° | 24km/h | 20281m | 5.0m/s | 0°C | 0% | 0hPa | 0V | 00:00:00 | 00:00:00 | 00:00:00 | |
| S52SK | 2026-09-04 00:18:53 | 50.54464 | 17.75613 | 158° | 22km/h | 20245m | 5.1m/s | 0°C | 0% | 0hPa | 0V | 00:00:00 | 00:00:00 | 00:00:00 | |
| SQ6EMJ | 2026-09-04 00:18:51 | 50.54472 | 17.75604 | 141° | 27km/h | 20235m | 5.8m/s | 0°C | 0% | 0hPa | 0V | 00:00:00 | 00:00:00 | 00:00:00 | |
| PG1ADW-2 | 2026-09-04 00:18:50 | 50.54477 | 17.75597 | 131° | 27km/h | 20229m | 4.4m/s | 0°C | 0% | 0hPa | 0V | 00:00:00 | 00:00:00 | 00:00:00 | |
| PETON7-10 | 2026-09-04 00:18:46 | 50.54497 | 17.75573 | 150° | 29km/h | 20209m | 5.8m/s | 0°C | 0% | 0hPa | 0V | 00:00:00 | 00:00:00 | 00:00:00 | |
| SQ6EMJ | 2026-09-04 00:18:44 | 50.54506 | 17.75560 | 136° | 27km/h | 20198m | 4.5m/s | 0°C | 0% | 0hPa | 0V | 00:00:00 | 00:00:00 | 00:00:00 | |
| OE5DRO-10 | 2026-09-04 00:18:43 | 50.54514 | 17.75547 | 139° | 27km/h | 20189m | 4.3m/s | 0°C | 0% | 0hPa | 0V | 00:00:00 | 00:00:00 | 00:00:00 | |
| S52SK | 2026-09-04 00:18:42 | 50.54514 | 17.75547 | 140° | 22km/h | 20189m | 4.3m/s | 0°C | 0% | 0hPa | 0V | 00:00:00 | 00:00:00 | 00:00:00 | |
| SQ6EMJ | 2026-09-04 00:18:38 | 50.54527 | 17.75516 | 119° | 33km/h | 20169m | 4.5m/s | 0°C | 0% | 0hPa | 0V | 00:00:00 | 00:00:00 | 00:00:00 | |
| SQ6EMJ | 2026-09-04 00:18:33 | 50.54553 | 17.75462 | 126° | 31km/h | 20140m | 2.1m/s | 0°C | 0% | 0hPa | 0V | 00:00:00 | 00:00:00 | 00:00:00 | |
| PETON7-10 | 2026-09-04 00:18:31 | 50.54561 | 17.75445 | 139° | 24km/h | 20133m | 5.2m/s | 0°C | 0% | 0hPa | 0V | 00:00:00 | 00:00:00 | 00:00:00 | |
| SP3BTT-10 | 2026-09-04 00:18:28 | 50.54569 | 17.75428 | 110° | 24km/h | 20118m | 5.4m/s | 0°C | 0% | 0hPa | 0V | 00:00:00 | 00:00:00 | 00:00:00 | |
| POL1PZ | 2026-09-04 00:18:26 | 50.54575 | 17.75406 | 116° | 27km/h | 20109m | 5.3m/s | 0°C | 0% | 0hPa | 0V | 00:00:00 | 00:00:00 | 00:00:00 | |
| OE5DRO-10 | 2026-09-04 00:18:25 | 50.54586 | 17.75376 | 118° | 22km/h | 20093m | 5.5m/s | 0°C | 0% | 0hPa | 0V | 00:00:00 | 00:00:00 | 00:00:00 | |
| SQ6EMJ | 2026-09-04 00:18:20 | 50.54593 | 17.75349 | 116° | 15km/h | 20080m | 5.2m/s | 0°C | 0% | 0hPa | 0V | 00:00:00 | 00:00:00 | 00:00:00 | |
| PETON7-10 | 2026-09-04 00:18:16 | 50.54603 | 17.75317 | 110° | 24km/h | 20059m | 4.8m/s | 0°C | 0% | 0hPa | 0V | 00:00:00 | 00:00:00 | 00:00:00 | |
| SQ6EMJ | 2026-09-04 00:18:12 | 50.54610 | 17.75283 | 102° | 18km/h | 20036m | 6.5m/s | 0°C | 0% | 0hPa | 0V | 00:00:00 | 00:00:00 | 00:00:00 | |
| SQ6EMJ | 2026-09-04 00:18:06 | 50.54622 | 17.75240 | 116° | 24km/h | 20008m | 4.6m/s | 0°C | 0% | 0hPa | 0V | 00:00:00 | 00:00:00 | 00:00:00 | |
| PETON7-10 | 2026-09-04 00:18:01 | 50.54630 | 17.75195 | 111° | 22km/h | 19984m | 6.9m/s | 0°C | 0% | 0hPa | 0V | 00:00:00 | 00:00:00 | 00:00:00 | |
| SQ6EMJ | 2026-09-04 00:17:59 | 50.54634 | 17.75177 | 111° | 18km/h | 19971m | 5.6m/s | 0°C | 0% | 0hPa | 0V | 00:00:00 | 00:00:00 | 00:00:00 | |
| SQ6EMJ | 2026-09-04 00:17:53 | 50.54650 | 17.75134 | 129° | 26km/h | 19939m | 6.4m/s | 0°C | 0% | 0hPa | 0V | 00:00:00 | 00:00:00 | 00:00:00 | |
| PETON7-10 | 2026-09-04 00:17:46 | 50.54661 | 17.75081 | 127° | 22km/h | 19906m | 5.6m/s | 0°C | 0% | 0hPa | 0V | 00:00:00 | 00:00:00 | 00:00:00 | |
| SP3BTT-10 | 2026-09-04 00:17:43 | 50.54671 | 17.75060 | 132° | 35km/h | 19889m | 4.8m/s | 0°C | 0% | 0hPa | 0V | 00:00:00 | 00:00:00 | 00:00:00 | |
| POL1PZ | 2026-09-04 00:17:42 | 50.54676 | 17.75051 | 134° | 29km/h | 19884m | 5.6m/s | 0°C | 0% | 0hPa | 0V | 00:00:00 | 00:00:00 | 00:00:00 | |
| SQ6EMJ | 2026-09-04 00:17:33 | 50.54701 | 17.74993 | 164° | 22km/h | 19837m | 4.5m/s | 0°C | 0% | 0hPa | 0V | 00:00:00 | 00:00:00 | 00:00:00 | |
| PETON7-10 | 2026-09-04 00:17:31 | 50.54710 | 17.74983 | 125° | 26km/h | 19827m | 4.5m/s | 0°C | 0% | 0hPa | 0V | 00:00:00 | 00:00:00 | 00:00:00 | |
| SQ6EMJ | 2026-09-04 00:17:26 | 50.54729 | 17.74941 | 125° | 26km/h | 19800m | 5.5m/s | 0°C | 0% | 0hPa | 0V | 00:00:00 | 00:00:00 | 00:00:00 | |
| POL1PZ | 2026-09-04 00:17:22 | 50.54748 | 17.74914 | 156° | 26km/h | 19782m | 4.3m/s | 0°C | 0% | 0hPa | 0V | 00:00:00 | 00:00:00 | 00:00:00 | |
| OE5DRO-10 | 2026-09-04 00:17:21 | 50.54754 | 17.74909 | 149° | 24km/h | 19778m | 4.0m/s | 0°C | 0% | 0hPa | 0V | 00:00:00 | 00:00:00 | 00:00:00 | |
| PETON7-10 | 2026-09-04 00:17:17 | 50.54765 | 17.74868 | 121° | 24km/h | 19751m | 5.1m/s | 0°C | 0% | 0hPa | 0V | 00:00:00 | 00:00:00 | 00:00:00 | |
| SQ6EMJ | 2026-09-04 00:17:15 | 50.54771 | 17.74852 | 123° | 20km/h | 19740m | 5.2m/s | 0°C | 0% | 0hPa | 0V | 00:00:00 | 00:00:00 | 00:00:00 | |
| SQ6EMJ | 2026-09-04 00:17:07 | 50.54794 | 17.74809 | 118° | 33km/h | 19708m | 4.9m/s | 0°C | 0% | 0hPa | 0V | 00:00:00 | 00:00:00 | 00:00:00 | |
| SQ6EMJ | 2026-09-04 00:17:02 | 50.54814 | 17.74760 | 138° | 18km/h | 19685m | 4.6m/s | 0°C | 0% | 0hPa | 0V | 00:00:00 | 00:00:00 | 00:00:00 | |
| POL1PZ | 2026-09-04 00:17:01 | 50.54818 | 17.74757 | 159° | 22km/h | 19680m | 4.7m/s | 0°C | 0% | 0hPa | 0V | 00:00:00 | 00:00:00 | 00:00:00 | |
| PETON7-10 | 2026-09-04 00:17:00 | 50.54824 | 17.74754 | 167° | 37km/h | 19674m | 7.0m/s | 0°C | 0% | 0hPa | 0V | 00:00:00 | 00:00:00 | 00:00:00 | |
| SQ6EMJ | 2026-09-04 00:16:53 | 50.54870 | 17.74680 | 129° | 42km/h | 19636m | 4.6m/s | 0°C | 0% | 0hPa | 0V | 00:00:00 | 00:00:00 | 00:00:00 | |
| SQ6EMJ | 2026-09-04 00:16:47 | 50.54912 | 17.74626 | 146° | 37km/h | 19607m | 4.5m/s | 0°C | 0% | 0hPa | 0V | 00:00:00 | 00:00:00 | 00:00:00 | |
| PETON7-10 | 2026-09-04 00:16:45 | 50.54923 | 17.74602 | 108° | 35km/h | 19596m | 5.8m/s | 0°C | 0% | 0hPa | 0V | 00:00:00 | 00:00:00 | 00:00:00 | |
| SP3BTT-10 | 2026-09-04 00:16:44 | 50.54928 | 17.74570 | 108° | 38km/h | 19587m | 4.9m/s | 0°C | 0% | 0hPa | 0V | 00:00:00 | 00:00:00 | 00:00:00 | |
| POL1PZ | 2026-09-04 00:16:41 | 50.54940 | 17.74542 | 139° | 40km/h | 19575m | 4.0m/s | 0°C | 0% | 0hPa | 0V | 00:00:00 | 00:00:00 | 00:00:00 | |
| SQ6EMJ | 2026-09-04 00:16:39 | 50.54954 | 17.74525 | 148° | 29km/h | 19566m | 5.1m/s | 0°C | 0% | 0hPa | 0V | 00:00:00 | 00:00:00 | 00:00:00 | |
| SQ6EMJ | 2026-09-04 00:16:31 | 50.54990 | 17.74445 | 118° | 27km/h | 19526m | 6.7m/s | 0°C | 0% | 0hPa | 0V | 00:00:00 | 00:00:00 | 00:00:00 | |
| PETON7-10 | 2026-09-04 00:16:29 | 50.54999 | 17.74428 | 140° | 26km/h | 19513m | 4.1m/s | 0°C | 0% | 0hPa | 0V | 00:00:00 | 00:00:00 | 00:00:00 | |
| SQ6EMJ | 2026-09-04 00:16:25 | 50.55016 | 17.74399 | 124° | 33km/h | 19494m | 5.4m/s | 0°C | 0% | 0hPa | 0V | 00:00:00 | 00:00:00 | 00:00:00 | |
| OE5DRO-10 | 2026-09-04 00:16:20 | 50.55034 | 17.74341 | 116° | 27km/h | 19470m | 6.5m/s | 0°C | 0% | 0hPa | 0V | 00:00:00 | 00:00:00 | 00:00:00 | |
| POL1PZ | 2026-09-04 00:16:19 | 50.55038 | 17.74332 | 134° | 26km/h | 19463m | 6.3m/s | 0°C | 0% | 0hPa | 0V | 00:00:00 | 00:00:00 | 00:00:00 | |
| PETON7-10 | 2026-09-04 00:16:14 | 50.55055 | 17.74305 | 129° | 29km/h | 19434m | 7.0m/s | 0°C | 0% | 0hPa | 0V | 00:00:00 | 00:00:00 | 00:00:00 | |
| SQ6EMJ | 2026-09-04 00:16:09 | 50.55076 | 17.74255 | 132° | 24km/h | 19408m | 4.3m/s | 0°C | 0% | 0hPa | 0V | 00:00:00 | 00:00:00 | 00:00:00 | |
| SQ6EMJ | 2026-09-04 00:16:02 | 50.55111 | 17.74207 | 112° | 38km/h | 19376m | 7.0m/s | 0°C | 0% | 0hPa | 0V | 00:00:00 | 00:00:00 | 00:00:00 | |
| OE5DRO-10 | 2026-09-04 00:16:00 | 50.55118 | 17.74178 | 112° | 37km/h | 19365m | 5.7m/s | 0°C | 0% | 0hPa | 0V | 00:00:00 | 00:00:00 | 00:00:00 | |
| PETON7-10 | 2026-09-04 00:15:59 | 50.55121 | 17.74167 | 116° | 35km/h | 19361m | 4.9m/s | 0°C | 0% | 0hPa | 0V | 00:00:00 | 00:00:00 | 00:00:00 | |
| SQ6EMJ | 2026-09-04 00:15:55 | 50.55143 | 17.74129 | 111° | 27km/h | 19333m | 5.9m/s | 0°C | 0% | 0hPa | 0V | 00:00:00 | 00:00:00 | 00:00:00 | |
| SQ6EMJ | 2026-09-04 00:15:47 | 50.55166 | 17.74030 | 118° | 35km/h | 19298m | 5.2m/s | 0°C | 0% | 0hPa | 0V | 00:00:00 | 00:00:00 | 00:00:00 | |
| PETON7-10 | 2026-09-04 00:15:44 | 50.55178 | 17.73991 | 107° | 33km/h | 19280m | 6.0m/s | 0°C | 0% | 0hPa | 0V | 00:00:00 | 00:00:00 | 00:00:00 | |
| SP3BTT-10 | 2026-09-04 00:15:42 | 50.55181 | 17.73960 | 100° | 31km/h | 19270m | 4.3m/s | 0°C | 0% | 0hPa | 0V | 00:00:00 | 00:00:00 | 00:00:00 | |
| OE5DRO-10 | 2026-09-04 00:15:41 | 50.55187 | 17.73929 | 114° | 29km/h | 19259m | 3.4m/s | 0°C | 0% | 0hPa | 0V | 00:00:00 | 00:00:00 | 00:00:00 | |
| SQ6EMJ | 2026-09-04 00:15:35 | 50.55203 | 17.73874 | 115° | 33km/h | 19234m | 5.0m/s | 0°C | 0% | 0hPa | 0V | 00:00:00 | 00:00:00 | 00:00:00 | |
| SQ6EMJ | 2026-09-04 00:15:29 | 50.55216 | 17.73806 | 134° | 35km/h | 19205m | 5.0m/s | 0°C | 0% | 0hPa | 0V | 00:00:00 | 00:00:00 | 00:00:00 | |
| PETON7-10 | 2026-09-04 00:15:27 | 50.55228 | 17.73789 | 145° | 24km/h | 19197m | 5.4m/s | 0°C | 0% | 0hPa | 0V | 00:00:00 | 00:00:00 | 00:00:00 | |
| PG1ADW-2 | 2026-09-04 00:15:26 | 50.55236 | 17.73777 | 118° | 31km/h | 19186m | 4.2m/s | 0°C | 0% | 0hPa | 0V | 00:00:00 | 00:00:00 | 00:00:00 | |
| OE5DRO-10 | 2026-09-04 00:15:22 | 50.55244 | 17.73734 | 104° | 37km/h | 19167m | 4.7m/s | 0°C | 0% | 0hPa | 0V | 00:00:00 | 00:00:00 | 00:00:00 | |
| POL1PZ | 2026-09-04 00:15:18 | 50.55249 | 17.73706 | 126° | 22km/h | 19152m | 5.7m/s | 0°C | 0% | 0hPa | 0V | 00:00:00 | 00:00:00 | 00:00:00 | |
| SQ6EMJ | 2026-09-04 00:15:17 | 50.55253 | 17.73699 | 136° | 27km/h | 19147m | 5.2m/s | 0°C | 0% | 0hPa | 0V | 00:00:00 | 00:00:00 | 00:00:00 | |
| PETON7-10 | 2026-09-04 00:15:12 | 50.55267 | 17.73672 | 100° | 26km/h | 19124m | 5.0m/s | 0°C | 0% | 0hPa | 0V | 00:00:00 | 00:00:00 | 00:00:00 | |
| SQ6EMJ | 2026-09-04 00:15:11 | 50.55271 | 17.73653 | 113° | 29km/h | 19114m | 4.4m/s | 0°C | 0% | 0hPa | 0V | 00:00:00 | 00:00:00 | 00:00:00 | |
| SQ6EMJ | 2026-09-04 00:15:03 | 50.55293 | 17.73603 | 132° | 22km/h | 19080m | 3.9m/s | 0°C | 0% | 0hPa | 0V | 00:00:00 | 00:00:00 | 00:00:00 | |
| PETON7-10 | 2026-09-04 00:14:57 | 50.55323 | 17.73553 | 134° | 27km/h | 19051m | 5.3m/s | 0°C | 0% | 0hPa | 0V | 00:00:00 | 00:00:00 | 00:00:00 | |
| SQ6EMJ | 2026-09-04 00:14:55 | 50.55337 | 17.73527 | 127° | 29km/h | 19037m | 6.2m/s | 0°C | 0% | 0hPa | 0V | 00:00:00 | 00:00:00 | 00:00:00 | |
| SQ6EMJ | 2026-09-04 00:14:46 | 50.55376 | 17.73468 | 143° | 24km/h | 18994m | 6.6m/s | 0°C | 0% | 0hPa | 0V | 00:00:00 | 00:00:00 | 00:00:00 | |
| PETON7-10 | 2026-09-04 00:14:42 | 50.55399 | 17.73443 | 141° | 33km/h | 18974m | 3.4m/s | 0°C | 0% | 0hPa | 0V | 00:00:00 | 00:00:00 | 00:00:00 | |
| SP3BTT-10 | 2026-09-04 00:14:41 | 50.55405 | 17.73436 | 142° | 35km/h | 18971m | 5.5m/s | 0°C | 0% | 0hPa | 0V | 00:00:00 | 00:00:00 | 00:00:00 | |
| POL1PZ | 2026-09-04 00:14:36 | 50.55443 | 17.73401 | 152° | 35km/h | 18948m | 4.6m/s | 0°C | 0% | 0hPa | 0V | 00:00:00 | 00:00:00 | 00:00:00 | |
| SQ6EMJ | 2026-09-04 00:14:31 | 50.55470 | 17.73359 | 135° | 29km/h | 18926m | 5.4m/s | 0°C | 0% | 0hPa | 0V | 00:00:00 | 00:00:00 | 00:00:00 | |
| PETON7-10 | 2026-09-04 00:14:27 | 50.55496 | 17.73331 | 151° | 33km/h | 18905m | 3.8m/s | 0°C | 0% | 0hPa | 0V | 00:00:00 | 00:00:00 | 00:00:00 | |
| SQ6EMJ | 2026-09-04 00:14:23 | 50.55524 | 17.73298 | 127° | 31km/h | 18886m | 5.3m/s | 0°C | 0% | 0hPa | 0V | 00:00:00 | 00:00:00 | 00:00:00 | |
| S52SK | 2026-09-04 00:14:18 | 50.55548 | 17.73252 | 144° | 27km/h | 18863m | 4.5m/s | 0°C | 0% | 0hPa | 0V | 00:00:00 | 00:00:00 | 00:00:00 | |
| SQ6EMJ | 2026-09-04 00:14:17 | 50.55560 | 17.73235 | 133° | 35km/h | 18855m | 3.6m/s | 0°C | 0% | 0hPa | 0V | 00:00:00 | 00:00:00 | 00:00:00 | |
| PG1ADW-2 | 2026-09-04 00:14:16 | 50.55560 | 17.73235 | 133° | 35km/h | 18855m | 3.5m/s | 0°C | 0% | 0hPa | 0V | 00:00:00 | 00:00:00 | 00:00:00 | |
| POL1PZ | 2026-09-04 00:14:15 | 50.55565 | 17.73225 | 127° | 33km/h | 18851m | 5.4m/s | 0°C | 0% | 0hPa | 0V | 00:00:00 | 00:00:00 | 00:00:00 | |
| PETON7-10 | 2026-09-04 00:14:12 | 50.55577 | 17.73192 | 119° | 37km/h | 18837m | 5.3m/s | 0°C | 0% | 0hPa | 0V | 00:00:00 | 00:00:00 | 00:00:00 | |
| SQ6EMJ | 2026-09-04 00:14:11 | 50.55582 | 17.73179 | 126° | 38km/h | 18833m | 5.0m/s | 0°C | 0% | 0hPa | 0V | 00:00:00 | 00:00:00 | 00:00:00 | |
| SQ6EMJ | 2026-09-04 00:14:04 | 50.55624 | 17.73117 | 125° | 38km/h | 18798m | 5.9m/s | 0°C | 0% | 0hPa | 0V | 00:00:00 | 00:00:00 | 00:00:00 | |
| PETON7-10 | 2026-09-04 00:13:57 | 50.55666 | 17.73030 | 141° | 37km/h | 18768m | 4.8m/s | 0°C | 0% | 0hPa | 0V | 00:00:00 | 00:00:00 | 00:00:00 | |
| SQ6EMJ | 2026-09-04 00:13:56 | 50.55672 | 17.73021 | 135° | 37km/h | 18763m | 4.7m/s | 0°C | 0% | 0hPa | 0V | 00:00:00 | 00:00:00 | 00:00:00 | |
| POL1PZ | 2026-09-04 00:13:55 | 50.55679 | 17.73010 | 134° | 42km/h | 18758m | 5.7m/s | 0°C | 0% | 0hPa | 0V | 00:00:00 | 00:00:00 | 00:00:00 | |
| PG1ADW-2 | 2026-09-04 00:13:54 | 50.55686 | 17.72998 | 136° | 38km/h | 18754m | 4.5m/s | 0°C | 0% | 0hPa | 0V | 00:00:00 | 00:00:00 | 00:00:00 | |
| SQ6EMJ | 2026-09-04 00:13:48 | 50.55719 | 17.72934 | 134° | 35km/h | 18724m | 3.8m/s | 0°C | 0% | 0hPa | 0V | 00:00:00 | 00:00:00 | 00:00:00 | |
| SQ6EMJ | 2026-09-04 00:13:43 | 50.55746 | 17.72876 | 129° | 44km/h | 18702m | 5.4m/s | 0°C | 0% | 0hPa | 0V | 00:00:00 | 00:00:00 | 00:00:00 | |
| PETON7-10 | 2026-09-04 00:13:42 | 50.55753 | 17.72862 | 128° | 40km/h | 18698m | 4.2m/s | 0°C | 0% | 0hPa | 0V | 00:00:00 | 00:00:00 | 00:00:00 | |
| POL1PZ | 2026-09-04 00:13:36 | 50.55800 | 17.72784 | 145° | 37km/h | 18664m | 4.5m/s | 0°C | 0% | 0hPa | 0V | 00:00:00 | 00:00:00 | 00:00:00 | |
| PG1ADW-2 | 2026-09-04 00:13:33 | 50.55816 | 17.72765 | 138° | 40km/h | 18654m | 5.5m/s | 0°C | 0% | 0hPa | 0V | 00:00:00 | 00:00:00 | 00:00:00 | |
| SQ6EMJ | 2026-09-04 00:13:29 | 50.55841 | 17.72716 | 124° | 35km/h | 18636m | 4.9m/s | 0°C | 0% | 0hPa | 0V | 00:00:00 | 00:00:00 | 00:00:00 | |
| PETON7-10 | 2026-09-04 00:13:27 | 50.55852 | 17.72692 | 134° | 38km/h | 18626m | 3.9m/s | 0°C | 0% | 0hPa | 0V | 00:00:00 | 00:00:00 | 00:00:00 | |
| SQ6EMJ | 2026-09-04 00:13:24 | 50.55874 | 17.72666 | 153° | 37km/h | 18611m | 5.2m/s | 0°C | 0% | 0hPa | 0V | 00:00:00 | 00:00:00 | 00:00:00 | |
| SQ6EMJ | 2026-09-04 00:13:17 | 50.55930 | 17.72582 | 133° | 44km/h | 18575m | 3.8m/s | 0°C | 0% | 0hPa | 0V | 00:00:00 | 00:00:00 | 00:00:00 | |
| POL1PZ | 2026-09-04 00:13:14 | 50.55947 | 17.72558 | 144° | 44km/h | 18569m | 4.8m/s | 0°C | 0% | 0hPa | 0V | 00:00:00 | 00:00:00 | 00:00:00 | |
| PG1ADW-2 | 2026-09-04 00:13:13 | 50.55957 | 17.72548 | 149° | 46km/h | 18565m | 6.0m/s | 0°C | 0% | 0hPa | 0V | 00:00:00 | 00:00:00 | 00:00:00 | |
| PETON7-10 | 2026-09-04 00:13:10 | 50.55983 | 17.72525 | 146° | 46km/h | 18552m | 5.1m/s | 0°C | 0% | 0hPa | 0V | 00:00:00 | 00:00:00 | 00:00:00 | |
| SQ6EMJ | 2026-09-04 00:13:05 | 50.56040 | 17.72457 | 143° | 47km/h | 18522m | 4.4m/s | 0°C | 0% | 0hPa | 0V | 00:00:00 | 00:00:00 | 00:00:00 | |
| PETON7-10 | 2026-09-04 00:12:55 | 50.56125 | 17.72360 | 139° | 49km/h | 18479m | 5.5m/s | 0°C | 0% | 0hPa | 0V | 00:00:00 | 00:00:00 | 00:00:00 | |
| PG1ADW-2 | 2026-09-04 00:12:53 | 50.56143 | 17.72333 | 136° | 47km/h | 18471m | 4.6m/s | 0°C | 0% | 0hPa | 0V | 00:00:00 | 00:00:00 | 00:00:00 | |
| POL1PZ | 2026-09-04 00:12:52 | 50.56152 | 17.72321 | 146° | 46km/h | 18467m | 6.9m/s | 0°C | 0% | 0hPa | 0V | 00:00:00 | 00:00:00 | 00:00:00 | |
| SP3BTT-10 | 2026-09-04 00:12:41 | 50.56254 | 17.72175 | 143° | 47km/h | 18411m | 6.9m/s | 0°C | 0% | 0hPa | 0V | 00:00:00 | 00:00:00 | 00:00:00 | |
| PETON7-10 | 2026-09-04 00:12:38 | 50.56284 | 17.72133 | 137° | 47km/h | 18394m | 4.5m/s | 0°C | 0% | 0hPa | 0V | 00:00:00 | 00:00:00 | 00:00:00 | |
| SQ6EMJ | 2026-09-04 00:12:37 | 50.56293 | 17.72117 | 139° | 53km/h | 18389m | 4.0m/s | 0°C | 0% | 0hPa | 0V | 00:00:00 | 00:00:00 | 00:00:00 | |
| PG1ADW-2 | 2026-09-04 00:12:33 | 50.56328 | 17.72070 | 135° | 46km/h | 18370m | 6.0m/s | 0°C | 0% | 0hPa | 0V | 00:00:00 | 00:00:00 | 00:00:00 | |
| SQ6EMJ | 2026-09-04 00:12:32 | 50.56335 | 17.72056 | 131° | 46km/h | 18365m | 5.5m/s | 0°C | 0% | 0hPa | 0V | 00:00:00 | 00:00:00 | 00:00:00 | |
| POL1PZ | 2026-09-04 00:12:31 | 50.56342 | 17.72043 | 130° | 46km/h | 18360m | 4.4m/s | 0°C | 0% | 0hPa | 0V | 00:00:00 | 00:00:00 | 00:00:00 | |
| SQ6EMJ | 2026-09-04 00:12:26 | 50.56383 | 17.71981 | 138° | 49km/h | 18336m | 4.2m/s | 0°C | 0% | 0hPa | 0V | 00:00:00 | 00:00:00 | 00:00:00 | |
| OE5DRO-10 | 2026-09-04 00:12:25 | 50.56392 | 17.71968 | 140° | 49km/h | 18330m | 5.9m/s | 0°C | 0% | 0hPa | 0V | 00:00:00 | 00:00:00 | 00:00:00 | |
| PETON7-10 | 2026-09-04 00:12:23 | 50.56408 | 17.71945 | 135° | 46km/h | 18320m | 5.8m/s | 0°C | 0% | 0hPa | 0V | 00:00:00 | 00:00:00 | 00:00:00 | |
| SQ6EMJ | 2026-09-04 00:12:22 | 50.56422 | 17.71918 | 127° | 49km/h | 18310m | 3.7m/s | 0°C | 0% | 0hPa | 0V | 00:00:00 | 00:00:00 | 00:00:00 | |
| PG1ADW-2 | 2026-09-04 00:12:13 | 50.56490 | 17.71816 | 139° | 46km/h | 18272m | 4.3m/s | 0°C | 0% | 0hPa | 0V | 00:00:00 | 00:00:00 | 00:00:00 | |
| SQ6EMJ | 2026-09-04 00:12:11 | 50.56503 | 17.71790 | 122° | 44km/h | 18265m | 5.5m/s | 0°C | 0% | 0hPa | 0V | 00:00:00 | 00:00:00 | 00:00:00 | |
| POL1PZ | 2026-09-04 00:12:10 | 50.56508 | 17.71775 | 119° | 46km/h | 18261m | 4.1m/s | 0°C | 0% | 0hPa | 0V | 00:00:00 | 00:00:00 | 00:00:00 | |
| PETON7-10 | 2026-09-04 00:12:08 | 50.56518 | 17.71747 | 126° | 47km/h | 18252m | 4.2m/s | 0°C | 0% | 0hPa | 0V | 00:00:00 | 00:00:00 | 00:00:00 | |
| SQ6EMJ | 2026-09-04 00:12:05 | 50.56542 | 17.71703 | 132° | 53km/h | 18238m | 4.9m/s | 0°C | 0% | 0hPa | 0V | 00:00:00 | 00:00:00 | 00:00:00 | |
| SQ6EMJ | 2026-09-04 00:11:59 | 50.56577 | 17.71610 | 118° | 44km/h | 18210m | 6.2m/s | 0°C | 0% | 0hPa | 0V | 00:00:00 | 00:00:00 | 00:00:00 | |
| SQ6EMJ | 2026-09-04 00:11:54 | 50.56607 | 17.71532 | 124° | 51km/h | 18184m | 5.5m/s | 0°C | 0% | 0hPa | 0V | 00:00:00 | 00:00:00 | 00:00:00 | |
| PETON7-10 | 2026-09-04 00:11:52 | 50.56620 | 17.71501 | 116° | 42km/h | 18175m | 5.4m/s | 0°C | 0% | 0hPa | 0V | 00:00:00 | 00:00:00 | 00:00:00 | |
| POL1PZ | 2026-09-04 00:11:49 | 50.56632 | 17.71449 | 109° | 46km/h | 18162m | 4.6m/s | 0°C | 0% | 0hPa | 0V | 00:00:00 | 00:00:00 | 00:00:00 | |
| SQ6EMJ | 2026-09-04 00:11:48 | 50.56636 | 17.71434 | 108° | 40km/h | 18157m | 6.7m/s | 0°C | 0% | 0hPa | 0V | 00:00:00 | 00:00:00 | 00:00:00 | |
| SP3BTT-10 | 2026-09-04 00:11:42 | 50.56662 | 17.71346 | 131° | 37km/h | 18126m | 4.6m/s | 0°C | 0% | 0hPa | 0V | 00:00:00 | 00:00:00 | 00:00:00 | |
| SQ6EMJ | 2026-09-04 00:11:40 | 50.56674 | 17.71321 | 118° | 42km/h | 18117m | 5.4m/s | 0°C | 0% | 0hPa | 0V | 00:00:00 | 00:00:00 | 00:00:00 | |
| PETON7-10 | 2026-09-04 00:11:37 | 50.56684 | 17.71280 | 114° | 33km/h | 18102m | 6.7m/s | 0°C | 0% | 0hPa | 0V | 00:00:00 | 00:00:00 | 00:00:00 | |
| SQ6EMJ | 2026-09-04 00:11:35 | 50.56692 | 17.71257 | 114° | 29km/h | 18095m | 4.9m/s | 0°C | 0% | 0hPa | 0V | 00:00:00 | 00:00:00 | 00:00:00 | |
| PG1ADW-2 | 2026-09-04 00:11:32 | 50.56703 | 17.71218 | 123° | 29km/h | 18081m | 3.7m/s | 0°C | 0% | 0hPa | 0V | 00:00:00 | 00:00:00 | 00:00:00 | |
| SQ6EMJ | 2026-09-04 00:11:29 | 50.56722 | 17.71185 | 133° | 33km/h | 18067m | 4.6m/s | 0°C | 0% | 0hPa | 0V | 00:00:00 | 00:00:00 | 00:00:00 | |
| POL1PZ | 2026-09-04 00:11:28 | 50.56727 | 17.71175 | 125° | 35km/h | 18062m | 5.2m/s | 0°C | 0% | 0hPa | 0V | 00:00:00 | 00:00:00 | 00:00:00 | |
| SQ6EMJ | 2026-09-04 00:11:24 | 50.56743 | 17.71130 | 115° | 24km/h | 18042m | 5.9m/s | 0°C | 0% | 0hPa | 0V | 00:00:00 | 00:00:00 | 00:00:00 | |
| PETON7-10 | 2026-09-04 00:11:22 | 50.56750 | 17.71108 | 121° | 26km/h | 18031m | 4.4m/s | 0°C | 0% | 0hPa | 0V | 00:00:00 | 00:00:00 | 00:00:00 | |
| SQ6EMJ | 2026-09-04 00:11:19 | 50.56764 | 17.71084 | 134° | 26km/h | 18016m | 5.0m/s | 0°C | 0% | 0hPa | 0V | 00:00:00 | 00:00:00 | 00:00:00 | |
| SQ6EMJ | 2026-09-04 00:11:13 | 50.56782 | 17.71023 | 123° | 31km/h | 17988m | 5.6m/s | 0°C | 0% | 0hPa | 0V | 00:00:00 | 00:00:00 | 00:00:00 | |
| PG1ADW-2 | 2026-09-04 00:11:11 | 50.56790 | 17.71004 | 127° | 24km/h | 17978m | 5.7m/s | 0°C | 0% | 0hPa | 0V | 00:00:00 | 00:00:00 | 00:00:00 | |
| PETON7-10 | 2026-09-04 00:11:07 | 50.56801 | 17.70975 | 100° | 26km/h | 17960m | 3.7m/s | 0°C | 0% | 0hPa | 0V | 00:00:00 | 00:00:00 | 00:00:00 | |
| SQ6EMJ | 2026-09-04 00:11:02 | 50.56821 | 17.70921 | 114° | 26km/h | 17934m | 3.3m/s | 0°C | 0% | 0hPa | 0V | 00:00:00 | 00:00:00 | 00:00:00 | |
| SQ6EMJ | 2026-09-04 00:10:56 | 50.56839 | 17.70879 | 107° | 26km/h | 17910m | 6.0m/s | 0°C | 0% | 0hPa | 0V | 00:00:00 | 00:00:00 | 00:00:00 | |
| PETON7-10 | 2026-09-04 00:10:51 | 50.56854 | 17.70830 | 122° | 26km/h | 17886m | 4.4m/s | 0°C | 0% | 0hPa | 0V | 00:00:00 | 00:00:00 | 00:00:00 | |
| SP3BTT-10 | 2026-09-04 00:10:49 | 50.56863 | 17.70815 | 138° | 37km/h | 17877m | 6.4m/s | 0°C | 0% | 0hPa | 0V | 00:00:00 | 00:00:00 | 00:00:00 | |
| POL1PZ | 2026-09-04 00:10:46 | 50.56875 | 17.70797 | 113° | 18km/h | 17864m | 5.8m/s | 0°C | 0% | 0hPa | 0V | 00:00:00 | 00:00:00 | 00:00:00 | |
| SQ6EMJ | 2026-09-04 00:10:45 | 50.56877 | 17.70788 | 105° | 22km/h | 17859m | 3.6m/s | 0°C | 0% | 0hPa | 0V | 00:00:00 | 00:00:00 | 00:00:00 | |
| SQ6EMJ | 2026-09-04 00:10:39 | 50.56902 | 17.70740 | 130° | 26km/h | 17832m | 6.3m/s | 0°C | 0% | 0hPa | 0V | 00:00:00 | 00:00:00 | 00:00:00 | |
| PETON7-10 | 2026-09-04 00:10:36 | 50.56914 | 17.70717 | 137° | 31km/h | 17816m | 5.6m/s | 0°C | 0% | 0hPa | 0V | 00:00:00 | 00:00:00 | 00:00:00 | |
| SQ6EMJ | 2026-09-04 00:10:33 | 50.56931 | 17.70695 | 136° | 29km/h | 17802m | 3.2m/s | 0°C | 0% | 0hPa | 0V | 00:00:00 | 00:00:00 | 00:00:00 | |
| PG1ADW-2 | 2026-09-04 00:10:31 | 50.56943 | 17.70677 | 139° | 35km/h | 17793m | 4.6m/s | 0°C | 0% | 0hPa | 0V | 00:00:00 | 00:00:00 | 00:00:00 | |
| SQ6EMJ | 2026-09-04 00:10:28 | 50.56965 | 17.70647 | 143° | 26km/h | 17774m | 5.4m/s | 0°C | 0% | 0hPa | 0V | 00:00:00 | 00:00:00 | 00:00:00 | |
| POL1PZ | 2026-09-04 00:10:26 | 50.56971 | 17.70640 | 149° | 31km/h | 17768m | 5.4m/s | 0°C | 0% | 0hPa | 0V | 00:00:00 | 00:00:00 | 00:00:00 | |
| SQ6EMJ | 2026-09-04 00:10:21 | 50.57000 | 17.70594 | 134° | 37km/h | 17748m | 6.3m/s | 0°C | 0% | 0hPa | 0V | 00:00:00 | 00:00:00 | 00:00:00 | |
| PETON7-10 | 2026-09-04 00:10:18 | 50.57018 | 17.70563 | 127° | 37km/h | 17732m | 4.5m/s | 0°C | 0% | 0hPa | 0V | 00:00:00 | 00:00:00 | 00:00:00 | |
| SQ6EMJ | 2026-09-04 00:10:16 | 50.57034 | 17.70534 | 139° | 35km/h | 17717m | 5.5m/s | 0°C | 0% | 0hPa | 0V | 00:00:00 | 00:00:00 | 00:00:00 | |
| SQ6EMJ | 2026-09-04 00:10:09 | 50.57073 | 17.70453 | 122° | 35km/h | 17685m | 5.5m/s | 0°C | 0% | 0hPa | 0V | 00:00:00 | 00:00:00 | 00:00:00 | |
| POL1PZ | 2026-09-04 00:10:05 | 50.57090 | 17.70412 | 128° | 46km/h | 17674m | 4.0m/s | 0°C | 0% | 0hPa | 0V | 00:00:00 | 00:00:00 | 00:00:00 | |
| PETON7-10 | 2026-09-04 00:10:02 | 50.57107 | 17.70363 | 117° | 46km/h | 17663m | 3.4m/s | 0°C | 0% | 0hPa | 0V | 00:00:00 | 00:00:00 | 00:00:00 | |
| SQ6EMJ | 2026-09-04 00:09:56 | 50.57138 | 17.70275 | 112° | 53km/h | 17638m | 3.4m/s | 0°C | 0% | 0hPa | 0V | 00:00:00 | 00:00:00 | 00:00:00 | |
| SQ6EMJ | 2026-09-04 00:09:51 | 50.57169 | 17.70189 | 119° | 44km/h | 17617m | 4.3m/s | 0°C | 0% | 0hPa | 0V | 00:00:00 | 00:00:00 | 00:00:00 | |
| PETON7-10 | 2026-09-04 00:09:47 | 50.57193 | 17.70119 | 117° | 55km/h | 17598m | 3.6m/s | 0°C | 0% | 0hPa | 0V | 00:00:00 | 00:00:00 | 00:00:00 | |
| SQ6EMJ | 2026-09-04 00:09:46 | 50.57197 | 17.70102 | 108° | 44km/h | 17593m | 4.7m/s | 0°C | 0% | 0hPa | 0V | 00:00:00 | 00:00:00 | 00:00:00 | |
| SP3BTT-10 | 2026-09-04 00:09:45 | 50.57201 | 17.70084 | 104° | 46km/h | 17589m | 3.4m/s | 0°C | 0% | 0hPa | 0V | 00:00:00 | 00:00:00 | 00:00:00 | |
| POL1PZ | 2026-09-04 00:09:44 | 50.57204 | 17.70066 | 105° | 49km/h | 17586m | 4.4m/s | 0°C | 0% | 0hPa | 0V | 00:00:00 | 00:00:00 | 00:00:00 | |
| SQ6EMJ | 2026-09-04 00:09:40 | 50.57222 | 17.69986 | 109° | 58km/h | 17567m | 4.2m/s | 0°C | 0% | 0hPa | 0V | 00:00:00 | 00:00:00 | 00:00:00 | |
| SQ6EMJ | 2026-09-04 00:09:34 | 50.57250 | 17.69853 | 99° | 51km/h | 17542m | 3.6m/s | 0°C | 0% | 0hPa | 0V | 00:00:00 | 00:00:00 | 00:00:00 | |
| PETON7-10 | 2026-09-04 00:09:31 | 50.57261 | 17.69792 | 115° | 51km/h | 17528m | 4.3m/s | 0°C | 0% | 0hPa | 0V | 00:00:00 | 00:00:00 | 00:00:00 | |
| SQ6EMJ | 2026-09-04 00:09:28 | 50.57277 | 17.69730 | 108° | 49km/h | 17516m | 4.7m/s | 0°C | 0% | 0hPa | 0V | 00:00:00 | 00:00:00 | 00:00:00 | |
| POL1PZ | 2026-09-04 00:09:23 | 50.57296 | 17.69641 | 104° | 46km/h | 17494m | 5.8m/s | 0°C | 0% | 0hPa | 0V | 00:00:00 | 00:00:00 | 00:00:00 | |
| SQ6EMJ | 2026-09-04 00:09:22 | 50.57298 | 17.69623 | 104° | 44km/h | 17490m | 5.5m/s | 0°C | 0% | 0hPa | 0V | 00:00:00 | 00:00:00 | 00:00:00 | |
| PETON7-10 | 2026-09-04 00:09:16 | 50.57319 | 17.69514 | 109° | 42km/h | 17463m | 5.5m/s | 0°C | 0% | 0hPa | 0V | 00:00:00 | 00:00:00 | 00:00:00 | |
| SQ6EMJ | 2026-09-04 00:09:15 | 50.57323 | 17.69497 | 116° | 42km/h | 17458m | 6.3m/s | 0°C | 0% | 0hPa | 0V | 00:00:00 | 00:00:00 | 00:00:00 | |
| SQ6EMJ | 2026-09-04 00:09:05 | 50.57355 | 17.69335 | 115° | 42km/h | 17413m | 6.1m/s | 0°C | 0% | 0hPa | 0V | 00:00:00 | 00:00:00 | 00:00:00 | |
| POL1PZ | 2026-09-04 00:09:03 | 50.57364 | 17.69306 | 117° | 40km/h | 17403m | 5.8m/s | 0°C | 0% | 0hPa | 0V | 00:00:00 | 00:00:00 | 00:00:00 | |
| PETON7-10 | 2026-09-04 00:09:01 | 50.57371 | 17.69281 | 113° | 37km/h | 17394m | 4.0m/s | 0°C | 0% | 0hPa | 0V | 00:00:00 | 00:00:00 | 00:00:00 | |
| SQ6EMJ | 2026-09-04 00:08:48 | 50.57425 | 17.69111 | 123° | 38km/h | 17334m | 4.5m/s | 0°C | 0% | 0hPa | 0V | 00:00:00 | 00:00:00 | 00:00:00 | |
| PETON7-10 | 2026-09-04 00:08:46 | 50.57433 | 17.69086 | 114° | 40km/h | 17324m | 4.0m/s | 0°C | 0% | 0hPa | 0V | 00:00:00 | 00:00:00 | 00:00:00 | |
| POL1PZ | 2026-09-04 00:08:43 | 50.57446 | 17.69054 | 135° | 33km/h | 17310m | 5.0m/s | 0°C | 0% | 0hPa | 0V | 00:00:00 | 00:00:00 | 00:00:00 | |
| SQ6EMJ | 2026-09-04 00:08:31 | 50.57510 | 17.68925 | 135° | 38km/h | 17252m | 5.5m/s | 0°C | 0% | 0hPa | 0V | 00:00:00 | 00:00:00 | 00:00:00 | |
| POL1PZ | 2026-09-04 00:08:22 | 50.57572 | 17.68811 | 130° | 44km/h | 17211m | 4.7m/s | 0°C | 0% | 0hPa | 0V | 00:00:00 | 00:00:00 | 00:00:00 | |
| SQ6EMJ | 2026-09-04 00:08:18 | 50.57596 | 17.68756 | 134° | 44km/h | 17190m | 6.8m/s | 0°C | 0% | 0hPa | 0V | 00:00:00 | 00:00:00 | 00:00:00 | |
| SQ6EMJ | 2026-09-04 00:08:12 | 50.57635 | 17.68677 | 126° | 42km/h | 17161m | 4.7m/s | 0°C | 0% | 0hPa | 0V | 00:00:00 | 00:00:00 | 00:00:00 | |
| SQ6EMJ | 2026-09-04 00:08:06 | 50.57666 | 17.68602 | 135° | 38km/h | 17131m | 4.7m/s | 0°C | 0% | 0hPa | 0V | 00:00:00 | 00:00:00 | 00:00:00 | |
| POL1PZ | 2026-09-04 00:08:02 | 50.57685 | 17.68555 | 120° | 38km/h | 17112m | 6.0m/s | 0°C | 0% | 0hPa | 0V | 00:00:00 | 00:00:00 | 00:00:00 | |
| SQ6EMJ | 2026-09-04 00:08:01 | 50.57690 | 17.68541 | 116° | 42km/h | 17107m | 4.5m/s | 0°C | 0% | 0hPa | 0V | 00:00:00 | 00:00:00 | 00:00:00 | |
| SQ6EMJ | 2026-09-04 00:07:55 | 50.57710 | 17.68466 | 122° | 31km/h | 17081m | 5.6m/s | 0°C | 0% | 0hPa | 0V | 00:00:00 | 00:00:00 | 00:00:00 | |
| SQ6EMJ | 2026-09-04 00:07:48 | 50.57726 | 17.68377 | 97° | 31km/h | 17047m | 3.1m/s | 0°C | 0% | 0hPa | 0V | 00:00:00 | 00:00:00 | 00:00:00 | |
| POL1PZ | 2026-09-04 00:07:42 | 50.57742 | 17.68308 | 92° | 33km/h | 17019m | 5.0m/s | 0°C | 0% | 0hPa | 0V | 00:00:00 | 00:00:00 | 00:00:00 | |
| SQ6EMJ | 2026-09-04 00:07:32 | 50.57772 | 17.68195 | 106° | 29km/h | 16970m | 6.4m/s | 0°C | 0% | 0hPa | 0V | 00:00:00 | 00:00:00 | 00:00:00 | |
| SQ6EMJ | 2026-09-04 00:07:27 | 50.57785 | 17.68145 | 135° | 38km/h | 16946m | 3.7m/s | 0°C | 0% | 0hPa | 0V | 00:00:00 | 00:00:00 | 00:00:00 | |
| POL1PZ | 2026-09-04 00:07:21 | 50.57813 | 17.68079 | 127° | 26km/h | 16918m | 4.0m/s | 0°C | 0% | 0hPa | 0V | 00:00:00 | 00:00:00 | 00:00:00 | |
| SQ6EMJ | 2026-09-04 00:07:11 | 50.57869 | 17.67971 | 132° | 35km/h | 16867m | 4.7m/s | 0°C | 0% | 0hPa | 0V | 00:00:00 | 00:00:00 | 00:00:00 | |
| SQ6EMJ | 2026-09-04 00:07:05 | 50.57903 | 17.67909 | 138° | 38km/h | 16836m | 5.6m/s | 0°C | 0% | 0hPa | 0V | 00:00:00 | 00:00:00 | 00:00:00 | |
| POL1PZ | 2026-09-04 00:07:01 | 50.57935 | 17.67862 | 132° | 42km/h | 16816m | 4.5m/s | 0°C | 0% | 0hPa | 0V | 00:00:00 | 00:00:00 | 00:00:00 | |
| SQ6EMJ | 2026-09-04 00:06:57 | 50.57961 | 17.67817 | 133° | 33km/h | 16798m | 5.6m/s | 0°C | 0% | 0hPa | 0V | 00:00:00 | 00:00:00 | 00:00:00 | |
| SQ6EMJ | 2026-09-04 00:06:50 | 50.58025 | 17.67732 | 135° | 42km/h | 16756m | 6.3m/s | 0°C | 0% | 0hPa | 0V | 00:00:00 | 00:00:00 | 00:00:00 | |
| SQ6EMJ | 2026-09-04 00:06:43 | 50.58074 | 17.67658 | 146° | 46km/h | 16724m | 4.9m/s | 0°C | 0% | 0hPa | 0V | 00:00:00 | 00:00:00 | 00:00:00 | |
| POL1PZ | 2026-09-04 00:06:40 | 50.58106 | 17.67625 | 144° | 49km/h | 16710m | 4.9m/s | 0°C | 0% | 0hPa | 0V | 00:00:00 | 00:00:00 | 00:00:00 | |
| SQ6EMJ | 2026-09-04 00:06:38 | 50.58123 | 17.67599 | 130° | 53km/h | 16700m | 7.1m/s | 0°C | 0% | 0hPa | 0V | 00:00:00 | 00:00:00 | 00:00:00 | |
| SQ6EMJ | 2026-09-04 00:06:32 | 50.58172 | 17.67517 | 151° | 44km/h | 16670m | 4.1m/s | 0°C | 0% | 0hPa | 0V | 00:00:00 | 00:00:00 | 00:00:00 | |
| SQ6EMJ | 2026-09-04 00:06:27 | 50.58234 | 17.67421 | 128° | 47km/h | 16641m | 6.1m/s | 0°C | 0% | 0hPa | 0V | 00:00:00 | 00:00:00 | 00:00:00 | |
| POL1PZ | 2026-09-04 00:06:19 | 50.58305 | 17.67333 | 138° | 62km/h | 16606m | 5.6m/s | 0°C | 0% | 0hPa | 0V | 00:00:00 | 00:00:00 | 00:00:00 | |
| SQ6EMJ | 2026-09-04 00:06:18 | 50.58327 | 17.67301 | 137° | 60km/h | 16595m | 4.1m/s | 0°C | 0% | 0hPa | 0V | 00:00:00 | 00:00:00 | 00:00:00 | |
| OE5MMP-10 | 2026-09-04 00:06:14 | 50.58360 | 17.67252 | 136° | 60km/h | 16580m | 5.7m/s | 0°C | 0% | 0hPa | 0V | 00:00:00 | 00:00:00 | 00:00:00 | |
| SQ6EMJ | 2026-09-04 00:06:02 | 50.58480 | 17.67072 | 135° | 53km/h | 16524m | 5.8m/s | 0°C | 0% | 0hPa | 0V | 00:00:00 | 00:00:00 | 00:00:00 | |
| POL1PZ | 2026-09-04 00:05:58 | 50.58519 | 17.67006 | 134° | 58km/h | 16507m | 5.4m/s | 0°C | 0% | 0hPa | 0V | 00:00:00 | 00:00:00 | 00:00:00 | |
| PETON7-10 | 2026-09-04 00:05:57 | 50.58529 | 17.66990 | 135° | 62km/h | 16501m | 6.5m/s | 0°C | 0% | 0hPa | 0V | 00:00:00 | 00:00:00 | 00:00:00 | |
| SQ6EMJ | 2026-09-04 00:05:55 | 50.58551 | 17.66959 | 138° | 58km/h | 16490m | 4.7m/s | 0°C | 0% | 0hPa | 0V | 00:00:00 | 00:00:00 | 00:00:00 | |
| SQ6EMJ | 2026-09-04 00:05:49 | 50.58619 | 17.66843 | 135° | 46km/h | 16459m | 4.5m/s | 0°C | 0% | 0hPa | 0V | 00:00:00 | 00:00:00 | 00:00:00 | |
| POL1PZ | 2026-09-04 00:05:38 | 50.58723 | 17.66662 | 128° | 57km/h | 16412m | 5.7m/s | 0°C | 0% | 0hPa | 0V | 00:00:00 | 00:00:00 | 00:00:00 | |
| SQ6EMJ | 2026-09-04 00:05:32 | 50.58780 | 17.66552 | 127° | 64km/h | 16384m | 4.2m/s | 0°C | 0% | 0hPa | 0V | 00:00:00 | 00:00:00 | 00:00:00 | |
| SQ6EMJ | 2026-09-04 00:05:22 | 50.58892 | 17.66350 | 130° | 69km/h | 16338m | 4.3m/s | 0°C | 0% | 0hPa | 0V | 00:00:00 | 00:00:00 | 00:00:00 | |
| POL1PZ | 2026-09-04 00:05:17 | 50.58955 | 17.66236 | 132° | 69km/h | 16313m | 4.4m/s | 0°C | 0% | 0hPa | 0V | 00:00:00 | 00:00:00 | 00:00:00 | |
| SQ6EMJ | 2026-09-04 00:05:14 | 50.59005 | 17.66154 | 133° | 75km/h | 16295m | 5.5m/s | 0°C | 0% | 0hPa | 0V | 00:00:00 | 00:00:00 | 00:00:00 | |
| SQ6EMJ | 2026-09-04 00:05:07 | 50.59076 | 17.66012 | 131° | 71km/h | 16267m | 5.2m/s | 0°C | 0% | 0hPa | 0V | 00:00:00 | 00:00:00 | 00:00:00 | |
| SQ6EMJ | 2026-09-04 00:05:02 | 50.59136 | 17.65909 | 127° | 71km/h | 16244m | 5.4m/s | 0°C | 0% | 0hPa | 0V | 00:00:00 | 00:00:00 | 00:00:00 | |
| POL1PZ | 2026-09-04 00:04:56 | 50.59207 | 17.65770 | 135° | 69km/h | 16218m | 5.6m/s | 0°C | 0% | 0hPa | 0V | 00:00:00 | 00:00:00 | 00:00:00 | |
| PETON7-10 | 2026-09-04 00:04:53 | 50.59241 | 17.65710 | 132° | 68km/h | 16204m | 6.5m/s | 0°C | 0% | 0hPa | 0V | 00:00:00 | 00:00:00 | 00:00:00 | |
| SQ6EMJ | 2026-09-04 00:04:51 | 50.59265 | 17.65672 | 136° | 66km/h | 16194m | 4.7m/s | 0°C | 0% | 0hPa | 0V | 00:00:00 | 00:00:00 | 00:00:00 | |
| SQ6EMJ | 2026-09-04 00:04:45 | 50.59332 | 17.65548 | 132° | 75km/h | 16167m | 4.4m/s | 0°C | 0% | 0hPa | 0V | 00:00:00 | 00:00:00 | 00:00:00 | |
| POL1PZ | 2026-09-04 00:04:37 | 50.59432 | 17.65337 | 129° | 80km/h | 16129m | 5.2m/s | 0°C | 0% | 0hPa | 0V | 00:00:00 | 00:00:00 | 00:00:00 | |
| OK1ALN | 2026-09-04 00:04:33 | 50.59479 | 17.65238 | 121° | 77km/h | 16112m | 4.3m/s | 0°C | 0% | 0hPa | 0V | 00:00:00 | 00:00:00 | 00:00:00 | |
| SQ6EMJ | 2026-09-04 00:04:27 | 50.59541 | 17.65087 | 122° | 73km/h | 16084m | 4.4m/s | 0°C | 0% | 0hPa | 0V | 00:00:00 | 00:00:00 | 00:00:00 | |
| OK1ALN | 2026-09-04 00:04:11 | 50.59703 | 17.64690 | 125° | 66km/h | 16008m | 5.2m/s | 0°C | 0% | 0hPa | 0V | 00:00:00 | 00:00:00 | 00:00:00 | |
| POL1PZ | 2026-09-04 00:03:54 | 50.59841 | 17.64359 | 122° | 68km/h | 15940m | 6.3m/s | 0°C | 0% | 0hPa | 0V | 00:00:00 | 00:00:00 | 00:00:00 | |
| SQ6EMJ | 2026-09-04 00:03:53 | 50.59850 | 17.64337 | 125° | 66km/h | 15934m | 4.7m/s | 0°C | 0% | 0hPa | 0V | 00:00:00 | 00:00:00 | 00:00:00 | |
| SP3BTT-10 | 2026-09-04 00:03:48 | 50.59889 | 17.64230 | 119° | 62km/h | 15913m | 5.0m/s | 0°C | 0% | 0hPa | 0V | 00:00:00 | 00:00:00 | 00:00:00 | |
| OK1ALN | 2026-09-04 00:03:47 | 50.59897 | 17.64207 | 119° | 66km/h | 15909m | 4.8m/s | 0°C | 0% | 0hPa | 0V | 00:00:00 | 00:00:00 | 00:00:00 | |
| SQ6EMJ | 2026-09-04 00:03:40 | 50.59966 | 17.64007 | 123° | 64km/h | 15869m | 4.1m/s | 0°C | 0% | 0hPa | 0V | 00:00:00 | 00:00:00 | 00:00:00 | |
| POL1PZ | 2026-09-04 00:03:34 | 50.60005 | 17.63893 | 124° | 66km/h | 15846m | 4.4m/s | 0°C | 0% | 0hPa | 0V | 00:00:00 | 00:00:00 | 00:00:00 | |
| SQ6EMJ | 2026-09-04 00:03:31 | 50.60031 | 17.63826 | 116° | 68km/h | 15834m | 4.7m/s | 0°C | 0% | 0hPa | 0V | 00:00:00 | 00:00:00 | 00:00:00 | |
| SQ6EMJ | 2026-09-04 00:03:24 | 50.60078 | 17.63688 | 119° | 60km/h | 15807m | 3.1m/s | 0°C | 0% | 0hPa | 0V | 00:00:00 | 00:00:00 | 00:00:00 | |
| OK1ALN | 2026-09-04 00:03:22 | 50.60104 | 17.63626 | 127° | 64km/h | 15794m | 3.0m/s | 0°C | 0% | 0hPa | 0V | 00:00:00 | 00:00:00 | 00:00:00 | |
| POL1PZ | 2026-09-04 00:03:11 | 50.60179 | 17.63399 | 121° | 60km/h | 15751m | 5.4m/s | 0°C | 0% | 0hPa | 0V | 00:00:00 | 00:00:00 | 00:00:00 | |
| SQ6EMJ | 2026-09-04 00:03:05 | 50.60232 | 17.63247 | 122° | 58km/h | 15719m | 4.8m/s | 0°C | 0% | 0hPa | 0V | 00:00:00 | 00:00:00 | 00:00:00 | |
| SQ6EMJ | 2026-09-04 00:02:31 | 50.60698 | 17.62133 | 120° | 68km/h | 15478m | 5.0m/s | 0°C | 0% | 0hPa | 0V | 00:00:00 | 00:00:00 | 00:00:00 | |
| POL1PZ | 2026-09-04 00:02:29 | 50.60706 | 17.62110 | 120° | 64km/h | 15473m | 4.1m/s | 0°C | 0% | 0hPa | 0V | 00:00:00 | 00:00:00 | 00:00:00 | |
| SQ6EMJ | 2026-09-04 00:02:23 | 50.60760 | 17.62001 | 130° | 69km/h | 15446m | 4.2m/s | 0°C | 0% | 0hPa | 0V | 00:00:00 | 00:00:00 | 00:00:00 | |
| PETON7-10 | 2026-09-04 00:02:15 | 50.60813 | 17.61879 | 122° | 66km/h | 15417m | 5.3m/s | 0°C | 0% | 0hPa | 0V | 00:00:00 | 00:00:00 | 00:00:00 | |
| SQ6EMJ | 2026-09-04 00:02:10 | 50.60859 | 17.61765 | 124° | 71km/h | 15394m | 4.0m/s | 0°C | 0% | 0hPa | 0V | 00:00:00 | 00:00:00 | 00:00:00 | |
| OK1ALN | 2026-09-04 00:02:08 | 50.60868 | 17.61743 | 126° | 62km/h | 15390m | 5.4m/s | 0°C | 0% | 0hPa | 0V | 00:00:00 | 00:00:00 | 00:00:00 | |
| POL1PZ | 2026-09-04 00:02:05 | 50.60884 | 17.61703 | 121° | 60km/h | 15382m | 4.6m/s | 0°C | 0% | 0hPa | 0V | 00:00:00 | 00:00:00 | 00:00:00 | |
| SQ6EMJ | 2026-09-04 00:02:02 | 50.60900 | 17.61658 | 119° | 71km/h | 15371m | 4.4m/s | 0°C | 0% | 0hPa | 0V | 00:00:00 | 00:00:00 | 00:00:00 | |
| PETON7-10 | 2026-09-04 00:01:55 | 50.60947 | 17.61508 | 112° | 66km/h | 15345m | 4.4m/s | 0°C | 0% | 0hPa | 0V | 00:00:00 | 00:00:00 | 00:00:00 | |
| SQ6EMJ | 2026-09-04 00:01:42 | 50.61001 | 17.61342 | 125° | 69km/h | 15312m | 6.2m/s | 0°C | 0% | 0hPa | 0V | 00:00:00 | 00:00:00 | 00:00:00 | |
| POL1PZ | 2026-09-04 00:01:37 | 50.61043 | 17.61225 | 117° | 64km/h | 15289m | 4.9m/s | 0°C | 0% | 0hPa | 0V | 00:00:00 | 00:00:00 | 00:00:00 | |
| SQ6EMJ | 2026-09-04 00:01:34 | 50.61058 | 17.61186 | 122° | 55km/h | 15280m | 3.3m/s | 0°C | 0% | 0hPa | 0V | 00:00:00 | 00:00:00 | 00:00:00 | |
| PETON7-10 | 2026-09-04 00:01:31 | 50.61065 | 17.61167 | 121° | 62km/h | 15275m | 5.5m/s | 0°C | 0% | 0hPa | 0V | 00:00:00 | 00:00:00 | 00:00:00 | |
| SQ6EMJ | 2026-09-04 00:01:27 | 50.61098 | 17.61082 | 124° | 58km/h | 15256m | 4.2m/s | 0°C | 0% | 0hPa | 0V | 00:00:00 | 00:00:00 | 00:00:00 | |
| SQ6EMJ | 2026-09-04 00:01:20 | 50.61140 | 17.60959 | 120° | 55km/h | 15229m | 4.1m/s | 0°C | 0% | 0hPa | 0V | 00:00:00 | 00:00:00 | 00:00:00 | |
| SQ6EMJ | 2026-09-04 00:01:13 | 50.61193 | 17.60828 | 126° | 64km/h | 15202m | 4.3m/s | 0°C | 0% | 0hPa | 0V | 00:00:00 | 00:00:00 | 00:00:00 | |
| POL1PZ | 2026-09-04 00:01:12 | 50.61210 | 17.60783 | 120° | 69km/h | 15192m | 3.6m/s | 0°C | 0% | 0hPa | 0V | 00:00:00 | 00:00:00 | 00:00:00 | |
| SQ6EMJ | 2026-09-04 00:01:06 | 50.61235 | 17.60715 | 120° | 68km/h | 15180m | 4.6m/s | 0°C | 0% | 0hPa | 0V | 00:00:00 | 00:00:00 | 00:00:00 | |
| SQ6EMJ | 2026-09-04 00:01:00 | 50.61293 | 17.60576 | 125° | 73km/h | 15150m | 5.4m/s | 0°C | 0% | 0hPa | 0V | 00:00:00 | 00:00:00 | 00:00:00 | |
| PETON7-10 | 2026-09-04 00:00:57 | 50.61332 | 17.60482 | 123° | 69km/h | 15131m | 5.0m/s | 0°C | 0% | 0hPa | 0V | 00:00:00 | 00:00:00 | 00:00:00 | |
| SQ6EMJ | 2026-09-04 00:00:54 | 50.61341 | 17.60458 | 120° | 71km/h | 15128m | 3.6m/s | 0°C | 0% | 0hPa | 0V | 00:00:00 | 00:00:00 | 00:00:00 | |
| POL1PZ | 2026-09-04 00:00:49 | 50.61393 | 17.60312 | 122° | 69km/h | 15100m | 4.4m/s | 0°C | 0% | 0hPa | 0V | 00:00:00 | 00:00:00 | 00:00:00 | |
| SQ6EMJ | 2026-09-04 00:00:44 | 50.61434 | 17.60193 | 121° | 62km/h | 15076m | 3.8m/s | 0°C | 0% | 0hPa | 0V | 00:00:00 | 00:00:00 | 00:00:00 | |
| PETON7-10 | 2026-09-04 00:00:41 | 50.61456 | 17.60123 | 118° | 64km/h | 15063m | 3.9m/s | 0°C | 0% | 0hPa | 0V | 00:00:00 | 00:00:00 | 00:00:00 | |
| SQ6EMJ | 2026-09-04 00:00:38 | 50.61472 | 17.60078 | 123° | 68km/h | 15055m | 3.6m/s | 0°C | 0% | 0hPa | 0V | 00:00:00 | 00:00:00 | 00:00:00 | |
| SQ6EMJ | 2026-09-04 00:00:36 | 50.61520 | 17.59941 | 118° | 66km/h | 15028m | 5.5m/s | 0°C | 0% | 0hPa | 0V | 00:00:00 | 00:00:00 | 00:00:00 | |
| SQ6EMJ | 2026-09-04 00:00:32 | 50.61573 | 17.59809 | 120° | 60km/h | 15000m | 4.0m/s | 0°C | 0% | 0hPa | 0V | 00:00:00 | 00:00:00 | 00:00:00 | |
| POL1PZ | 2026-09-04 00:00:31 | 50.61573 | 17.59809 | 120° | 60km/h | 15000m | 4.0m/s | 0°C | 0% | 0hPa | 0V | 00:00:00 | 00:00:00 | 00:00:00 | |
| PETON7-10 | 2026-09-04 00:00:27 | 50.61588 | 17.59765 | 125° | 60km/h | 14991m | 4.1m/s | 0°C | 0% | 0hPa | 0V | 00:00:00 | 00:00:00 | 00:00:00 | |
| SQ6EMJ | 2026-09-04 00:00:20 | 50.61629 | 17.59657 | 125° | 58km/h | 14971m | 3.8m/s | 0°C | 0% | 0hPa | 0V | 00:00:00 | 00:00:00 | 00:00:00 | |
| SQ6EMJ | 2026-09-04 00:00:15 | 50.61671 | 17.59568 | 132° | 60km/h | 14949m | 3.2m/s | 0°C | 0% | 0hPa | 0V | 00:00:00 | 00:00:00 | 00:00:00 | |
| SQ6EMJ | 2026-09-04 00:00:10 | 50.61718 | 17.59446 | 125° | 55km/h | 14921m | 4.5m/s | 0°C | 0% | 0hPa | 0V | 00:00:00 | 00:00:00 | 00:00:00 | |
| PETON7-10 | 2026-09-04 00:00:08 | 50.61726 | 17.59429 | 125° | 60km/h | 14916m | 4.6m/s | 0°C | 0% | 0hPa | 0V | 00:00:00 | 00:00:00 | 00:00:00 | |
| POL1PZ | 2026-09-04 00:00:06 | 50.61733 | 17.59412 | 126° | 53km/h | 14912m | 2.9m/s | 0°C | 0% | 0hPa | 0V | 00:00:00 | 00:00:00 | 00:00:00 | |
| OK1ALN | 2026-09-04 00:00:05 | 50.61742 | 17.59395 | 131° | 55km/h | 14908m | 4.5m/s | 0°C | 0% | 0hPa | 0V | 00:00:00 | 00:00:00 | 00:00:00 | |
| SQ6EMJ | 2026-09-04 00:00:03 | 50.61762 | 17.59358 | 130° | 66km/h | 14900m | 2.9m/s | 0°C | 0% | 0hPa | 0V | 00:00:00 | 00:00:00 | 00:00:00 | |
| SQ6EMJ | 2026-09-03 23:59:58 | 50.61806 | 17.59257 | 132° | 58km/h | 14878m | 3.8m/s | 0°C | 0% | 0hPa | 0V | 00:00:00 | 00:00:00 | 00:00:00 | |
| SQ6EMJ | 2026-09-03 23:59:52 | 50.61866 | 17.59140 | 121° | 68km/h | 14852m | 5.4m/s | 0°C | 0% | 0hPa | 0V | 00:00:00 | 00:00:00 | 00:00:00 | |
| SQ6EMJ | 2026-09-03 23:59:47 | 50.61929 | 17.59007 | 132° | 58km/h | 14825m | 5.4m/s | 0°C | 0% | 0hPa | 0V | 00:00:00 | 00:00:00 | 00:00:00 | |
| POL1PZ | 2026-09-03 23:59:44 | 50.61949 | 17.58970 | 129° | 62km/h | 14817m | 2.6m/s | 0°C | 0% | 0hPa | 0V | 00:00:00 | 00:00:00 | 00:00:00 | |
| OK1ALN | 2026-09-03 23:59:42 | 50.61970 | 17.58929 | 130° | 68km/h | 14809m | 4.6m/s | 0°C | 0% | 0hPa | 0V | 00:00:00 | 00:00:00 | 00:00:00 | |
| SQ6EMJ | 2026-09-03 23:59:40 | 50.61990 | 17.58885 | 122° | 68km/h | 14800m | 5.5m/s | 0°C | 0% | 0hPa | 0V | 00:00:00 | 00:00:00 | 00:00:00 | |
| SQ6EMJ | 2026-09-03 23:59:35 | 50.62040 | 17.58764 | 128° | 75km/h | 14779m | 5.4m/s | 0°C | 0% | 0hPa | 0V | 00:00:00 | 00:00:00 | 00:00:00 | |
| SQ6EMJ | 2026-09-03 23:59:29 | 50.62105 | 17.58643 | 122° | 66km/h | 14754m | 5.2m/s | 0°C | 0% | 0hPa | 0V | 00:00:00 | 00:00:00 | 00:00:00 | |
| POL1PZ | 2026-09-03 23:59:24 | 50.62156 | 17.58528 | 129° | 73km/h | 14732m | 3.9m/s | 0°C | 0% | 0hPa | 0V | 00:00:00 | 00:00:00 | 00:00:00 | |
| OK1ALN | 2026-09-03 23:59:22 | 50.62180 | 17.58482 | 131° | 77km/h | 14723m | 5.2m/s | 0°C | 0% | 0hPa | 0V | 00:00:00 | 00:00:00 | 00:00:00 | |
| SQ6EMJ | 2026-09-03 23:59:18 | 50.62225 | 17.58390 | 125° | 62km/h | 14705m | 4.6m/s | 0°C | 0% | 0hPa | 0V | 00:00:00 | 00:00:00 | 00:00:00 | |
| SQ6EMJ | 2026-09-03 23:59:13 | 50.62277 | 17.58275 | 132° | 73km/h | 14683m | 5.2m/s | 0°C | 0% | 0hPa | 0V | 00:00:00 | 00:00:00 | 00:00:00 | |
| SQ6EMJ | 2026-09-03 23:59:08 | 50.62334 | 17.58156 | 124° | 71km/h | 14662m | 5.1m/s | 0°C | 0% | 0hPa | 0V | 00:00:00 | 00:00:00 | 00:00:00 | |
| POL1PZ | 2026-09-03 23:59:03 | 50.62379 | 17.58050 | 126° | 62km/h | 14640m | 4.9m/s | 0°C | 0% | 0hPa | 0V | 00:00:00 | 00:00:00 | 00:00:00 | |
| SQ6EMJ | 2026-09-03 23:59:02 | 50.62389 | 17.58029 | 127° | 66km/h | 14636m | 4.7m/s | 0°C | 0% | 0hPa | 0V | 00:00:00 | 00:00:00 | 00:00:00 | |
| OK1ALN | 2026-09-03 23:59:00 | 50.62408 | 17.57983 | 121° | 69km/h | 14627m | 3.5m/s | 0°C | 0% | 0hPa | 0V | 00:00:00 | 00:00:00 | 00:00:00 | |
| SQ6EMJ | 2026-09-03 23:58:57 | 50.62436 | 17.57919 | 130° | 62km/h | 14614m | 3.0m/s | 0°C | 0% | 0hPa | 0V | 00:00:00 | 00:00:00 | 00:00:00 | |
| SQ6EMJ | 2026-09-03 23:58:52 | 50.62486 | 17.57819 | 129° | 60km/h | 14593m | 4.4m/s | 0°C | 0% | 0hPa | 0V | 00:00:00 | 00:00:00 | 00:00:00 | |
| SQ6EMJ | 2026-09-03 23:58:45 | 50.62553 | 17.57686 | 126° | 64km/h | 14562m | 3.9m/s | 0°C | 0% | 0hPa | 0V | 00:00:00 | 00:00:00 | 00:00:00 | |
| POL1PZ | 2026-09-03 23:58:42 | 50.62582 | 17.57629 | 133° | 55km/h | 14550m | 4.4m/s | 0°C | 0% | 0hPa | 0V | 00:00:00 | 00:00:00 | 00:00:00 | |
| OK1ALN | 2026-09-03 23:58:39 | 50.62612 | 17.57578 | 132° | 66km/h | 14537m | 3.4m/s | 0°C | 0% | 0hPa | 0V | 00:00:00 | 00:00:00 | 00:00:00 | |
| SQ6EMJ | 2026-09-03 23:58:33 | 50.62666 | 17.57458 | 129° | 62km/h | 14514m | 4.7m/s | 0°C | 0% | 0hPa | 0V | 00:00:00 | 00:00:00 | 00:00:00 | |
| SQ6EMJ | 2026-09-03 23:58:27 | 50.62733 | 17.57359 | 133° | 66km/h | 14488m | 3.7m/s | 0°C | 0% | 0hPa | 0V | 00:00:00 | 00:00:00 | 00:00:00 | |
| SQ6EMJ | 2026-09-03 23:58:22 | 50.62787 | 17.57264 | 136° | 68km/h | 14465m | 4.0m/s | 0°C | 0% | 0hPa | 0V | 00:00:00 | 00:00:00 | 00:00:00 | |
| POL1PZ | 2026-09-03 23:58:21 | 50.62799 | 17.57244 | 133° | 69km/h | 14461m | 4.3m/s | 0°C | 0% | 0hPa | 0V | 00:00:00 | 00:00:00 | 00:00:00 | |
| SQ6EMJ | 2026-09-03 23:58:17 | 50.62843 | 17.57169 | 134° | 69km/h | 14442m | 4.0m/s | 0°C | 0% | 0hPa | 0V | 00:00:00 | 00:00:00 | 00:00:00 | |
| SQ6EMJ | 2026-09-03 23:58:11 | 50.62917 | 17.57042 | 136° | 73km/h | 14417m | 3.9m/s | 0°C | 0% | 0hPa | 0V | 00:00:00 | 00:00:00 | 00:00:00 | |
| OK1ALN | 2026-09-03 23:58:09 | 50.62940 | 17.56999 | 130° | 69km/h | 14407m | 4.1m/s | 0°C | 0% | 0hPa | 0V | 00:00:00 | 00:00:00 | 00:00:00 | |
| SQ6EMJ | 2026-09-03 23:58:05 | 50.62989 | 17.56912 | 136° | 77km/h | 14392m | 5.0m/s | 0°C | 0% | 0hPa | 0V | 00:00:00 | 00:00:00 | 00:00:00 | |
| POL1PZ | 2026-09-03 23:58:00 | 50.63062 | 17.56811 | 136° | 78km/h | 14371m | 4.8m/s | 0°C | 0% | 0hPa | 0V | 00:00:00 | 00:00:00 | 00:00:00 | |
| SQ6EMJ | 2026-09-03 23:57:59 | 50.63074 | 17.56788 | 132° | 75km/h | 14366m | 5.6m/s | 0°C | 0% | 0hPa | 0V | 00:00:00 | 00:00:00 | 00:00:00 | |
| SQ6EMJ | 2026-09-03 23:57:53 | 50.63149 | 17.56646 | 136° | 69km/h | 14336m | 3.1m/s | 0°C | 0% | 0hPa | 0V | 00:00:00 | 00:00:00 | 00:00:00 | |
| SQ6EMJ | 2026-09-03 23:57:48 | 50.63219 | 17.56548 | 133° | 73km/h | 14315m | 3.8m/s | 0°C | 0% | 0hPa | 0V | 00:00:00 | 00:00:00 | 00:00:00 | |
| SQ6EMJ | 2026-09-03 23:57:43 | 50.63289 | 17.56427 | 136° | 77km/h | 14291m | 4.5m/s | 0°C | 0% | 0hPa | 0V | 00:00:00 | 00:00:00 | 00:00:00 | |
| POL1PZ | 2026-09-03 23:57:39 | 50.63348 | 17.56349 | 139° | 73km/h | 14275m | 4.9m/s | 0°C | 0% | 0hPa | 0V | 00:00:00 | 00:00:00 | 00:00:00 | |
| SQ6EMJ | 2026-09-03 23:57:37 | 50.63375 | 17.56308 | 132° | 75km/h | 14266m | 3.8m/s | 0°C | 0% | 0hPa | 0V | 00:00:00 | 00:00:00 | 00:00:00 | |
| SP3BTT-10 | 2026-09-03 23:57:35 | 50.63404 | 17.56259 | 137° | 120km/h | 14255m | 5.0m/s | 0°C | 0% | 0hPa | 0V | 00:00:00 | 00:00:00 | 00:00:00 | |
| SQ6EMJ | 2026-09-03 23:57:31 | 50.63470 | 17.56172 | 142° | 86km/h | 14235m | 5.7m/s | 0°C | 0% | 0hPa | 0V | 00:00:00 | 00:00:00 | 00:00:00 | |
| SQ6EMJ | 2026-09-03 23:57:26 | 50.63557 | 17.56028 | 133° | 89km/h | 14205m | 3.5m/s | 0°C | 0% | 0hPa | 0V | 00:00:00 | 00:00:00 | 00:00:00 | |
| OK1ALN | 2026-09-03 23:57:25 | 50.63557 | 17.56028 | 133° | 89km/h | 14205m | 3.5m/s | 0°C | 0% | 0hPa | 0V | 00:00:00 | 00:00:00 | 00:00:00 | |
| SQ6EMJ | 2026-09-03 23:57:19 | 50.63643 | 17.55877 | 135° | 88km/h | 14172m | 7.5m/s | 0°C | 0% | 0hPa | 0V | 00:00:00 | 00:00:00 | 00:00:00 | |
| POL1PZ | 2026-09-03 23:57:18 | 50.63659 | 17.55853 | 140° | 84km/h | 14164m | 8.2m/s | 0°C | 0% | 0hPa | 0V | 00:00:00 | 00:00:00 | 00:00:00 | |
| SQ6EMJ | 2026-09-03 23:57:14 | 50.63720 | 17.55755 | 128° | 95km/h | 14144m | 6.5m/s | 0°C | 0% | 0hPa | 0V | 00:00:00 | 00:00:00 | 00:00:00 | |
| SQ6EMJ | 2026-09-03 23:57:09 | 50.63792 | 17.55613 | 141° | 86km/h | 14111m | 7.2m/s | 0°C | 0% | 0hPa | 0V | 00:00:00 | 00:00:00 | 00:00:00 | |
| OK1ALN | 2026-09-03 23:57:03 | 50.63882 | 17.55474 | 128° | 86km/h | 14078m | 5.7m/s | 0°C | 0% | 0hPa | 0V | 00:00:00 | 00:00:00 | 00:00:00 | |
| SQ6EMJ | 2026-09-03 23:56:58 | 50.63958 | 17.55340 | 135° | 86km/h | 14050m | 6.1m/s | 0°C | 0% | 0hPa | 0V | 00:00:00 | 00:00:00 | 00:00:00 | |
| POL1PZ | 2026-09-03 23:56:57 | 50.63972 | 17.55317 | 133° | 77km/h | 14043m | 8.5m/s | 0°C | 0% | 0hPa | 0V | 00:00:00 | 00:00:00 | 00:00:00 | |
| SQ6EMJ | 2026-09-03 23:56:53 | 50.64020 | 17.55231 | 136° | 78km/h | 14020m | 4.4m/s | 0°C | 0% | 0hPa | 0V | 00:00:00 | 00:00:00 | 00:00:00 | |
| SQ6EMJ | 2026-09-03 23:56:48 | 50.64096 | 17.55137 | 141° | 78km/h | 13995m | 5.3m/s | 0°C | 0% | 0hPa | 0V | 00:00:00 | 00:00:00 | 00:00:00 | |
| SQ6EMJ | 2026-09-03 23:56:42 | 50.64184 | 17.55013 | 128° | 78km/h | 13956m | 4.9m/s | 0°C | 0% | 0hPa | 0V | 00:00:00 | 00:00:00 | 00:00:00 | |
| OK1ALN | 2026-09-03 23:56:41 | 50.64197 | 17.54989 | 134° | 78km/h | 13950m | 5.8m/s | 0°C | 0% | 0hPa | 0V | 00:00:00 | 00:00:00 | 00:00:00 | |
| POL1PZ | 2026-09-03 23:56:37 | 50.64260 | 17.54908 | 148° | 73km/h | 13928m | 5.3m/s | 0°C | 0% | 0hPa | 0V | 00:00:00 | 00:00:00 | 00:00:00 | |
| SQ6EMJ | 2026-09-03 23:56:32 | 50.64336 | 17.54818 | 141° | 89km/h | 13899m | 4.5m/s | 0°C | 0% | 0hPa | 0V | 00:00:00 | 00:00:00 | 00:00:00 | |
| SQ6EMJ | 2026-09-03 23:56:25 | 50.64459 | 17.54680 | 148° | 73km/h | 13862m | 5.4m/s | 0°C | 0% | 0hPa | 0V | 00:00:00 | 00:00:00 | 00:00:00 | |
| OK1ALN | 2026-09-03 23:56:21 | 50.64540 | 17.54595 | 140° | 82km/h | 13833m | 4.6m/s | 0°C | 0% | 0hPa | 0V | 00:00:00 | 00:00:00 | 00:00:00 | |
| SQ6EMJ | 2026-09-03 23:56:19 | 50.64556 | 17.54574 | 141° | 86km/h | 13828m | 6.4m/s | 0°C | 0% | 0hPa | 0V | 00:00:00 | 00:00:00 | 00:00:00 | |
| POL1PZ | 2026-09-03 23:56:15 | 50.64623 | 17.54509 | 156° | 77km/h | 13806m | 7.4m/s | 0°C | 0% | 0hPa | 0V | 00:00:00 | 00:00:00 | 00:00:00 | |
| SQ6EMJ | 2026-09-03 23:56:14 | 50.64642 | 17.54494 | 151° | 88km/h | 13800m | 4.4m/s | 0°C | 0% | 0hPa | 0V | 00:00:00 | 00:00:00 | 00:00:00 | |
| SQ6EMJ | 2026-09-03 23:56:08 | 50.64754 | 17.54358 | 142° | 91km/h | 13761m | 4.0m/s | 0°C | 0% | 0hPa | 0V | 00:00:00 | 00:00:00 | 00:00:00 | |
| SQ6EMJ | 2026-09-03 23:56:02 | 50.64864 | 17.54240 | 143° | 88km/h | 13723m | 3.1m/s | 0°C | 0% | 0hPa | 0V | 00:00:00 | 00:00:00 | 00:00:00 | |
| OK1ALN | 2026-09-03 23:55:58 | 50.64942 | 17.54146 | 147° | 95km/h | 13699m | 3.8m/s | 0°C | 0% | 0hPa | 0V | 00:00:00 | 00:00:00 | 00:00:00 | |
| SQ6EMJ | 2026-09-03 23:55:56 | 50.64982 | 17.54108 | 153° | 91km/h | 13687m | 7.2m/s | 0°C | 0% | 0hPa | 0V | 00:00:00 | 00:00:00 | 00:00:00 | |
| POL1PZ | 2026-09-03 23:55:55 | 50.65002 | 17.54091 | 152° | 93km/h | 13681m | 4.8m/s | 0°C | 0% | 0hPa | 0V | 00:00:00 | 00:00:00 | 00:00:00 | |
| SQ6EMJ | 2026-09-03 23:55:50 | 50.65103 | 17.53995 | 148° | 104km/h | 13653m | 6.3m/s | 0°C | 0% | 0hPa | 0V | 00:00:00 | 00:00:00 | 00:00:00 | |
| SQ6EMJ | 2026-09-03 23:55:44 | 50.65229 | 17.53866 | 148° | 95km/h | 13610m | 7.3m/s | 0°C | 0% | 0hPa | 0V | 00:00:00 | 00:00:00 | 00:00:00 | |
| SQ6EMJ | 2026-09-03 23:55:39 | 50.65342 | 17.53756 | 150° | 120km/h | 13578m | 3.3m/s | 0°C | 0% | 0hPa | 0V | 00:00:00 | 00:00:00 | 00:00:00 | |
| POL1PZ | 2026-09-03 23:55:34 | 50.65456 | 17.53630 | 141° | 99km/h | 13550m | 9.6m/s | 0°C | 0% | 0hPa | 0V | 00:00:00 | 00:00:00 | 00:00:00 | |
| OK1ALN | 2026-09-03 23:55:32 | 50.65496 | 17.53581 | 144° | 104km/h | 13536m | 6.6m/s | 0°C | 0% | 0hPa | 0V | 00:00:00 | 00:00:00 | 00:00:00 | |
| SQ6EMJ | 2026-09-03 23:55:28 | 50.65588 | 17.53476 | 144° | 119km/h | 13513m | 5.2m/s | 0°C | 0% | 0hPa | 0V | 00:00:00 | 00:00:00 | 00:00:00 | |
| SQ6EMJ | 2026-09-03 23:55:23 | 50.65705 | 17.53339 | 141° | 104km/h | 13485m | 8.6m/s | 0°C | 0% | 0hPa | 0V | 00:00:00 | 00:00:00 | 00:00:00 | |
| SQ6EMJ | 2026-09-03 23:55:17 | 50.65839 | 17.53177 | 148° | 117km/h | 13449m | 4.2m/s | 0°C | 0% | 0hPa | 0V | 00:00:00 | 00:00:00 | 00:00:00 | |
| POL1PZ | 2026-09-03 23:55:13 | 50.65938 | 17.53069 | 144° | 113km/h | 13424m | 4.0m/s | 0°C | 0% | 0hPa | 0V | 00:00:00 | 00:00:00 | 00:00:00 | |
| SQ6EMJ | 2026-09-03 23:55:11 | 50.65983 | 17.53020 | 151° | 102km/h | 13409m | 5.1m/s | 0°C | 0% | 0hPa | 0V | 00:00:00 | 00:00:00 | 00:00:00 | |
| OK1ALN | 2026-09-03 23:55:07 | 50.66077 | 17.52934 | 151° | 128km/h | 13385m | 5.6m/s | 0°C | 0% | 0hPa | 0V | 00:00:00 | 00:00:00 | 00:00:00 | |
| SQ6EMJ | 2026-09-03 23:55:05 | 50.66136 | 17.52882 | 151° | 133km/h | 13372m | 4.4m/s | 0°C | 0% | 0hPa | 0V | 00:00:00 | 00:00:00 | 00:00:00 | |
| SQ6EMJ | 2026-09-03 23:54:59 | 50.66282 | 17.52711 | 147° | 111km/h | 13337m | 10.1m/s | 0°C | 0% | 0hPa | 0V | 00:00:00 | 00:00:00 | 00:00:00 | |
| SQ6EMJ | 2026-09-03 23:54:53 | 50.66450 | 17.52560 | 147° | 144km/h | 13298m | 3.6m/s | 0°C | 0% | 0hPa | 0V | 00:00:00 | 00:00:00 | 00:00:00 | |
| POL1PZ | 2026-09-03 23:54:52 | 50.66479 | 17.52529 | 146° | 142km/h | 13292m | 6.7m/s | 0°C | 0% | 0hPa | 0V | 00:00:00 | 00:00:00 | 00:00:00 | |
| SQ6EMJ | 2026-09-03 23:54:47 | 50.66618 | 17.52379 | 148° | 131km/h | 13260m | 3.1m/s | 0°C | 0% | 0hPa | 0V | 00:00:00 | 00:00:00 | 00:00:00 | |
| SQ6EMJ | 2026-09-03 23:54:40 | 50.66808 | 17.52167 | 143° | 131km/h | 13220m | 3.6m/s | 0°C | 0% | 0hPa | 0V | 00:00:00 | 00:00:00 | 00:00:00 | |
| SQ6EMJ | 2026-09-03 23:54:34 | 50.66958 | 17.51977 | 141° | 126km/h | 13179m | 5.4m/s | 0°C | 0% | 0hPa | 0V | 00:00:00 | 00:00:00 | 00:00:00 | |
| POL1PZ | 2026-09-03 23:54:31 | 50.67033 | 17.51872 | 141° | 137km/h | 13164m | 4.1m/s | 0°C | 0% | 0hPa | 0V | 00:00:00 | 00:00:00 | 00:00:00 | |
| SQ6EMJ | 2026-09-03 23:54:28 | 50.67112 | 17.51775 | 142° | 124km/h | 13146m | 4.7m/s | 0°C | 0% | 0hPa | 0V | 00:00:00 | 00:00:00 | 00:00:00 | |
| OK1ALN | 2026-09-03 23:54:25 | 50.67185 | 17.51677 | 139° | 126km/h | 13127m | 8.6m/s | 0°C | 0% | 0hPa | 0V | 00:00:00 | 00:00:00 | 00:00:00 | |
| SQ6EMJ | 2026-09-03 23:54:20 | 50.67306 | 17.51513 | 144° | 135km/h | 13096m | 5.6m/s | 0°C | 0% | 0hPa | 0V | 00:00:00 | 00:00:00 | 00:00:00 | |
| SQ6EMJ | 2026-09-03 23:54:14 | 50.67459 | 17.51326 | 139° | 119km/h | 13059m | 6.7m/s | 0°C | 0% | 0hPa | 0V | 00:00:00 | 00:00:00 | 00:00:00 | |
| POL1PZ | 2026-09-03 23:54:11 | 50.67524 | 17.51239 | 142° | 111km/h | 13042m | 4.7m/s | 0°C | 0% | 0hPa | 0V | 00:00:00 | 00:00:00 | 00:00:00 | |
| SQ6EMJ | 2026-09-03 23:54:03 | 50.67715 | 17.51003 | 139° | 124km/h | 12994m | 3.2m/s | 0°C | 0% | 0hPa | 0V | 00:00:00 | 00:00:00 | 00:00:00 | |
| SQ6EMJ | 2026-09-03 23:53:51 | 50.68005 | 17.50678 | 148° | 124km/h | 12920m | 5.4m/s | 0°C | 0% | 0hPa | 0V | 00:00:00 | 00:00:00 | 00:00:00 | |
| OK1ALN | 2026-09-03 23:53:50 | 50.68032 | 17.50653 | 151° | 122km/h | 12913m | 9.2m/s | 0°C | 0% | 0hPa | 0V | 00:00:00 | 00:00:00 | 00:00:00 | |
| POL1PZ | 2026-09-03 23:53:47 | 50.68112 | 17.50582 | 150° | 122km/h | 12894m | 6.6m/s | 0°C | 0% | 0hPa | 0V | 00:00:00 | 00:00:00 | 00:00:00 | |
| SQ6EMJ | 2026-09-03 23:53:42 | 50.68252 | 17.50420 | 145° | 144km/h | 12856m | 3.3m/s | 0°C | 0% | 0hPa | 0V | 00:00:00 | 00:00:00 | 00:00:00 | |
| SQ6EMJ | 2026-09-03 23:53:37 | 50.68393 | 17.50272 | 147° | 124km/h | 12819m | 10.3m/s | 0°C | 0% | 0hPa | 0V | 00:00:00 | 00:00:00 | 00:00:00 | |
| SQ6EMJ | 2026-09-03 23:53:31 | 50.68559 | 17.50097 | 152° | 146km/h | 12778m | 5.7m/s | 0°C | 0% | 0hPa | 0V | 00:00:00 | 00:00:00 | 00:00:00 | |
| OK1ALN | 2026-09-03 23:53:27 | 50.68692 | 17.49976 | 145° | 146km/h | 12747m | 4.9m/s | 0°C | 0% | 0hPa | 0V | 00:00:00 | 00:00:00 | 00:00:00 | |
| POL1PZ | 2026-09-03 23:53:24 | 50.68780 | 17.49857 | 138° | 153km/h | 12729m | 8.4m/s | 0°C | 0% | 0hPa | 0V | 00:00:00 | 00:00:00 | 00:00:00 | |
| SQ6EMJ | 2026-09-03 23:53:17 | 50.68987 | 17.49588 | 141° | 148km/h | 12689m | 4.3m/s | 0°C | 0% | 0hPa | 0V | 00:00:00 | 00:00:00 | 00:00:00 | |
| SQ6EMJ | 2026-09-03 23:53:08 | 50.69256 | 17.49274 | 149° | 141km/h | 12634m | 6.4m/s | 0°C | 0% | 0hPa | 0V | 00:00:00 | 00:00:00 | 00:00:00 | |
| OK1ALN | 2026-09-03 23:53:06 | 50.69319 | 17.49218 | 153° | 144km/h | 12614m | 7.5m/s | 0°C | 0% | 0hPa | 0V | 00:00:00 | 00:00:00 | 00:00:00 | |
| POL1PZ | 2026-09-03 23:53:03 | 50.69415 | 17.49130 | 149° | 150km/h | 12593m | 3.8m/s | 0°C | 0% | 0hPa | 0V | 00:00:00 | 00:00:00 | 00:00:00 | |
| SQ6EMJ | 2026-09-03 23:52:54 | 50.69700 | 17.48864 | 156° | 142km/h | 12537m | 8.1m/s | 0°C | 0% | 0hPa | 0V | 00:00:00 | 00:00:00 | 00:00:00 | |
| SQ6EMJ | 2026-09-03 23:52:47 | 50.69939 | 17.48673 | 152° | 146km/h | 12499m | 4.6m/s | 0°C | 0% | 0hPa | 0V | 00:00:00 | 00:00:00 | 00:00:00 | |
| OK1ALN | 2026-09-03 23:52:45 | 50.70001 | 17.48618 | 152° | 141km/h | 12489m | 5.0m/s | 0°C | 0% | 0hPa | 0V | 00:00:00 | 00:00:00 | 00:00:00 | |
| SQ6EMJ | 2026-09-03 23:52:42 | 50.70143 | 17.48507 | 155° | 164km/h | 12464m | 10.3m/s | 0°C | 0% | 0hPa | 0V | 00:00:00 | 00:00:00 | 00:00:00 | |
| POL1PZ | 2026-09-03 23:52:35 | 50.70346 | 17.48340 | 154° | 151km/h | 12426m | 4.0m/s | 0°C | 0% | 0hPa | 0V | 00:00:00 | 00:00:00 | 00:00:00 | |
| SQ6EMJ | 2026-09-03 23:52:20 | 50.70912 | 17.47959 | 158° | 172km/h | 12328m | 6.4m/s | 0°C | 0% | 0hPa | 0V | 00:00:00 | 00:00:00 | 00:00:00 | |
| OK1ALN | 2026-09-03 23:52:17 | 50.71029 | 17.47880 | 157° | 161km/h | 12306m | 10.1m/s | 0°C | 0% | 0hPa | 0V | 00:00:00 | 00:00:00 | 00:00:00 | |
| POL1PZ | 2026-09-03 23:52:10 | 50.71301 | 17.47707 | 158° | 181km/h | 12259m | 4.6m/s | 0°C | 0% | 0hPa | 0V | 00:00:00 | 00:00:00 | 00:00:00 | |
| SQ6EMJ | 2026-09-03 23:51:55 | 50.71936 | 17.47322 | 160° | 181km/h | 12158m | 4.7m/s | 0°C | 0% | 0hPa | 0V | 00:00:00 | 00:00:00 | 00:00:00 | |
| POL1PZ | 2026-09-03 23:51:50 | 50.72155 | 17.47184 | 156° | 193km/h | 12123m | 3.5m/s | 0°C | 0% | 0hPa | 0V | 00:00:00 | 00:00:00 | 00:00:00 | |
| SQ6EMJ | 2026-09-03 23:51:49 | 50.72199 | 17.47151 | 156° | 192km/h | 12117m | 8.1m/s | 0°C | 0% | 0hPa | 0V | 00:00:00 | 00:00:00 | 00:00:00 | |
| OK1ALN | 2026-09-03 23:51:46 | 50.72329 | 17.47067 | 161° | 184km/h | 12099m | 6.0m/s | 0°C | 0% | 0hPa | 0V | 00:00:00 | 00:00:00 | 00:00:00 | |
| SQ6EMJ | 2026-09-03 23:51:44 | 50.72416 | 17.47017 | 161° | 181km/h | 12091m | 6.6m/s | 0°C | 0% | 0hPa | 0V | 00:00:00 | 00:00:00 | 00:00:00 | |
| SQ6EMJ | 2026-09-03 23:51:38 | 50.72665 | 17.46866 | 160° | 179km/h | 12051m | 4.5m/s | 0°C | 0% | 0hPa | 0V | 00:00:00 | 00:00:00 | 00:00:00 | |
| SQ6EMJ | 2026-09-03 23:51:32 | 50.72911 | 17.46727 | 162° | 172km/h | 12015m | 10.5m/s | 0°C | 0% | 0hPa | 0V | 00:00:00 | 00:00:00 | 00:00:00 | |
| POL1PZ | 2026-09-03 23:51:28 | 50.73090 | 17.46615 | 157° | 192km/h | 11987m | 7.0m/s | 0°C | 0% | 0hPa | 0V | 00:00:00 | 00:00:00 | 00:00:00 | |
| SQ6EMJ | 2026-09-03 23:51:26 | 50.73174 | 17.46555 | 158° | 177km/h | 11974m | 6.6m/s | 0°C | 0% | 0hPa | 0V | 00:00:00 | 00:00:00 | 00:00:00 | |
| SQ6EMJ | 2026-09-03 23:51:20 | 50.73421 | 17.46393 | 159° | 188km/h | 11937m | 8.5m/s | 0°C | 0% | 0hPa | 0V | 00:00:00 | 00:00:00 | 00:00:00 | |
| SQ6EMJ | 2026-09-03 23:51:15 | 50.73635 | 17.46252 | 158° | 183km/h | 11903m | 5.2m/s | 0°C | 0% | 0hPa | 0V | 00:00:00 | 00:00:00 | 00:00:00 | |
| POL1PZ | 2026-09-03 23:51:08 | 50.73942 | 17.46064 | 157° | 192km/h | 11856m | 4.9m/s | 0°C | 0% | 0hPa | 0V | 00:00:00 | 00:00:00 | 00:00:00 | |
| SQ6EMJ | 2026-09-03 23:51:05 | 50.74076 | 17.45977 | 160° | 192km/h | 11836m | 10.6m/s | 0°C | 0% | 0hPa | 0V | 00:00:00 | 00:00:00 | 00:00:00 | |
| SP3BTT-10 | 2026-09-03 23:51:03 | 50.74166 | 17.45928 | 163° | 181km/h | 11822m | 4.8m/s | 0°C | 0% | 0hPa | 0V | 00:00:00 | 00:00:00 | 00:00:00 | |
| SQ6EMJ | 2026-09-03 23:50:59 | 50.74337 | 17.45814 | 154° | 188km/h | 11801m | 4.4m/s | 0°C | 0% | 0hPa | 0V | 00:00:00 | 00:00:00 | 00:00:00 | |
| SQ6EMJ | 2026-09-03 23:50:54 | 50.74561 | 17.45671 | 160° | 188km/h | 11774m | 3.5m/s | 0°C | 0% | 0hPa | 0V | 00:00:00 | 00:00:00 | 00:00:00 | |
| SQ6EMJ | 2026-09-03 23:50:49 | 50.74776 | 17.45527 | 155° | 186km/h | 11746m | 8.4m/s | 0°C | 0% | 0hPa | 0V | 00:00:00 | 00:00:00 | 00:00:00 | |
| POL1PZ | 2026-09-03 23:50:46 | 50.74905 | 17.45438 | 159° | 192km/h | 11727m | 4.4m/s | 0°C | 0% | 0hPa | 0V | 00:00:00 | 00:00:00 | 00:00:00 | |
| SQ6EMJ | 2026-09-03 23:50:44 | 50.74994 | 17.45383 | 160° | 186km/h | 11711m | 5.1m/s | 0°C | 0% | 0hPa | 0V | 00:00:00 | 00:00:00 | 00:00:00 | |
| SQ6EMJ | 2026-09-03 23:50:38 | 50.75254 | 17.45219 | 158° | 177km/h | 11677m | 7.3m/s | 0°C | 0% | 0hPa | 0V | 00:00:00 | 00:00:00 | 00:00:00 | |
| SQ6EMJ | 2026-09-03 23:50:32 | 50.75515 | 17.45052 | 158° | 186km/h | 11644m | 5.4m/s | 0°C | 0% | 0hPa | 0V | 00:00:00 | 00:00:00 | 00:00:00 | |
| SQ6EMJ | 2026-09-03 23:50:26 | 50.75768 | 17.44877 | 158° | 188km/h | 11611m | 3.7m/s | 0°C | 0% | 0hPa | 0V | 00:00:00 | 00:00:00 | 00:00:00 | |
| POL1PZ | 2026-09-03 23:50:25 | 50.75811 | 17.44848 | 159° | 188km/h | 11607m | 3.9m/s | 0°C | 0% | 0hPa | 0V | 00:00:00 | 00:00:00 | 00:00:00 | |
| SQ6EMJ | 2026-09-03 23:50:15 | 50.76239 | 17.44572 | 157° | 188km/h | 11557m | 8.1m/s | 0°C | 0% | 0hPa | 0V | 00:00:00 | 00:00:00 | 00:00:00 | |
| SQ6EMJ | 2026-09-03 23:50:09 | 50.76490 | 17.44409 | 159° | 181km/h | 11524m | 5.1m/s | 0°C | 0% | 0hPa | 0V | 00:00:00 | 00:00:00 | 00:00:00 | |
| POL1PZ | 2026-09-03 23:50:06 | 50.76664 | 17.44291 | 156° | 184km/h | 11503m | 8.0m/s | 0°C | 0% | 0hPa | 0V | 00:00:00 | 00:00:00 | 00:00:00 | |
| SQ6EMJ | 2026-09-03 23:50:04 | 50.76745 | 17.44232 | 157° | 173km/h | 11491m | 4.5m/s | 0°C | 0% | 0hPa | 0V | 00:00:00 | 00:00:00 | 00:00:00 | |
| SP3BTT-10 | 2026-09-03 23:50:03 | 50.76745 | 17.44232 | 156° | 181km/h | 11491m | 4.5m/s | 0°C | 0% | 0hPa | 0V | 00:00:00 | 00:00:00 | 00:00:00 | |
| SQ6EMJ | 2026-09-03 23:49:58 | 50.76958 | 17.44090 | 161° | 192km/h | 11461m | 4.0m/s | 0°C | 0% | 0hPa | 0V | 00:00:00 | 00:00:00 | 00:00:00 | |
| SQ6EMJ | 2026-09-03 23:49:52 | 50.77211 | 17.43918 | 157° | 184km/h | 11429m | 6.8m/s | 0°C | 0% | 0hPa | 0V | 00:00:00 | 00:00:00 | 00:00:00 | |
| SQ6EMJ | 2026-09-03 23:49:47 | 50.77419 | 17.43783 | 158° | 172km/h | 11397m | 6.4m/s | 0°C | 0% | 0hPa | 0V | 00:00:00 | 00:00:00 | 00:00:00 | |
| POL1PZ | 2026-09-03 23:49:45 | 50.77502 | 17.43729 | 158° | 184km/h | 11387m | 6.6m/s | 0°C | 0% | 0hPa | 0V | 00:00:00 | 00:00:00 | 00:00:00 | |
| SQ6EMJ | 2026-09-03 23:49:41 | 50.77681 | 17.43612 | 159° | 190km/h | 11368m | 3.0m/s | 0°C | 0% | 0hPa | 0V | 00:00:00 | 00:00:00 | 00:00:00 | |
| SQ6EMJ | 2026-09-03 23:49:36 | 50.77892 | 17.43485 | 160° | 172km/h | 11339m | 9.0m/s | 0°C | 0% | 0hPa | 0V | 00:00:00 | 00:00:00 | 00:00:00 | |
| SQ6EMJ | 2026-09-03 23:49:30 | 50.78147 | 17.43318 | 159° | 177km/h | 11301m | 3.8m/s | 0°C | 0% | 0hPa | 0V | 00:00:00 | 00:00:00 | 00:00:00 | |
| POL1PZ | 2026-09-03 23:49:24 | 50.78392 | 17.43159 | 160° | 173km/h | 11263m | 8.5m/s | 0°C | 0% | 0hPa | 0V | 00:00:00 | 00:00:00 | 00:00:00 | |
| SQ6EMJ | 2026-09-03 23:49:19 | 50.78595 | 17.43027 | 159° | 175km/h | 11232m | 3.1m/s | 0°C | 0% | 0hPa | 0V | 00:00:00 | 00:00:00 | 00:00:00 | |
| SQ6EMJ | 2026-09-03 23:49:13 | 50.78849 | 17.42852 | 159° | 183km/h | 11198m | 7.4m/s | 0°C | 0% | 0hPa | 0V | 00:00:00 | 00:00:00 | 00:00:00 | |
| SP3BTT-10 | 2026-09-03 23:49:06 | 50.79144 | 17.42663 | 156° | 170km/h | 11161m | 3.0m/s | 0°C | 0% | 0hPa | 0V | 00:00:00 | 00:00:00 | 00:00:00 | |
| POL1PZ | 2026-09-03 23:49:04 | 50.79262 | 17.42576 | 156° | 170km/h | 11145m | 9.6m/s | 0°C | 0% | 0hPa | 0V | 00:00:00 | 00:00:00 | 00:00:00 | |
| SQ6EMJ | 2026-09-03 23:49:02 | 50.79301 | 17.42548 | 158° | 175km/h | 11138m | 4.2m/s | 0°C | 0% | 0hPa | 0V | 00:00:00 | 00:00:00 | 00:00:00 | |
| SQ6EMJ | 2026-09-03 23:48:56 | 50.79552 | 17.42375 | 155° | 179km/h | 11104m | 6.6m/s | 0°C | 0% | 0hPa | 0V | 00:00:00 | 00:00:00 | 00:00:00 | |
| SQ6EMJ | 2026-09-03 23:48:50 | 50.79793 | 17.42214 | 161° | 170km/h | 11072m | 3.5m/s | 0°C | 0% | 0hPa | 0V | 00:00:00 | 00:00:00 | 00:00:00 | |
| SQ6EMJ | 2026-09-03 23:48:44 | 50.80030 | 17.42045 | 152° | 177km/h | 11039m | 5.4m/s | 0°C | 0% | 0hPa | 0V | 00:00:00 | 00:00:00 | 00:00:00 | |
| POL1PZ | 2026-09-03 23:48:43 | 50.80071 | 17.42012 | 155° | 179km/h | 11034m | 4.9m/s | 0°C | 0% | 0hPa | 0V | 00:00:00 | 00:00:00 | 00:00:00 | |
| SQ6EMJ | 2026-09-03 23:48:39 | 50.80229 | 17.41900 | 156° | 161km/h | 11013m | 2.4m/s | 0°C | 0% | 0hPa | 0V | 00:00:00 | 00:00:00 | 00:00:00 | |
| SQ6EMJ | 2026-09-03 23:48:33 | 50.80459 | 17.41731 | 154° | 179km/h | 10980m | 5.1m/s | 0°C | 0% | 0hPa | 0V | 00:00:00 | 00:00:00 | 00:00:00 | |
| SQ6EMJ | 2026-09-03 23:48:28 | 50.80649 | 17.41587 | 160° | 159km/h | 10952m | 4.7m/s | 0°C | 0% | 0hPa | 0V | 00:00:00 | 00:00:00 | 00:00:00 | |
| SQ6EMJ | 2026-09-03 23:48:23 | 50.80842 | 17.41436 | 154° | 177km/h | 10926m | 4.8m/s | 0°C | 0% | 0hPa | 0V | 00:00:00 | 00:00:00 | 00:00:00 | |
| POL1PZ | 2026-09-03 23:48:22 | 50.80882 | 17.41406 | 158° | 172km/h | 10921m | 5.8m/s | 0°C | 0% | 0hPa | 0V | 00:00:00 | 00:00:00 | 00:00:00 | |
| OK1ALN | 2026-09-03 23:48:17 | 50.81075 | 17.41279 | 155° | 177km/h | 10894m | 6.9m/s | 0°C | 0% | 0hPa | 0V | 00:00:00 | 00:00:00 | 00:00:00 | |
| SQ6EMJ | 2026-09-03 23:48:12 | 50.81276 | 17.41130 | 153° | 164km/h | 10863m | 7.1m/s | 0°C | 0% | 0hPa | 0V | 00:00:00 | 00:00:00 | 00:00:00 | |
| SQ6EMJ | 2026-09-03 23:48:07 | 50.81466 | 17.40962 | 154° | 177km/h | 10836m | 5.8m/s | 0°C | 0% | 0hPa | 0V | 00:00:00 | 00:00:00 | 00:00:00 | |
| POL1PZ | 2026-09-03 23:48:02 | 50.81660 | 17.40817 | 155° | 161km/h | 10802m | 6.0m/s | 0°C | 0% | 0hPa | 0V | 00:00:00 | 00:00:00 | 00:00:00 | |
| SQ6EMJ | 2026-09-03 23:48:01 | 50.81696 | 17.40787 | 154° | 164km/h | 10797m | 3.2m/s | 0°C | 0% | 0hPa | 0V | 00:00:00 | 00:00:00 | 00:00:00 | |
| SQ6EMJ | 2026-09-03 23:47:56 | 50.81887 | 17.40638 | 154° | 173km/h | 10768m | 7.0m/s | 0°C | 0% | 0hPa | 0V | 00:00:00 | 00:00:00 | 00:00:00 | |
| SP3BTT-10 | 2026-09-03 23:47:53 | 50.81999 | 17.40536 | 148° | 170km/h | 10750m | 4.2m/s | 0°C | 0% | 0hPa | 0V | 00:00:00 | 00:00:00 | 00:00:00 | |
| SQ6EMJ | 2026-09-03 23:47:50 | 50.82113 | 17.40439 | 157° | 168km/h | 10734m | 5.0m/s | 0°C | 0% | 0hPa | 0V | 00:00:00 | 00:00:00 | 00:00:00 | |
| SQ6EMJ | 2026-09-03 23:47:46 | 50.82301 | 17.40300 | 152° | 164km/h | 10706m | 7.8m/s | 0°C | 0% | 0hPa | 0V | 00:00:00 | 00:00:00 | 00:00:00 | |
| POL1PZ | 2026-09-03 23:47:40 | 50.82488 | 17.40131 | 153° | 179km/h | 10677m | 6.2m/s | 0°C | 0% | 0hPa | 0V | 00:00:00 | 00:00:00 | 00:00:00 | |
| SQ6EMJ | 2026-09-03 23:47:35 | 50.82686 | 17.39978 | 154° | 162km/h | 10650m | 5.6m/s | 0°C | 0% | 0hPa | 0V | 00:00:00 | 00:00:00 | 00:00:00 | |
| SQ6EMJ | 2026-09-03 23:47:29 | 50.82907 | 17.39791 | 153° | 164km/h | 10617m | 4.4m/s | 0°C | 0% | 0hPa | 0V | 00:00:00 | 00:00:00 | 00:00:00 | |
| POL1PZ | 2026-09-03 23:47:19 | 50.83289 | 17.39462 | 155° | 172km/h | 10560m | 5.5m/s | 0°C | 0% | 0hPa | 0V | 00:00:00 | 00:00:00 | 00:00:00 | |
| SQ6EMJ | 2026-09-03 23:47:13 | 50.83521 | 17.39287 | 151° | 179km/h | 10530m | 6.4m/s | 0°C | 0% | 0hPa | 0V | 00:00:00 | 00:00:00 | 00:00:00 | |
| SQ6EMJ | 2026-09-03 23:47:09 | 50.83718 | 17.39110 | 155° | 170km/h | 10504m | 5.7m/s | 0°C | 0% | 0hPa | 0V | 00:00:00 | 00:00:00 | 00:00:00 | |
| SQ6EMJ | 2026-09-03 23:47:02 | 50.83944 | 17.38921 | 150° | 172km/h | 10471m | 6.9m/s | 0°C | 0% | 0hPa | 0V | 00:00:00 | 00:00:00 | 00:00:00 | |
| POL1PZ | 2026-09-03 23:46:57 | 50.84136 | 17.38755 | 157° | 173km/h | 10444m | 8.1m/s | 0°C | 0% | 0hPa | 0V | 00:00:00 | 00:00:00 | 00:00:00 | |
| SQ6EMJ | 2026-09-03 23:46:52 | 50.84358 | 17.38568 | 154° | 173km/h | 10412m | 5.5m/s | 0°C | 0% | 0hPa | 0V | 00:00:00 | 00:00:00 | 00:00:00 | |
| SQ6EMJ | 2026-09-03 23:46:46 | 50.84554 | 17.38398 | 149° | 164km/h | 10382m | 4.9m/s | 0°C | 0% | 0hPa | 0V | 00:00:00 | 00:00:00 | 00:00:00 | |
| SQ6EMJ | 2026-09-03 23:46:40 | 50.84776 | 17.38213 | 152° | 181km/h | 10352m | 5.8m/s | 0°C | 0% | 0hPa | 0V | 00:00:00 | 00:00:00 | 00:00:00 | |
| POL1PZ | 2026-09-03 23:46:36 | 50.84930 | 17.38075 | 150° | 166km/h | 10330m | 4.8m/s | 0°C | 0% | 0hPa | 0V | 00:00:00 | 00:00:00 | 00:00:00 | |
| SQ6EMJ | 2026-09-03 23:46:35 | 50.84966 | 17.38041 | 150° | 166km/h | 10326m | 4.5m/s | 0°C | 0% | 0hPa | 0V | 00:00:00 | 00:00:00 | 00:00:00 | |
| SQ6EMJ | 2026-09-03 23:46:29 | 50.85191 | 17.37835 | 155° | 166km/h | 10298m | 5.4m/s | 0°C | 0% | 0hPa | 0V | 00:00:00 | 00:00:00 | 00:00:00 | |
| SQ6EMJ | 2026-09-03 23:46:24 | 50.85378 | 17.37678 | 148° | 164km/h | 10276m | 5.8m/s | 0°C | 0% | 0hPa | 0V | 00:00:00 | 00:00:00 | 00:00:00 | |
| SQ6EMJ | 2026-09-03 23:46:19 | 50.85563 | 17.37514 | 155° | 172km/h | 10251m | 5.4m/s | 0°C | 0% | 0hPa | 0V | 00:00:00 | 00:00:00 | 00:00:00 | |
| POL1PZ | 2026-09-03 23:46:16 | 50.85676 | 17.37410 | 148° | 173km/h | 10238m | 6.5m/s | 0°C | 0% | 0hPa | 0V | 00:00:00 | 00:00:00 | 00:00:00 | |
| SQ6EMJ | 2026-09-03 23:46:13 | 50.85784 | 17.37305 | 151° | 164km/h | 10224m | 4.7m/s | 0°C | 0% | 0hPa | 0V | 00:00:00 | 00:00:00 | 00:00:00 | |
| SQ6EMJ | 2026-09-03 23:46:07 | 50.86014 | 17.37099 | 152° | 175km/h | 10189m | 7.4m/s | 0°C | 0% | 0hPa | 0V | 00:00:00 | 00:00:00 | 00:00:00 | |
| SQ6EMJ | 2026-09-03 23:46:02 | 50.86200 | 17.36929 | 147° | 172km/h | 10160m | 3.6m/s | 0°C | 0% | 0hPa | 0V | 00:00:00 | 00:00:00 | 00:00:00 | |
| SQ6EMJ | 2026-09-03 23:45:56 | 50.86419 | 17.36707 | 151° | 168km/h | 10127m | 5.3m/s | 0°C | 0% | 0hPa | 0V | 00:00:00 | 00:00:00 | 00:00:00 | |
| POL1PZ | 2026-09-03 23:45:55 | 50.86456 | 17.36673 | 151° | 170km/h | 10121m | 6.1m/s | 0°C | 0% | 0hPa | 0V | 00:00:00 | 00:00:00 | 00:00:00 | |
| SQ6EMJ | 2026-09-03 23:45:51 | 50.86605 | 17.36529 | 147° | 173km/h | 10100m | 5.2m/s | 0°C | 0% | 0hPa | 0V | 00:00:00 | 00:00:00 | 00:00:00 | |
| SP3BTT-10 | 2026-09-03 23:45:47 | 50.86751 | 17.36383 | 150° | 150km/h | 10080m | 5.0m/s | 0°C | 0% | 0hPa | 0V | 00:00:00 | 00:00:00 | 00:00:00 | |
| SQ6EMJ | 2026-09-03 23:45:45 | 50.86822 | 17.36318 | 151° | 168km/h | 10067m | 6.7m/s | 0°C | 0% | 0hPa | 0V | 00:00:00 | 00:00:00 | 00:00:00 | |
| SQ6EMJ | 2026-09-03 23:45:39 | 50.87043 | 17.36107 | 151° | 159km/h | 10031m | 3.1m/s | 0°C | 0% | 0hPa | 0V | 00:00:00 | 00:00:00 | 00:00:00 | |
| POL1PZ | 2026-09-03 23:45:35 | 50.87189 | 17.35973 | 148° | 173km/h | 10014m | 5.3m/s | 0°C | 0% | 0hPa | 0V | 00:00:00 | 00:00:00 | 00:00:00 | |
| SQ6EMJ | 2026-09-03 23:45:34 | 50.87260 | 17.35898 | 146° | 164km/h | 10004m | 6.0m/s | 0°C | 0% | 0hPa | 0V | 00:00:00 | 00:00:00 | 00:00:00 | |
| SQ6EMJ | 2026-09-03 23:45:28 | 50.87434 | 17.35724 | 150° | 175km/h | 9983m | 5.1m/s | 0°C | 0% | 0hPa | 0V | 00:00:00 | 00:00:00 | 00:00:00 | |
| SQ6EMJ | 2026-09-03 23:45:22 | 50.87656 | 17.35496 | 144° | 166km/h | 9957m | 4.8m/s | 0°C | 0% | 0hPa | 0V | 00:00:00 | 00:00:00 | 00:00:00 | |
| SQ6EMJ | 2026-09-03 23:45:17 | 50.87832 | 17.35330 | 153° | 168km/h | 9934m | 6.5m/s | 0°C | 0% | 0hPa | 0V | 00:00:00 | 00:00:00 | 00:00:00 | |
| POL1PZ | 2026-09-03 23:45:14 | 50.87943 | 17.35218 | 146° | 175km/h | 9919m | 5.8m/s | 0°C | 0% | 0hPa | 0V | 00:00:00 | 00:00:00 | 00:00:00 | |
| SQ6EMJ | 2026-09-03 23:45:11 | 50.88054 | 17.35109 | 152° | 170km/h | 9906m | 4.7m/s | 0°C | 0% | 0hPa | 0V | 00:00:00 | 00:00:00 | 00:00:00 | |
| SQ6EMJ | 2026-09-03 23:45:05 | 50.88269 | 17.34895 | 149° | 164km/h | 9880m | 2.5m/s | 0°C | 0% | 0hPa | 0V | 00:00:00 | 00:00:00 | 00:00:00 | |
| SQ6EMJ | 2026-09-03 23:45:00 | 50.88439 | 17.34728 | 153° | 157km/h | 9853m | 2.5m/s | 0°C | 0% | 0hPa | 0V | 00:00:00 | 00:00:00 | 00:00:00 | |
| POL1PZ | 2026-09-03 23:44:54 | 50.88656 | 17.34527 | 146° | 157km/h | 9819m | 5.1m/s | 0°C | 0% | 0hPa | 0V | 00:00:00 | 00:00:00 | 00:00:00 | |
| SQ6EMJ | 2026-09-03 23:44:48 | 50.88860 | 17.34340 | 151° | 159km/h | 9787m | 5.0m/s | 0°C | 0% | 0hPa | 0V | 00:00:00 | 00:00:00 | 00:00:00 | |
| SQ6EMJ | 2026-09-03 23:44:43 | 50.89037 | 17.34186 | 154° | 159km/h | 9762m | 4.0m/s | 0°C | 0% | 0hPa | 0V | 00:00:00 | 00:00:00 | 00:00:00 | |
| SQ6EMJ | 2026-09-03 23:44:37 | 50.89239 | 17.33991 | 147° | 151km/h | 9727m | 5.7m/s | 0°C | 0% | 0hPa | 0V | 00:00:00 | 00:00:00 | 00:00:00 | |
| POL1PZ | 2026-09-03 23:44:34 | 50.89339 | 17.33897 | 152° | 159km/h | 9714m | 6.1m/s | 0°C | 0% | 0hPa | 0V | 00:00:00 | 00:00:00 | 00:00:00 | |
| SQ6EMJ | 2026-09-03 23:44:31 | 50.89446 | 17.33799 | 150° | 162km/h | 9697m | 7.6m/s | 0°C | 0% | 0hPa | 0V | 00:00:00 | 00:00:00 | 00:00:00 | |
| SQ6EMJ | 2026-09-03 23:44:26 | 50.89612 | 17.33631 | 150° | 161km/h | 9671m | 7.7m/s | 0°C | 0% | 0hPa | 0V | 00:00:00 | 00:00:00 | 00:00:00 | |
| SQ6EMJ | 2026-09-03 23:44:20 | 50.89821 | 17.33440 | 148° | 151km/h | 9640m | 4.7m/s | 0°C | 0% | 0hPa | 0V | 00:00:00 | 00:00:00 | 00:00:00 | |
| SQ6EMJ | 2026-09-03 23:44:14 | 50.90021 | 17.33264 | 151° | 155km/h | 9608m | 4.3m/s | 0°C | 0% | 0hPa | 0V | 00:00:00 | 00:00:00 | 00:00:00 | |
| POL1PZ | 2026-09-03 23:44:13 | 50.90055 | 17.33232 | 148° | 155km/h | 9603m | 5.9m/s | 0°C | 0% | 0hPa | 0V | 00:00:00 | 00:00:00 | 00:00:00 | |
| SQ6EMJ | 2026-09-03 23:44:09 | 50.90191 | 17.33092 | 152° | 161km/h | 9583m | 6.9m/s | 0°C | 0% | 0hPa | 0V | 00:00:00 | 00:00:00 | 00:00:00 | |
| SQ6EMJ | 2026-09-03 23:44:03 | 50.90387 | 17.32903 | 146° | 148km/h | 9553m | 5.8m/s | 0°C | 0% | 0hPa | 0V | 00:00:00 | 00:00:00 | 00:00:00 | |
| SQ6EMJ | 2026-09-03 23:43:58 | 50.90540 | 17.32752 | 154° | 150km/h | 9526m | 7.1m/s | 0°C | 0% | 0hPa | 0V | 00:00:00 | 00:00:00 | 00:00:00 | |
| SQ6EMJ | 2026-09-03 23:43:53 | 50.90702 | 17.32589 | 145° | 150km/h | 9499m | 3.5m/s | 0°C | 0% | 0hPa | 0V | 00:00:00 | 00:00:00 | 00:00:00 | |
| POL1PZ | 2026-09-03 23:43:52 | 50.90732 | 17.32555 | 147° | 142km/h | 9495m | 5.5m/s | 0°C | 0% | 0hPa | 0V | 00:00:00 | 00:00:00 | 00:00:00 | |
| SQ6EMJ | 2026-09-03 23:43:47 | 50.90890 | 17.32407 | 147° | 148km/h | 9476m | 7.5m/s | 0°C | 0% | 0hPa | 0V | 00:00:00 | 00:00:00 | 00:00:00 | |
| SQ6EMJ | 2026-09-03 23:43:41 | 50.91079 | 17.32201 | 151° | 151km/h | 9449m | 4.3m/s | 0°C | 0% | 0hPa | 0V | 00:00:00 | 00:00:00 | 00:00:00 | |
| SQ6EMJ | 2026-09-03 23:43:35 | 50.91268 | 17.32018 | 151° | 155km/h | 9418m | 3.5m/s | 0°C | 0% | 0hPa | 0V | 00:00:00 | 00:00:00 | 00:00:00 | |
| POL1PZ | 2026-09-03 23:43:31 | 50.91394 | 17.31884 | 146° | 144km/h | 9396m | 6.7m/s | 0°C | 0% | 0hPa | 0V | 00:00:00 | 00:00:00 | 00:00:00 | |
| SQ6EMJ | 2026-09-03 23:43:30 | 50.91424 | 17.31852 | 148° | 141km/h | 9391m | 3.0m/s | 0°C | 0% | 0hPa | 0V | 00:00:00 | 00:00:00 | 00:00:00 | |
| SQ6EMJ | 2026-09-03 23:43:24 | 50.91609 | 17.31651 | 144° | 150km/h | 9360m | 4.9m/s | 0°C | 0% | 0hPa | 0V | 00:00:00 | 00:00:00 | 00:00:00 | |
| SQ6EMJ | 2026-09-03 23:43:18 | 50.91785 | 17.31449 | 142° | 153km/h | 9326m | 6.3m/s | 0°C | 0% | 0hPa | 0V | 00:00:00 | 00:00:00 | 00:00:00 | |
| SQ6EMJ | 2026-09-03 23:43:13 | 50.91939 | 17.31268 | 145° | 142km/h | 9300m | 5.3m/s | 0°C | 0% | 0hPa | 0V | 00:00:00 | 00:00:00 | 00:00:00 | |
| POL1PZ | 2026-09-03 23:43:11 | 50.91996 | 17.31203 | 147° | 135km/h | 9291m | 7.9m/s | 0°C | 0% | 0hPa | 0V | 00:00:00 | 00:00:00 | 00:00:00 | |
| SQ6EMJ | 2026-09-03 23:43:08 | 50.92087 | 17.31112 | 149° | 148km/h | 9273m | 7.3m/s | 0°C | 0% | 0hPa | 0V | 00:00:00 | 00:00:00 | 00:00:00 | |
| SQ6EMJ | 2026-09-03 23:43:02 | 50.92259 | 17.30898 | 146° | 141km/h | 9241m | 5.8m/s | 0°C | 0% | 0hPa | 0V | 00:00:00 | 00:00:00 | 00:00:00 | |
| SQ6EMJ | 2026-09-03 23:42:57 | 50.92416 | 17.30731 | 143° | 148km/h | 9216m | 5.4m/s | 0°C | 0% | 0hPa | 0V | 00:00:00 | 00:00:00 | 00:00:00 | |
| SQ6EMJ | 2026-09-03 23:42:51 | 50.92586 | 17.30528 | 144° | 150km/h | 9189m | 3.8m/s | 0°C | 0% | 0hPa | 0V | 00:00:00 | 00:00:00 | 00:00:00 | |
| POL1PZ | 2026-09-03 23:42:50 | 50.92617 | 17.30491 | 143° | 157km/h | 9184m | 4.9m/s | 0°C | 0% | 0hPa | 0V | 00:00:00 | 00:00:00 | 00:00:00 | |
| SQ6EMJ | 2026-09-03 23:42:46 | 50.92738 | 17.30343 | 144° | 135km/h | 9166m | 5.2m/s | 0°C | 0% | 0hPa | 0V | 00:00:00 | 00:00:00 | 00:00:00 | |
| SQ6EMJ | 2026-09-03 23:42:40 | 50.92906 | 17.30138 | 145° | 142km/h | 9128m | 5.3m/s | 0°C | 0% | 0hPa | 0V | 00:00:00 | 00:00:00 | 00:00:00 | |
| SQ6EMJ | 2026-09-03 23:42:35 | 50.93048 | 17.29967 | 142° | 142km/h | 9097m | 5.5m/s | 0°C | 0% | 0hPa | 0V | 00:00:00 | 00:00:00 | 00:00:00 | |
| POL1PZ | 2026-09-03 23:42:30 | 50.93196 | 17.29793 | 145° | 142km/h | 9067m | 5.4m/s | 0°C | 0% | 0hPa | 0V | 00:00:00 | 00:00:00 | 00:00:00 | |
| SQ6EMJ | 2026-09-03 23:42:29 | 50.93225 | 17.29759 | 145° | 141km/h | 9061m | 6.2m/s | 0°C | 0% | 0hPa | 0V | 00:00:00 | 00:00:00 | 00:00:00 | |
| SQ6EMJ | 2026-09-03 23:42:24 | 50.93365 | 17.29603 | 144° | 130km/h | 9031m | 3.6m/s | 0°C | 0% | 0hPa | 0V | 00:00:00 | 00:00:00 | 00:00:00 | |
| SQ6EMJ | 2026-09-03 23:42:19 | 50.93508 | 17.29423 | 146° | 153km/h | 9006m | 3.5m/s | 0°C | 0% | 0hPa | 0V | 00:00:00 | 00:00:00 | 00:00:00 | |
| SQ6EMJ | 2026-09-03 23:42:13 | 50.93678 | 17.29236 | 143° | 131km/h | 8980m | 6.1m/s | 0°C | 0% | 0hPa | 0V | 00:00:00 | 00:00:00 | 00:00:00 | |
| SQ6EMJ | 2026-09-03 23:42:09 | 50.93808 | 17.29060 | 146° | 142km/h | 8953m | 5.6m/s | 0°C | 0% | 0hPa | 0V | 00:00:00 | 00:00:00 | 00:00:00 | |
| SQ6EMJ | 2026-09-03 23:42:02 | 50.93985 | 17.28857 | 139° | 144km/h | 8917m | 6.2m/s | 0°C | 0% | 0hPa | 0V | 00:00:00 | 00:00:00 | 00:00:00 | |
| SQ6EMJ | 2026-09-03 23:41:56 | 50.94143 | 17.28649 | 143° | 135km/h | 8881m | 5.3m/s | 0°C | 0% | 0hPa | 0V | 00:00:00 | 00:00:00 | 00:00:00 | |
| SQ6EMJ | 2026-09-03 23:41:50 | 50.94313 | 17.28433 | 143° | 141km/h | 8846m | 5.0m/s | 0°C | 0% | 0hPa | 0V | 00:00:00 | 00:00:00 | 00:00:00 | |
| POL1PZ | 2026-09-03 23:41:49 | 50.94342 | 17.28399 | 145° | 137km/h | 8840m | 7.0m/s | 0°C | 0% | 0hPa | 0V | 00:00:00 | 00:00:00 | 00:00:00 | |
| SQ6EMJ | 2026-09-03 23:41:44 | 50.94477 | 17.28246 | 143° | 141km/h | 8810m | 6.8m/s | 0°C | 0% | 0hPa | 0V | 00:00:00 | 00:00:00 | 00:00:00 | |
| SQ6EMJ | 2026-09-03 23:41:33 | 50.94793 | 17.27876 | 142° | 148km/h | 8745m | 4.6m/s | 0°C | 0% | 0hPa | 0V | 00:00:00 | 00:00:00 | 00:00:00 | |
| SQ6EMJ | 2026-09-03 23:41:27 | 50.94952 | 17.27680 | 140° | 141km/h | 8710m | 4.2m/s | 0°C | 0% | 0hPa | 0V | 00:00:00 | 00:00:00 | 00:00:00 | |
| POL1PZ | 2026-09-03 23:41:25 | 50.95010 | 17.27606 | 143° | 151km/h | 8701m | 3.1m/s | 0°C | 0% | 0hPa | 0V | 00:00:00 | 00:00:00 | 00:00:00 | |
| SQ6EMJ | 2026-09-03 23:41:21 | 50.95119 | 17.27469 | 144° | 130km/h | 8680m | 4.5m/s | 0°C | 0% | 0hPa | 0V | 00:00:00 | 00:00:00 | 00:00:00 | |
| SQ6EMJ | 2026-09-03 23:41:15 | 50.95290 | 17.27290 | 144° | 131km/h | 8647m | 6.4m/s | 0°C | 0% | 0hPa | 0V | 00:00:00 | 00:00:00 | 00:00:00 | |
| SQ6EMJ | 2026-09-03 23:41:09 | 50.95450 | 17.27084 | 149° | 137km/h | 8616m | 6.7m/s | 0°C | 0% | 0hPa | 0V | 00:00:00 | 00:00:00 | 00:00:00 | |
| SQ6EMJ | 2026-09-03 23:41:04 | 50.95610 | 17.26886 | 139° | 139km/h | 8585m | 4.9m/s | 0°C | 0% | 0hPa | 0V | 00:00:00 | 00:00:00 | 00:00:00 | |
| POL1PZ | 2026-09-03 23:41:03 | 50.95610 | 17.26886 | 139° | 139km/h | 8585m | 4.9m/s | 0°C | 0% | 0hPa | 0V | 00:00:00 | 00:00:00 | 00:00:00 | |
| SQ6EMJ | 2026-09-03 23:40:58 | 50.95743 | 17.26728 | 144° | 130km/h | 8554m | 5.7m/s | 0°C | 0% | 0hPa | 0V | 00:00:00 | 00:00:00 | 00:00:00 | |
| SQ6EMJ | 2026-09-03 23:40:52 | 50.95900 | 17.26535 | 151° | 124km/h | 8522m | 4.2m/s | 0°C | 0% | 0hPa | 0V | 00:00:00 | 00:00:00 | 00:00:00 | |
| SQ6EMJ | 2026-09-03 23:40:46 | 50.96056 | 17.26342 | 141° | 131km/h | 8490m | 4.9m/s | 0°C | 0% | 0hPa | 0V | 00:00:00 | 00:00:00 | 00:00:00 | |
| POL1PZ | 2026-09-03 23:40:42 | 50.96160 | 17.26219 | 147° | 135km/h | 8465m | 4.2m/s | 0°C | 0% | 0hPa | 0V | 00:00:00 | 00:00:00 | 00:00:00 | |
| SQ6EMJ | 2026-09-03 23:40:36 | 50.96318 | 17.26030 | 143° | 133km/h | 8427m | 5.3m/s | 0°C | 0% | 0hPa | 0V | 00:00:00 | 00:00:00 | 00:00:00 | |
| SQ6EMJ | 2026-09-03 23:40:29 | 50.96511 | 17.25806 | 150° | 130km/h | 8384m | 7.1m/s | 0°C | 0% | 0hPa | 0V | 00:00:00 | 00:00:00 | 00:00:00 | |
| SQ6EMJ | 2026-09-03 23:40:24 | 50.96675 | 17.25612 | 147° | 139km/h | 8346m | 4.0m/s | 0°C | 0% | 0hPa | 0V | 00:00:00 | 00:00:00 | 00:00:00 | |
| POL1PZ | 2026-09-03 23:40:21 | 50.96733 | 17.25551 | 148° | 135km/h | 8334m | 6.6m/s | 0°C | 0% | 0hPa | 0V | 00:00:00 | 00:00:00 | 00:00:00 | |
| SQ6EMJ | 2026-09-03 23:40:18 | 50.96817 | 17.25464 | 145° | 126km/h | 8318m | 9.3m/s | 0°C | 0% | 0hPa | 0V | 00:00:00 | 00:00:00 | 00:00:00 | |
| SQ6EMJ | 2026-09-03 23:40:12 | 50.96964 | 17.25276 | 148° | 130km/h | 8280m | 4.8m/s | 0°C | 0% | 0hPa | 0V | 00:00:00 | 00:00:00 | 00:00:00 | |
| SQ6EMJ | 2026-09-03 23:40:08 | 50.97103 | 17.25109 | 146° | 141km/h | 8245m | 7.5m/s | 0°C | 0% | 0hPa | 0V | 00:00:00 | 00:00:00 | 00:00:00 | |
| SQ6EMJ | 2026-09-03 23:40:02 | 50.97251 | 17.24949 | 141° | 135km/h | 8211m | 7.8m/s | 0°C | 0% | 0hPa | 0V | 00:00:00 | 00:00:00 | 00:00:00 | |
| POL1PZ | 2026-09-03 23:40:00 | 50.97299 | 17.24883 | 140° | 115km/h | 8196m | 4.0m/s | 0°C | 0% | 0hPa | 0V | 00:00:00 | 00:00:00 | 00:00:00 | |
| SQ6EMJ | 2026-09-03 23:39:57 | 50.97373 | 17.24792 | 146° | 141km/h | 8177m | 6.7m/s | 0°C | 0% | 0hPa | 0V | 00:00:00 | 00:00:00 | 00:00:00 | |
| SQ6EMJ | 2026-09-03 23:39:51 | 50.97538 | 17.24599 | 142° | 124km/h | 8135m | 5.1m/s | 0°C | 0% | 0hPa | 0V | 00:00:00 | 00:00:00 | 00:00:00 | |
| SQ6EMJ | 2026-09-03 23:39:39 | 50.97865 | 17.24210 | 146° | 133km/h | 8066m | 5.5m/s | 0°C | 0% | 0hPa | 0V | 00:00:00 | 00:00:00 | 00:00:00 | |
| POL1PZ | 2026-09-03 23:39:33 | 50.98029 | 17.24023 | 145° | 141km/h | 8029m | 3.1m/s | 0°C | 0% | 0hPa | 0V | 00:00:00 | 00:00:00 | 00:00:00 | |
| SQ6EMJ | 2026-09-03 23:39:27 | 50.98180 | 17.23827 | 144° | 131km/h | 7991m | 4.3m/s | 0°C | 0% | 0hPa | 0V | 00:00:00 | 00:00:00 | 00:00:00 | |
| SQ6EMJ | 2026-09-03 23:39:21 | 50.98336 | 17.23638 | 144° | 137km/h | 7949m | 8.4m/s | 0°C | 0% | 0hPa | 0V | 00:00:00 | 00:00:00 | 00:00:00 | |
| SQ6EMJ | 2026-09-03 23:39:15 | 50.98489 | 17.23446 | 147° | 133km/h | 7913m | 7.4m/s | 0°C | 0% | 0hPa | 0V | 00:00:00 | 00:00:00 | 00:00:00 | |
| POL1PZ | 2026-09-03 23:39:13 | 50.98541 | 17.23384 | 142° | 128km/h | 7899m | 6.9m/s | 0°C | 0% | 0hPa | 0V | 00:00:00 | 00:00:00 | 00:00:00 | |
| SQ6EMJ | 2026-09-03 23:39:09 | 50.98642 | 17.23240 | 144° | 133km/h | 7878m | 4.3m/s | 0°C | 0% | 0hPa | 0V | 00:00:00 | 00:00:00 | 00:00:00 | |
| SQ6EMJ | 2026-09-03 23:39:04 | 50.98768 | 17.23103 | 142° | 126km/h | 7852m | 5.3m/s | 0°C | 0% | 0hPa | 0V | 00:00:00 | 00:00:00 | 00:00:00 | |
| SQ6EMJ | 2026-09-03 23:38:59 | 50.98924 | 17.22899 | 146° | 124km/h | 7812m | 6.3m/s | 0°C | 0% | 0hPa | 0V | 00:00:00 | 00:00:00 | 00:00:00 | |
| POL1PZ | 2026-09-03 23:38:52 | 50.99078 | 17.22701 | 147° | 124km/h | 7775m | 5.4m/s | 0°C | 0% | 0hPa | 0V | 00:00:00 | 00:00:00 | 00:00:00 | |
| SQ6EMJ | 2026-09-03 23:38:40 | 50.99386 | 17.22392 | 138° | 120km/h | 7703m | 6.8m/s | 0°C | 0% | 0hPa | 0V | 00:00:00 | 00:00:00 | 00:00:00 | |
| SQ6EMJ | 2026-09-03 23:38:34 | 50.99522 | 17.22195 | 141° | 117km/h | 7667m | 6.4m/s | 0°C | 0% | 0hPa | 0V | 00:00:00 | 00:00:00 | 00:00:00 | |
| POL1PZ | 2026-09-03 23:38:29 | 50.99647 | 17.22054 | 149° | 131km/h | 7636m | 2.6m/s | 0°C | 0% | 0hPa | 0V | 00:00:00 | 00:00:00 | 00:00:00 | |
| SQ6EMJ | 2026-09-03 23:38:28 | 50.99674 | 17.22027 | 148° | 124km/h | 7633m | 2.5m/s | 0°C | 0% | 0hPa | 0V | 00:00:00 | 00:00:00 | 00:00:00 | |
| SQ6EMJ | 2026-09-03 23:38:22 | 50.99830 | 17.21870 | 144° | 131km/h | 7592m | 5.3m/s | 0°C | 0% | 0hPa | 0V | 00:00:00 | 00:00:00 | 00:00:00 | |
| SQ6EMJ | 2026-09-03 23:38:17 | 50.99947 | 17.21719 | 141° | 100km/h | 7567m | 6.4m/s | 0°C | 0% | 0hPa | 0V | 00:00:00 | 00:00:00 | 00:00:00 | |
| SQ6EMJ | 2026-09-03 23:38:10 | 51.00108 | 17.21504 | 143° | 126km/h | 7524m | 6.4m/s | 0°C | 0% | 0hPa | 0V | 00:00:00 | 00:00:00 | 00:00:00 | |
| POL1PZ | 2026-09-03 23:38:09 | 51.00133 | 17.21473 | 142° | 124km/h | 7519m | 6.1m/s | 0°C | 0% | 0hPa | 0V | 00:00:00 | 00:00:00 | 00:00:00 | |
| SQ6EMJ | 2026-09-03 23:38:00 | 51.00315 | 17.21244 | 144° | 122km/h | 7465m | 6.1m/s | 0°C | 0% | 0hPa | 0V | 00:00:00 | 00:00:00 | 00:00:00 | |
| SQ6EMJ | 2026-09-03 23:37:53 | 51.00463 | 17.21050 | 134° | 108km/h | 7422m | 6.4m/s | 0°C | 0% | 0hPa | 0V | 00:00:00 | 00:00:00 | 00:00:00 | |
| POL1PZ | 2026-09-03 23:37:49 | 51.00532 | 17.20931 | 138° | 100km/h | 7393m | 5.6m/s | 0°C | 0% | 0hPa | 0V | 00:00:00 | 00:00:00 | 00:00:00 | |
| SQ6EMJ | 2026-09-03 23:37:47 | 51.00573 | 17.20873 | 141° | 113km/h | 7380m | 5.4m/s | 0°C | 0% | 0hPa | 0V | 00:00:00 | 00:00:00 | 00:00:00 | |
| SQ6EMJ | 2026-09-03 23:37:41 | 51.00686 | 17.20694 | 138° | 95km/h | 7342m | 5.6m/s | 0°C | 0% | 0hPa | 0V | 00:00:00 | 00:00:00 | 00:00:00 | |
| SQ6EMJ | 2026-09-03 23:37:36 | 51.00783 | 17.20550 | 133° | 110km/h | 7311m | 6.0m/s | 0°C | 0% | 0hPa | 0V | 00:00:00 | 00:00:00 | 00:00:00 | |
| SQ6EMJ | 2026-09-03 23:37:31 | 51.00874 | 17.20383 | 136° | 124km/h | 7280m | 5.7m/s | 0°C | 0% | 0hPa | 0V | 00:00:00 | 00:00:00 | 00:00:00 | |
| POL1PZ | 2026-09-03 23:37:28 | 51.00942 | 17.20283 | 139° | 115km/h | 7263m | 5.4m/s | 0°C | 0% | 0hPa | 0V | 00:00:00 | 00:00:00 | 00:00:00 | |
| SQ6EMJ | 2026-09-03 23:37:25 | 51.01003 | 17.20194 | 136° | 113km/h | 7246m | 3.3m/s | 0°C | 0% | 0hPa | 0V | 00:00:00 | 00:00:00 | 00:00:00 | |
| SQ6EMJ | 2026-09-03 23:37:19 | 51.01115 | 17.19997 | 130° | 119km/h | 7209m | 5.6m/s | 0°C | 0% | 0hPa | 0V | 00:00:00 | 00:00:00 | 00:00:00 | |
| SQ6EMJ | 2026-09-03 23:37:15 | 51.01213 | 17.19817 | 134° | 113km/h | 7184m | 3.0m/s | 0°C | 0% | 0hPa | 0V | 00:00:00 | 00:00:00 | 00:00:00 | |
| SQ6EMJ | 2026-09-03 23:37:09 | 51.01322 | 17.19672 | 143° | 108km/h | 7156m | 4.3m/s | 0°C | 0% | 0hPa | 0V | 00:00:00 | 00:00:00 | 00:00:00 | |
| POL1PZ | 2026-09-03 23:37:05 | 51.01404 | 17.19553 | 133° | 120km/h | 7134m | 8.0m/s | 0°C | 0% | 0hPa | 0V | 00:00:00 | 00:00:00 | 00:00:00 | |
| SQ6EMJ | 2026-09-03 23:37:04 | 51.01423 | 17.19515 | 130° | 124km/h | 7126m | 8.1m/s | 0°C | 0% | 0hPa | 0V | 00:00:00 | 00:00:00 | 00:00:00 | |
| SQ6EMJ | 2026-09-03 23:36:58 | 51.01542 | 17.19293 | 136° | 108km/h | 7089m | 8.5m/s | 0°C | 0% | 0hPa | 0V | 00:00:00 | 00:00:00 | 00:00:00 | |
| SQ6EMJ | 2026-09-03 23:36:52 | 51.01674 | 17.19081 | 134° | 130km/h | 7057m | 4.8m/s | 0°C | 0% | 0hPa | 0V | 00:00:00 | 00:00:00 | 00:00:00 | |
| SQ6EMJ | 2026-09-03 23:36:46 | 51.01794 | 17.18876 | 134° | 122km/h | 7022m | 3.5m/s | 0°C | 0% | 0hPa | 0V | 00:00:00 | 00:00:00 | 00:00:00 | |
| POL1PZ | 2026-09-03 23:36:42 | 51.01895 | 17.18740 | 141° | 135km/h | 7004m | 1.4m/s | 0°C | 0% | 0hPa | 0V | 00:00:00 | 00:00:00 | 00:00:00 | |
| SQ6EMJ | 2026-09-03 23:36:41 | 51.01920 | 17.18704 | 135° | 130km/h | 7000m | 5.8m/s | 0°C | 0% | 0hPa | 0V | 00:00:00 | 00:00:00 | 00:00:00 | |
| SQ6EMJ | 2026-09-03 23:36:36 | 51.02027 | 17.18534 | 145° | 115km/h | 6963m | 4.1m/s | 0°C | 0% | 0hPa | 0V | 00:00:00 | 00:00:00 | 00:00:00 | |
| SQ6EMJ | 2026-09-03 23:36:30 | 51.02156 | 17.18337 | 133° | 128km/h | 6929m | 6.3m/s | 0°C | 0% | 0hPa | 0V | 00:00:00 | 00:00:00 | 00:00:00 | |
| SQ6EMJ | 2026-09-03 23:36:25 | 51.02271 | 17.18149 | 131° | 130km/h | 6898m | 3.9m/s | 0°C | 0% | 0hPa | 0V | 00:00:00 | 00:00:00 | 00:00:00 | |
| POL1PZ | 2026-09-03 23:36:22 | 51.02339 | 17.18033 | 140° | 133km/h | 6881m | 6.7m/s | 0°C | 0% | 0hPa | 0V | 00:00:00 | 00:00:00 | 00:00:00 | |
| SQ6EMJ | 2026-09-03 23:36:20 | 51.02419 | 17.17933 | 145° | 131km/h | 6858m | 8.1m/s | 0°C | 0% | 0hPa | 0V | 00:00:00 | 00:00:00 | 00:00:00 | |
| SQ6EMJ | 2026-09-03 23:36:13 | 51.02542 | 17.17746 | 132° | 110km/h | 6822m | 3.9m/s | 0°C | 0% | 0hPa | 0V | 00:00:00 | 00:00:00 | 00:00:00 | |
| SQ6EMJ | 2026-09-03 23:36:07 | 51.02671 | 17.17565 | 138° | 122km/h | 6783m | 7.9m/s | 0°C | 0% | 0hPa | 0V | 00:00:00 | 00:00:00 | 00:00:00 | |
| SQ6EMJ | 2026-09-03 23:36:01 | 51.02797 | 17.17358 | 138° | 117km/h | 6745m | 6.6m/s | 0°C | 0% | 0hPa | 0V | 00:00:00 | 00:00:00 | 00:00:00 | |
| POL1PZ | 2026-09-03 23:36:00 | 51.02818 | 17.17329 | 141° | 102km/h | 6738m | 6.1m/s | 0°C | 0% | 0hPa | 0V | 00:00:00 | 00:00:00 | 00:00:00 | |
| SQ6EMJ | 2026-09-03 23:35:56 | 51.02903 | 17.17213 | 139° | 130km/h | 6714m | 6.2m/s | 0°C | 0% | 0hPa | 0V | 00:00:00 | 00:00:00 | 00:00:00 | |
| SQ6EMJ | 2026-09-03 23:35:50 | 51.03040 | 17.17025 | 147° | 102km/h | 6679m | 4.6m/s | 0°C | 0% | 0hPa | 0V | 00:00:00 | 00:00:00 | 00:00:00 | |
| SQ6EMJ | 2026-09-03 23:35:44 | 51.03163 | 17.16853 | 129° | 117km/h | 6647m | 4.7m/s | 0°C | 0% | 0hPa | 0V | 00:00:00 | 00:00:00 | 00:00:00 | |
| SQ6EMJ | 2026-09-03 23:35:39 | 51.03245 | 17.16687 | 134° | 97km/h | 6621m | 6.7m/s | 0°C | 0% | 0hPa | 0V | 00:00:00 | 00:00:00 | 00:00:00 | |
| POL1PZ | 2026-09-03 23:35:37 | 51.03282 | 17.16635 | 141° | 106km/h | 6608m | 7.8m/s | 0°C | 0% | 0hPa | 0V | 00:00:00 | 00:00:00 | 00:00:00 | |
| SQ6EMJ | 2026-09-03 23:35:33 | 51.03374 | 17.16505 | 140° | 119km/h | 6581m | 6.4m/s | 0°C | 0% | 0hPa | 0V | 00:00:00 | 00:00:00 | 00:00:00 | |
| SQ6EMJ | 2026-09-03 23:35:27 | 51.03492 | 17.16333 | 142° | 120km/h | 6547m | 7.2m/s | 0°C | 0% | 0hPa | 0V | 00:00:00 | 00:00:00 | 00:00:00 | |
| SQ6EMJ | 2026-09-03 23:35:22 | 51.03620 | 17.16158 | 137° | 97km/h | 6512m | 4.3m/s | 0°C | 0% | 0hPa | 0V | 00:00:00 | 00:00:00 | 00:00:00 | |
| POL1PZ | 2026-09-03 23:35:16 | 51.03706 | 17.15992 | 122° | 117km/h | 6483m | 5.3m/s | 0°C | 0% | 0hPa | 0V | 00:00:00 | 00:00:00 | 00:00:00 | |
| SQ6EMJ | 2026-09-03 23:35:10 | 51.03836 | 17.15781 | 138° | 126km/h | 6446m | 6.6m/s | 0°C | 0% | 0hPa | 0V | 00:00:00 | 00:00:00 | 00:00:00 | |
| SQ6EMJ | 2026-09-03 23:35:05 | 51.03930 | 17.15613 | 133° | 100km/h | 6412m | 5.0m/s | 0°C | 0% | 0hPa | 0V | 00:00:00 | 00:00:00 | 00:00:00 | |
| SQ6EMJ | 2026-09-03 23:34:57 | 51.04080 | 17.15366 | 133° | 111km/h | 6372m | 4.2m/s | 0°C | 0% | 0hPa | 0V | 00:00:00 | 00:00:00 | 00:00:00 | |
| POL1PZ | 2026-09-03 23:34:54 | 51.04147 | 17.15265 | 137° | 126km/h | 6353m | 5.8m/s | 0°C | 0% | 0hPa | 0V | 00:00:00 | 00:00:00 | 00:00:00 | |
| SQ6EMJ | 2026-09-03 23:34:52 | 51.04186 | 17.15195 | 128° | 108km/h | 6340m | 5.7m/s | 0°C | 0% | 0hPa | 0V | 00:00:00 | 00:00:00 | 00:00:00 | |
| SQ6EMJ | 2026-09-03 23:34:45 | 51.04320 | 17.14953 | 129° | 131km/h | 6301m | 4.3m/s | 0°C | 0% | 0hPa | 0V | 00:00:00 | 00:00:00 | 00:00:00 | |
| SQ6EMJ | 2026-09-03 23:34:38 | 51.04425 | 17.14689 | 121° | 115km/h | 6256m | 5.3m/s | 0°C | 0% | 0hPa | 0V | 00:00:00 | 00:00:00 | 00:00:00 | |
| SQ6EMJ | 2026-09-03 23:34:32 | 51.04537 | 17.14488 | 130° | 93km/h | 6221m | 5.1m/s | 0°C | 0% | 0hPa | 0V | 00:00:00 | 00:00:00 | 00:00:00 | |
| POL1PZ | 2026-09-03 23:34:29 | 51.04581 | 17.14383 | 123° | 119km/h | 6204m | 5.2m/s | 0°C | 0% | 0hPa | 0V | 00:00:00 | 00:00:00 | 00:00:00 | |
| SQ6EMJ | 2026-09-03 23:34:26 | 51.04635 | 17.14263 | 130° | 115km/h | 6187m | 4.5m/s | 0°C | 0% | 0hPa | 0V | 00:00:00 | 00:00:00 | 00:00:00 | |
| SQ6EMJ | 2026-09-03 23:34:21 | 51.04733 | 17.14036 | 130° | 122km/h | 6147m | 6.1m/s | 0°C | 0% | 0hPa | 0V | 00:00:00 | 00:00:00 | 00:00:00 | |
| SQ6EMJ | 2026-09-03 23:34:15 | 51.04827 | 17.13877 | 130° | 119km/h | 6120m | 6.1m/s | 0°C | 0% | 0hPa | 0V | 00:00:00 | 00:00:00 | 00:00:00 | |
| SQ6EMJ | 2026-09-03 23:34:10 | 51.04893 | 17.13686 | 125° | 86km/h | 6086m | 5.8m/s | 0°C | 0% | 0hPa | 0V | 00:00:00 | 00:00:00 | 00:00:00 | |
| POL1PZ | 2026-09-03 23:34:07 | 51.04939 | 17.13597 | 128° | 104km/h | 6070m | 6.6m/s | 0°C | 0% | 0hPa | 0V | 00:00:00 | 00:00:00 | 00:00:00 | |
| SQ6EMJ | 2026-09-03 23:34:04 | 51.04981 | 17.13481 | 121° | 113km/h | 6049m | 6.2m/s | 0°C | 0% | 0hPa | 0V | 00:00:00 | 00:00:00 | 00:00:00 | |
| SQ6EMJ | 2026-09-03 23:33:56 | 51.05098 | 17.13176 | 117° | 97km/h | 6004m | 6.6m/s | 0°C | 0% | 0hPa | 0V | 00:00:00 | 00:00:00 | 00:00:00 | |
| SQ6EMJ | 2026-09-03 23:33:51 | 51.05179 | 17.13020 | 128° | 110km/h | 5970m | 5.2m/s | 0°C | 0% | 0hPa | 0V | 00:00:00 | 00:00:00 | 00:00:00 | |
| POL1PZ | 2026-09-03 23:33:46 | 51.05247 | 17.12830 | 127° | 113km/h | 5942m | 6.0m/s | 0°C | 0% | 0hPa | 0V | 00:00:00 | 00:00:00 | 00:00:00 | |
| SQ6EMJ | 2026-09-03 23:33:35 | 51.05400 | 17.12464 | 135° | 95km/h | 5885m | 7.2m/s | 0°C | 0% | 0hPa | 0V | 00:00:00 | 00:00:00 | 00:00:00 | |
| SQ6EMJ | 2026-09-03 23:33:29 | 51.05492 | 17.12261 | 127° | 104km/h | 5845m | 8.3m/s | 0°C | 0% | 0hPa | 0V | 00:00:00 | 00:00:00 | 00:00:00 | |
| POL1PZ | 2026-09-03 23:33:25 | 51.05556 | 17.12150 | 129° | 82km/h | 5822m | 6.0m/s | 0°C | 0% | 0hPa | 0V | 00:00:00 | 00:00:00 | 00:00:00 | |
| SQ6EMJ | 2026-09-03 23:33:16 | 51.05681 | 17.11888 | 139° | 93km/h | 5773m | 4.4m/s | 0°C | 0% | 0hPa | 0V | 00:00:00 | 00:00:00 | 00:00:00 | |
| POL1PZ | 2026-09-03 23:33:04 | 51.05837 | 17.11546 | 136° | 95km/h | 5703m | 3.6m/s | 0°C | 0% | 0hPa | 0V | 00:00:00 | 00:00:00 | 00:00:00 | |
| SQ6EMJ | 2026-09-03 23:32:55 | 51.05951 | 17.11300 | 113° | 88km/h | 5656m | 4.8m/s | 0°C | 0% | 0hPa | 0V | 00:00:00 | 00:00:00 | 00:00:00 | |
| POL1PZ | 2026-09-03 23:32:35 | 51.06184 | 17.10777 | 124° | 95km/h | 5557m | 3.3m/s | 0°C | 0% | 0hPa | 0V | 00:00:00 | 00:00:00 | 00:00:00 | |
| SQ6EMJ | 2026-09-03 23:32:22 | 51.06333 | 17.10450 | 139° | 68km/h | 5492m | 2.7m/s | 0°C | 0% | 0hPa | 0V | 00:00:00 | 00:00:00 | 00:00:00 | |
| SQ6EMJ | 2026-09-03 23:32:16 | 51.06387 | 17.10300 | 109° | 84km/h | 5467m | 2.1m/s | 0°C | 0% | 0hPa | 0V | 00:00:00 | 00:00:00 | 00:00:00 | |
| POL1PZ | 2026-09-03 23:32:13 | 51.06406 | 17.10219 | 120° | 64km/h | 5457m | 3.4m/s | 0°C | 0% | 0hPa | 0V | 00:00:00 | 00:00:00 | 00:00:00 | |
| SQ6EMJ | 2026-09-03 23:32:10 | 51.06441 | 17.10160 | 140° | 75km/h | 5446m | 3.4m/s | 0°C | 0% | 0hPa | 0V | 00:00:00 | 00:00:00 | 00:00:00 | |
| SQ6EMJ | 2026-09-03 23:32:04 | 51.06501 | 17.10024 | 119° | 80km/h | 5423m | 4.9m/s | 0°C | 0% | 0hPa | 0V | 00:00:00 | 00:00:00 | 00:00:00 | |
| SQ6EMJ | 2026-09-03 23:31:59 | 51.06560 | 17.09886 | 126° | 82km/h | 5398m | 1.5m/s | 0°C | 0% | 0hPa | 0V | 00:00:00 | 00:00:00 | 00:00:00 | |
| SQ6EMJ | 2026-09-03 23:31:53 | 51.06642 | 17.09725 | 118° | 93km/h | 5374m | 3.3m/s | 0°C | 0% | 0hPa | 0V | 00:00:00 | 00:00:00 | 00:00:00 | |
| POL1PZ | 2026-09-03 23:31:49 | 51.06681 | 17.09614 | 127° | 60km/h | 5353m | 5.1m/s | 0°C | 0% | 0hPa | 0V | 00:00:00 | 00:00:00 | 00:00:00 | |
| SQ6EMJ | 2026-09-03 23:31:47 | 51.06699 | 17.09574 | 122° | 64km/h | 5343m | 2.5m/s | 0°C | 0% | 0hPa | 0V | 00:00:00 | 00:00:00 | 00:00:00 | |
| SQ6EMJ | 2026-09-03 23:31:38 | 51.06764 | 17.09366 | 116° | 75km/h | 5303m | 5.0m/s | 0°C | 0% | 0hPa | 0V | 00:00:00 | 00:00:00 | 00:00:00 | |
| SQ6EMJ | 2026-09-03 23:31:26 | 51.06883 | 17.09077 | 116° | 82km/h | 5255m | 4.3m/s | 0°C | 0% | 0hPa | 0V | 00:00:00 | 00:00:00 | 00:00:00 | |
| SQ6EMJ | 2026-09-03 23:31:19 | 51.06961 | 17.08899 | 116° | 62km/h | 5221m | 5.6m/s | 0°C | 0% | 0hPa | 0V | 00:00:00 | 00:00:00 | 00:00:00 | |
| SQ6EMJ | 2026-09-03 23:31:12 | 51.07032 | 17.08696 | 125° | 95km/h | 5184m | 2.8m/s | 0°C | 0% | 0hPa | 0V | 00:00:00 | 00:00:00 | 00:00:00 | |
| SQ6EMJ | 2026-09-03 23:30:48 | 51.07276 | 17.08097 | 132° | 62km/h | 5039m | 8.7m/s | 0°C | 0% | 0hPa | 0V | 00:00:00 | 00:00:00 | 00:00:00 | |
| SQ6EMJ | 2026-09-03 23:30:33 | 51.07399 | 17.07774 | 124° | 49km/h | 4947m | 4.1m/s | 0°C | 0% | 0hPa | 0V | 00:00:00 | 00:00:00 | 00:00:00 | |
| SQ6EMJ | 2026-09-03 23:30:25 | 51.07470 | 17.07610 | 133° | 60km/h | 4893m | 5.6m/s | 0°C | 0% | 0hPa | 0V | 00:00:00 | 00:00:00 | 00:00:00 | |
| SQ6EMJ | 2026-09-03 23:30:20 | 51.07500 | 17.07523 | 113° | 55km/h | 4862m | 5.5m/s | 0°C | 0% | 0hPa | 0V | 00:00:00 | 00:00:00 | 00:00:00 | |
| SQ6EMJ | 2026-09-03 23:30:13 | 51.07556 | 17.07356 | 115° | 57km/h | 4823m | 4.4m/s | 0°C | 0% | 0hPa | 0V | 00:00:00 | 00:00:00 | 00:00:00 | |
| SQ6EMJ | 2026-09-03 23:29:13 | 51.07937 | 17.05992 | 122° | 64km/h | 4496m | 6.0m/s | 0°C | 0% | 0hPa | 0V | 00:00:00 | 00:00:00 | 00:00:00 | |
| SQ6EMJ | 2026-09-03 23:29:07 | 51.07974 | 17.05865 | 120° | 73km/h | 4464m | 5.0m/s | 0°C | 0% | 0hPa | 0V | 00:00:00 | 00:00:00 | 00:00:00 | |
| SQ6EMJ | 2026-09-03 23:29:01 | 51.08006 | 17.05722 | 106° | 66km/h | 4431m | 4.9m/s | 0°C | 0% | 0hPa | 0V | 00:00:00 | 00:00:00 | 00:00:00 | |
| SQ6EMJ | 2026-09-03 23:28:55 | 51.08045 | 17.05597 | 123° | 51km/h | 4405m | 3.2m/s | 0°C | 0% | 0hPa | 0V | 00:00:00 | 00:00:00 | 00:00:00 | |
| SQ6EMJ | 2026-09-03 23:28:50 | 51.08066 | 17.05487 | 98° | 62km/h | 4379m | 3.5m/s | 0°C | 0% | 0hPa | 0V | 00:00:00 | 00:00:00 | 00:00:00 | |
| SQ6EMJ | 2026-09-03 23:28:44 | 51.08106 | 17.05351 | 121° | 68km/h | 4349m | 4.2m/s | 0°C | 0% | 0hPa | 0V | 00:00:00 | 00:00:00 | 00:00:00 | |
| SQ6EMJ | 2026-09-03 23:28:28 | 51.08218 | 17.05014 | 114° | 58km/h | 4261m | 4.6m/s | 0°C | 0% | 0hPa | 0V | 00:00:00 | 00:00:00 | 00:00:00 |